<?xml version="1.0" encoding="UTF-8" standalone="no" ?>
<gpx xmlns="http://www.topografix.com/GPX/1/1" xmlns:xsi="http://www.w3.org/2001/XMLSchema-instance" xsi:schemaLocation="http://www.topografix.com/GPX/1/1 http://www.topografix.com/GPX/1/1/gpx.xsd" version="1.1" creator="VisuGPX - https://www.visugpx.com">
  <metadata>
    <name>Rando du TACOT Saint Antoine l'Abbaye</name>
    <desc><![CDATA[Rando du TACOT Saint Antoine l'Abbaye 2017, 50 km.
Un passage surprenant dans un goulet vers la fin du parcours.]]></desc>
  </metadata>
  <wpt lat="45.17385" lon="5.21889">
    <ele>362</ele>
  </wpt>
  <wpt lat="45.17295" lon="5.21843">
    <ele>352</ele>
  </wpt>
  <trk>
    <name><![CDATA[Rando du TACOT Saint Antoine l'Abbaye_1]]></name>
    <trkseg>
      <trkpt lat="45.17385" lon="5.21889">
        <ele>362</ele>
        <time>2017-05-07T07:50:16Z</time>
      </trkpt>
      <trkpt lat="45.17395" lon="5.2189">
        <ele>363</ele>
        <time>2017-05-07T07:50:46Z</time>
      </trkpt>
      <trkpt lat="45.17405" lon="5.21888">
        <ele>363</ele>
        <time>2017-05-07T07:50:51Z</time>
      </trkpt>
      <trkpt lat="45.17408" lon="5.21875">
        <ele>363</ele>
        <time>2017-05-07T07:50:57Z</time>
      </trkpt>
      <trkpt lat="45.1741" lon="5.21861">
        <ele>363</ele>
        <time>2017-05-07T07:51:04Z</time>
      </trkpt>
      <trkpt lat="45.17414" lon="5.21848">
        <ele>364</ele>
        <time>2017-05-07T07:51:10Z</time>
      </trkpt>
      <trkpt lat="45.17418" lon="5.21836">
        <ele>368</ele>
        <time>2017-05-07T07:51:45Z</time>
      </trkpt>
      <trkpt lat="45.17423" lon="5.21823">
        <ele>368</ele>
        <time>2017-05-07T07:51:52Z</time>
      </trkpt>
      <trkpt lat="45.17428" lon="5.21809">
        <ele>369</ele>
        <time>2017-05-07T07:52:10Z</time>
      </trkpt>
      <trkpt lat="45.17436" lon="5.21797">
        <ele>369</ele>
        <time>2017-05-07T07:52:16Z</time>
      </trkpt>
      <trkpt lat="45.17443" lon="5.21784">
        <ele>369</ele>
        <time>2017-05-07T07:52:21Z</time>
      </trkpt>
      <trkpt lat="45.1744" lon="5.21769">
        <ele>368</ele>
        <time>2017-05-07T07:52:28Z</time>
      </trkpt>
      <trkpt lat="45.17438" lon="5.21754">
        <ele>368</ele>
        <time>2017-05-07T07:52:32Z</time>
      </trkpt>
      <trkpt lat="45.17444" lon="5.21743">
        <ele>366</ele>
        <time>2017-05-07T07:52:35Z</time>
      </trkpt>
      <trkpt lat="45.17458" lon="5.21742">
        <ele>367</ele>
        <time>2017-05-07T07:52:40Z</time>
      </trkpt>
      <trkpt lat="45.1747" lon="5.21743">
        <ele>368</ele>
        <time>2017-05-07T07:52:44Z</time>
      </trkpt>
      <trkpt lat="45.1748" lon="5.21736">
        <ele>369</ele>
        <time>2017-05-07T07:52:47Z</time>
      </trkpt>
      <trkpt lat="45.17491" lon="5.21728">
        <ele>369</ele>
        <time>2017-05-07T07:52:51Z</time>
      </trkpt>
      <trkpt lat="45.17502" lon="5.21726">
        <ele>374</ele>
        <time>2017-05-07T07:52:55Z</time>
      </trkpt>
      <trkpt lat="45.1751" lon="5.2171">
        <ele>374</ele>
        <time>2017-05-07T07:52:59Z</time>
      </trkpt>
      <trkpt lat="45.17516" lon="5.21694">
        <ele>374</ele>
        <time>2017-05-07T07:53:02Z</time>
      </trkpt>
      <trkpt lat="45.1752" lon="5.2168">
        <ele>373</ele>
        <time>2017-05-07T07:53:06Z</time>
      </trkpt>
      <trkpt lat="45.17526" lon="5.21667">
        <ele>374</ele>
        <time>2017-05-07T07:53:11Z</time>
      </trkpt>
      <trkpt lat="45.17533" lon="5.21657">
        <ele>371</ele>
        <time>2017-05-07T07:53:16Z</time>
      </trkpt>
      <trkpt lat="45.17536" lon="5.21641">
        <ele>371</ele>
        <time>2017-05-07T07:53:21Z</time>
      </trkpt>
      <trkpt lat="45.17538" lon="5.21627">
        <ele>371</ele>
        <time>2017-05-07T07:53:25Z</time>
      </trkpt>
      <trkpt lat="45.17547" lon="5.21621">
        <ele>371</ele>
        <time>2017-05-07T07:53:29Z</time>
      </trkpt>
      <trkpt lat="45.1754" lon="5.21611">
        <ele>370</ele>
        <time>2017-05-07T07:53:32Z</time>
      </trkpt>
      <trkpt lat="45.17548" lon="5.21586">
        <ele>370</ele>
        <time>2017-05-07T07:53:38Z</time>
      </trkpt>
      <trkpt lat="45.17566" lon="5.2158">
        <ele>368</ele>
        <time>2017-05-07T07:53:40Z</time>
      </trkpt>
      <trkpt lat="45.17584" lon="5.21576">
        <ele>372</ele>
        <time>2017-05-07T07:53:42Z</time>
      </trkpt>
      <trkpt lat="45.17594" lon="5.21564">
        <ele>370</ele>
        <time>2017-05-07T07:53:44Z</time>
      </trkpt>
      <trkpt lat="45.17605" lon="5.21555">
        <ele>369</ele>
        <time>2017-05-07T07:53:46Z</time>
      </trkpt>
      <trkpt lat="45.17616" lon="5.21549">
        <ele>369</ele>
        <time>2017-05-07T07:53:48Z</time>
      </trkpt>
      <trkpt lat="45.17628" lon="5.21543">
        <ele>368</ele>
        <time>2017-05-07T07:53:50Z</time>
      </trkpt>
      <trkpt lat="45.17638" lon="5.21538">
        <ele>368</ele>
        <time>2017-05-07T07:53:52Z</time>
      </trkpt>
      <trkpt lat="45.1765" lon="5.21536">
        <ele>368</ele>
        <time>2017-05-07T07:53:54Z</time>
      </trkpt>
      <trkpt lat="45.17661" lon="5.21521">
        <ele>367</ele>
        <time>2017-05-07T07:53:56Z</time>
      </trkpt>
      <trkpt lat="45.17682" lon="5.21496">
        <ele>365</ele>
        <time>2017-05-07T07:54:00Z</time>
      </trkpt>
      <trkpt lat="45.17692" lon="5.21484">
        <ele>365</ele>
        <time>2017-05-07T07:54:01Z</time>
      </trkpt>
      <trkpt lat="45.17695" lon="5.2147">
        <ele>365</ele>
        <time>2017-05-07T07:54:05Z</time>
      </trkpt>
      <trkpt lat="45.177" lon="5.21458">
        <ele>364</ele>
        <time>2017-05-07T07:54:10Z</time>
      </trkpt>
      <trkpt lat="45.17705" lon="5.21443">
        <ele>364</ele>
        <time>2017-05-07T07:54:15Z</time>
      </trkpt>
      <trkpt lat="45.17712" lon="5.21433">
        <ele>364</ele>
        <time>2017-05-07T07:54:19Z</time>
      </trkpt>
      <trkpt lat="45.17719" lon="5.21424">
        <ele>363</ele>
        <time>2017-05-07T07:54:22Z</time>
      </trkpt>
      <trkpt lat="45.17727" lon="5.21416">
        <ele>363</ele>
        <time>2017-05-07T07:54:26Z</time>
      </trkpt>
      <trkpt lat="45.17734" lon="5.21407">
        <ele>363</ele>
        <time>2017-05-07T07:54:29Z</time>
      </trkpt>
      <trkpt lat="45.17742" lon="5.21398">
        <ele>364</ele>
        <time>2017-05-07T07:54:32Z</time>
      </trkpt>
      <trkpt lat="45.17752" lon="5.21389">
        <ele>364</ele>
        <time>2017-05-07T07:54:35Z</time>
      </trkpt>
      <trkpt lat="45.17766" lon="5.21377">
        <ele>365</ele>
        <time>2017-05-07T07:54:39Z</time>
      </trkpt>
      <trkpt lat="45.17778" lon="5.21371">
        <ele>366</ele>
        <time>2017-05-07T07:54:42Z</time>
      </trkpt>
      <trkpt lat="45.1779" lon="5.2137">
        <ele>366</ele>
        <time>2017-05-07T07:54:45Z</time>
      </trkpt>
      <trkpt lat="45.17801" lon="5.21368">
        <ele>366</ele>
        <time>2017-05-07T07:54:48Z</time>
      </trkpt>
      <trkpt lat="45.17812" lon="5.21364">
        <ele>366</ele>
        <time>2017-05-07T07:54:51Z</time>
      </trkpt>
      <trkpt lat="45.17823" lon="5.21362">
        <ele>366</ele>
        <time>2017-05-07T07:54:54Z</time>
      </trkpt>
      <trkpt lat="45.17834" lon="5.2136">
        <ele>368</ele>
        <time>2017-05-07T07:54:57Z</time>
      </trkpt>
      <trkpt lat="45.17844" lon="5.21358">
        <ele>368</ele>
        <time>2017-05-07T07:55:00Z</time>
      </trkpt>
      <trkpt lat="45.17853" lon="5.21353">
        <ele>369</ele>
        <time>2017-05-07T07:55:03Z</time>
      </trkpt>
      <trkpt lat="45.17863" lon="5.21351">
        <ele>369</ele>
        <time>2017-05-07T07:55:06Z</time>
      </trkpt>
      <trkpt lat="45.17874" lon="5.2135">
        <ele>369</ele>
        <time>2017-05-07T07:55:10Z</time>
      </trkpt>
      <trkpt lat="45.17884" lon="5.21347">
        <ele>369</ele>
        <time>2017-05-07T07:55:14Z</time>
      </trkpt>
      <trkpt lat="45.17895" lon="5.21347">
        <ele>369</ele>
        <time>2017-05-07T07:55:18Z</time>
      </trkpt>
      <trkpt lat="45.17905" lon="5.21345">
        <ele>370</ele>
        <time>2017-05-07T07:55:22Z</time>
      </trkpt>
      <trkpt lat="45.17915" lon="5.21345">
        <ele>370</ele>
        <time>2017-05-07T07:55:26Z</time>
      </trkpt>
      <trkpt lat="45.17926" lon="5.21345">
        <ele>372</ele>
        <time>2017-05-07T07:55:31Z</time>
      </trkpt>
      <trkpt lat="45.17936" lon="5.21342">
        <ele>373</ele>
        <time>2017-05-07T07:55:35Z</time>
      </trkpt>
      <trkpt lat="45.17944" lon="5.21331">
        <ele>375</ele>
        <time>2017-05-07T07:55:40Z</time>
      </trkpt>
      <trkpt lat="45.17952" lon="5.21323">
        <ele>376</ele>
        <time>2017-05-07T07:55:44Z</time>
      </trkpt>
      <trkpt lat="45.17959" lon="5.21311">
        <ele>377</ele>
        <time>2017-05-07T07:55:50Z</time>
      </trkpt>
      <trkpt lat="45.17968" lon="5.21303">
        <ele>377</ele>
        <time>2017-05-07T07:55:56Z</time>
      </trkpt>
      <trkpt lat="45.17975" lon="5.2129">
        <ele>378</ele>
        <time>2017-05-07T07:56:04Z</time>
      </trkpt>
      <trkpt lat="45.17986" lon="5.21292">
        <ele>378</ele>
        <time>2017-05-07T07:56:09Z</time>
      </trkpt>
      <trkpt lat="45.17996" lon="5.21291">
        <ele>378</ele>
        <time>2017-05-07T07:56:16Z</time>
      </trkpt>
      <trkpt lat="45.18006" lon="5.21294">
        <ele>381</ele>
        <time>2017-05-07T07:56:22Z</time>
      </trkpt>
      <trkpt lat="45.18015" lon="5.21293">
        <ele>381</ele>
        <time>2017-05-07T07:56:28Z</time>
      </trkpt>
      <trkpt lat="45.18024" lon="5.21284">
        <ele>381</ele>
        <time>2017-05-07T07:56:33Z</time>
      </trkpt>
      <trkpt lat="45.18033" lon="5.21274">
        <ele>381</ele>
        <time>2017-05-07T07:56:39Z</time>
      </trkpt>
      <trkpt lat="45.1804" lon="5.21265">
        <ele>381</ele>
        <time>2017-05-07T07:56:43Z</time>
      </trkpt>
      <trkpt lat="45.18048" lon="5.21251">
        <ele>381</ele>
        <time>2017-05-07T07:56:47Z</time>
      </trkpt>
      <trkpt lat="45.18057" lon="5.21241">
        <ele>385</ele>
        <time>2017-05-07T07:56:51Z</time>
      </trkpt>
      <trkpt lat="45.18067" lon="5.21234">
        <ele>385</ele>
        <time>2017-05-07T07:56:56Z</time>
      </trkpt>
      <trkpt lat="45.18073" lon="5.2122">
        <ele>386</ele>
        <time>2017-05-07T07:57:01Z</time>
      </trkpt>
      <trkpt lat="45.18081" lon="5.2121">
        <ele>387</ele>
        <time>2017-05-07T07:57:05Z</time>
      </trkpt>
      <trkpt lat="45.18087" lon="5.21199">
        <ele>388</ele>
        <time>2017-05-07T07:57:09Z</time>
      </trkpt>
      <trkpt lat="45.18093" lon="5.21189">
        <ele>389</ele>
        <time>2017-05-07T07:57:16Z</time>
      </trkpt>
      <trkpt lat="45.18101" lon="5.21181">
        <ele>389</ele>
        <time>2017-05-07T07:57:20Z</time>
      </trkpt>
      <trkpt lat="45.18109" lon="5.21174">
        <ele>389</ele>
        <time>2017-05-07T07:57:23Z</time>
      </trkpt>
      <trkpt lat="45.18118" lon="5.21168">
        <ele>390</ele>
        <time>2017-05-07T07:57:27Z</time>
      </trkpt>
      <trkpt lat="45.18127" lon="5.21163">
        <ele>396</ele>
        <time>2017-05-07T07:57:30Z</time>
      </trkpt>
      <trkpt lat="45.18135" lon="5.21152">
        <ele>397</ele>
        <time>2017-05-07T07:57:34Z</time>
      </trkpt>
      <trkpt lat="45.1814" lon="5.21139">
        <ele>398</ele>
        <time>2017-05-07T07:57:40Z</time>
      </trkpt>
      <trkpt lat="45.18148" lon="5.21132">
        <ele>398</ele>
        <time>2017-05-07T07:57:46Z</time>
      </trkpt>
      <trkpt lat="45.18155" lon="5.21121">
        <ele>399</ele>
        <time>2017-05-07T07:57:52Z</time>
      </trkpt>
      <trkpt lat="45.18162" lon="5.21113">
        <ele>399</ele>
        <time>2017-05-07T07:57:57Z</time>
      </trkpt>
      <trkpt lat="45.18169" lon="5.21103">
        <ele>400</ele>
        <time>2017-05-07T07:58:01Z</time>
      </trkpt>
      <trkpt lat="45.18177" lon="5.21092">
        <ele>400</ele>
        <time>2017-05-07T07:58:04Z</time>
      </trkpt>
      <trkpt lat="45.18181" lon="5.2108">
        <ele>404</ele>
        <time>2017-05-07T07:58:07Z</time>
      </trkpt>
      <trkpt lat="45.18188" lon="5.21071">
        <ele>405</ele>
        <time>2017-05-07T07:58:11Z</time>
      </trkpt>
      <trkpt lat="45.18196" lon="5.21063">
        <ele>406</ele>
        <time>2017-05-07T07:58:16Z</time>
      </trkpt>
      <trkpt lat="45.18206" lon="5.21058">
        <ele>406</ele>
        <time>2017-05-07T07:58:21Z</time>
      </trkpt>
      <trkpt lat="45.18214" lon="5.2105">
        <ele>406</ele>
        <time>2017-05-07T07:58:27Z</time>
      </trkpt>
      <trkpt lat="45.18224" lon="5.21051">
        <ele>406</ele>
        <time>2017-05-07T07:58:31Z</time>
      </trkpt>
      <trkpt lat="45.18232" lon="5.21044">
        <ele>406</ele>
        <time>2017-05-07T07:58:39Z</time>
      </trkpt>
      <trkpt lat="45.1824" lon="5.21035">
        <ele>407</ele>
        <time>2017-05-07T07:58:56Z</time>
      </trkpt>
      <trkpt lat="45.18242" lon="5.21023">
        <ele>408</ele>
        <time>2017-05-07T07:59:07Z</time>
      </trkpt>
      <trkpt lat="45.18251" lon="5.21018">
        <ele>405</ele>
        <time>2017-05-07T07:59:18Z</time>
      </trkpt>
      <trkpt lat="45.1826" lon="5.21013">
        <ele>405</ele>
        <time>2017-05-07T07:59:24Z</time>
      </trkpt>
      <trkpt lat="45.1827" lon="5.21011">
        <ele>404</ele>
        <time>2017-05-07T07:59:30Z</time>
      </trkpt>
      <trkpt lat="45.18278" lon="5.21007">
        <ele>403</ele>
        <time>2017-05-07T07:59:35Z</time>
      </trkpt>
      <trkpt lat="45.18289" lon="5.21006">
        <ele>402</ele>
        <time>2017-05-07T07:59:41Z</time>
      </trkpt>
      <trkpt lat="45.18299" lon="5.21">
        <ele>401</ele>
        <time>2017-05-07T07:59:48Z</time>
      </trkpt>
      <trkpt lat="45.1831" lon="5.20999">
        <ele>402</ele>
        <time>2017-05-07T07:59:54Z</time>
      </trkpt>
      <trkpt lat="45.18319" lon="5.20998">
        <ele>400</ele>
        <time>2017-05-07T07:59:58Z</time>
      </trkpt>
      <trkpt lat="45.18328" lon="5.20991">
        <ele>399</ele>
        <time>2017-05-07T08:00:05Z</time>
      </trkpt>
      <trkpt lat="45.18337" lon="5.20984">
        <ele>398</ele>
        <time>2017-05-07T08:00:12Z</time>
      </trkpt>
      <trkpt lat="45.18346" lon="5.20979">
        <ele>400</ele>
        <time>2017-05-07T08:00:17Z</time>
      </trkpt>
      <trkpt lat="45.18356" lon="5.20971">
        <ele>401</ele>
        <time>2017-05-07T08:00:22Z</time>
      </trkpt>
      <trkpt lat="45.18365" lon="5.20966">
        <ele>401</ele>
        <time>2017-05-07T08:00:29Z</time>
      </trkpt>
      <trkpt lat="45.18376" lon="5.20963">
        <ele>402</ele>
        <time>2017-05-07T08:00:39Z</time>
      </trkpt>
      <trkpt lat="45.18384" lon="5.20956">
        <ele>403</ele>
        <time>2017-05-07T08:00:44Z</time>
      </trkpt>
      <trkpt lat="45.18394" lon="5.20952">
        <ele>404</ele>
        <time>2017-05-07T08:00:53Z</time>
      </trkpt>
      <trkpt lat="45.18404" lon="5.20949">
        <ele>404</ele>
        <time>2017-05-07T08:00:59Z</time>
      </trkpt>
      <trkpt lat="45.18414" lon="5.20947">
        <ele>405</ele>
        <time>2017-05-07T08:01:04Z</time>
      </trkpt>
      <trkpt lat="45.18425" lon="5.20943">
        <ele>407</ele>
        <time>2017-05-07T08:01:18Z</time>
      </trkpt>
      <trkpt lat="45.18433" lon="5.20938">
        <ele>407</ele>
        <time>2017-05-07T08:01:22Z</time>
      </trkpt>
      <trkpt lat="45.1844" lon="5.20928">
        <ele>408</ele>
        <time>2017-05-07T08:01:26Z</time>
      </trkpt>
      <trkpt lat="45.1845" lon="5.20926">
        <ele>407</ele>
        <time>2017-05-07T08:01:32Z</time>
      </trkpt>
      <trkpt lat="45.18459" lon="5.2092">
        <ele>407</ele>
        <time>2017-05-07T08:01:38Z</time>
      </trkpt>
      <trkpt lat="45.18469" lon="5.20921">
        <ele>407</ele>
        <time>2017-05-07T08:01:44Z</time>
      </trkpt>
      <trkpt lat="45.18479" lon="5.20926">
        <ele>407</ele>
        <time>2017-05-07T08:01:51Z</time>
      </trkpt>
      <trkpt lat="45.18489" lon="5.20925">
        <ele>407</ele>
        <time>2017-05-07T08:02:00Z</time>
      </trkpt>
      <trkpt lat="45.18499" lon="5.20924">
        <ele>407</ele>
        <time>2017-05-07T08:02:10Z</time>
      </trkpt>
      <trkpt lat="45.18509" lon="5.20918">
        <ele>407</ele>
        <time>2017-05-07T08:02:18Z</time>
      </trkpt>
      <trkpt lat="45.18519" lon="5.20916">
        <ele>409</ele>
        <time>2017-05-07T08:02:25Z</time>
      </trkpt>
      <trkpt lat="45.18527" lon="5.20906">
        <ele>409</ele>
        <time>2017-05-07T08:02:31Z</time>
      </trkpt>
      <trkpt lat="45.18538" lon="5.20906">
        <ele>409</ele>
        <time>2017-05-07T08:02:38Z</time>
      </trkpt>
      <trkpt lat="45.18547" lon="5.20902">
        <ele>408</ele>
        <time>2017-05-07T08:02:44Z</time>
      </trkpt>
      <trkpt lat="45.18557" lon="5.20894">
        <ele>408</ele>
        <time>2017-05-07T08:02:51Z</time>
      </trkpt>
      <trkpt lat="45.18566" lon="5.20894">
        <ele>407</ele>
        <time>2017-05-07T08:02:57Z</time>
      </trkpt>
      <trkpt lat="45.18576" lon="5.20888">
        <ele>407</ele>
        <time>2017-05-07T08:03:15Z</time>
      </trkpt>
      <trkpt lat="45.18585" lon="5.20882">
        <ele>407</ele>
        <time>2017-05-07T08:03:18Z</time>
      </trkpt>
      <trkpt lat="45.18594" lon="5.20885">
        <ele>407</ele>
        <time>2017-05-07T08:03:26Z</time>
      </trkpt>
      <trkpt lat="45.18592" lon="5.20871">
        <ele>408</ele>
        <time>2017-05-07T08:03:47Z</time>
      </trkpt>
      <trkpt lat="45.18597" lon="5.2086">
        <ele>408</ele>
        <time>2017-05-07T08:04:03Z</time>
      </trkpt>
      <trkpt lat="45.18599" lon="5.20846">
        <ele>408</ele>
        <time>2017-05-07T08:04:10Z</time>
      </trkpt>
      <trkpt lat="45.18609" lon="5.20846">
        <ele>409</ele>
        <time>2017-05-07T08:04:39Z</time>
      </trkpt>
      <trkpt lat="45.18618" lon="5.20849">
        <ele>409</ele>
        <time>2017-05-07T08:04:49Z</time>
      </trkpt>
      <trkpt lat="45.18628" lon="5.20852">
        <ele>409</ele>
        <time>2017-05-07T08:04:58Z</time>
      </trkpt>
      <trkpt lat="45.18637" lon="5.20849">
        <ele>410</ele>
        <time>2017-05-07T08:05:31Z</time>
      </trkpt>
      <trkpt lat="45.18648" lon="5.2085">
        <ele>410</ele>
        <time>2017-05-07T08:05:54Z</time>
      </trkpt>
      <trkpt lat="45.18658" lon="5.2085">
        <ele>411</ele>
        <time>2017-05-07T08:05:59Z</time>
      </trkpt>
      <trkpt lat="45.18668" lon="5.20847">
        <ele>414</ele>
        <time>2017-05-07T08:06:13Z</time>
      </trkpt>
      <trkpt lat="45.18674" lon="5.20836">
        <ele>414</ele>
        <time>2017-05-07T08:06:23Z</time>
      </trkpt>
      <trkpt lat="45.18681" lon="5.20826">
        <ele>414</ele>
        <time>2017-05-07T08:06:33Z</time>
      </trkpt>
      <trkpt lat="45.18689" lon="5.2082">
        <ele>416</ele>
        <time>2017-05-07T08:06:37Z</time>
      </trkpt>
      <trkpt lat="45.18691" lon="5.20806">
        <ele>416</ele>
        <time>2017-05-07T08:06:47Z</time>
      </trkpt>
      <trkpt lat="45.18696" lon="5.20793">
        <ele>417</ele>
        <time>2017-05-07T08:07:01Z</time>
      </trkpt>
      <trkpt lat="45.18701" lon="5.20779">
        <ele>417</ele>
        <time>2017-05-07T08:07:09Z</time>
      </trkpt>
      <trkpt lat="45.18708" lon="5.20768">
        <ele>417</ele>
        <time>2017-05-07T08:07:19Z</time>
      </trkpt>
      <trkpt lat="45.18716" lon="5.20759">
        <ele>418</ele>
        <time>2017-05-07T08:07:28Z</time>
      </trkpt>
      <trkpt lat="45.18723" lon="5.2075">
        <ele>420</ele>
        <time>2017-05-07T08:07:34Z</time>
      </trkpt>
      <trkpt lat="45.18732" lon="5.20744">
        <ele>420</ele>
        <time>2017-05-07T08:07:40Z</time>
      </trkpt>
      <trkpt lat="45.18742" lon="5.20744">
        <ele>421</ele>
        <time>2017-05-07T08:07:46Z</time>
      </trkpt>
      <trkpt lat="45.18751" lon="5.2074">
        <ele>423</ele>
        <time>2017-05-07T08:07:53Z</time>
      </trkpt>
      <trkpt lat="45.18762" lon="5.2074">
        <ele>423</ele>
        <time>2017-05-07T08:07:59Z</time>
      </trkpt>
      <trkpt lat="45.18774" lon="5.20736">
        <ele>423</ele>
        <time>2017-05-07T08:08:04Z</time>
      </trkpt>
      <trkpt lat="45.18783" lon="5.20731">
        <ele>423</ele>
        <time>2017-05-07T08:08:09Z</time>
      </trkpt>
      <trkpt lat="45.18792" lon="5.20726">
        <ele>424</ele>
        <time>2017-05-07T08:08:13Z</time>
      </trkpt>
      <trkpt lat="45.18802" lon="5.20724">
        <ele>424</ele>
        <time>2017-05-07T08:08:17Z</time>
      </trkpt>
      <trkpt lat="45.18813" lon="5.20716">
        <ele>424</ele>
        <time>2017-05-07T08:08:22Z</time>
      </trkpt>
      <trkpt lat="45.18822" lon="5.20713">
        <ele>424</ele>
        <time>2017-05-07T08:08:26Z</time>
      </trkpt>
      <trkpt lat="45.18832" lon="5.20708">
        <ele>424</ele>
        <time>2017-05-07T08:08:31Z</time>
      </trkpt>
      <trkpt lat="45.18841" lon="5.20701">
        <ele>426</ele>
        <time>2017-05-07T08:08:36Z</time>
      </trkpt>
      <trkpt lat="45.18849" lon="5.20693">
        <ele>427</ele>
        <time>2017-05-07T08:08:41Z</time>
      </trkpt>
      <trkpt lat="45.18858" lon="5.20683">
        <ele>427</ele>
        <time>2017-05-07T08:08:46Z</time>
      </trkpt>
      <trkpt lat="45.18866" lon="5.20675">
        <ele>427</ele>
        <time>2017-05-07T08:08:51Z</time>
      </trkpt>
      <trkpt lat="45.18877" lon="5.20664">
        <ele>428</ele>
        <time>2017-05-07T08:08:58Z</time>
      </trkpt>
      <trkpt lat="45.18887" lon="5.20657">
        <ele>428</ele>
        <time>2017-05-07T08:09:03Z</time>
      </trkpt>
      <trkpt lat="45.18895" lon="5.20647">
        <ele>429</ele>
        <time>2017-05-07T08:09:08Z</time>
      </trkpt>
      <trkpt lat="45.18903" lon="5.20641">
        <ele>429</ele>
        <time>2017-05-07T08:09:13Z</time>
      </trkpt>
      <trkpt lat="45.18911" lon="5.20633">
        <ele>429</ele>
        <time>2017-05-07T08:09:18Z</time>
      </trkpt>
      <trkpt lat="45.1892" lon="5.20626">
        <ele>432</ele>
        <time>2017-05-07T08:09:23Z</time>
      </trkpt>
      <trkpt lat="45.1893" lon="5.2062">
        <ele>432</ele>
        <time>2017-05-07T08:09:30Z</time>
      </trkpt>
      <trkpt lat="45.18938" lon="5.20614">
        <ele>432</ele>
        <time>2017-05-07T08:09:37Z</time>
      </trkpt>
      <trkpt lat="45.18947" lon="5.20607">
        <ele>433</ele>
        <time>2017-05-07T08:09:45Z</time>
      </trkpt>
      <trkpt lat="45.18957" lon="5.20602">
        <ele>434</ele>
        <time>2017-05-07T08:09:52Z</time>
      </trkpt>
      <trkpt lat="45.18967" lon="5.20597">
        <ele>435</ele>
        <time>2017-05-07T08:10:00Z</time>
      </trkpt>
      <trkpt lat="45.18976" lon="5.20589">
        <ele>436</ele>
        <time>2017-05-07T08:10:09Z</time>
      </trkpt>
      <trkpt lat="45.18984" lon="5.20581">
        <ele>440</ele>
        <time>2017-05-07T08:10:15Z</time>
      </trkpt>
      <trkpt lat="45.18991" lon="5.20572">
        <ele>440</ele>
        <time>2017-05-07T08:10:22Z</time>
      </trkpt>
      <trkpt lat="45.18998" lon="5.2056">
        <ele>440</ele>
        <time>2017-05-07T08:10:30Z</time>
      </trkpt>
      <trkpt lat="45.19005" lon="5.20549">
        <ele>444</ele>
        <time>2017-05-07T08:10:38Z</time>
      </trkpt>
      <trkpt lat="45.19013" lon="5.20538">
        <ele>444</ele>
        <time>2017-05-07T08:10:44Z</time>
      </trkpt>
      <trkpt lat="45.1902" lon="5.20529">
        <ele>445</ele>
        <time>2017-05-07T08:10:50Z</time>
      </trkpt>
      <trkpt lat="45.19029" lon="5.20519">
        <ele>445</ele>
        <time>2017-05-07T08:10:56Z</time>
      </trkpt>
      <trkpt lat="45.19038" lon="5.20512">
        <ele>445</ele>
        <time>2017-05-07T08:11:01Z</time>
      </trkpt>
      <trkpt lat="45.19046" lon="5.20503">
        <ele>446</ele>
        <time>2017-05-07T08:11:07Z</time>
      </trkpt>
      <trkpt lat="45.19055" lon="5.20494">
        <ele>447</ele>
        <time>2017-05-07T08:11:12Z</time>
      </trkpt>
      <trkpt lat="45.19062" lon="5.20485">
        <ele>447</ele>
        <time>2017-05-07T08:11:16Z</time>
      </trkpt>
      <trkpt lat="45.19069" lon="5.20476">
        <ele>447</ele>
        <time>2017-05-07T08:11:20Z</time>
      </trkpt>
      <trkpt lat="45.19076" lon="5.20464">
        <ele>447</ele>
        <time>2017-05-07T08:11:24Z</time>
      </trkpt>
      <trkpt lat="45.19082" lon="5.20452">
        <ele>447</ele>
        <time>2017-05-07T08:11:28Z</time>
      </trkpt>
      <trkpt lat="45.19087" lon="5.20439">
        <ele>448</ele>
        <time>2017-05-07T08:11:31Z</time>
      </trkpt>
      <trkpt lat="45.19092" lon="5.20424">
        <ele>448</ele>
        <time>2017-05-07T08:11:34Z</time>
      </trkpt>
      <trkpt lat="45.19095" lon="5.20408">
        <ele>447</ele>
        <time>2017-05-07T08:11:37Z</time>
      </trkpt>
      <trkpt lat="45.191" lon="5.20396">
        <ele>447</ele>
        <time>2017-05-07T08:11:40Z</time>
      </trkpt>
      <trkpt lat="45.19107" lon="5.20383">
        <ele>446</ele>
        <time>2017-05-07T08:11:44Z</time>
      </trkpt>
      <trkpt lat="45.19115" lon="5.20373">
        <ele>446</ele>
        <time>2017-05-07T08:11:49Z</time>
      </trkpt>
      <trkpt lat="45.19122" lon="5.20362">
        <ele>445</ele>
        <time>2017-05-07T08:11:54Z</time>
      </trkpt>
      <trkpt lat="45.19131" lon="5.20349">
        <ele>445</ele>
        <time>2017-05-07T08:11:58Z</time>
      </trkpt>
      <trkpt lat="45.19139" lon="5.20338">
        <ele>445</ele>
        <time>2017-05-07T08:12:01Z</time>
      </trkpt>
      <trkpt lat="45.19149" lon="5.20326">
        <ele>444</ele>
        <time>2017-05-07T08:12:04Z</time>
      </trkpt>
      <trkpt lat="45.19161" lon="5.20316">
        <ele>444</ele>
        <time>2017-05-07T08:12:07Z</time>
      </trkpt>
      <trkpt lat="45.19169" lon="5.2031">
        <ele>445</ele>
        <time>2017-05-07T08:12:09Z</time>
      </trkpt>
      <trkpt lat="45.19181" lon="5.20303">
        <ele>445</ele>
        <time>2017-05-07T08:12:12Z</time>
      </trkpt>
      <trkpt lat="45.19191" lon="5.20299">
        <ele>445</ele>
        <time>2017-05-07T08:12:15Z</time>
      </trkpt>
      <trkpt lat="45.192" lon="5.20295">
        <ele>445</ele>
        <time>2017-05-07T08:12:18Z</time>
      </trkpt>
      <trkpt lat="45.19209" lon="5.20291">
        <ele>446</ele>
        <time>2017-05-07T08:12:21Z</time>
      </trkpt>
      <trkpt lat="45.1922" lon="5.20287">
        <ele>446</ele>
        <time>2017-05-07T08:12:25Z</time>
      </trkpt>
      <trkpt lat="45.19232" lon="5.20283">
        <ele>446</ele>
        <time>2017-05-07T08:12:29Z</time>
      </trkpt>
      <trkpt lat="45.19241" lon="5.20279">
        <ele>446</ele>
        <time>2017-05-07T08:12:32Z</time>
      </trkpt>
      <trkpt lat="45.19253" lon="5.20276">
        <ele>449</ele>
        <time>2017-05-07T08:12:36Z</time>
      </trkpt>
      <trkpt lat="45.19263" lon="5.2027">
        <ele>449</ele>
        <time>2017-05-07T08:12:40Z</time>
      </trkpt>
      <trkpt lat="45.19272" lon="5.2026">
        <ele>449</ele>
        <time>2017-05-07T08:12:44Z</time>
      </trkpt>
      <trkpt lat="45.1928" lon="5.20252">
        <ele>449</ele>
        <time>2017-05-07T08:12:47Z</time>
      </trkpt>
      <trkpt lat="45.19287" lon="5.20242">
        <ele>450</ele>
        <time>2017-05-07T08:12:50Z</time>
      </trkpt>
      <trkpt lat="45.19294" lon="5.20232">
        <ele>451</ele>
        <time>2017-05-07T08:12:53Z</time>
      </trkpt>
      <trkpt lat="45.19302" lon="5.20223">
        <ele>451</ele>
        <time>2017-05-07T08:12:56Z</time>
      </trkpt>
      <trkpt lat="45.19308" lon="5.20214">
        <ele>451</ele>
        <time>2017-05-07T08:12:59Z</time>
      </trkpt>
      <trkpt lat="45.19318" lon="5.20203">
        <ele>452</ele>
        <time>2017-05-07T08:13:03Z</time>
      </trkpt>
      <trkpt lat="45.19328" lon="5.20194">
        <ele>452</ele>
        <time>2017-05-07T08:13:07Z</time>
      </trkpt>
      <trkpt lat="45.19344" lon="5.20192">
        <ele>456</ele>
        <time>2017-05-07T08:13:13Z</time>
      </trkpt>
      <trkpt lat="45.19354" lon="5.20192">
        <ele>456</ele>
        <time>2017-05-07T08:13:16Z</time>
      </trkpt>
      <trkpt lat="45.19365" lon="5.20192">
        <ele>456</ele>
        <time>2017-05-07T08:13:20Z</time>
      </trkpt>
      <trkpt lat="45.19375" lon="5.20194">
        <ele>456</ele>
        <time>2017-05-07T08:13:24Z</time>
      </trkpt>
      <trkpt lat="45.19386" lon="5.20193">
        <ele>457</ele>
        <time>2017-05-07T08:13:30Z</time>
      </trkpt>
      <trkpt lat="45.19396" lon="5.20193">
        <ele>457</ele>
        <time>2017-05-07T08:13:36Z</time>
      </trkpt>
      <trkpt lat="45.19406" lon="5.20187">
        <ele>458</ele>
        <time>2017-05-07T08:13:42Z</time>
      </trkpt>
      <trkpt lat="45.19416" lon="5.20183">
        <ele>459</ele>
        <time>2017-05-07T08:13:47Z</time>
      </trkpt>
      <trkpt lat="45.19426" lon="5.20178">
        <ele>461</ele>
        <time>2017-05-07T08:13:53Z</time>
      </trkpt>
      <trkpt lat="45.19435" lon="5.20179">
        <ele>461</ele>
        <time>2017-05-07T08:13:57Z</time>
      </trkpt>
      <trkpt lat="45.19445" lon="5.20181">
        <ele>462</ele>
        <time>2017-05-07T08:14:02Z</time>
      </trkpt>
      <trkpt lat="45.19454" lon="5.20178">
        <ele>462</ele>
        <time>2017-05-07T08:14:08Z</time>
      </trkpt>
      <trkpt lat="45.19463" lon="5.20176">
        <ele>463</ele>
        <time>2017-05-07T08:14:14Z</time>
      </trkpt>
      <trkpt lat="45.19473" lon="5.20178">
        <ele>463</ele>
        <time>2017-05-07T08:14:19Z</time>
      </trkpt>
      <trkpt lat="45.19483" lon="5.20176">
        <ele>464</ele>
        <time>2017-05-07T08:14:28Z</time>
      </trkpt>
      <trkpt lat="45.19492" lon="5.20167">
        <ele>466</ele>
        <time>2017-05-07T08:14:34Z</time>
      </trkpt>
      <trkpt lat="45.19502" lon="5.2016">
        <ele>469</ele>
        <time>2017-05-07T08:14:39Z</time>
      </trkpt>
      <trkpt lat="45.19512" lon="5.2016">
        <ele>471</ele>
        <time>2017-05-07T08:14:44Z</time>
      </trkpt>
      <trkpt lat="45.19521" lon="5.20165">
        <ele>472</ele>
        <time>2017-05-07T08:14:49Z</time>
      </trkpt>
      <trkpt lat="45.19531" lon="5.20168">
        <ele>470</ele>
        <time>2017-05-07T08:14:56Z</time>
      </trkpt>
      <trkpt lat="45.19541" lon="5.20171">
        <ele>471</ele>
        <time>2017-05-07T08:15:02Z</time>
      </trkpt>
      <trkpt lat="45.1955" lon="5.20175">
        <ele>472</ele>
        <time>2017-05-07T08:15:09Z</time>
      </trkpt>
      <trkpt lat="45.1956" lon="5.20176">
        <ele>473</ele>
        <time>2017-05-07T08:15:17Z</time>
      </trkpt>
      <trkpt lat="45.1957" lon="5.20176">
        <ele>474</ele>
        <time>2017-05-07T08:15:24Z</time>
      </trkpt>
      <trkpt lat="45.1958" lon="5.20179">
        <ele>475</ele>
        <time>2017-05-07T08:15:30Z</time>
      </trkpt>
      <trkpt lat="45.1959" lon="5.20179">
        <ele>480</ele>
        <time>2017-05-07T08:15:37Z</time>
      </trkpt>
      <trkpt lat="45.196" lon="5.2018">
        <ele>481</ele>
        <time>2017-05-07T08:15:43Z</time>
      </trkpt>
      <trkpt lat="45.19609" lon="5.20177">
        <ele>481</ele>
        <time>2017-05-07T08:15:51Z</time>
      </trkpt>
      <trkpt lat="45.19619" lon="5.20172">
        <ele>482</ele>
        <time>2017-05-07T08:15:56Z</time>
      </trkpt>
      <trkpt lat="45.1963" lon="5.20169">
        <ele>483</ele>
        <time>2017-05-07T08:16:01Z</time>
      </trkpt>
      <trkpt lat="45.1964" lon="5.20166">
        <ele>486</ele>
        <time>2017-05-07T08:16:07Z</time>
      </trkpt>
      <trkpt lat="45.19651" lon="5.20172">
        <ele>486</ele>
        <time>2017-05-07T08:16:14Z</time>
      </trkpt>
      <trkpt lat="45.19657" lon="5.20183">
        <ele>486</ele>
        <time>2017-05-07T08:16:17Z</time>
      </trkpt>
      <trkpt lat="45.1966" lon="5.20197">
        <ele>485</ele>
        <time>2017-05-07T08:16:21Z</time>
      </trkpt>
      <trkpt lat="45.19659" lon="5.20211">
        <ele>485</ele>
        <time>2017-05-07T08:16:28Z</time>
      </trkpt>
      <trkpt lat="45.1965" lon="5.2022">
        <ele>485</ele>
        <time>2017-05-07T08:16:33Z</time>
      </trkpt>
      <trkpt lat="45.1964" lon="5.20224">
        <ele>484</ele>
        <time>2017-05-07T08:16:35Z</time>
      </trkpt>
      <trkpt lat="45.19609" lon="5.20246">
        <ele>481</ele>
        <time>2017-05-07T08:16:42Z</time>
      </trkpt>
      <trkpt lat="45.19597" lon="5.20267">
        <ele>481</ele>
        <time>2017-05-07T08:16:44Z</time>
      </trkpt>
      <trkpt lat="45.19588" lon="5.20277">
        <ele>482</ele>
        <time>2017-05-07T08:16:45Z</time>
      </trkpt>
      <trkpt lat="45.19581" lon="5.20287">
        <ele>473</ele>
        <time>2017-05-07T08:16:46Z</time>
      </trkpt>
      <trkpt lat="45.19573" lon="5.20305">
        <ele>473</ele>
        <time>2017-05-07T08:16:48Z</time>
      </trkpt>
      <trkpt lat="45.19562" lon="5.20325">
        <ele>474</ele>
        <time>2017-05-07T08:16:50Z</time>
      </trkpt>
      <trkpt lat="45.19552" lon="5.20347">
        <ele>472</ele>
        <time>2017-05-07T08:16:52Z</time>
      </trkpt>
      <trkpt lat="45.19547" lon="5.20359">
        <ele>471</ele>
        <time>2017-05-07T08:16:53Z</time>
      </trkpt>
      <trkpt lat="45.19543" lon="5.20372">
        <ele>471</ele>
        <time>2017-05-07T08:16:54Z</time>
      </trkpt>
      <trkpt lat="45.19541" lon="5.20385">
        <ele>470</ele>
        <time>2017-05-07T08:16:55Z</time>
      </trkpt>
      <trkpt lat="45.19539" lon="5.20399">
        <ele>470</ele>
        <time>2017-05-07T08:16:56Z</time>
      </trkpt>
      <trkpt lat="45.19538" lon="5.20413">
        <ele>470</ele>
        <time>2017-05-07T08:16:57Z</time>
      </trkpt>
      <trkpt lat="45.19537" lon="5.20428">
        <ele>469</ele>
        <time>2017-05-07T08:16:58Z</time>
      </trkpt>
      <trkpt lat="45.19537" lon="5.20443">
        <ele>470</ele>
        <time>2017-05-07T08:16:59Z</time>
      </trkpt>
      <trkpt lat="45.19536" lon="5.20457">
        <ele>470</ele>
        <time>2017-05-07T08:17:00Z</time>
      </trkpt>
      <trkpt lat="45.19536" lon="5.20472">
        <ele>469</ele>
        <time>2017-05-07T08:17:01Z</time>
      </trkpt>
      <trkpt lat="45.19534" lon="5.20487">
        <ele>469</ele>
        <time>2017-05-07T08:17:02Z</time>
      </trkpt>
      <trkpt lat="45.19532" lon="5.20501">
        <ele>468</ele>
        <time>2017-05-07T08:17:03Z</time>
      </trkpt>
      <trkpt lat="45.19528" lon="5.20514">
        <ele>468</ele>
        <time>2017-05-07T08:17:04Z</time>
      </trkpt>
      <trkpt lat="45.1952" lon="5.20537">
        <ele>467</ele>
        <time>2017-05-07T08:17:06Z</time>
      </trkpt>
      <trkpt lat="45.19512" lon="5.20558">
        <ele>466</ele>
        <time>2017-05-07T08:17:08Z</time>
      </trkpt>
      <trkpt lat="45.19502" lon="5.20578">
        <ele>462</ele>
        <time>2017-05-07T08:17:10Z</time>
      </trkpt>
      <trkpt lat="45.19494" lon="5.20585">
        <ele>460</ele>
        <time>2017-05-07T08:17:11Z</time>
      </trkpt>
      <trkpt lat="45.19481" lon="5.20599">
        <ele>457</ele>
        <time>2017-05-07T08:17:13Z</time>
      </trkpt>
      <trkpt lat="45.1947" lon="5.2061">
        <ele>456</ele>
        <time>2017-05-07T08:17:15Z</time>
      </trkpt>
      <trkpt lat="45.19463" lon="5.20619">
        <ele>456</ele>
        <time>2017-05-07T08:17:17Z</time>
      </trkpt>
      <trkpt lat="45.19462" lon="5.20632">
        <ele>455</ele>
        <time>2017-05-07T08:17:20Z</time>
      </trkpt>
      <trkpt lat="45.19462" lon="5.20652">
        <ele>455</ele>
        <time>2017-05-07T08:17:23Z</time>
      </trkpt>
      <trkpt lat="45.19465" lon="5.20664">
        <ele>455</ele>
        <time>2017-05-07T08:17:25Z</time>
      </trkpt>
      <trkpt lat="45.19468" lon="5.20677">
        <ele>452</ele>
        <time>2017-05-07T08:17:27Z</time>
      </trkpt>
      <trkpt lat="45.19473" lon="5.20694">
        <ele>452</ele>
        <time>2017-05-07T08:17:30Z</time>
      </trkpt>
      <trkpt lat="45.19477" lon="5.20707">
        <ele>452</ele>
        <time>2017-05-07T08:17:32Z</time>
      </trkpt>
      <trkpt lat="45.19482" lon="5.20726">
        <ele>451</ele>
        <time>2017-05-07T08:17:34Z</time>
      </trkpt>
      <trkpt lat="45.19487" lon="5.20739">
        <ele>450</ele>
        <time>2017-05-07T08:17:36Z</time>
      </trkpt>
      <trkpt lat="45.19501" lon="5.20779">
        <ele>447</ele>
        <time>2017-05-07T08:17:41Z</time>
      </trkpt>
      <trkpt lat="45.19506" lon="5.20793">
        <ele>446</ele>
        <time>2017-05-07T08:17:42Z</time>
      </trkpt>
      <trkpt lat="45.19513" lon="5.20803">
        <ele>445</ele>
        <time>2017-05-07T08:17:43Z</time>
      </trkpt>
      <trkpt lat="45.19519" lon="5.20819">
        <ele>444</ele>
        <time>2017-05-07T08:17:45Z</time>
      </trkpt>
      <trkpt lat="45.19523" lon="5.20832">
        <ele>444</ele>
        <time>2017-05-07T08:17:47Z</time>
      </trkpt>
      <trkpt lat="45.19518" lon="5.20847">
        <ele>438</ele>
        <time>2017-05-07T08:17:49Z</time>
      </trkpt>
      <trkpt lat="45.19511" lon="5.20856">
        <ele>438</ele>
        <time>2017-05-07T08:17:51Z</time>
      </trkpt>
      <trkpt lat="45.19505" lon="5.20867">
        <ele>437</ele>
        <time>2017-05-07T08:17:54Z</time>
      </trkpt>
      <trkpt lat="45.19515" lon="5.20868">
        <ele>438</ele>
        <time>2017-05-07T08:18:01Z</time>
      </trkpt>
      <trkpt lat="45.19524" lon="5.20875">
        <ele>438</ele>
        <time>2017-05-07T08:18:06Z</time>
      </trkpt>
      <trkpt lat="45.19533" lon="5.20882">
        <ele>438</ele>
        <time>2017-05-07T08:18:13Z</time>
      </trkpt>
      <trkpt lat="45.19542" lon="5.20889">
        <ele>438</ele>
        <time>2017-05-07T08:18:20Z</time>
      </trkpt>
      <trkpt lat="45.19551" lon="5.20898">
        <ele>438</ele>
        <time>2017-05-07T08:18:25Z</time>
      </trkpt>
      <trkpt lat="45.1956" lon="5.20907">
        <ele>439</ele>
        <time>2017-05-07T08:18:32Z</time>
      </trkpt>
      <trkpt lat="45.19569" lon="5.20915">
        <ele>439</ele>
        <time>2017-05-07T08:18:36Z</time>
      </trkpt>
      <trkpt lat="45.19577" lon="5.20926">
        <ele>437</ele>
        <time>2017-05-07T08:18:40Z</time>
      </trkpt>
      <trkpt lat="45.19587" lon="5.20935">
        <ele>440</ele>
        <time>2017-05-07T08:18:44Z</time>
      </trkpt>
      <trkpt lat="45.19595" lon="5.20943">
        <ele>440</ele>
        <time>2017-05-07T08:18:49Z</time>
      </trkpt>
      <trkpt lat="45.19604" lon="5.20949">
        <ele>440</ele>
        <time>2017-05-07T08:18:53Z</time>
      </trkpt>
      <trkpt lat="45.19614" lon="5.20956">
        <ele>441</ele>
        <time>2017-05-07T08:18:57Z</time>
      </trkpt>
      <trkpt lat="45.19624" lon="5.20962">
        <ele>441</ele>
        <time>2017-05-07T08:19:02Z</time>
      </trkpt>
      <trkpt lat="45.19633" lon="5.20967">
        <ele>441</ele>
        <time>2017-05-07T08:19:07Z</time>
      </trkpt>
      <trkpt lat="45.19641" lon="5.20976">
        <ele>442</ele>
        <time>2017-05-07T08:19:13Z</time>
      </trkpt>
      <trkpt lat="45.19649" lon="5.20983">
        <ele>442</ele>
        <time>2017-05-07T08:19:19Z</time>
      </trkpt>
      <trkpt lat="45.19659" lon="5.20989">
        <ele>442</ele>
        <time>2017-05-07T08:19:24Z</time>
      </trkpt>
      <trkpt lat="45.1967" lon="5.20995">
        <ele>444</ele>
        <time>2017-05-07T08:19:30Z</time>
      </trkpt>
      <trkpt lat="45.19679" lon="5.21001">
        <ele>443</ele>
        <time>2017-05-07T08:19:35Z</time>
      </trkpt>
      <trkpt lat="45.19687" lon="5.2101">
        <ele>443</ele>
        <time>2017-05-07T08:19:45Z</time>
      </trkpt>
      <trkpt lat="45.19696" lon="5.21019">
        <ele>444</ele>
        <time>2017-05-07T08:19:52Z</time>
      </trkpt>
      <trkpt lat="45.19703" lon="5.21028">
        <ele>444</ele>
        <time>2017-05-07T08:19:57Z</time>
      </trkpt>
      <trkpt lat="45.19708" lon="5.2104">
        <ele>444</ele>
        <time>2017-05-07T08:20:02Z</time>
      </trkpt>
      <trkpt lat="45.19711" lon="5.21053">
        <ele>443</ele>
        <time>2017-05-07T08:20:07Z</time>
      </trkpt>
      <trkpt lat="45.19715" lon="5.21066">
        <ele>443</ele>
        <time>2017-05-07T08:20:12Z</time>
      </trkpt>
      <trkpt lat="45.1972" lon="5.21079">
        <ele>444</ele>
        <time>2017-05-07T08:20:18Z</time>
      </trkpt>
      <trkpt lat="45.19727" lon="5.21089">
        <ele>442</ele>
        <time>2017-05-07T08:20:24Z</time>
      </trkpt>
      <trkpt lat="45.19734" lon="5.21097">
        <ele>443</ele>
        <time>2017-05-07T08:20:29Z</time>
      </trkpt>
      <trkpt lat="45.19743" lon="5.21107">
        <ele>443</ele>
        <time>2017-05-07T08:20:34Z</time>
      </trkpt>
      <trkpt lat="45.19753" lon="5.21113">
        <ele>448</ele>
        <time>2017-05-07T08:20:40Z</time>
      </trkpt>
      <trkpt lat="45.19762" lon="5.21118">
        <ele>448</ele>
        <time>2017-05-07T08:20:47Z</time>
      </trkpt>
      <trkpt lat="45.19771" lon="5.21123">
        <ele>448</ele>
        <time>2017-05-07T08:20:53Z</time>
      </trkpt>
      <trkpt lat="45.19784" lon="5.21124">
        <ele>449</ele>
        <time>2017-05-07T08:20:58Z</time>
      </trkpt>
      <trkpt lat="45.19795" lon="5.21122">
        <ele>450</ele>
        <time>2017-05-07T08:21:04Z</time>
      </trkpt>
      <trkpt lat="45.19805" lon="5.21118">
        <ele>450</ele>
        <time>2017-05-07T08:21:08Z</time>
      </trkpt>
      <trkpt lat="45.19816" lon="5.21118">
        <ele>451</ele>
        <time>2017-05-07T08:21:14Z</time>
      </trkpt>
      <trkpt lat="45.19826" lon="5.21114">
        <ele>451</ele>
        <time>2017-05-07T08:21:17Z</time>
      </trkpt>
      <trkpt lat="45.19838" lon="5.21106">
        <ele>456</ele>
        <time>2017-05-07T08:21:22Z</time>
      </trkpt>
      <trkpt lat="45.19849" lon="5.21106">
        <ele>456</ele>
        <time>2017-05-07T08:21:28Z</time>
      </trkpt>
      <trkpt lat="45.19858" lon="5.21106">
        <ele>456</ele>
        <time>2017-05-07T08:21:34Z</time>
      </trkpt>
      <trkpt lat="45.19868" lon="5.21105">
        <ele>456</ele>
        <time>2017-05-07T08:21:38Z</time>
      </trkpt>
      <trkpt lat="45.19878" lon="5.21106">
        <ele>457</ele>
        <time>2017-05-07T08:21:46Z</time>
      </trkpt>
      <trkpt lat="45.19887" lon="5.21112">
        <ele>457</ele>
        <time>2017-05-07T08:21:51Z</time>
      </trkpt>
      <trkpt lat="45.19896" lon="5.21116">
        <ele>457</ele>
        <time>2017-05-07T08:21:57Z</time>
      </trkpt>
      <trkpt lat="45.19905" lon="5.21122">
        <ele>457</ele>
        <time>2017-05-07T08:22:01Z</time>
      </trkpt>
      <trkpt lat="45.19914" lon="5.21133">
        <ele>457</ele>
        <time>2017-05-07T08:22:05Z</time>
      </trkpt>
      <trkpt lat="45.1992" lon="5.21144">
        <ele>461</ele>
        <time>2017-05-07T08:22:09Z</time>
      </trkpt>
      <trkpt lat="45.19931" lon="5.21158">
        <ele>460</ele>
        <time>2017-05-07T08:22:17Z</time>
      </trkpt>
      <trkpt lat="45.1993" lon="5.21171">
        <ele>458</ele>
        <time>2017-05-07T08:22:23Z</time>
      </trkpt>
      <trkpt lat="45.19932" lon="5.21184">
        <ele>459</ele>
        <time>2017-05-07T08:22:27Z</time>
      </trkpt>
      <trkpt lat="45.19935" lon="5.21197">
        <ele>459</ele>
        <time>2017-05-07T08:22:32Z</time>
      </trkpt>
      <trkpt lat="45.19938" lon="5.21212">
        <ele>458</ele>
        <time>2017-05-07T08:22:37Z</time>
      </trkpt>
      <trkpt lat="45.19941" lon="5.21228">
        <ele>458</ele>
        <time>2017-05-07T08:22:41Z</time>
      </trkpt>
      <trkpt lat="45.19943" lon="5.21241">
        <ele>458</ele>
        <time>2017-05-07T08:22:45Z</time>
      </trkpt>
      <trkpt lat="45.19946" lon="5.21254">
        <ele>455</ele>
        <time>2017-05-07T08:22:49Z</time>
      </trkpt>
      <trkpt lat="45.19951" lon="5.21267">
        <ele>455</ele>
        <time>2017-05-07T08:22:55Z</time>
      </trkpt>
      <trkpt lat="45.19953" lon="5.21282">
        <ele>455</ele>
        <time>2017-05-07T08:23:00Z</time>
      </trkpt>
      <trkpt lat="45.19955" lon="5.21296">
        <ele>455</ele>
        <time>2017-05-07T08:23:05Z</time>
      </trkpt>
      <trkpt lat="45.19959" lon="5.21308">
        <ele>455</ele>
        <time>2017-05-07T08:23:09Z</time>
      </trkpt>
      <trkpt lat="45.19961" lon="5.21321">
        <ele>455</ele>
        <time>2017-05-07T08:23:14Z</time>
      </trkpt>
      <trkpt lat="45.19964" lon="5.21335">
        <ele>455</ele>
        <time>2017-05-07T08:23:18Z</time>
      </trkpt>
      <trkpt lat="45.19965" lon="5.21352">
        <ele>455</ele>
        <time>2017-05-07T08:23:23Z</time>
      </trkpt>
      <trkpt lat="45.19968" lon="5.21365">
        <ele>455</ele>
        <time>2017-05-07T08:23:28Z</time>
      </trkpt>
      <trkpt lat="45.19972" lon="5.21378">
        <ele>455</ele>
        <time>2017-05-07T08:23:32Z</time>
      </trkpt>
      <trkpt lat="45.19977" lon="5.21389">
        <ele>456</ele>
        <time>2017-05-07T08:23:36Z</time>
      </trkpt>
      <trkpt lat="45.19985" lon="5.214">
        <ele>456</ele>
        <time>2017-05-07T08:23:41Z</time>
      </trkpt>
      <trkpt lat="45.1999" lon="5.21412">
        <ele>457</ele>
        <time>2017-05-07T08:23:45Z</time>
      </trkpt>
      <trkpt lat="45.19995" lon="5.21424">
        <ele>458</ele>
        <time>2017-05-07T08:23:49Z</time>
      </trkpt>
      <trkpt lat="45.20004" lon="5.21434">
        <ele>459</ele>
        <time>2017-05-07T08:23:54Z</time>
      </trkpt>
      <trkpt lat="45.20012" lon="5.21445">
        <ele>459</ele>
        <time>2017-05-07T08:23:59Z</time>
      </trkpt>
      <trkpt lat="45.2002" lon="5.21453">
        <ele>459</ele>
        <time>2017-05-07T08:24:03Z</time>
      </trkpt>
      <trkpt lat="45.20028" lon="5.21463">
        <ele>459</ele>
        <time>2017-05-07T08:24:07Z</time>
      </trkpt>
      <trkpt lat="45.20036" lon="5.21471">
        <ele>460</ele>
        <time>2017-05-07T08:24:11Z</time>
      </trkpt>
      <trkpt lat="45.20043" lon="5.2148">
        <ele>460</ele>
        <time>2017-05-07T08:24:15Z</time>
      </trkpt>
      <trkpt lat="45.20052" lon="5.21488">
        <ele>460</ele>
        <time>2017-05-07T08:24:20Z</time>
      </trkpt>
      <trkpt lat="45.20062" lon="5.21497">
        <ele>461</ele>
        <time>2017-05-07T08:24:25Z</time>
      </trkpt>
      <trkpt lat="45.20072" lon="5.21505">
        <ele>460</ele>
        <time>2017-05-07T08:24:30Z</time>
      </trkpt>
      <trkpt lat="45.20081" lon="5.21511">
        <ele>460</ele>
        <time>2017-05-07T08:24:34Z</time>
      </trkpt>
      <trkpt lat="45.2009" lon="5.21516">
        <ele>464</ele>
        <time>2017-05-07T08:24:38Z</time>
      </trkpt>
      <trkpt lat="45.20099" lon="5.21521">
        <ele>464</ele>
        <time>2017-05-07T08:24:42Z</time>
      </trkpt>
      <trkpt lat="45.20109" lon="5.21527">
        <ele>465</ele>
        <time>2017-05-07T08:24:46Z</time>
      </trkpt>
      <trkpt lat="45.20117" lon="5.21533">
        <ele>465</ele>
        <time>2017-05-07T08:24:50Z</time>
      </trkpt>
      <trkpt lat="45.20128" lon="5.21539">
        <ele>465</ele>
        <time>2017-05-07T08:24:55Z</time>
      </trkpt>
      <trkpt lat="45.20137" lon="5.21546">
        <ele>466</ele>
        <time>2017-05-07T08:24:59Z</time>
      </trkpt>
      <trkpt lat="45.20147" lon="5.21552">
        <ele>466</ele>
        <time>2017-05-07T08:25:04Z</time>
      </trkpt>
      <trkpt lat="45.20157" lon="5.21557">
        <ele>467</ele>
        <time>2017-05-07T08:25:09Z</time>
      </trkpt>
      <trkpt lat="45.20166" lon="5.21564">
        <ele>467</ele>
        <time>2017-05-07T08:25:14Z</time>
      </trkpt>
      <trkpt lat="45.20174" lon="5.21571">
        <ele>472</ele>
        <time>2017-05-07T08:25:18Z</time>
      </trkpt>
      <trkpt lat="45.20181" lon="5.2158">
        <ele>472</ele>
        <time>2017-05-07T08:25:23Z</time>
      </trkpt>
      <trkpt lat="45.20188" lon="5.21592">
        <ele>471</ele>
        <time>2017-05-07T08:25:27Z</time>
      </trkpt>
      <trkpt lat="45.20193" lon="5.21603">
        <ele>472</ele>
        <time>2017-05-07T08:25:31Z</time>
      </trkpt>
      <trkpt lat="45.202" lon="5.21616">
        <ele>472</ele>
        <time>2017-05-07T08:25:36Z</time>
      </trkpt>
      <trkpt lat="45.20207" lon="5.21627">
        <ele>472</ele>
        <time>2017-05-07T08:25:41Z</time>
      </trkpt>
      <trkpt lat="45.20215" lon="5.21639">
        <ele>473</ele>
        <time>2017-05-07T08:25:46Z</time>
      </trkpt>
      <trkpt lat="45.2022" lon="5.21653">
        <ele>473</ele>
        <time>2017-05-07T08:25:51Z</time>
      </trkpt>
      <trkpt lat="45.20225" lon="5.21666">
        <ele>473</ele>
        <time>2017-05-07T08:25:55Z</time>
      </trkpt>
      <trkpt lat="45.2023" lon="5.21679">
        <ele>473</ele>
        <time>2017-05-07T08:25:59Z</time>
      </trkpt>
      <trkpt lat="45.20234" lon="5.21693">
        <ele>473</ele>
        <time>2017-05-07T08:26:03Z</time>
      </trkpt>
      <trkpt lat="45.20237" lon="5.21707">
        <ele>473</ele>
        <time>2017-05-07T08:26:07Z</time>
      </trkpt>
      <trkpt lat="45.20242" lon="5.2172">
        <ele>473</ele>
        <time>2017-05-07T08:26:12Z</time>
      </trkpt>
      <trkpt lat="45.20245" lon="5.21733">
        <ele>474</ele>
        <time>2017-05-07T08:26:16Z</time>
      </trkpt>
      <trkpt lat="45.20244" lon="5.21746">
        <ele>475</ele>
        <time>2017-05-07T08:26:21Z</time>
      </trkpt>
      <trkpt lat="45.2024" lon="5.21759">
        <ele>475</ele>
        <time>2017-05-07T08:26:25Z</time>
      </trkpt>
      <trkpt lat="45.20239" lon="5.21772">
        <ele>475</ele>
        <time>2017-05-07T08:26:29Z</time>
      </trkpt>
      <trkpt lat="45.20235" lon="5.21786">
        <ele>475</ele>
        <time>2017-05-07T08:26:33Z</time>
      </trkpt>
      <trkpt lat="45.20234" lon="5.218">
        <ele>475</ele>
        <time>2017-05-07T08:26:37Z</time>
      </trkpt>
      <trkpt lat="45.20237" lon="5.21813">
        <ele>476</ele>
        <time>2017-05-07T08:26:44Z</time>
      </trkpt>
      <trkpt lat="45.20244" lon="5.21822">
        <ele>477</ele>
        <time>2017-05-07T08:26:50Z</time>
      </trkpt>
      <trkpt lat="45.20251" lon="5.21831">
        <ele>479</ele>
        <time>2017-05-07T08:26:57Z</time>
      </trkpt>
      <trkpt lat="45.2026" lon="5.21836">
        <ele>480</ele>
        <time>2017-05-07T08:27:05Z</time>
      </trkpt>
      <trkpt lat="45.2027" lon="5.21843">
        <ele>481</ele>
        <time>2017-05-07T08:27:10Z</time>
      </trkpt>
      <trkpt lat="45.20276" lon="5.21855">
        <ele>482</ele>
        <time>2017-05-07T08:27:15Z</time>
      </trkpt>
      <trkpt lat="45.20285" lon="5.21863">
        <ele>482</ele>
        <time>2017-05-07T08:27:22Z</time>
      </trkpt>
      <trkpt lat="45.20294" lon="5.21868">
        <ele>482</ele>
        <time>2017-05-07T08:27:27Z</time>
      </trkpt>
      <trkpt lat="45.20302" lon="5.21875">
        <ele>483</ele>
        <time>2017-05-07T08:27:31Z</time>
      </trkpt>
      <trkpt lat="45.2031" lon="5.21885">
        <ele>484</ele>
        <time>2017-05-07T08:27:38Z</time>
      </trkpt>
      <trkpt lat="45.20321" lon="5.2189">
        <ele>484</ele>
        <time>2017-05-07T08:27:44Z</time>
      </trkpt>
      <trkpt lat="45.20327" lon="5.21903">
        <ele>486</ele>
        <time>2017-05-07T08:27:49Z</time>
      </trkpt>
      <trkpt lat="45.20328" lon="5.21917">
        <ele>488</ele>
        <time>2017-05-07T08:27:52Z</time>
      </trkpt>
      <trkpt lat="45.20323" lon="5.21931">
        <ele>487</ele>
        <time>2017-05-07T08:27:56Z</time>
      </trkpt>
      <trkpt lat="45.20321" lon="5.21945">
        <ele>487</ele>
        <time>2017-05-07T08:28:01Z</time>
      </trkpt>
      <trkpt lat="45.2032" lon="5.21961">
        <ele>487</ele>
        <time>2017-05-07T08:28:05Z</time>
      </trkpt>
      <trkpt lat="45.20319" lon="5.21978">
        <ele>488</ele>
        <time>2017-05-07T08:28:09Z</time>
      </trkpt>
      <trkpt lat="45.20319" lon="5.21993">
        <ele>490</ele>
        <time>2017-05-07T08:28:13Z</time>
      </trkpt>
      <trkpt lat="45.20315" lon="5.22007">
        <ele>490</ele>
        <time>2017-05-07T08:28:16Z</time>
      </trkpt>
      <trkpt lat="45.20313" lon="5.22021">
        <ele>488</ele>
        <time>2017-05-07T08:28:18Z</time>
      </trkpt>
      <trkpt lat="45.20307" lon="5.22035">
        <ele>487</ele>
        <time>2017-05-07T08:28:20Z</time>
      </trkpt>
      <trkpt lat="45.20303" lon="5.22051">
        <ele>487</ele>
        <time>2017-05-07T08:28:22Z</time>
      </trkpt>
      <trkpt lat="45.203" lon="5.22069">
        <ele>487</ele>
        <time>2017-05-07T08:28:24Z</time>
      </trkpt>
      <trkpt lat="45.20297" lon="5.22087">
        <ele>485</ele>
        <time>2017-05-07T08:28:26Z</time>
      </trkpt>
      <trkpt lat="45.20293" lon="5.22101">
        <ele>485</ele>
        <time>2017-05-07T08:28:28Z</time>
      </trkpt>
      <trkpt lat="45.20291" lon="5.22113">
        <ele>484</ele>
        <time>2017-05-07T08:28:30Z</time>
      </trkpt>
      <trkpt lat="45.20291" lon="5.22129">
        <ele>484</ele>
        <time>2017-05-07T08:28:33Z</time>
      </trkpt>
      <trkpt lat="45.20297" lon="5.22141">
        <ele>484</ele>
        <time>2017-05-07T08:28:37Z</time>
      </trkpt>
      <trkpt lat="45.203" lon="5.22154">
        <ele>484</ele>
        <time>2017-05-07T08:28:40Z</time>
      </trkpt>
      <trkpt lat="45.20303" lon="5.22167">
        <ele>483</ele>
        <time>2017-05-07T08:28:44Z</time>
      </trkpt>
      <trkpt lat="45.20305" lon="5.22182">
        <ele>483</ele>
        <time>2017-05-07T08:28:50Z</time>
      </trkpt>
      <trkpt lat="45.20306" lon="5.22197">
        <ele>483</ele>
        <time>2017-05-07T08:28:56Z</time>
      </trkpt>
      <trkpt lat="45.20306" lon="5.2221">
        <ele>483</ele>
        <time>2017-05-07T08:29:01Z</time>
      </trkpt>
      <trkpt lat="45.20307" lon="5.22227">
        <ele>483</ele>
        <time>2017-05-07T08:29:05Z</time>
      </trkpt>
      <trkpt lat="45.20308" lon="5.22243">
        <ele>483</ele>
        <time>2017-05-07T08:29:09Z</time>
      </trkpt>
      <trkpt lat="45.2031" lon="5.22259">
        <ele>483</ele>
        <time>2017-05-07T08:29:13Z</time>
      </trkpt>
      <trkpt lat="45.20311" lon="5.22272">
        <ele>483</ele>
        <time>2017-05-07T08:29:17Z</time>
      </trkpt>
      <trkpt lat="45.20312" lon="5.22286">
        <ele>483</ele>
        <time>2017-05-07T08:29:21Z</time>
      </trkpt>
      <trkpt lat="45.20314" lon="5.22302">
        <ele>483</ele>
        <time>2017-05-07T08:29:26Z</time>
      </trkpt>
      <trkpt lat="45.20314" lon="5.22317">
        <ele>484</ele>
        <time>2017-05-07T08:29:32Z</time>
      </trkpt>
      <trkpt lat="45.20315" lon="5.22332">
        <ele>485</ele>
        <time>2017-05-07T08:29:37Z</time>
      </trkpt>
      <trkpt lat="45.20317" lon="5.22345">
        <ele>485</ele>
        <time>2017-05-07T08:29:41Z</time>
      </trkpt>
      <trkpt lat="45.20321" lon="5.22358">
        <ele>485</ele>
        <time>2017-05-07T08:29:46Z</time>
      </trkpt>
      <trkpt lat="45.20324" lon="5.22371">
        <ele>484</ele>
        <time>2017-05-07T08:29:51Z</time>
      </trkpt>
      <trkpt lat="45.20329" lon="5.22385">
        <ele>484</ele>
        <time>2017-05-07T08:29:56Z</time>
      </trkpt>
      <trkpt lat="45.20334" lon="5.22396">
        <ele>493</ele>
        <time>2017-05-07T08:30:01Z</time>
      </trkpt>
      <trkpt lat="45.2034" lon="5.22408">
        <ele>492</ele>
        <time>2017-05-07T08:30:07Z</time>
      </trkpt>
      <trkpt lat="45.20346" lon="5.2242">
        <ele>491</ele>
        <time>2017-05-07T08:30:12Z</time>
      </trkpt>
      <trkpt lat="45.20351" lon="5.22432">
        <ele>492</ele>
        <time>2017-05-07T08:30:17Z</time>
      </trkpt>
      <trkpt lat="45.20357" lon="5.22443">
        <ele>493</ele>
        <time>2017-05-07T08:30:22Z</time>
      </trkpt>
      <trkpt lat="45.20364" lon="5.22453">
        <ele>494</ele>
        <time>2017-05-07T08:30:27Z</time>
      </trkpt>
      <trkpt lat="45.20371" lon="5.22465">
        <ele>494</ele>
        <time>2017-05-07T08:30:32Z</time>
      </trkpt>
      <trkpt lat="45.20376" lon="5.22478">
        <ele>494</ele>
        <time>2017-05-07T08:30:37Z</time>
      </trkpt>
      <trkpt lat="45.20381" lon="5.2249">
        <ele>495</ele>
        <time>2017-05-07T08:30:42Z</time>
      </trkpt>
      <trkpt lat="45.20387" lon="5.22503">
        <ele>492</ele>
        <time>2017-05-07T08:30:47Z</time>
      </trkpt>
      <trkpt lat="45.20391" lon="5.22518">
        <ele>492</ele>
        <time>2017-05-07T08:30:52Z</time>
      </trkpt>
      <trkpt lat="45.20395" lon="5.2253">
        <ele>492</ele>
        <time>2017-05-07T08:30:57Z</time>
      </trkpt>
      <trkpt lat="45.20398" lon="5.22544">
        <ele>492</ele>
        <time>2017-05-07T08:31:02Z</time>
      </trkpt>
      <trkpt lat="45.20402" lon="5.22557">
        <ele>492</ele>
        <time>2017-05-07T08:31:07Z</time>
      </trkpt>
      <trkpt lat="45.20406" lon="5.22571">
        <ele>492</ele>
        <time>2017-05-07T08:31:11Z</time>
      </trkpt>
      <trkpt lat="45.20409" lon="5.22586">
        <ele>492</ele>
        <time>2017-05-07T08:31:16Z</time>
      </trkpt>
      <trkpt lat="45.20413" lon="5.22599">
        <ele>491</ele>
        <time>2017-05-07T08:31:20Z</time>
      </trkpt>
      <trkpt lat="45.20418" lon="5.22614">
        <ele>499</ele>
        <time>2017-05-07T08:31:26Z</time>
      </trkpt>
      <trkpt lat="45.20421" lon="5.2263">
        <ele>499</ele>
        <time>2017-05-07T08:31:30Z</time>
      </trkpt>
      <trkpt lat="45.20426" lon="5.22643">
        <ele>498</ele>
        <time>2017-05-07T08:31:34Z</time>
      </trkpt>
      <trkpt lat="45.20432" lon="5.22657">
        <ele>497</ele>
        <time>2017-05-07T08:31:39Z</time>
      </trkpt>
      <trkpt lat="45.20436" lon="5.22669">
        <ele>495</ele>
        <time>2017-05-07T08:31:43Z</time>
      </trkpt>
      <trkpt lat="45.20441" lon="5.2268">
        <ele>496</ele>
        <time>2017-05-07T08:31:47Z</time>
      </trkpt>
      <trkpt lat="45.20448" lon="5.22693">
        <ele>497</ele>
        <time>2017-05-07T08:31:51Z</time>
      </trkpt>
      <trkpt lat="45.20456" lon="5.22703">
        <ele>497</ele>
        <time>2017-05-07T08:31:55Z</time>
      </trkpt>
      <trkpt lat="45.20464" lon="5.22713">
        <ele>497</ele>
        <time>2017-05-07T08:32:00Z</time>
      </trkpt>
      <trkpt lat="45.20472" lon="5.22722">
        <ele>498</ele>
        <time>2017-05-07T08:32:04Z</time>
      </trkpt>
      <trkpt lat="45.20479" lon="5.22733">
        <ele>498</ele>
        <time>2017-05-07T08:32:09Z</time>
      </trkpt>
      <trkpt lat="45.20487" lon="5.22742">
        <ele>499</ele>
        <time>2017-05-07T08:32:14Z</time>
      </trkpt>
      <trkpt lat="45.20495" lon="5.22751">
        <ele>499</ele>
        <time>2017-05-07T08:32:20Z</time>
      </trkpt>
      <trkpt lat="45.20502" lon="5.2276">
        <ele>501</ele>
        <time>2017-05-07T08:32:25Z</time>
      </trkpt>
      <trkpt lat="45.2051" lon="5.22767">
        <ele>500</ele>
        <time>2017-05-07T08:32:30Z</time>
      </trkpt>
      <trkpt lat="45.20519" lon="5.22773">
        <ele>500</ele>
        <time>2017-05-07T08:32:34Z</time>
      </trkpt>
      <trkpt lat="45.20528" lon="5.2278">
        <ele>500</ele>
        <time>2017-05-07T08:32:39Z</time>
      </trkpt>
      <trkpt lat="45.20538" lon="5.22783">
        <ele>500</ele>
        <time>2017-05-07T08:32:44Z</time>
      </trkpt>
      <trkpt lat="45.20548" lon="5.22784">
        <ele>501</ele>
        <time>2017-05-07T08:32:48Z</time>
      </trkpt>
      <trkpt lat="45.20559" lon="5.22785">
        <ele>501</ele>
        <time>2017-05-07T08:32:53Z</time>
      </trkpt>
      <trkpt lat="45.20569" lon="5.22782">
        <ele>502</ele>
        <time>2017-05-07T08:32:57Z</time>
      </trkpt>
      <trkpt lat="45.2058" lon="5.2278">
        <ele>502</ele>
        <time>2017-05-07T08:33:02Z</time>
      </trkpt>
      <trkpt lat="45.20594" lon="5.22776">
        <ele>505</ele>
        <time>2017-05-07T08:33:09Z</time>
      </trkpt>
      <trkpt lat="45.20604" lon="5.22775">
        <ele>505</ele>
        <time>2017-05-07T08:33:13Z</time>
      </trkpt>
      <trkpt lat="45.20613" lon="5.22772">
        <ele>505</ele>
        <time>2017-05-07T08:33:17Z</time>
      </trkpt>
      <trkpt lat="45.20623" lon="5.22769">
        <ele>505</ele>
        <time>2017-05-07T08:33:21Z</time>
      </trkpt>
      <trkpt lat="45.20634" lon="5.22767">
        <ele>506</ele>
        <time>2017-05-07T08:33:26Z</time>
      </trkpt>
      <trkpt lat="45.20644" lon="5.22766">
        <ele>506</ele>
        <time>2017-05-07T08:33:31Z</time>
      </trkpt>
      <trkpt lat="45.20657" lon="5.22762">
        <ele>508</ele>
        <time>2017-05-07T08:33:37Z</time>
      </trkpt>
      <trkpt lat="45.20668" lon="5.22758">
        <ele>510</ele>
        <time>2017-05-07T08:33:42Z</time>
      </trkpt>
      <trkpt lat="45.20679" lon="5.22757">
        <ele>509</ele>
        <time>2017-05-07T08:33:47Z</time>
      </trkpt>
      <trkpt lat="45.20689" lon="5.22755">
        <ele>509</ele>
        <time>2017-05-07T08:33:51Z</time>
      </trkpt>
      <trkpt lat="45.20698" lon="5.22752">
        <ele>509</ele>
        <time>2017-05-07T08:33:55Z</time>
      </trkpt>
      <trkpt lat="45.20709" lon="5.22749">
        <ele>517</ele>
        <time>2017-05-07T08:33:59Z</time>
      </trkpt>
      <trkpt lat="45.20719" lon="5.22748">
        <ele>517</ele>
        <time>2017-05-07T08:34:03Z</time>
      </trkpt>
      <trkpt lat="45.20728" lon="5.22745">
        <ele>517</ele>
        <time>2017-05-07T08:34:07Z</time>
      </trkpt>
      <trkpt lat="45.20739" lon="5.22743">
        <ele>516</ele>
        <time>2017-05-07T08:34:12Z</time>
      </trkpt>
      <trkpt lat="45.2075" lon="5.22744">
        <ele>516</ele>
        <time>2017-05-07T08:34:17Z</time>
      </trkpt>
      <trkpt lat="45.20761" lon="5.22747">
        <ele>517</ele>
        <time>2017-05-07T08:34:22Z</time>
      </trkpt>
      <trkpt lat="45.20771" lon="5.22749">
        <ele>519</ele>
        <time>2017-05-07T08:34:26Z</time>
      </trkpt>
      <trkpt lat="45.2078" lon="5.22754">
        <ele>513</ele>
        <time>2017-05-07T08:34:30Z</time>
      </trkpt>
      <trkpt lat="45.2079" lon="5.2276">
        <ele>513</ele>
        <time>2017-05-07T08:34:35Z</time>
      </trkpt>
      <trkpt lat="45.20803" lon="5.22766">
        <ele>513</ele>
        <time>2017-05-07T08:34:41Z</time>
      </trkpt>
      <trkpt lat="45.20814" lon="5.2277">
        <ele>514</ele>
        <time>2017-05-07T08:34:44Z</time>
      </trkpt>
      <trkpt lat="45.20824" lon="5.22775">
        <ele>514</ele>
        <time>2017-05-07T08:34:48Z</time>
      </trkpt>
      <trkpt lat="45.20834" lon="5.22781">
        <ele>517</ele>
        <time>2017-05-07T08:34:53Z</time>
      </trkpt>
      <trkpt lat="45.20843" lon="5.22785">
        <ele>517</ele>
        <time>2017-05-07T08:34:57Z</time>
      </trkpt>
      <trkpt lat="45.20853" lon="5.22791">
        <ele>517</ele>
        <time>2017-05-07T08:35:02Z</time>
      </trkpt>
      <trkpt lat="45.20862" lon="5.22797">
        <ele>517</ele>
        <time>2017-05-07T08:35:06Z</time>
      </trkpt>
      <trkpt lat="45.2087" lon="5.22803">
        <ele>517</ele>
        <time>2017-05-07T08:35:10Z</time>
      </trkpt>
      <trkpt lat="45.2088" lon="5.22809">
        <ele>517</ele>
        <time>2017-05-07T08:35:14Z</time>
      </trkpt>
      <trkpt lat="45.20889" lon="5.22814">
        <ele>517</ele>
        <time>2017-05-07T08:35:18Z</time>
      </trkpt>
      <trkpt lat="45.20899" lon="5.2282">
        <ele>517</ele>
        <time>2017-05-07T08:35:22Z</time>
      </trkpt>
      <trkpt lat="45.20908" lon="5.22826">
        <ele>517</ele>
        <time>2017-05-07T08:35:26Z</time>
      </trkpt>
      <trkpt lat="45.20919" lon="5.2283">
        <ele>518</ele>
        <time>2017-05-07T08:35:30Z</time>
      </trkpt>
      <trkpt lat="45.2093" lon="5.22833">
        <ele>520</ele>
        <time>2017-05-07T08:35:34Z</time>
      </trkpt>
      <trkpt lat="45.2094" lon="5.22835">
        <ele>519</ele>
        <time>2017-05-07T08:35:38Z</time>
      </trkpt>
      <trkpt lat="45.2095" lon="5.22838">
        <ele>520</ele>
        <time>2017-05-07T08:35:42Z</time>
      </trkpt>
      <trkpt lat="45.20958" lon="5.22846">
        <ele>520</ele>
        <time>2017-05-07T08:35:45Z</time>
      </trkpt>
      <trkpt lat="45.20966" lon="5.22856">
        <ele>521</ele>
        <time>2017-05-07T08:35:48Z</time>
      </trkpt>
      <trkpt lat="45.20975" lon="5.22868">
        <ele>521</ele>
        <time>2017-05-07T08:35:52Z</time>
      </trkpt>
      <trkpt lat="45.20982" lon="5.22878">
        <ele>521</ele>
        <time>2017-05-07T08:35:55Z</time>
      </trkpt>
      <trkpt lat="45.2099" lon="5.2289">
        <ele>522</ele>
        <time>2017-05-07T08:35:59Z</time>
      </trkpt>
      <trkpt lat="45.20996" lon="5.22899">
        <ele>522</ele>
        <time>2017-05-07T08:36:03Z</time>
      </trkpt>
      <trkpt lat="45.20999" lon="5.22914">
        <ele>523</ele>
        <time>2017-05-07T08:36:07Z</time>
      </trkpt>
      <trkpt lat="45.21" lon="5.22928">
        <ele>523</ele>
        <time>2017-05-07T08:36:10Z</time>
      </trkpt>
      <trkpt lat="45.20999" lon="5.22942">
        <ele>524</ele>
        <time>2017-05-07T08:36:13Z</time>
      </trkpt>
      <trkpt lat="45.20997" lon="5.22959">
        <ele>524</ele>
        <time>2017-05-07T08:36:17Z</time>
      </trkpt>
      <trkpt lat="45.20994" lon="5.22972">
        <ele>525</ele>
        <time>2017-05-07T08:36:21Z</time>
      </trkpt>
      <trkpt lat="45.20989" lon="5.22987">
        <ele>526</ele>
        <time>2017-05-07T08:36:25Z</time>
      </trkpt>
      <trkpt lat="45.20982" lon="5.23002">
        <ele>529</ele>
        <time>2017-05-07T08:36:29Z</time>
      </trkpt>
      <trkpt lat="45.20972" lon="5.23007">
        <ele>529</ele>
        <time>2017-05-07T08:36:32Z</time>
      </trkpt>
      <trkpt lat="45.20963" lon="5.2301">
        <ele>529</ele>
        <time>2017-05-07T08:36:35Z</time>
      </trkpt>
      <trkpt lat="45.20952" lon="5.23015">
        <ele>529</ele>
        <time>2017-05-07T08:36:40Z</time>
      </trkpt>
      <trkpt lat="45.20943" lon="5.23015">
        <ele>529</ele>
        <time>2017-05-07T08:36:43Z</time>
      </trkpt>
      <trkpt lat="45.20931" lon="5.23015">
        <ele>528</ele>
        <time>2017-05-07T08:36:46Z</time>
      </trkpt>
      <trkpt lat="45.20919" lon="5.23014">
        <ele>527</ele>
        <time>2017-05-07T08:36:50Z</time>
      </trkpt>
      <trkpt lat="45.20905" lon="5.23014">
        <ele>525</ele>
        <time>2017-05-07T08:36:55Z</time>
      </trkpt>
      <trkpt lat="45.20891" lon="5.23015">
        <ele>525</ele>
        <time>2017-05-07T08:36:59Z</time>
      </trkpt>
      <trkpt lat="45.20882" lon="5.23018">
        <ele>525</ele>
        <time>2017-05-07T08:37:02Z</time>
      </trkpt>
      <trkpt lat="45.2087" lon="5.2302">
        <ele>525</ele>
        <time>2017-05-07T08:37:06Z</time>
      </trkpt>
      <trkpt lat="45.20862" lon="5.2303">
        <ele>525</ele>
        <time>2017-05-07T08:37:11Z</time>
      </trkpt>
      <trkpt lat="45.20856" lon="5.23043">
        <ele>526</ele>
        <time>2017-05-07T08:37:16Z</time>
      </trkpt>
      <trkpt lat="45.20853" lon="5.23056">
        <ele>527</ele>
        <time>2017-05-07T08:37:21Z</time>
      </trkpt>
      <trkpt lat="45.20851" lon="5.2307">
        <ele>528</ele>
        <time>2017-05-07T08:37:29Z</time>
      </trkpt>
      <trkpt lat="45.20846" lon="5.23083">
        <ele>528</ele>
        <time>2017-05-07T08:37:34Z</time>
      </trkpt>
      <trkpt lat="45.20848" lon="5.23097">
        <ele>537</ele>
        <time>2017-05-07T08:37:41Z</time>
      </trkpt>
      <trkpt lat="45.20858" lon="5.23103">
        <ele>539</ele>
        <time>2017-05-07T08:37:48Z</time>
      </trkpt>
      <trkpt lat="45.20867" lon="5.23111">
        <ele>540</ele>
        <time>2017-05-07T08:37:55Z</time>
      </trkpt>
      <trkpt lat="45.20876" lon="5.23113">
        <ele>541</ele>
        <time>2017-05-07T08:38:03Z</time>
      </trkpt>
      <trkpt lat="45.20886" lon="5.23113">
        <ele>541</ele>
        <time>2017-05-07T08:38:10Z</time>
      </trkpt>
      <trkpt lat="45.20897" lon="5.23111">
        <ele>540</ele>
        <time>2017-05-07T08:38:15Z</time>
      </trkpt>
      <trkpt lat="45.20908" lon="5.23109">
        <ele>539</ele>
        <time>2017-05-07T08:38:19Z</time>
      </trkpt>
      <trkpt lat="45.20918" lon="5.23106">
        <ele>540</ele>
        <time>2017-05-07T08:38:23Z</time>
      </trkpt>
      <trkpt lat="45.2093" lon="5.231">
        <ele>539</ele>
        <time>2017-05-07T08:38:28Z</time>
      </trkpt>
      <trkpt lat="45.20942" lon="5.23097">
        <ele>540</ele>
        <time>2017-05-07T08:38:33Z</time>
      </trkpt>
      <trkpt lat="45.20952" lon="5.23097">
        <ele>541</ele>
        <time>2017-05-07T08:38:37Z</time>
      </trkpt>
      <trkpt lat="45.20962" lon="5.23097">
        <ele>541</ele>
        <time>2017-05-07T08:38:40Z</time>
      </trkpt>
      <trkpt lat="45.20973" lon="5.231">
        <ele>542</ele>
        <time>2017-05-07T08:38:44Z</time>
      </trkpt>
      <trkpt lat="45.20985" lon="5.231">
        <ele>541</ele>
        <time>2017-05-07T08:38:48Z</time>
      </trkpt>
      <trkpt lat="45.20996" lon="5.23098">
        <ele>541</ele>
        <time>2017-05-07T08:38:52Z</time>
      </trkpt>
      <trkpt lat="45.21006" lon="5.23096">
        <ele>542</ele>
        <time>2017-05-07T08:38:57Z</time>
      </trkpt>
      <trkpt lat="45.21016" lon="5.23095">
        <ele>544</ele>
        <time>2017-05-07T08:39:03Z</time>
      </trkpt>
      <trkpt lat="45.21026" lon="5.23094">
        <ele>545</ele>
        <time>2017-05-07T08:39:09Z</time>
      </trkpt>
      <trkpt lat="45.21037" lon="5.23093">
        <ele>546</ele>
        <time>2017-05-07T08:39:14Z</time>
      </trkpt>
      <trkpt lat="45.21048" lon="5.23094">
        <ele>547</ele>
        <time>2017-05-07T08:39:19Z</time>
      </trkpt>
      <trkpt lat="45.21057" lon="5.23096">
        <ele>547</ele>
        <time>2017-05-07T08:39:24Z</time>
      </trkpt>
      <trkpt lat="45.21068" lon="5.23095">
        <ele>547</ele>
        <time>2017-05-07T08:39:29Z</time>
      </trkpt>
      <trkpt lat="45.21077" lon="5.2309">
        <ele>545</ele>
        <time>2017-05-07T08:39:34Z</time>
      </trkpt>
      <trkpt lat="45.21087" lon="5.23085">
        <ele>546</ele>
        <time>2017-05-07T08:39:39Z</time>
      </trkpt>
      <trkpt lat="45.21098" lon="5.23079">
        <ele>546</ele>
        <time>2017-05-07T08:39:45Z</time>
      </trkpt>
      <trkpt lat="45.21107" lon="5.23072">
        <ele>547</ele>
        <time>2017-05-07T08:39:50Z</time>
      </trkpt>
      <trkpt lat="45.21116" lon="5.23062">
        <ele>548</ele>
        <time>2017-05-07T08:39:55Z</time>
      </trkpt>
      <trkpt lat="45.21123" lon="5.23051">
        <ele>549</ele>
        <time>2017-05-07T08:40:00Z</time>
      </trkpt>
      <trkpt lat="45.21128" lon="5.23038">
        <ele>549</ele>
        <time>2017-05-07T08:40:06Z</time>
      </trkpt>
      <trkpt lat="45.21131" lon="5.23024">
        <ele>549</ele>
        <time>2017-05-07T08:40:12Z</time>
      </trkpt>
      <trkpt lat="45.21137" lon="5.23012">
        <ele>549</ele>
        <time>2017-05-07T08:40:17Z</time>
      </trkpt>
      <trkpt lat="45.21141" lon="5.22998">
        <ele>547</ele>
        <time>2017-05-07T08:40:23Z</time>
      </trkpt>
      <trkpt lat="45.21147" lon="5.22979">
        <ele>547</ele>
        <time>2017-05-07T08:40:30Z</time>
      </trkpt>
      <trkpt lat="45.21152" lon="5.22968">
        <ele>546</ele>
        <time>2017-05-07T08:40:35Z</time>
      </trkpt>
      <trkpt lat="45.21157" lon="5.22957">
        <ele>546</ele>
        <time>2017-05-07T08:40:39Z</time>
      </trkpt>
      <trkpt lat="45.21162" lon="5.22944">
        <ele>546</ele>
        <time>2017-05-07T08:40:44Z</time>
      </trkpt>
      <trkpt lat="45.21161" lon="5.22931">
        <ele>547</ele>
        <time>2017-05-07T08:40:48Z</time>
      </trkpt>
      <trkpt lat="45.21159" lon="5.22917">
        <ele>548</ele>
        <time>2017-05-07T08:40:52Z</time>
      </trkpt>
      <trkpt lat="45.21157" lon="5.22901">
        <ele>546</ele>
        <time>2017-05-07T08:40:56Z</time>
      </trkpt>
      <trkpt lat="45.21154" lon="5.22887">
        <ele>545</ele>
        <time>2017-05-07T08:40:59Z</time>
      </trkpt>
      <trkpt lat="45.2115" lon="5.22873">
        <ele>544</ele>
        <time>2017-05-07T08:41:02Z</time>
      </trkpt>
      <trkpt lat="45.21144" lon="5.22858">
        <ele>544</ele>
        <time>2017-05-07T08:41:06Z</time>
      </trkpt>
      <trkpt lat="45.21143" lon="5.22844">
        <ele>545</ele>
        <time>2017-05-07T08:41:08Z</time>
      </trkpt>
      <trkpt lat="45.2114" lon="5.2283">
        <ele>546</ele>
        <time>2017-05-07T08:41:11Z</time>
      </trkpt>
      <trkpt lat="45.2114" lon="5.22815">
        <ele>545</ele>
        <time>2017-05-07T08:41:14Z</time>
      </trkpt>
      <trkpt lat="45.21142" lon="5.22799">
        <ele>546</ele>
        <time>2017-05-07T08:41:17Z</time>
      </trkpt>
      <trkpt lat="45.21148" lon="5.22784">
        <ele>546</ele>
        <time>2017-05-07T08:41:20Z</time>
      </trkpt>
      <trkpt lat="45.21154" lon="5.2277">
        <ele>548</ele>
        <time>2017-05-07T08:41:24Z</time>
      </trkpt>
      <trkpt lat="45.21163" lon="5.22758">
        <ele>550</ele>
        <time>2017-05-07T08:41:28Z</time>
      </trkpt>
      <trkpt lat="45.21173" lon="5.22749">
        <ele>554</ele>
        <time>2017-05-07T08:41:32Z</time>
      </trkpt>
      <trkpt lat="45.21182" lon="5.22742">
        <ele>556</ele>
        <time>2017-05-07T08:41:36Z</time>
      </trkpt>
      <trkpt lat="45.21192" lon="5.22734">
        <ele>558</ele>
        <time>2017-05-07T08:41:40Z</time>
      </trkpt>
      <trkpt lat="45.21201" lon="5.22729">
        <ele>559</ele>
        <time>2017-05-07T08:41:45Z</time>
      </trkpt>
      <trkpt lat="45.21211" lon="5.22726">
        <ele>560</ele>
        <time>2017-05-07T08:41:50Z</time>
      </trkpt>
      <trkpt lat="45.21222" lon="5.22721">
        <ele>560</ele>
        <time>2017-05-07T08:41:54Z</time>
      </trkpt>
      <trkpt lat="45.2123" lon="5.22724">
        <ele>561</ele>
        <time>2017-05-07T08:41:59Z</time>
      </trkpt>
      <trkpt lat="45.21241" lon="5.22729">
        <ele>561</ele>
        <time>2017-05-07T08:42:05Z</time>
      </trkpt>
      <trkpt lat="45.21245" lon="5.22741">
        <ele>562</ele>
        <time>2017-05-07T08:42:18Z</time>
      </trkpt>
      <trkpt lat="45.21232" lon="5.2275">
        <ele>561</ele>
        <time>2017-05-07T08:42:24Z</time>
      </trkpt>
      <trkpt lat="45.21305" lon="5.22883">
        <ele>574</ele>
        <time>2017-05-07T08:42:53Z</time>
      </trkpt>
      <trkpt lat="45.21295" lon="5.22879">
        <ele>574</ele>
        <time>2017-05-07T08:42:59Z</time>
      </trkpt>
      <trkpt lat="45.21279" lon="5.22874">
        <ele>572</ele>
        <time>2017-05-07T08:43:02Z</time>
      </trkpt>
      <trkpt lat="45.21268" lon="5.2288">
        <ele>572</ele>
        <time>2017-05-07T08:43:04Z</time>
      </trkpt>
      <trkpt lat="45.2126" lon="5.22886">
        <ele>571</ele>
        <time>2017-05-07T08:43:08Z</time>
      </trkpt>
      <trkpt lat="45.21252" lon="5.22894">
        <ele>570</ele>
        <time>2017-05-07T08:43:12Z</time>
      </trkpt>
      <trkpt lat="45.21243" lon="5.22904">
        <ele>563</ele>
        <time>2017-05-07T08:43:16Z</time>
      </trkpt>
      <trkpt lat="45.21235" lon="5.22917">
        <ele>563</ele>
        <time>2017-05-07T08:43:22Z</time>
      </trkpt>
      <trkpt lat="45.21225" lon="5.2293">
        <ele>564</ele>
        <time>2017-05-07T08:43:27Z</time>
      </trkpt>
      <trkpt lat="45.21215" lon="5.22936">
        <ele>563</ele>
        <time>2017-05-07T08:43:31Z</time>
      </trkpt>
      <trkpt lat="45.21205" lon="5.22943">
        <ele>562</ele>
        <time>2017-05-07T08:43:37Z</time>
      </trkpt>
      <trkpt lat="45.21197" lon="5.22953">
        <ele>562</ele>
        <time>2017-05-07T08:43:43Z</time>
      </trkpt>
      <trkpt lat="45.21191" lon="5.22965">
        <ele>561</ele>
        <time>2017-05-07T08:43:49Z</time>
      </trkpt>
      <trkpt lat="45.21186" lon="5.22978">
        <ele>561</ele>
        <time>2017-05-07T08:43:55Z</time>
      </trkpt>
      <trkpt lat="45.21183" lon="5.22991">
        <ele>560</ele>
        <time>2017-05-07T08:44:00Z</time>
      </trkpt>
      <trkpt lat="45.2118" lon="5.23004">
        <ele>562</ele>
        <time>2017-05-07T08:44:05Z</time>
      </trkpt>
      <trkpt lat="45.2118" lon="5.23018">
        <ele>564</ele>
        <time>2017-05-07T08:44:10Z</time>
      </trkpt>
      <trkpt lat="45.2118" lon="5.23032">
        <ele>566</ele>
        <time>2017-05-07T08:44:17Z</time>
      </trkpt>
      <trkpt lat="45.2118" lon="5.23046">
        <ele>567</ele>
        <time>2017-05-07T08:44:23Z</time>
      </trkpt>
      <trkpt lat="45.21181" lon="5.2306">
        <ele>567</ele>
        <time>2017-05-07T08:44:30Z</time>
      </trkpt>
      <trkpt lat="45.21185" lon="5.23075">
        <ele>566</ele>
        <time>2017-05-07T08:44:35Z</time>
      </trkpt>
      <trkpt lat="45.21188" lon="5.23089">
        <ele>569</ele>
        <time>2017-05-07T08:44:42Z</time>
      </trkpt>
      <trkpt lat="45.2119" lon="5.23102">
        <ele>571</ele>
        <time>2017-05-07T08:44:48Z</time>
      </trkpt>
      <trkpt lat="45.21193" lon="5.2312">
        <ele>572</ele>
        <time>2017-05-07T08:44:55Z</time>
      </trkpt>
      <trkpt lat="45.21197" lon="5.23134">
        <ele>573</ele>
        <time>2017-05-07T08:44:58Z</time>
      </trkpt>
      <trkpt lat="45.21197" lon="5.2315">
        <ele>573</ele>
        <time>2017-05-07T08:45:03Z</time>
      </trkpt>
      <trkpt lat="45.21195" lon="5.23164">
        <ele>572</ele>
        <time>2017-05-07T08:45:10Z</time>
      </trkpt>
      <trkpt lat="45.21188" lon="5.23174">
        <ele>574</ele>
        <time>2017-05-07T08:45:15Z</time>
      </trkpt>
      <trkpt lat="45.21183" lon="5.23187">
        <ele>574</ele>
        <time>2017-05-07T08:45:21Z</time>
      </trkpt>
      <trkpt lat="45.21173" lon="5.23195">
        <ele>575</ele>
        <time>2017-05-07T08:45:27Z</time>
      </trkpt>
      <trkpt lat="45.21165" lon="5.23205">
        <ele>569</ele>
        <time>2017-05-07T08:45:34Z</time>
      </trkpt>
      <trkpt lat="45.21156" lon="5.23211">
        <ele>570</ele>
        <time>2017-05-07T08:45:40Z</time>
      </trkpt>
      <trkpt lat="45.21145" lon="5.23217">
        <ele>570</ele>
        <time>2017-05-07T08:45:50Z</time>
      </trkpt>
      <trkpt lat="45.21137" lon="5.23226">
        <ele>570</ele>
        <time>2017-05-07T08:45:53Z</time>
      </trkpt>
      <trkpt lat="45.21131" lon="5.23236">
        <ele>571</ele>
        <time>2017-05-07T08:45:57Z</time>
      </trkpt>
      <trkpt lat="45.21127" lon="5.2325">
        <ele>571</ele>
        <time>2017-05-07T08:46:01Z</time>
      </trkpt>
      <trkpt lat="45.21123" lon="5.23264">
        <ele>577</ele>
        <time>2017-05-07T08:46:06Z</time>
      </trkpt>
      <trkpt lat="45.21116" lon="5.23276">
        <ele>577</ele>
        <time>2017-05-07T08:46:11Z</time>
      </trkpt>
      <trkpt lat="45.21112" lon="5.23297">
        <ele>578</ele>
        <time>2017-05-07T08:46:19Z</time>
      </trkpt>
      <trkpt lat="45.21107" lon="5.23311">
        <ele>578</ele>
        <time>2017-05-07T08:46:22Z</time>
      </trkpt>
      <trkpt lat="45.21105" lon="5.23325">
        <ele>578</ele>
        <time>2017-05-07T08:46:27Z</time>
      </trkpt>
      <trkpt lat="45.21102" lon="5.23338">
        <ele>580</ele>
        <time>2017-05-07T08:46:32Z</time>
      </trkpt>
      <trkpt lat="45.21098" lon="5.23351">
        <ele>581</ele>
        <time>2017-05-07T08:46:37Z</time>
      </trkpt>
      <trkpt lat="45.21091" lon="5.23365">
        <ele>581</ele>
        <time>2017-05-07T08:46:42Z</time>
      </trkpt>
      <trkpt lat="45.21084" lon="5.23374">
        <ele>582</ele>
        <time>2017-05-07T08:46:46Z</time>
      </trkpt>
      <trkpt lat="45.21073" lon="5.23381">
        <ele>583</ele>
        <time>2017-05-07T08:46:54Z</time>
      </trkpt>
      <trkpt lat="45.21063" lon="5.23382">
        <ele>583</ele>
        <time>2017-05-07T08:46:57Z</time>
      </trkpt>
      <trkpt lat="45.21055" lon="5.23377">
        <ele>583</ele>
        <time>2017-05-07T08:47:01Z</time>
      </trkpt>
      <trkpt lat="45.21047" lon="5.23368">
        <ele>583</ele>
        <time>2017-05-07T08:47:06Z</time>
      </trkpt>
      <trkpt lat="45.21041" lon="5.23357">
        <ele>583</ele>
        <time>2017-05-07T08:47:11Z</time>
      </trkpt>
      <trkpt lat="45.2103" lon="5.23344">
        <ele>584</ele>
        <time>2017-05-07T08:47:19Z</time>
      </trkpt>
      <trkpt lat="45.21022" lon="5.23339">
        <ele>584</ele>
        <time>2017-05-07T08:47:21Z</time>
      </trkpt>
      <trkpt lat="45.21013" lon="5.23333">
        <ele>581</ele>
        <time>2017-05-07T08:47:25Z</time>
      </trkpt>
      <trkpt lat="45.21006" lon="5.23323">
        <ele>581</ele>
        <time>2017-05-07T08:47:27Z</time>
      </trkpt>
      <trkpt lat="45.20997" lon="5.23313">
        <ele>582</ele>
        <time>2017-05-07T08:47:30Z</time>
      </trkpt>
      <trkpt lat="45.20991" lon="5.233">
        <ele>581</ele>
        <time>2017-05-07T08:47:34Z</time>
      </trkpt>
      <trkpt lat="45.20983" lon="5.2329">
        <ele>581</ele>
        <time>2017-05-07T08:47:39Z</time>
      </trkpt>
      <trkpt lat="45.20976" lon="5.23281">
        <ele>580</ele>
        <time>2017-05-07T08:47:43Z</time>
      </trkpt>
      <trkpt lat="45.20968" lon="5.23272">
        <ele>580</ele>
        <time>2017-05-07T08:47:48Z</time>
      </trkpt>
      <trkpt lat="45.20958" lon="5.23264">
        <ele>580</ele>
        <time>2017-05-07T08:47:53Z</time>
      </trkpt>
      <trkpt lat="45.20948" lon="5.23261">
        <ele>579</ele>
        <time>2017-05-07T08:47:58Z</time>
      </trkpt>
      <trkpt lat="45.20938" lon="5.23258">
        <ele>579</ele>
        <time>2017-05-07T08:48:03Z</time>
      </trkpt>
      <trkpt lat="45.20928" lon="5.23258">
        <ele>578</ele>
        <time>2017-05-07T08:48:08Z</time>
      </trkpt>
      <trkpt lat="45.20918" lon="5.2326">
        <ele>578</ele>
        <time>2017-05-07T08:48:13Z</time>
      </trkpt>
      <trkpt lat="45.20909" lon="5.23263">
        <ele>579</ele>
        <time>2017-05-07T08:48:17Z</time>
      </trkpt>
      <trkpt lat="45.20899" lon="5.2327">
        <ele>580</ele>
        <time>2017-05-07T08:48:22Z</time>
      </trkpt>
      <trkpt lat="45.20889" lon="5.23277">
        <ele>580</ele>
        <time>2017-05-07T08:48:27Z</time>
      </trkpt>
      <trkpt lat="45.20881" lon="5.23287">
        <ele>581</ele>
        <time>2017-05-07T08:48:32Z</time>
      </trkpt>
      <trkpt lat="45.20874" lon="5.23298">
        <ele>582</ele>
        <time>2017-05-07T08:48:38Z</time>
      </trkpt>
      <trkpt lat="45.20868" lon="5.23309">
        <ele>582</ele>
        <time>2017-05-07T08:48:43Z</time>
      </trkpt>
      <trkpt lat="45.20862" lon="5.23321">
        <ele>582</ele>
        <time>2017-05-07T08:48:48Z</time>
      </trkpt>
      <trkpt lat="45.20857" lon="5.23333">
        <ele>582</ele>
        <time>2017-05-07T08:48:53Z</time>
      </trkpt>
      <trkpt lat="45.20853" lon="5.23348">
        <ele>585</ele>
        <time>2017-05-07T08:48:59Z</time>
      </trkpt>
      <trkpt lat="45.20851" lon="5.23363">
        <ele>586</ele>
        <time>2017-05-07T08:49:04Z</time>
      </trkpt>
      <trkpt lat="45.20851" lon="5.23377">
        <ele>586</ele>
        <time>2017-05-07T08:49:11Z</time>
      </trkpt>
      <trkpt lat="45.20849" lon="5.23392">
        <ele>586</ele>
        <time>2017-05-07T08:49:17Z</time>
      </trkpt>
      <trkpt lat="45.20848" lon="5.23406">
        <ele>585</ele>
        <time>2017-05-07T08:49:22Z</time>
      </trkpt>
      <trkpt lat="45.20846" lon="5.23421">
        <ele>587</ele>
        <time>2017-05-07T08:49:28Z</time>
      </trkpt>
      <trkpt lat="45.20843" lon="5.23435">
        <ele>588</ele>
        <time>2017-05-07T08:49:33Z</time>
      </trkpt>
      <trkpt lat="45.20837" lon="5.23447">
        <ele>589</ele>
        <time>2017-05-07T08:49:38Z</time>
      </trkpt>
      <trkpt lat="45.20831" lon="5.23459">
        <ele>580</ele>
        <time>2017-05-07T08:49:44Z</time>
      </trkpt>
      <trkpt lat="45.20823" lon="5.23469">
        <ele>580</ele>
        <time>2017-05-07T08:49:49Z</time>
      </trkpt>
      <trkpt lat="45.20818" lon="5.23481">
        <ele>581</ele>
        <time>2017-05-07T08:49:54Z</time>
      </trkpt>
      <trkpt lat="45.20813" lon="5.23492">
        <ele>582</ele>
        <time>2017-05-07T08:49:59Z</time>
      </trkpt>
      <trkpt lat="45.20808" lon="5.23506">
        <ele>583</ele>
        <time>2017-05-07T08:50:04Z</time>
      </trkpt>
      <trkpt lat="45.20806" lon="5.23522">
        <ele>582</ele>
        <time>2017-05-07T08:50:09Z</time>
      </trkpt>
      <trkpt lat="45.20805" lon="5.23538">
        <ele>581</ele>
        <time>2017-05-07T08:50:14Z</time>
      </trkpt>
      <trkpt lat="45.20806" lon="5.23552">
        <ele>581</ele>
        <time>2017-05-07T08:50:19Z</time>
      </trkpt>
      <trkpt lat="45.20809" lon="5.23564">
        <ele>582</ele>
        <time>2017-05-07T08:50:25Z</time>
      </trkpt>
      <trkpt lat="45.20813" lon="5.23578">
        <ele>584</ele>
        <time>2017-05-07T08:50:31Z</time>
      </trkpt>
      <trkpt lat="45.20822" lon="5.23587">
        <ele>584</ele>
        <time>2017-05-07T08:50:38Z</time>
      </trkpt>
      <trkpt lat="45.2083" lon="5.23594">
        <ele>585</ele>
        <time>2017-05-07T08:50:44Z</time>
      </trkpt>
      <trkpt lat="45.2084" lon="5.23598">
        <ele>591</ele>
        <time>2017-05-07T08:50:48Z</time>
      </trkpt>
      <trkpt lat="45.20849" lon="5.23601">
        <ele>592</ele>
        <time>2017-05-07T08:50:52Z</time>
      </trkpt>
      <trkpt lat="45.20858" lon="5.23606">
        <ele>592</ele>
        <time>2017-05-07T08:50:56Z</time>
      </trkpt>
      <trkpt lat="45.20868" lon="5.23612">
        <ele>593</ele>
        <time>2017-05-07T08:51:01Z</time>
      </trkpt>
      <trkpt lat="45.20877" lon="5.23615">
        <ele>593</ele>
        <time>2017-05-07T08:51:05Z</time>
      </trkpt>
      <trkpt lat="45.20887" lon="5.23621">
        <ele>594</ele>
        <time>2017-05-07T08:51:10Z</time>
      </trkpt>
      <trkpt lat="45.20896" lon="5.23626">
        <ele>595</ele>
        <time>2017-05-07T08:51:16Z</time>
      </trkpt>
      <trkpt lat="45.20904" lon="5.23634">
        <ele>595</ele>
        <time>2017-05-07T08:51:28Z</time>
      </trkpt>
      <trkpt lat="45.20913" lon="5.23641">
        <ele>595</ele>
        <time>2017-05-07T08:51:45Z</time>
      </trkpt>
      <trkpt lat="45.20919" lon="5.2365">
        <ele>602</ele>
        <time>2017-05-07T08:51:51Z</time>
      </trkpt>
      <trkpt lat="45.20924" lon="5.23663">
        <ele>601</ele>
        <time>2017-05-07T08:51:58Z</time>
      </trkpt>
      <trkpt lat="45.20928" lon="5.23677">
        <ele>603</ele>
        <time>2017-05-07T08:52:04Z</time>
      </trkpt>
      <trkpt lat="45.20931" lon="5.23691">
        <ele>605</ele>
        <time>2017-05-07T08:52:09Z</time>
      </trkpt>
      <trkpt lat="45.20933" lon="5.23704">
        <ele>606</ele>
        <time>2017-05-07T08:52:14Z</time>
      </trkpt>
      <trkpt lat="45.20933" lon="5.23719">
        <ele>606</ele>
        <time>2017-05-07T08:52:19Z</time>
      </trkpt>
      <trkpt lat="45.20931" lon="5.23731">
        <ele>606</ele>
        <time>2017-05-07T08:52:23Z</time>
      </trkpt>
      <trkpt lat="45.20922" lon="5.23737">
        <ele>605</ele>
        <time>2017-05-07T08:52:28Z</time>
      </trkpt>
      <trkpt lat="45.20914" lon="5.23748">
        <ele>601</ele>
        <time>2017-05-07T08:52:33Z</time>
      </trkpt>
      <trkpt lat="45.20911" lon="5.23761">
        <ele>601</ele>
        <time>2017-05-07T08:52:37Z</time>
      </trkpt>
      <trkpt lat="45.20904" lon="5.2377">
        <ele>601</ele>
        <time>2017-05-07T08:52:42Z</time>
      </trkpt>
      <trkpt lat="45.20903" lon="5.23786">
        <ele>601</ele>
        <time>2017-05-07T08:52:48Z</time>
      </trkpt>
      <trkpt lat="45.20904" lon="5.23801">
        <ele>602</ele>
        <time>2017-05-07T08:52:52Z</time>
      </trkpt>
      <trkpt lat="45.20898" lon="5.23813">
        <ele>602</ele>
        <time>2017-05-07T08:52:58Z</time>
      </trkpt>
      <trkpt lat="45.20895" lon="5.23827">
        <ele>603</ele>
        <time>2017-05-07T08:53:03Z</time>
      </trkpt>
      <trkpt lat="45.20892" lon="5.23842">
        <ele>605</ele>
        <time>2017-05-07T08:53:08Z</time>
      </trkpt>
      <trkpt lat="45.20891" lon="5.23855">
        <ele>605</ele>
        <time>2017-05-07T08:53:12Z</time>
      </trkpt>
      <trkpt lat="45.20892" lon="5.23871">
        <ele>605</ele>
        <time>2017-05-07T08:53:17Z</time>
      </trkpt>
      <trkpt lat="45.20895" lon="5.23884">
        <ele>605</ele>
        <time>2017-05-07T08:53:24Z</time>
      </trkpt>
      <trkpt lat="45.20901" lon="5.23898">
        <ele>606</ele>
        <time>2017-05-07T08:53:30Z</time>
      </trkpt>
      <trkpt lat="45.20905" lon="5.23913">
        <ele>606</ele>
        <time>2017-05-07T08:53:35Z</time>
      </trkpt>
      <trkpt lat="45.20911" lon="5.23926">
        <ele>607</ele>
        <time>2017-05-07T08:53:40Z</time>
      </trkpt>
      <trkpt lat="45.20916" lon="5.23938">
        <ele>606</ele>
        <time>2017-05-07T08:53:44Z</time>
      </trkpt>
      <trkpt lat="45.20922" lon="5.23951">
        <ele>614</ele>
        <time>2017-05-07T08:53:50Z</time>
      </trkpt>
      <trkpt lat="45.20928" lon="5.23963">
        <ele>614</ele>
        <time>2017-05-07T08:53:58Z</time>
      </trkpt>
      <trkpt lat="45.20929" lon="5.23977">
        <ele>614</ele>
        <time>2017-05-07T08:54:04Z</time>
      </trkpt>
      <trkpt lat="45.2093" lon="5.24004">
        <ele>612</ele>
        <time>2017-05-07T08:54:16Z</time>
      </trkpt>
      <trkpt lat="45.20933" lon="5.24021">
        <ele>614</ele>
        <time>2017-05-07T08:54:18Z</time>
      </trkpt>
      <trkpt lat="45.20942" lon="5.24038">
        <ele>614</ele>
        <time>2017-05-07T08:54:25Z</time>
      </trkpt>
      <trkpt lat="45.20949" lon="5.24049">
        <ele>614</ele>
        <time>2017-05-07T08:54:27Z</time>
      </trkpt>
      <trkpt lat="45.20955" lon="5.24059">
        <ele>615</ele>
        <time>2017-05-07T08:54:32Z</time>
      </trkpt>
      <trkpt lat="45.20956" lon="5.24074">
        <ele>614</ele>
        <time>2017-05-07T08:54:38Z</time>
      </trkpt>
      <trkpt lat="45.20963" lon="5.24084">
        <ele>613</ele>
        <time>2017-05-07T08:54:44Z</time>
      </trkpt>
      <trkpt lat="45.2097" lon="5.24095">
        <ele>613</ele>
        <time>2017-05-07T08:54:49Z</time>
      </trkpt>
      <trkpt lat="45.20975" lon="5.24107">
        <ele>613</ele>
        <time>2017-05-07T08:54:53Z</time>
      </trkpt>
      <trkpt lat="45.20982" lon="5.24119">
        <ele>613</ele>
        <time>2017-05-07T08:54:57Z</time>
      </trkpt>
      <trkpt lat="45.20986" lon="5.24134">
        <ele>613</ele>
        <time>2017-05-07T08:55:01Z</time>
      </trkpt>
      <trkpt lat="45.20992" lon="5.24145">
        <ele>613</ele>
        <time>2017-05-07T08:55:05Z</time>
      </trkpt>
      <trkpt lat="45.20998" lon="5.24156">
        <ele>613</ele>
        <time>2017-05-07T08:55:09Z</time>
      </trkpt>
      <trkpt lat="45.21006" lon="5.24165">
        <ele>616</ele>
        <time>2017-05-07T08:55:13Z</time>
      </trkpt>
      <trkpt lat="45.21015" lon="5.24173">
        <ele>616</ele>
        <time>2017-05-07T08:55:17Z</time>
      </trkpt>
      <trkpt lat="45.21025" lon="5.2418">
        <ele>617</ele>
        <time>2017-05-07T08:55:22Z</time>
      </trkpt>
      <trkpt lat="45.2103" lon="5.24193">
        <ele>618</ele>
        <time>2017-05-07T08:55:28Z</time>
      </trkpt>
      <trkpt lat="45.21037" lon="5.24203">
        <ele>618</ele>
        <time>2017-05-07T08:55:34Z</time>
      </trkpt>
      <trkpt lat="45.21046" lon="5.24209">
        <ele>618</ele>
        <time>2017-05-07T08:55:39Z</time>
      </trkpt>
      <trkpt lat="45.21057" lon="5.24214">
        <ele>619</ele>
        <time>2017-05-07T08:55:44Z</time>
      </trkpt>
      <trkpt lat="45.21069" lon="5.24218">
        <ele>620</ele>
        <time>2017-05-07T08:55:49Z</time>
      </trkpt>
      <trkpt lat="45.21077" lon="5.24225">
        <ele>620</ele>
        <time>2017-05-07T08:55:55Z</time>
      </trkpt>
      <trkpt lat="45.21084" lon="5.24235">
        <ele>625</ele>
        <time>2017-05-07T08:56:01Z</time>
      </trkpt>
      <trkpt lat="45.21093" lon="5.24229">
        <ele>626</ele>
        <time>2017-05-07T08:56:09Z</time>
      </trkpt>
      <trkpt lat="45.21095" lon="5.24214">
        <ele>628</ele>
        <time>2017-05-07T08:56:18Z</time>
      </trkpt>
      <trkpt lat="45.21095" lon="5.242">
        <ele>629</ele>
        <time>2017-05-07T08:56:23Z</time>
      </trkpt>
      <trkpt lat="45.21097" lon="5.24186">
        <ele>629</ele>
        <time>2017-05-07T08:56:31Z</time>
      </trkpt>
      <trkpt lat="45.21097" lon="5.24172">
        <ele>629</ele>
        <time>2017-05-07T08:56:36Z</time>
      </trkpt>
      <trkpt lat="45.21095" lon="5.24158">
        <ele>631</ele>
        <time>2017-05-07T08:56:46Z</time>
      </trkpt>
      <trkpt lat="45.21093" lon="5.24144">
        <ele>632</ele>
        <time>2017-05-07T08:56:53Z</time>
      </trkpt>
      <trkpt lat="45.2109" lon="5.24128">
        <ele>632</ele>
        <time>2017-05-07T08:56:59Z</time>
      </trkpt>
      <trkpt lat="45.2109" lon="5.24112">
        <ele>633</ele>
        <time>2017-05-07T08:57:04Z</time>
      </trkpt>
      <trkpt lat="45.21089" lon="5.24096">
        <ele>633</ele>
        <time>2017-05-07T08:57:09Z</time>
      </trkpt>
      <trkpt lat="45.21084" lon="5.24082">
        <ele>632</ele>
        <time>2017-05-07T08:57:16Z</time>
      </trkpt>
      <trkpt lat="45.21086" lon="5.24068">
        <ele>633</ele>
        <time>2017-05-07T08:57:20Z</time>
      </trkpt>
      <trkpt lat="45.21086" lon="5.24052">
        <ele>634</ele>
        <time>2017-05-07T08:57:24Z</time>
      </trkpt>
      <trkpt lat="45.21084" lon="5.24037">
        <ele>634</ele>
        <time>2017-05-07T08:57:28Z</time>
      </trkpt>
      <trkpt lat="45.21086" lon="5.24023">
        <ele>634</ele>
        <time>2017-05-07T08:57:32Z</time>
      </trkpt>
      <trkpt lat="45.2109" lon="5.2401">
        <ele>634</ele>
        <time>2017-05-07T08:57:36Z</time>
      </trkpt>
      <trkpt lat="45.21088" lon="5.23993">
        <ele>634</ele>
        <time>2017-05-07T08:57:40Z</time>
      </trkpt>
      <trkpt lat="45.21083" lon="5.23979">
        <ele>631</ele>
        <time>2017-05-07T08:57:44Z</time>
      </trkpt>
      <trkpt lat="45.21083" lon="5.23966">
        <ele>630</ele>
        <time>2017-05-07T08:57:47Z</time>
      </trkpt>
      <trkpt lat="45.2108" lon="5.23952">
        <ele>630</ele>
        <time>2017-05-07T08:57:50Z</time>
      </trkpt>
      <trkpt lat="45.21077" lon="5.23934">
        <ele>630</ele>
        <time>2017-05-07T08:57:54Z</time>
      </trkpt>
      <trkpt lat="45.21075" lon="5.23918">
        <ele>631</ele>
        <time>2017-05-07T08:57:58Z</time>
      </trkpt>
      <trkpt lat="45.21077" lon="5.23904">
        <ele>629</ele>
        <time>2017-05-07T08:58:03Z</time>
      </trkpt>
      <trkpt lat="45.21082" lon="5.23892">
        <ele>628</ele>
        <time>2017-05-07T08:58:06Z</time>
      </trkpt>
      <trkpt lat="45.21088" lon="5.2388">
        <ele>629</ele>
        <time>2017-05-07T08:58:09Z</time>
      </trkpt>
      <trkpt lat="45.21096" lon="5.23869">
        <ele>629</ele>
        <time>2017-05-07T08:58:12Z</time>
      </trkpt>
      <trkpt lat="45.21107" lon="5.23858">
        <ele>628</ele>
        <time>2017-05-07T08:58:15Z</time>
      </trkpt>
      <trkpt lat="45.21117" lon="5.23855">
        <ele>628</ele>
        <time>2017-05-07T08:58:19Z</time>
      </trkpt>
      <trkpt lat="45.21145" lon="5.23852">
        <ele>628</ele>
        <time>2017-05-07T08:58:31Z</time>
      </trkpt>
      <trkpt lat="45.21156" lon="5.23852">
        <ele>628</ele>
        <time>2017-05-07T08:58:32Z</time>
      </trkpt>
      <trkpt lat="45.21166" lon="5.23852">
        <ele>628</ele>
        <time>2017-05-07T08:58:34Z</time>
      </trkpt>
      <trkpt lat="45.21176" lon="5.23843">
        <ele>628</ele>
        <time>2017-05-07T08:58:39Z</time>
      </trkpt>
      <trkpt lat="45.21188" lon="5.23836">
        <ele>629</ele>
        <time>2017-05-07T08:58:46Z</time>
      </trkpt>
      <trkpt lat="45.21199" lon="5.2383">
        <ele>627</ele>
        <time>2017-05-07T08:58:48Z</time>
      </trkpt>
      <trkpt lat="45.21208" lon="5.2382">
        <ele>627</ele>
        <time>2017-05-07T08:58:53Z</time>
      </trkpt>
      <trkpt lat="45.21217" lon="5.23815">
        <ele>627</ele>
        <time>2017-05-07T08:58:57Z</time>
      </trkpt>
      <trkpt lat="45.21227" lon="5.23807">
        <ele>627</ele>
        <time>2017-05-07T08:59:02Z</time>
      </trkpt>
      <trkpt lat="45.2123" lon="5.23793">
        <ele>626</ele>
        <time>2017-05-07T08:59:08Z</time>
      </trkpt>
      <trkpt lat="45.21239" lon="5.23783">
        <ele>626</ele>
        <time>2017-05-07T08:59:12Z</time>
      </trkpt>
      <trkpt lat="45.21247" lon="5.23776">
        <ele>626</ele>
        <time>2017-05-07T08:59:15Z</time>
      </trkpt>
      <trkpt lat="45.21256" lon="5.23765">
        <ele>627</ele>
        <time>2017-05-07T08:59:19Z</time>
      </trkpt>
      <trkpt lat="45.21265" lon="5.23755">
        <ele>627</ele>
        <time>2017-05-07T08:59:22Z</time>
      </trkpt>
      <trkpt lat="45.21272" lon="5.23745">
        <ele>626</ele>
        <time>2017-05-07T08:59:25Z</time>
      </trkpt>
      <trkpt lat="45.21279" lon="5.23734">
        <ele>626</ele>
        <time>2017-05-07T08:59:28Z</time>
      </trkpt>
      <trkpt lat="45.21288" lon="5.23721">
        <ele>626</ele>
        <time>2017-05-07T08:59:31Z</time>
      </trkpt>
      <trkpt lat="45.21294" lon="5.23707">
        <ele>626</ele>
        <time>2017-05-07T08:59:34Z</time>
      </trkpt>
      <trkpt lat="45.21303" lon="5.23693">
        <ele>625</ele>
        <time>2017-05-07T08:59:37Z</time>
      </trkpt>
      <trkpt lat="45.2131" lon="5.23681">
        <ele>626</ele>
        <time>2017-05-07T08:59:40Z</time>
      </trkpt>
      <trkpt lat="45.21319" lon="5.2367">
        <ele>626</ele>
        <time>2017-05-07T08:59:43Z</time>
      </trkpt>
      <trkpt lat="45.21328" lon="5.23659">
        <ele>625</ele>
        <time>2017-05-07T08:59:46Z</time>
      </trkpt>
      <trkpt lat="45.21335" lon="5.23647">
        <ele>625</ele>
        <time>2017-05-07T08:59:49Z</time>
      </trkpt>
      <trkpt lat="45.21345" lon="5.23636">
        <ele>624</ele>
        <time>2017-05-07T08:59:54Z</time>
      </trkpt>
      <trkpt lat="45.21352" lon="5.2362">
        <ele>624</ele>
        <time>2017-05-07T08:59:58Z</time>
      </trkpt>
      <trkpt lat="45.21357" lon="5.23606">
        <ele>623</ele>
        <time>2017-05-07T09:00:01Z</time>
      </trkpt>
      <trkpt lat="45.21363" lon="5.23592">
        <ele>623</ele>
        <time>2017-05-07T09:00:04Z</time>
      </trkpt>
      <trkpt lat="45.21371" lon="5.23577">
        <ele>621</ele>
        <time>2017-05-07T09:00:07Z</time>
      </trkpt>
      <trkpt lat="45.21378" lon="5.23564">
        <ele>621</ele>
        <time>2017-05-07T09:00:09Z</time>
      </trkpt>
      <trkpt lat="45.21385" lon="5.23552">
        <ele>620</ele>
        <time>2017-05-07T09:00:11Z</time>
      </trkpt>
      <trkpt lat="45.21391" lon="5.23542">
        <ele>620</ele>
        <time>2017-05-07T09:00:13Z</time>
      </trkpt>
      <trkpt lat="45.21397" lon="5.23532">
        <ele>620</ele>
        <time>2017-05-07T09:00:15Z</time>
      </trkpt>
      <trkpt lat="45.21404" lon="5.2352">
        <ele>620</ele>
        <time>2017-05-07T09:00:17Z</time>
      </trkpt>
      <trkpt lat="45.21412" lon="5.23505">
        <ele>621</ele>
        <time>2017-05-07T09:00:20Z</time>
      </trkpt>
      <trkpt lat="45.2142" lon="5.23495">
        <ele>621</ele>
        <time>2017-05-07T09:00:23Z</time>
      </trkpt>
      <trkpt lat="45.21429" lon="5.23486">
        <ele>621</ele>
        <time>2017-05-07T09:00:30Z</time>
      </trkpt>
      <trkpt lat="45.21438" lon="5.2348">
        <ele>620</ele>
        <time>2017-05-07T09:00:38Z</time>
      </trkpt>
      <trkpt lat="45.21443" lon="5.23465">
        <ele>620</ele>
        <time>2017-05-07T09:00:46Z</time>
      </trkpt>
      <trkpt lat="45.21445" lon="5.23451">
        <ele>620</ele>
        <time>2017-05-07T09:00:54Z</time>
      </trkpt>
      <trkpt lat="45.21449" lon="5.23438">
        <ele>620</ele>
        <time>2017-05-07T09:01:00Z</time>
      </trkpt>
      <trkpt lat="45.21449" lon="5.23424">
        <ele>620</ele>
        <time>2017-05-07T09:01:04Z</time>
      </trkpt>
      <trkpt lat="45.21453" lon="5.2341">
        <ele>620</ele>
        <time>2017-05-07T09:01:10Z</time>
      </trkpt>
      <trkpt lat="45.21457" lon="5.23395">
        <ele>620</ele>
        <time>2017-05-07T09:01:15Z</time>
      </trkpt>
      <trkpt lat="45.21462" lon="5.23384">
        <ele>620</ele>
        <time>2017-05-07T09:01:18Z</time>
      </trkpt>
      <trkpt lat="45.21466" lon="5.23365">
        <ele>621</ele>
        <time>2017-05-07T09:01:24Z</time>
      </trkpt>
      <trkpt lat="45.21474" lon="5.23352">
        <ele>621</ele>
        <time>2017-05-07T09:01:27Z</time>
      </trkpt>
      <trkpt lat="45.21481" lon="5.23337">
        <ele>621</ele>
        <time>2017-05-07T09:01:30Z</time>
      </trkpt>
      <trkpt lat="45.21487" lon="5.23324">
        <ele>621</ele>
        <time>2017-05-07T09:01:33Z</time>
      </trkpt>
      <trkpt lat="45.2149" lon="5.23309">
        <ele>621</ele>
        <time>2017-05-07T09:01:36Z</time>
      </trkpt>
      <trkpt lat="45.21494" lon="5.23297">
        <ele>621</ele>
        <time>2017-05-07T09:01:39Z</time>
      </trkpt>
      <trkpt lat="45.215" lon="5.23287">
        <ele>622</ele>
        <time>2017-05-07T09:01:42Z</time>
      </trkpt>
      <trkpt lat="45.21505" lon="5.23272">
        <ele>622</ele>
        <time>2017-05-07T09:01:45Z</time>
      </trkpt>
      <trkpt lat="45.21512" lon="5.23262">
        <ele>623</ele>
        <time>2017-05-07T09:01:48Z</time>
      </trkpt>
      <trkpt lat="45.21517" lon="5.2325">
        <ele>623</ele>
        <time>2017-05-07T09:01:51Z</time>
      </trkpt>
      <trkpt lat="45.21522" lon="5.23238">
        <ele>623</ele>
        <time>2017-05-07T09:01:54Z</time>
      </trkpt>
      <trkpt lat="45.21528" lon="5.23228">
        <ele>624</ele>
        <time>2017-05-07T09:01:56Z</time>
      </trkpt>
      <trkpt lat="45.21535" lon="5.23217">
        <ele>624</ele>
        <time>2017-05-07T09:01:59Z</time>
      </trkpt>
      <trkpt lat="45.21544" lon="5.23209">
        <ele>624</ele>
        <time>2017-05-07T09:02:01Z</time>
      </trkpt>
      <trkpt lat="45.21552" lon="5.23199">
        <ele>624</ele>
        <time>2017-05-07T09:02:04Z</time>
      </trkpt>
      <trkpt lat="45.21557" lon="5.23184">
        <ele>624</ele>
        <time>2017-05-07T09:02:07Z</time>
      </trkpt>
      <trkpt lat="45.21565" lon="5.2317">
        <ele>624</ele>
        <time>2017-05-07T09:02:10Z</time>
      </trkpt>
      <trkpt lat="45.21571" lon="5.23159">
        <ele>625</ele>
        <time>2017-05-07T09:02:12Z</time>
      </trkpt>
      <trkpt lat="45.21578" lon="5.23144">
        <ele>624</ele>
        <time>2017-05-07T09:02:15Z</time>
      </trkpt>
      <trkpt lat="45.21584" lon="5.23124">
        <ele>625</ele>
        <time>2017-05-07T09:02:18Z</time>
      </trkpt>
      <trkpt lat="45.21585" lon="5.23109">
        <ele>625</ele>
        <time>2017-05-07T09:02:21Z</time>
      </trkpt>
      <trkpt lat="45.2159" lon="5.23093">
        <ele>625</ele>
        <time>2017-05-07T09:02:24Z</time>
      </trkpt>
      <trkpt lat="45.21594" lon="5.23076">
        <ele>625</ele>
        <time>2017-05-07T09:02:27Z</time>
      </trkpt>
      <trkpt lat="45.21597" lon="5.2306">
        <ele>624</ele>
        <time>2017-05-07T09:02:30Z</time>
      </trkpt>
      <trkpt lat="45.216" lon="5.23044">
        <ele>624</ele>
        <time>2017-05-07T09:02:33Z</time>
      </trkpt>
      <trkpt lat="45.21606" lon="5.23027">
        <ele>624</ele>
        <time>2017-05-07T09:02:36Z</time>
      </trkpt>
      <trkpt lat="45.21611" lon="5.23011">
        <ele>624</ele>
        <time>2017-05-07T09:02:39Z</time>
      </trkpt>
      <trkpt lat="45.21615" lon="5.22993">
        <ele>624</ele>
        <time>2017-05-07T09:02:42Z</time>
      </trkpt>
      <trkpt lat="45.21617" lon="5.22979">
        <ele>624</ele>
        <time>2017-05-07T09:02:44Z</time>
      </trkpt>
      <trkpt lat="45.2162" lon="5.22966">
        <ele>624</ele>
        <time>2017-05-07T09:02:46Z</time>
      </trkpt>
      <trkpt lat="45.21623" lon="5.22952">
        <ele>624</ele>
        <time>2017-05-07T09:02:48Z</time>
      </trkpt>
      <trkpt lat="45.21627" lon="5.22937">
        <ele>624</ele>
        <time>2017-05-07T09:02:50Z</time>
      </trkpt>
      <trkpt lat="45.2163" lon="5.22924">
        <ele>624</ele>
        <time>2017-05-07T09:02:52Z</time>
      </trkpt>
      <trkpt lat="45.21634" lon="5.22906">
        <ele>625</ele>
        <time>2017-05-07T09:02:55Z</time>
      </trkpt>
      <trkpt lat="45.21637" lon="5.22888">
        <ele>625</ele>
        <time>2017-05-07T09:02:58Z</time>
      </trkpt>
      <trkpt lat="45.21642" lon="5.22871">
        <ele>625</ele>
        <time>2017-05-07T09:03:01Z</time>
      </trkpt>
      <trkpt lat="45.2165" lon="5.22863">
        <ele>625</ele>
        <time>2017-05-07T09:03:06Z</time>
      </trkpt>
      <trkpt lat="45.2166" lon="5.22871">
        <ele>625</ele>
        <time>2017-05-07T09:03:10Z</time>
      </trkpt>
      <trkpt lat="45.21671" lon="5.22877">
        <ele>625</ele>
        <time>2017-05-07T09:03:13Z</time>
      </trkpt>
      <trkpt lat="45.21684" lon="5.22882">
        <ele>625</ele>
        <time>2017-05-07T09:03:16Z</time>
      </trkpt>
      <trkpt lat="45.21695" lon="5.22888">
        <ele>625</ele>
        <time>2017-05-07T09:03:19Z</time>
      </trkpt>
      <trkpt lat="45.21706" lon="5.22894">
        <ele>625</ele>
        <time>2017-05-07T09:03:22Z</time>
      </trkpt>
      <trkpt lat="45.21718" lon="5.22892">
        <ele>625</ele>
        <time>2017-05-07T09:03:25Z</time>
      </trkpt>
      <trkpt lat="45.21724" lon="5.22882">
        <ele>625</ele>
        <time>2017-05-07T09:03:29Z</time>
      </trkpt>
      <trkpt lat="45.21721" lon="5.22866">
        <ele>625</ele>
        <time>2017-05-07T09:03:33Z</time>
      </trkpt>
      <trkpt lat="45.21728" lon="5.22854">
        <ele>625</ele>
        <time>2017-05-07T09:03:38Z</time>
      </trkpt>
      <trkpt lat="45.21737" lon="5.22844">
        <ele>626</ele>
        <time>2017-05-07T09:03:42Z</time>
      </trkpt>
      <trkpt lat="45.21748" lon="5.22838">
        <ele>626</ele>
        <time>2017-05-07T09:03:45Z</time>
      </trkpt>
      <trkpt lat="45.21756" lon="5.22831">
        <ele>626</ele>
        <time>2017-05-07T09:03:48Z</time>
      </trkpt>
      <trkpt lat="45.21766" lon="5.22822">
        <ele>627</ele>
        <time>2017-05-07T09:03:52Z</time>
      </trkpt>
      <trkpt lat="45.21776" lon="5.22814">
        <ele>627</ele>
        <time>2017-05-07T09:03:55Z</time>
      </trkpt>
      <trkpt lat="45.21785" lon="5.22811">
        <ele>627</ele>
        <time>2017-05-07T09:03:57Z</time>
      </trkpt>
      <trkpt lat="45.21797" lon="5.22806">
        <ele>628</ele>
        <time>2017-05-07T09:04:00Z</time>
      </trkpt>
      <trkpt lat="45.21814" lon="5.22796">
        <ele>628</ele>
        <time>2017-05-07T09:04:05Z</time>
      </trkpt>
      <trkpt lat="45.21825" lon="5.2279">
        <ele>628</ele>
        <time>2017-05-07T09:04:08Z</time>
      </trkpt>
      <trkpt lat="45.21837" lon="5.2278">
        <ele>629</ele>
        <time>2017-05-07T09:04:11Z</time>
      </trkpt>
      <trkpt lat="45.2185" lon="5.2277">
        <ele>629</ele>
        <time>2017-05-07T09:04:14Z</time>
      </trkpt>
      <trkpt lat="45.21858" lon="5.22759">
        <ele>629</ele>
        <time>2017-05-07T09:04:17Z</time>
      </trkpt>
      <trkpt lat="45.21867" lon="5.22752">
        <ele>630</ele>
        <time>2017-05-07T09:04:19Z</time>
      </trkpt>
      <trkpt lat="45.21873" lon="5.2274">
        <ele>631</ele>
        <time>2017-05-07T09:04:22Z</time>
      </trkpt>
      <trkpt lat="45.21881" lon="5.22732">
        <ele>631</ele>
        <time>2017-05-07T09:04:25Z</time>
      </trkpt>
      <trkpt lat="45.21889" lon="5.22722">
        <ele>631</ele>
        <time>2017-05-07T09:04:28Z</time>
      </trkpt>
      <trkpt lat="45.21898" lon="5.2271">
        <ele>632</ele>
        <time>2017-05-07T09:04:31Z</time>
      </trkpt>
      <trkpt lat="45.21908" lon="5.22699">
        <ele>632</ele>
        <time>2017-05-07T09:04:34Z</time>
      </trkpt>
      <trkpt lat="45.2192" lon="5.22678">
        <ele>632</ele>
        <time>2017-05-07T09:04:39Z</time>
      </trkpt>
      <trkpt lat="45.21927" lon="5.22669">
        <ele>632</ele>
        <time>2017-05-07T09:04:41Z</time>
      </trkpt>
      <trkpt lat="45.21936" lon="5.22661">
        <ele>632</ele>
        <time>2017-05-07T09:04:43Z</time>
      </trkpt>
      <trkpt lat="45.21944" lon="5.22652">
        <ele>632</ele>
        <time>2017-05-07T09:04:45Z</time>
      </trkpt>
      <trkpt lat="45.21953" lon="5.2264">
        <ele>632</ele>
        <time>2017-05-07T09:04:48Z</time>
      </trkpt>
      <trkpt lat="45.21964" lon="5.22632">
        <ele>632</ele>
        <time>2017-05-07T09:04:51Z</time>
      </trkpt>
      <trkpt lat="45.21973" lon="5.22625">
        <ele>632</ele>
        <time>2017-05-07T09:04:54Z</time>
      </trkpt>
      <trkpt lat="45.21983" lon="5.22617">
        <ele>632</ele>
        <time>2017-05-07T09:04:57Z</time>
      </trkpt>
      <trkpt lat="45.21996" lon="5.2261">
        <ele>632</ele>
        <time>2017-05-07T09:05:00Z</time>
      </trkpt>
      <trkpt lat="45.22008" lon="5.22602">
        <ele>632</ele>
        <time>2017-05-07T09:05:03Z</time>
      </trkpt>
      <trkpt lat="45.22019" lon="5.22595">
        <ele>632</ele>
        <time>2017-05-07T09:05:06Z</time>
      </trkpt>
      <trkpt lat="45.2203" lon="5.22588">
        <ele>632</ele>
        <time>2017-05-07T09:05:09Z</time>
      </trkpt>
      <trkpt lat="45.2204" lon="5.22579">
        <ele>632</ele>
        <time>2017-05-07T09:05:12Z</time>
      </trkpt>
      <trkpt lat="45.22051" lon="5.22568">
        <ele>632</ele>
        <time>2017-05-07T09:05:15Z</time>
      </trkpt>
      <trkpt lat="45.22058" lon="5.22558">
        <ele>632</ele>
        <time>2017-05-07T09:05:18Z</time>
      </trkpt>
      <trkpt lat="45.22068" lon="5.22549">
        <ele>632</ele>
        <time>2017-05-07T09:05:21Z</time>
      </trkpt>
      <trkpt lat="45.22079" lon="5.22539">
        <ele>632</ele>
        <time>2017-05-07T09:05:24Z</time>
      </trkpt>
      <trkpt lat="45.22092" lon="5.22528">
        <ele>631</ele>
        <time>2017-05-07T09:05:27Z</time>
      </trkpt>
      <trkpt lat="45.221" lon="5.22521">
        <ele>631</ele>
        <time>2017-05-07T09:05:29Z</time>
      </trkpt>
      <trkpt lat="45.22109" lon="5.22515">
        <ele>631</ele>
        <time>2017-05-07T09:05:31Z</time>
      </trkpt>
      <trkpt lat="45.22117" lon="5.22503">
        <ele>630</ele>
        <time>2017-05-07T09:05:34Z</time>
      </trkpt>
      <trkpt lat="45.22124" lon="5.22492">
        <ele>630</ele>
        <time>2017-05-07T09:05:37Z</time>
      </trkpt>
      <trkpt lat="45.22125" lon="5.22478">
        <ele>630</ele>
        <time>2017-05-07T09:05:43Z</time>
      </trkpt>
      <trkpt lat="45.22116" lon="5.22473">
        <ele>630</ele>
        <time>2017-05-07T09:05:50Z</time>
      </trkpt>
      <trkpt lat="45.22105" lon="5.22467">
        <ele>630</ele>
        <time>2017-05-07T09:05:55Z</time>
      </trkpt>
      <trkpt lat="45.22095" lon="5.22458">
        <ele>630</ele>
        <time>2017-05-07T09:06:01Z</time>
      </trkpt>
      <trkpt lat="45.22086" lon="5.22452">
        <ele>630</ele>
        <time>2017-05-07T09:06:06Z</time>
      </trkpt>
      <trkpt lat="45.22076" lon="5.22449">
        <ele>631</ele>
        <time>2017-05-07T09:06:10Z</time>
      </trkpt>
      <trkpt lat="45.22066" lon="5.22446">
        <ele>631</ele>
        <time>2017-05-07T09:06:15Z</time>
      </trkpt>
      <trkpt lat="45.22057" lon="5.2244">
        <ele>631</ele>
        <time>2017-05-07T09:06:20Z</time>
      </trkpt>
      <trkpt lat="45.22045" lon="5.22435">
        <ele>631</ele>
        <time>2017-05-07T09:06:24Z</time>
      </trkpt>
      <trkpt lat="45.22036" lon="5.22428">
        <ele>631</ele>
        <time>2017-05-07T09:06:28Z</time>
      </trkpt>
      <trkpt lat="45.22027" lon="5.22421">
        <ele>631</ele>
        <time>2017-05-07T09:06:32Z</time>
      </trkpt>
      <trkpt lat="45.22017" lon="5.22414">
        <ele>629</ele>
        <time>2017-05-07T09:06:35Z</time>
      </trkpt>
      <trkpt lat="45.22009" lon="5.22407">
        <ele>629</ele>
        <time>2017-05-07T09:06:38Z</time>
      </trkpt>
      <trkpt lat="45.22" lon="5.22404">
        <ele>629</ele>
        <time>2017-05-07T09:06:42Z</time>
      </trkpt>
      <trkpt lat="45.2199" lon="5.22399">
        <ele>628</ele>
        <time>2017-05-07T09:06:47Z</time>
      </trkpt>
      <trkpt lat="45.2198" lon="5.22394">
        <ele>628</ele>
        <time>2017-05-07T09:06:54Z</time>
      </trkpt>
      <trkpt lat="45.2197" lon="5.22388">
        <ele>628</ele>
        <time>2017-05-07T09:06:58Z</time>
      </trkpt>
      <trkpt lat="45.21961" lon="5.22385">
        <ele>627</ele>
        <time>2017-05-07T09:07:02Z</time>
      </trkpt>
      <trkpt lat="45.21952" lon="5.22383">
        <ele>627</ele>
        <time>2017-05-07T09:07:06Z</time>
      </trkpt>
      <trkpt lat="45.21944" lon="5.22376">
        <ele>627</ele>
        <time>2017-05-07T09:07:11Z</time>
      </trkpt>
      <trkpt lat="45.21933" lon="5.22369">
        <ele>627</ele>
        <time>2017-05-07T09:07:15Z</time>
      </trkpt>
      <trkpt lat="45.21924" lon="5.22365">
        <ele>627</ele>
        <time>2017-05-07T09:07:21Z</time>
      </trkpt>
      <trkpt lat="45.21916" lon="5.22361">
        <ele>627</ele>
        <time>2017-05-07T09:07:26Z</time>
      </trkpt>
      <trkpt lat="45.21907" lon="5.22357">
        <ele>627</ele>
        <time>2017-05-07T09:07:34Z</time>
      </trkpt>
      <trkpt lat="45.21897" lon="5.22352">
        <ele>627</ele>
        <time>2017-05-07T09:07:38Z</time>
      </trkpt>
      <trkpt lat="45.21887" lon="5.22352">
        <ele>627</ele>
        <time>2017-05-07T09:07:45Z</time>
      </trkpt>
      <trkpt lat="45.21878" lon="5.22346">
        <ele>628</ele>
        <time>2017-05-07T09:07:53Z</time>
      </trkpt>
      <trkpt lat="45.21872" lon="5.22336">
        <ele>628</ele>
        <time>2017-05-07T09:08:06Z</time>
      </trkpt>
      <trkpt lat="45.21873" lon="5.22322">
        <ele>628</ele>
        <time>2017-05-07T09:08:12Z</time>
      </trkpt>
      <trkpt lat="45.21876" lon="5.22308">
        <ele>628</ele>
        <time>2017-05-07T09:08:19Z</time>
      </trkpt>
      <trkpt lat="45.21879" lon="5.22291">
        <ele>628</ele>
        <time>2017-05-07T09:08:22Z</time>
      </trkpt>
      <trkpt lat="45.21885" lon="5.22281">
        <ele>628</ele>
        <time>2017-05-07T09:08:28Z</time>
      </trkpt>
      <trkpt lat="45.21882" lon="5.22266">
        <ele>628</ele>
        <time>2017-05-07T09:08:34Z</time>
      </trkpt>
      <trkpt lat="45.21887" lon="5.22255">
        <ele>628</ele>
        <time>2017-05-07T09:08:40Z</time>
      </trkpt>
      <trkpt lat="45.21884" lon="5.22237">
        <ele>629</ele>
        <time>2017-05-07T09:08:53Z</time>
      </trkpt>
      <trkpt lat="45.2189" lon="5.22226">
        <ele>629</ele>
        <time>2017-05-07T09:09:06Z</time>
      </trkpt>
      <trkpt lat="45.21898" lon="5.22216">
        <ele>629</ele>
        <time>2017-05-07T09:09:19Z</time>
      </trkpt>
      <trkpt lat="45.21904" lon="5.22227">
        <ele>629</ele>
        <time>2017-05-07T09:09:45Z</time>
      </trkpt>
      <trkpt lat="45.21914" lon="5.22225">
        <ele>628</ele>
        <time>2017-05-07T09:09:58Z</time>
      </trkpt>
      <trkpt lat="45.21905" lon="5.22233">
        <ele>628</ele>
        <time>2017-05-07T09:10:18Z</time>
      </trkpt>
      <trkpt lat="45.21897" lon="5.22238">
        <ele>628</ele>
        <time>2017-05-07T09:10:58Z</time>
      </trkpt>
      <trkpt lat="45.21886" lon="5.22238">
        <ele>629</ele>
        <time>2017-05-07T09:11:04Z</time>
      </trkpt>
      <trkpt lat="45.21876" lon="5.22237">
        <ele>629</ele>
        <time>2017-05-07T09:11:10Z</time>
      </trkpt>
      <trkpt lat="45.21865" lon="5.22236">
        <ele>630</ele>
        <time>2017-05-07T09:11:15Z</time>
      </trkpt>
      <trkpt lat="45.21857" lon="5.22229">
        <ele>630</ele>
        <time>2017-05-07T09:11:21Z</time>
      </trkpt>
      <trkpt lat="45.21849" lon="5.22223">
        <ele>630</ele>
        <time>2017-05-07T09:11:27Z</time>
      </trkpt>
      <trkpt lat="45.21837" lon="5.22219">
        <ele>630</ele>
        <time>2017-05-07T09:11:40Z</time>
      </trkpt>
      <trkpt lat="45.21828" lon="5.22214">
        <ele>631</ele>
        <time>2017-05-07T09:11:47Z</time>
      </trkpt>
      <trkpt lat="45.21818" lon="5.22207">
        <ele>631</ele>
        <time>2017-05-07T09:11:54Z</time>
      </trkpt>
      <trkpt lat="45.2181" lon="5.222">
        <ele>631</ele>
        <time>2017-05-07T09:11:58Z</time>
      </trkpt>
      <trkpt lat="45.21801" lon="5.22195">
        <ele>631</ele>
        <time>2017-05-07T09:12:01Z</time>
      </trkpt>
      <trkpt lat="45.2179" lon="5.22189">
        <ele>631</ele>
        <time>2017-05-07T09:12:05Z</time>
      </trkpt>
      <trkpt lat="45.21779" lon="5.22183">
        <ele>630</ele>
        <time>2017-05-07T09:12:09Z</time>
      </trkpt>
      <trkpt lat="45.21771" lon="5.22175">
        <ele>631</ele>
        <time>2017-05-07T09:12:14Z</time>
      </trkpt>
      <trkpt lat="45.2176" lon="5.22171">
        <ele>631</ele>
        <time>2017-05-07T09:12:17Z</time>
      </trkpt>
      <trkpt lat="45.2175" lon="5.22165">
        <ele>631</ele>
        <time>2017-05-07T09:12:20Z</time>
      </trkpt>
      <trkpt lat="45.2174" lon="5.22157">
        <ele>631</ele>
        <time>2017-05-07T09:12:23Z</time>
      </trkpt>
      <trkpt lat="45.2173" lon="5.22148">
        <ele>631</ele>
        <time>2017-05-07T09:12:26Z</time>
      </trkpt>
      <trkpt lat="45.2172" lon="5.2214">
        <ele>632</ele>
        <time>2017-05-07T09:12:29Z</time>
      </trkpt>
      <trkpt lat="45.21711" lon="5.22133">
        <ele>632</ele>
        <time>2017-05-07T09:12:33Z</time>
      </trkpt>
      <trkpt lat="45.21703" lon="5.2212">
        <ele>632</ele>
        <time>2017-05-07T09:12:39Z</time>
      </trkpt>
      <trkpt lat="45.21694" lon="5.22109">
        <ele>632</ele>
        <time>2017-05-07T09:12:42Z</time>
      </trkpt>
      <trkpt lat="45.21684" lon="5.22102">
        <ele>632</ele>
        <time>2017-05-07T09:12:45Z</time>
      </trkpt>
      <trkpt lat="45.2167" lon="5.22096">
        <ele>632</ele>
        <time>2017-05-07T09:12:49Z</time>
      </trkpt>
      <trkpt lat="45.21662" lon="5.22078">
        <ele>633</ele>
        <time>2017-05-07T09:12:55Z</time>
      </trkpt>
      <trkpt lat="45.21654" lon="5.22064">
        <ele>632</ele>
        <time>2017-05-07T09:12:57Z</time>
      </trkpt>
      <trkpt lat="45.21651" lon="5.22049">
        <ele>632</ele>
        <time>2017-05-07T09:13:00Z</time>
      </trkpt>
      <trkpt lat="45.21656" lon="5.22034">
        <ele>632</ele>
        <time>2017-05-07T09:13:04Z</time>
      </trkpt>
      <trkpt lat="45.2166" lon="5.22016">
        <ele>632</ele>
        <time>2017-05-07T09:13:07Z</time>
      </trkpt>
      <trkpt lat="45.21664" lon="5.22004">
        <ele>633</ele>
        <time>2017-05-07T09:13:10Z</time>
      </trkpt>
      <trkpt lat="45.21669" lon="5.21991">
        <ele>633</ele>
        <time>2017-05-07T09:13:14Z</time>
      </trkpt>
      <trkpt lat="45.21676" lon="5.21981">
        <ele>632</ele>
        <time>2017-05-07T09:13:17Z</time>
      </trkpt>
      <trkpt lat="45.21681" lon="5.21969">
        <ele>632</ele>
        <time>2017-05-07T09:13:21Z</time>
      </trkpt>
      <trkpt lat="45.21685" lon="5.21955">
        <ele>632</ele>
        <time>2017-05-07T09:13:23Z</time>
      </trkpt>
      <trkpt lat="45.21692" lon="5.21945">
        <ele>631</ele>
        <time>2017-05-07T09:13:25Z</time>
      </trkpt>
      <trkpt lat="45.217" lon="5.21929">
        <ele>631</ele>
        <time>2017-05-07T09:13:28Z</time>
      </trkpt>
      <trkpt lat="45.21707" lon="5.21916">
        <ele>628</ele>
        <time>2017-05-07T09:13:31Z</time>
      </trkpt>
      <trkpt lat="45.21726" lon="5.2188">
        <ele>628</ele>
        <time>2017-05-07T09:13:37Z</time>
      </trkpt>
      <trkpt lat="45.21734" lon="5.21871">
        <ele>627</ele>
        <time>2017-05-07T09:13:38Z</time>
      </trkpt>
      <trkpt lat="45.21745" lon="5.21863">
        <ele>627</ele>
        <time>2017-05-07T09:13:40Z</time>
      </trkpt>
      <trkpt lat="45.21753" lon="5.21855">
        <ele>626</ele>
        <time>2017-05-07T09:13:42Z</time>
      </trkpt>
      <trkpt lat="45.21752" lon="5.2184">
        <ele>626</ele>
        <time>2017-05-07T09:13:47Z</time>
      </trkpt>
      <trkpt lat="45.21742" lon="5.21837">
        <ele>626</ele>
        <time>2017-05-07T09:13:50Z</time>
      </trkpt>
      <trkpt lat="45.21731" lon="5.21835">
        <ele>626</ele>
        <time>2017-05-07T09:13:53Z</time>
      </trkpt>
      <trkpt lat="45.21721" lon="5.21831">
        <ele>623</ele>
        <time>2017-05-07T09:13:56Z</time>
      </trkpt>
      <trkpt lat="45.21709" lon="5.21827">
        <ele>623</ele>
        <time>2017-05-07T09:13:59Z</time>
      </trkpt>
      <trkpt lat="45.21699" lon="5.21824">
        <ele>623</ele>
        <time>2017-05-07T09:14:02Z</time>
      </trkpt>
      <trkpt lat="45.21687" lon="5.21821">
        <ele>623</ele>
        <time>2017-05-07T09:14:05Z</time>
      </trkpt>
      <trkpt lat="45.21677" lon="5.21818">
        <ele>623</ele>
        <time>2017-05-07T09:14:07Z</time>
      </trkpt>
      <trkpt lat="45.21666" lon="5.21814">
        <ele>623</ele>
        <time>2017-05-07T09:14:10Z</time>
      </trkpt>
      <trkpt lat="45.21656" lon="5.21811">
        <ele>623</ele>
        <time>2017-05-07T09:14:13Z</time>
      </trkpt>
      <trkpt lat="45.21646" lon="5.21807">
        <ele>623</ele>
        <time>2017-05-07T09:14:16Z</time>
      </trkpt>
      <trkpt lat="45.21636" lon="5.21804">
        <ele>623</ele>
        <time>2017-05-07T09:14:19Z</time>
      </trkpt>
      <trkpt lat="45.21625" lon="5.21801">
        <ele>623</ele>
        <time>2017-05-07T09:14:22Z</time>
      </trkpt>
      <trkpt lat="45.21613" lon="5.21798">
        <ele>623</ele>
        <time>2017-05-07T09:14:25Z</time>
      </trkpt>
      <trkpt lat="45.21603" lon="5.21797">
        <ele>624</ele>
        <time>2017-05-07T09:14:28Z</time>
      </trkpt>
      <trkpt lat="45.21594" lon="5.21795">
        <ele>624</ele>
        <time>2017-05-07T09:14:31Z</time>
      </trkpt>
      <trkpt lat="45.21584" lon="5.21795">
        <ele>624</ele>
        <time>2017-05-07T09:14:34Z</time>
      </trkpt>
      <trkpt lat="45.21578" lon="5.21782">
        <ele>624</ele>
        <time>2017-05-07T09:14:37Z</time>
      </trkpt>
      <trkpt lat="45.21578" lon="5.21768">
        <ele>623</ele>
        <time>2017-05-07T09:14:40Z</time>
      </trkpt>
      <trkpt lat="45.2158" lon="5.21751">
        <ele>622</ele>
        <time>2017-05-07T09:14:43Z</time>
      </trkpt>
      <trkpt lat="45.21581" lon="5.21731">
        <ele>621</ele>
        <time>2017-05-07T09:14:46Z</time>
      </trkpt>
      <trkpt lat="45.21582" lon="5.21716">
        <ele>621</ele>
        <time>2017-05-07T09:14:48Z</time>
      </trkpt>
      <trkpt lat="45.21584" lon="5.21701">
        <ele>620</ele>
        <time>2017-05-07T09:14:50Z</time>
      </trkpt>
      <trkpt lat="45.21585" lon="5.21686">
        <ele>620</ele>
        <time>2017-05-07T09:14:52Z</time>
      </trkpt>
      <trkpt lat="45.21587" lon="5.2167">
        <ele>619</ele>
        <time>2017-05-07T09:14:54Z</time>
      </trkpt>
      <trkpt lat="45.21589" lon="5.21652">
        <ele>619</ele>
        <time>2017-05-07T09:14:56Z</time>
      </trkpt>
      <trkpt lat="45.21592" lon="5.21633">
        <ele>618</ele>
        <time>2017-05-07T09:14:58Z</time>
      </trkpt>
      <trkpt lat="45.21592" lon="5.21614">
        <ele>618</ele>
        <time>2017-05-07T09:15:00Z</time>
      </trkpt>
      <trkpt lat="45.21593" lon="5.21593">
        <ele>618</ele>
        <time>2017-05-07T09:15:02Z</time>
      </trkpt>
      <trkpt lat="45.21594" lon="5.21572">
        <ele>617</ele>
        <time>2017-05-07T09:15:04Z</time>
      </trkpt>
      <trkpt lat="45.21597" lon="5.21549">
        <ele>616</ele>
        <time>2017-05-07T09:15:06Z</time>
      </trkpt>
      <trkpt lat="45.21598" lon="5.21527">
        <ele>616</ele>
        <time>2017-05-07T09:15:08Z</time>
      </trkpt>
      <trkpt lat="45.21599" lon="5.21504">
        <ele>615</ele>
        <time>2017-05-07T09:15:10Z</time>
      </trkpt>
      <trkpt lat="45.21601" lon="5.2148">
        <ele>613</ele>
        <time>2017-05-07T09:15:12Z</time>
      </trkpt>
      <trkpt lat="45.21604" lon="5.21458">
        <ele>612</ele>
        <time>2017-05-07T09:15:14Z</time>
      </trkpt>
      <trkpt lat="45.21606" lon="5.21435">
        <ele>612</ele>
        <time>2017-05-07T09:15:16Z</time>
      </trkpt>
      <trkpt lat="45.21608" lon="5.21415">
        <ele>609</ele>
        <time>2017-05-07T09:15:18Z</time>
      </trkpt>
      <trkpt lat="45.21609" lon="5.21394">
        <ele>609</ele>
        <time>2017-05-07T09:15:20Z</time>
      </trkpt>
      <trkpt lat="45.2161" lon="5.21373">
        <ele>608</ele>
        <time>2017-05-07T09:15:22Z</time>
      </trkpt>
      <trkpt lat="45.21613" lon="5.21353">
        <ele>608</ele>
        <time>2017-05-07T09:15:24Z</time>
      </trkpt>
      <trkpt lat="45.21615" lon="5.21335">
        <ele>608</ele>
        <time>2017-05-07T09:15:26Z</time>
      </trkpt>
      <trkpt lat="45.21617" lon="5.21317">
        <ele>607</ele>
        <time>2017-05-07T09:15:28Z</time>
      </trkpt>
      <trkpt lat="45.21618" lon="5.213">
        <ele>607</ele>
        <time>2017-05-07T09:15:30Z</time>
      </trkpt>
      <trkpt lat="45.21622" lon="5.21282">
        <ele>608</ele>
        <time>2017-05-07T09:15:32Z</time>
      </trkpt>
      <trkpt lat="45.21623" lon="5.21265">
        <ele>608</ele>
        <time>2017-05-07T09:15:34Z</time>
      </trkpt>
      <trkpt lat="45.21624" lon="5.21249">
        <ele>608</ele>
        <time>2017-05-07T09:15:36Z</time>
      </trkpt>
      <trkpt lat="45.21625" lon="5.21234">
        <ele>608</ele>
        <time>2017-05-07T09:15:38Z</time>
      </trkpt>
      <trkpt lat="45.21626" lon="5.21221">
        <ele>608</ele>
        <time>2017-05-07T09:15:40Z</time>
      </trkpt>
      <trkpt lat="45.2163" lon="5.21192">
        <ele>608</ele>
        <time>2017-05-07T09:15:44Z</time>
      </trkpt>
      <trkpt lat="45.21632" lon="5.21177">
        <ele>608</ele>
        <time>2017-05-07T09:15:46Z</time>
      </trkpt>
      <trkpt lat="45.21636" lon="5.21162">
        <ele>606</ele>
        <time>2017-05-07T09:15:48Z</time>
      </trkpt>
      <trkpt lat="45.21637" lon="5.21145">
        <ele>606</ele>
        <time>2017-05-07T09:15:50Z</time>
      </trkpt>
      <trkpt lat="45.21637" lon="5.21128">
        <ele>605</ele>
        <time>2017-05-07T09:15:52Z</time>
      </trkpt>
      <trkpt lat="45.21637" lon="5.21111">
        <ele>605</ele>
        <time>2017-05-07T09:15:54Z</time>
      </trkpt>
      <trkpt lat="45.21638" lon="5.21092">
        <ele>605</ele>
        <time>2017-05-07T09:15:56Z</time>
      </trkpt>
      <trkpt lat="45.2164" lon="5.21074">
        <ele>603</ele>
        <time>2017-05-07T09:15:58Z</time>
      </trkpt>
      <trkpt lat="45.21642" lon="5.21055">
        <ele>603</ele>
        <time>2017-05-07T09:16:00Z</time>
      </trkpt>
      <trkpt lat="45.21643" lon="5.21037">
        <ele>602</ele>
        <time>2017-05-07T09:16:02Z</time>
      </trkpt>
      <trkpt lat="45.21645" lon="5.21018">
        <ele>602</ele>
        <time>2017-05-07T09:16:04Z</time>
      </trkpt>
      <trkpt lat="45.21646" lon="5.20997">
        <ele>601</ele>
        <time>2017-05-07T09:16:06Z</time>
      </trkpt>
      <trkpt lat="45.21648" lon="5.20975">
        <ele>600</ele>
        <time>2017-05-07T09:16:08Z</time>
      </trkpt>
      <trkpt lat="45.2165" lon="5.20953">
        <ele>600</ele>
        <time>2017-05-07T09:16:10Z</time>
      </trkpt>
      <trkpt lat="45.21652" lon="5.20933">
        <ele>599</ele>
        <time>2017-05-07T09:16:12Z</time>
      </trkpt>
      <trkpt lat="45.21654" lon="5.20918">
        <ele>599</ele>
        <time>2017-05-07T09:16:14Z</time>
      </trkpt>
      <trkpt lat="45.21649" lon="5.20906">
        <ele>597</ele>
        <time>2017-05-07T09:16:18Z</time>
      </trkpt>
      <trkpt lat="45.21639" lon="5.20908">
        <ele>597</ele>
        <time>2017-05-07T09:16:21Z</time>
      </trkpt>
      <trkpt lat="45.21627" lon="5.20906">
        <ele>596</ele>
        <time>2017-05-07T09:16:25Z</time>
      </trkpt>
      <trkpt lat="45.21612" lon="5.20904">
        <ele>595</ele>
        <time>2017-05-07T09:16:28Z</time>
      </trkpt>
      <trkpt lat="45.216" lon="5.20907">
        <ele>595</ele>
        <time>2017-05-07T09:16:30Z</time>
      </trkpt>
      <trkpt lat="45.21586" lon="5.20911">
        <ele>594</ele>
        <time>2017-05-07T09:16:32Z</time>
      </trkpt>
      <trkpt lat="45.2157" lon="5.20912">
        <ele>591</ele>
        <time>2017-05-07T09:16:34Z</time>
      </trkpt>
      <trkpt lat="45.21554" lon="5.20912">
        <ele>589</ele>
        <time>2017-05-07T09:16:36Z</time>
      </trkpt>
      <trkpt lat="45.21544" lon="5.2091">
        <ele>588</ele>
        <time>2017-05-07T09:16:39Z</time>
      </trkpt>
      <trkpt lat="45.21533" lon="5.20903">
        <ele>587</ele>
        <time>2017-05-07T09:16:42Z</time>
      </trkpt>
      <trkpt lat="45.21522" lon="5.20895">
        <ele>586</ele>
        <time>2017-05-07T09:16:44Z</time>
      </trkpt>
      <trkpt lat="45.21512" lon="5.20893">
        <ele>585</ele>
        <time>2017-05-07T09:16:46Z</time>
      </trkpt>
      <trkpt lat="45.21499" lon="5.20892">
        <ele>577</ele>
        <time>2017-05-07T09:16:48Z</time>
      </trkpt>
      <trkpt lat="45.21488" lon="5.20893">
        <ele>576</ele>
        <time>2017-05-07T09:16:51Z</time>
      </trkpt>
      <trkpt lat="45.21477" lon="5.20898">
        <ele>575</ele>
        <time>2017-05-07T09:16:55Z</time>
      </trkpt>
      <trkpt lat="45.21468" lon="5.20916">
        <ele>575</ele>
        <time>2017-05-07T09:16:58Z</time>
      </trkpt>
      <trkpt lat="45.21458" lon="5.20927">
        <ele>575</ele>
        <time>2017-05-07T09:17:01Z</time>
      </trkpt>
      <trkpt lat="45.21448" lon="5.20929">
        <ele>573</ele>
        <time>2017-05-07T09:17:03Z</time>
      </trkpt>
      <trkpt lat="45.21436" lon="5.20929">
        <ele>571</ele>
        <time>2017-05-07T09:17:05Z</time>
      </trkpt>
      <trkpt lat="45.21424" lon="5.20929">
        <ele>569</ele>
        <time>2017-05-07T09:17:07Z</time>
      </trkpt>
      <trkpt lat="45.21412" lon="5.20929">
        <ele>564</ele>
        <time>2017-05-07T09:17:09Z</time>
      </trkpt>
      <trkpt lat="45.21401" lon="5.20929">
        <ele>563</ele>
        <time>2017-05-07T09:17:11Z</time>
      </trkpt>
      <trkpt lat="45.2139" lon="5.20928">
        <ele>563</ele>
        <time>2017-05-07T09:17:13Z</time>
      </trkpt>
      <trkpt lat="45.21377" lon="5.20927">
        <ele>562</ele>
        <time>2017-05-07T09:17:15Z</time>
      </trkpt>
      <trkpt lat="45.21363" lon="5.20925">
        <ele>561</ele>
        <time>2017-05-07T09:17:17Z</time>
      </trkpt>
      <trkpt lat="45.21349" lon="5.2092">
        <ele>559</ele>
        <time>2017-05-07T09:17:19Z</time>
      </trkpt>
      <trkpt lat="45.21338" lon="5.20913">
        <ele>557</ele>
        <time>2017-05-07T09:17:21Z</time>
      </trkpt>
      <trkpt lat="45.21326" lon="5.20904">
        <ele>558</ele>
        <time>2017-05-07T09:17:24Z</time>
      </trkpt>
      <trkpt lat="45.21316" lon="5.20902">
        <ele>558</ele>
        <time>2017-05-07T09:17:29Z</time>
      </trkpt>
      <trkpt lat="45.21307" lon="5.20906">
        <ele>559</ele>
        <time>2017-05-07T09:17:35Z</time>
      </trkpt>
      <trkpt lat="45.21298" lon="5.20914">
        <ele>559</ele>
        <time>2017-05-07T09:17:42Z</time>
      </trkpt>
      <trkpt lat="45.2129" lon="5.20922">
        <ele>561</ele>
        <time>2017-05-07T09:17:49Z</time>
      </trkpt>
      <trkpt lat="45.21282" lon="5.20931">
        <ele>561</ele>
        <time>2017-05-07T09:17:57Z</time>
      </trkpt>
      <trkpt lat="45.21274" lon="5.20939">
        <ele>562</ele>
        <time>2017-05-07T09:18:03Z</time>
      </trkpt>
      <trkpt lat="45.21266" lon="5.20947">
        <ele>562</ele>
        <time>2017-05-07T09:18:11Z</time>
      </trkpt>
      <trkpt lat="45.21258" lon="5.20954">
        <ele>562</ele>
        <time>2017-05-07T09:18:18Z</time>
      </trkpt>
      <trkpt lat="45.21249" lon="5.20959">
        <ele>565</ele>
        <time>2017-05-07T09:18:26Z</time>
      </trkpt>
      <trkpt lat="45.21239" lon="5.20965">
        <ele>565</ele>
        <time>2017-05-07T09:18:34Z</time>
      </trkpt>
      <trkpt lat="45.2123" lon="5.20971">
        <ele>565</ele>
        <time>2017-05-07T09:18:42Z</time>
      </trkpt>
      <trkpt lat="45.21221" lon="5.20975">
        <ele>565</ele>
        <time>2017-05-07T09:18:50Z</time>
      </trkpt>
      <trkpt lat="45.21211" lon="5.20978">
        <ele>565</ele>
        <time>2017-05-07T09:18:57Z</time>
      </trkpt>
      <trkpt lat="45.21201" lon="5.20982">
        <ele>565</ele>
        <time>2017-05-07T09:19:06Z</time>
      </trkpt>
      <trkpt lat="45.21192" lon="5.20987">
        <ele>565</ele>
        <time>2017-05-07T09:19:12Z</time>
      </trkpt>
      <trkpt lat="45.21182" lon="5.20991">
        <ele>566</ele>
        <time>2017-05-07T09:19:15Z</time>
      </trkpt>
      <trkpt lat="45.21172" lon="5.20997">
        <ele>566</ele>
        <time>2017-05-07T09:19:18Z</time>
      </trkpt>
      <trkpt lat="45.2116" lon="5.21">
        <ele>565</ele>
        <time>2017-05-07T09:19:21Z</time>
      </trkpt>
      <trkpt lat="45.2115" lon="5.21002">
        <ele>565</ele>
        <time>2017-05-07T09:19:23Z</time>
      </trkpt>
      <trkpt lat="45.21138" lon="5.21006">
        <ele>564</ele>
        <time>2017-05-07T09:19:25Z</time>
      </trkpt>
      <trkpt lat="45.21128" lon="5.21015">
        <ele>564</ele>
        <time>2017-05-07T09:19:28Z</time>
      </trkpt>
      <trkpt lat="45.21119" lon="5.21021">
        <ele>563</ele>
        <time>2017-05-07T09:19:31Z</time>
      </trkpt>
      <trkpt lat="45.21107" lon="5.21028">
        <ele>563</ele>
        <time>2017-05-07T09:19:34Z</time>
      </trkpt>
      <trkpt lat="45.21095" lon="5.21037">
        <ele>563</ele>
        <time>2017-05-07T09:19:37Z</time>
      </trkpt>
      <trkpt lat="45.21083" lon="5.21048">
        <ele>560</ele>
        <time>2017-05-07T09:19:40Z</time>
      </trkpt>
      <trkpt lat="45.21076" lon="5.21058">
        <ele>561</ele>
        <time>2017-05-07T09:19:43Z</time>
      </trkpt>
      <trkpt lat="45.21067" lon="5.2107">
        <ele>561</ele>
        <time>2017-05-07T09:19:47Z</time>
      </trkpt>
      <trkpt lat="45.21058" lon="5.21077">
        <ele>561</ele>
        <time>2017-05-07T09:19:50Z</time>
      </trkpt>
      <trkpt lat="45.2105" lon="5.2108">
        <ele>561</ele>
        <time>2017-05-07T09:19:53Z</time>
      </trkpt>
      <trkpt lat="45.21041" lon="5.21086">
        <ele>563</ele>
        <time>2017-05-07T09:20:01Z</time>
      </trkpt>
      <trkpt lat="45.21031" lon="5.21091">
        <ele>564</ele>
        <time>2017-05-07T09:20:07Z</time>
      </trkpt>
      <trkpt lat="45.21022" lon="5.21097">
        <ele>564</ele>
        <time>2017-05-07T09:20:16Z</time>
      </trkpt>
      <trkpt lat="45.21013" lon="5.21103">
        <ele>564</ele>
        <time>2017-05-07T09:20:24Z</time>
      </trkpt>
      <trkpt lat="45.21003" lon="5.21106">
        <ele>564</ele>
        <time>2017-05-07T09:20:31Z</time>
      </trkpt>
      <trkpt lat="45.20994" lon="5.21108">
        <ele>568</ele>
        <time>2017-05-07T09:20:38Z</time>
      </trkpt>
      <trkpt lat="45.20985" lon="5.21115">
        <ele>569</ele>
        <time>2017-05-07T09:20:45Z</time>
      </trkpt>
      <trkpt lat="45.20975" lon="5.21115">
        <ele>570</ele>
        <time>2017-05-07T09:20:54Z</time>
      </trkpt>
      <trkpt lat="45.20968" lon="5.21123">
        <ele>571</ele>
        <time>2017-05-07T09:21:07Z</time>
      </trkpt>
      <trkpt lat="45.20958" lon="5.21129">
        <ele>572</ele>
        <time>2017-05-07T09:21:16Z</time>
      </trkpt>
      <trkpt lat="45.20949" lon="5.21134">
        <ele>573</ele>
        <time>2017-05-07T09:21:32Z</time>
      </trkpt>
      <trkpt lat="45.20941" lon="5.21144">
        <ele>574</ele>
        <time>2017-05-07T09:21:50Z</time>
      </trkpt>
      <trkpt lat="45.20933" lon="5.21152">
        <ele>576</ele>
        <time>2017-05-07T09:21:57Z</time>
      </trkpt>
      <trkpt lat="45.20923" lon="5.2115">
        <ele>576</ele>
        <time>2017-05-07T09:22:07Z</time>
      </trkpt>
      <trkpt lat="45.20914" lon="5.21155">
        <ele>582</ele>
        <time>2017-05-07T09:22:44Z</time>
      </trkpt>
      <trkpt lat="45.20905" lon="5.21159">
        <ele>582</ele>
        <time>2017-05-07T09:22:53Z</time>
      </trkpt>
      <trkpt lat="45.20896" lon="5.21166">
        <ele>583</ele>
        <time>2017-05-07T09:23:01Z</time>
      </trkpt>
      <trkpt lat="45.20887" lon="5.21168">
        <ele>585</ele>
        <time>2017-05-07T09:23:08Z</time>
      </trkpt>
      <trkpt lat="45.20878" lon="5.21173">
        <ele>586</ele>
        <time>2017-05-07T09:23:15Z</time>
      </trkpt>
      <trkpt lat="45.20869" lon="5.21177">
        <ele>587</ele>
        <time>2017-05-07T09:23:23Z</time>
      </trkpt>
      <trkpt lat="45.2086" lon="5.2118">
        <ele>588</ele>
        <time>2017-05-07T09:23:29Z</time>
      </trkpt>
      <trkpt lat="45.20851" lon="5.21184">
        <ele>588</ele>
        <time>2017-05-07T09:23:36Z</time>
      </trkpt>
      <trkpt lat="45.20841" lon="5.21187">
        <ele>589</ele>
        <time>2017-05-07T09:23:43Z</time>
      </trkpt>
      <trkpt lat="45.20832" lon="5.2119">
        <ele>592</ele>
        <time>2017-05-07T09:23:50Z</time>
      </trkpt>
      <trkpt lat="45.20822" lon="5.21193">
        <ele>592</ele>
        <time>2017-05-07T09:23:56Z</time>
      </trkpt>
      <trkpt lat="45.20812" lon="5.21194">
        <ele>592</ele>
        <time>2017-05-07T09:24:02Z</time>
      </trkpt>
      <trkpt lat="45.20803" lon="5.21197">
        <ele>592</ele>
        <time>2017-05-07T09:24:08Z</time>
      </trkpt>
      <trkpt lat="45.20793" lon="5.2119">
        <ele>591</ele>
        <time>2017-05-07T09:24:14Z</time>
      </trkpt>
      <trkpt lat="45.20789" lon="5.21176">
        <ele>591</ele>
        <time>2017-05-07T09:24:17Z</time>
      </trkpt>
      <trkpt lat="45.20785" lon="5.21162">
        <ele>589</ele>
        <time>2017-05-07T09:24:20Z</time>
      </trkpt>
      <trkpt lat="45.2078" lon="5.21147">
        <ele>589</ele>
        <time>2017-05-07T09:24:23Z</time>
      </trkpt>
      <trkpt lat="45.20774" lon="5.2113">
        <ele>589</ele>
        <time>2017-05-07T09:24:26Z</time>
      </trkpt>
      <trkpt lat="45.20768" lon="5.21112">
        <ele>589</ele>
        <time>2017-05-07T09:24:29Z</time>
      </trkpt>
      <trkpt lat="45.20764" lon="5.21098">
        <ele>588</ele>
        <time>2017-05-07T09:24:31Z</time>
      </trkpt>
      <trkpt lat="45.20761" lon="5.21084">
        <ele>588</ele>
        <time>2017-05-07T09:24:33Z</time>
      </trkpt>
      <trkpt lat="45.20757" lon="5.21069">
        <ele>587</ele>
        <time>2017-05-07T09:24:35Z</time>
      </trkpt>
      <trkpt lat="45.20754" lon="5.21052">
        <ele>587</ele>
        <time>2017-05-07T09:24:37Z</time>
      </trkpt>
      <trkpt lat="45.20749" lon="5.21035">
        <ele>585</ele>
        <time>2017-05-07T09:24:39Z</time>
      </trkpt>
      <trkpt lat="45.20743" lon="5.21018">
        <ele>585</ele>
        <time>2017-05-07T09:24:41Z</time>
      </trkpt>
      <trkpt lat="45.20738" lon="5.21001">
        <ele>586</ele>
        <time>2017-05-07T09:24:43Z</time>
      </trkpt>
      <trkpt lat="45.20732" lon="5.20986">
        <ele>586</ele>
        <time>2017-05-07T09:24:45Z</time>
      </trkpt>
      <trkpt lat="45.20726" lon="5.20973">
        <ele>586</ele>
        <time>2017-05-07T09:24:47Z</time>
      </trkpt>
      <trkpt lat="45.20721" lon="5.20959">
        <ele>585</ele>
        <time>2017-05-07T09:24:49Z</time>
      </trkpt>
      <trkpt lat="45.20717" lon="5.20947">
        <ele>585</ele>
        <time>2017-05-07T09:24:51Z</time>
      </trkpt>
      <trkpt lat="45.20712" lon="5.20929">
        <ele>585</ele>
        <time>2017-05-07T09:24:54Z</time>
      </trkpt>
      <trkpt lat="45.20705" lon="5.20913">
        <ele>585</ele>
        <time>2017-05-07T09:24:57Z</time>
      </trkpt>
      <trkpt lat="45.207" lon="5.20899">
        <ele>585</ele>
        <time>2017-05-07T09:25:00Z</time>
      </trkpt>
      <trkpt lat="45.20693" lon="5.20884">
        <ele>585</ele>
        <time>2017-05-07T09:25:03Z</time>
      </trkpt>
      <trkpt lat="45.20686" lon="5.20867">
        <ele>585</ele>
        <time>2017-05-07T09:25:06Z</time>
      </trkpt>
      <trkpt lat="45.20679" lon="5.2085">
        <ele>585</ele>
        <time>2017-05-07T09:25:09Z</time>
      </trkpt>
      <trkpt lat="45.20674" lon="5.20833">
        <ele>586</ele>
        <time>2017-05-07T09:25:12Z</time>
      </trkpt>
      <trkpt lat="45.20668" lon="5.20816">
        <ele>585</ele>
        <time>2017-05-07T09:25:15Z</time>
      </trkpt>
      <trkpt lat="45.20663" lon="5.20799">
        <ele>584</ele>
        <time>2017-05-07T09:25:18Z</time>
      </trkpt>
      <trkpt lat="45.20663" lon="5.20783">
        <ele>584</ele>
        <time>2017-05-07T09:25:21Z</time>
      </trkpt>
      <trkpt lat="45.2066" lon="5.2077">
        <ele>584</ele>
        <time>2017-05-07T09:25:25Z</time>
      </trkpt>
      <trkpt lat="45.20661" lon="5.20755">
        <ele>586</ele>
        <time>2017-05-07T09:32:39Z</time>
      </trkpt>
      <trkpt lat="45.20661" lon="5.20741">
        <ele>587</ele>
        <time>2017-05-07T09:32:44Z</time>
      </trkpt>
      <trkpt lat="45.2066" lon="5.20727">
        <ele>587</ele>
        <time>2017-05-07T09:32:49Z</time>
      </trkpt>
      <trkpt lat="45.20659" lon="5.20713">
        <ele>588</ele>
        <time>2017-05-07T09:32:53Z</time>
      </trkpt>
      <trkpt lat="45.20656" lon="5.20699">
        <ele>588</ele>
        <time>2017-05-07T09:32:57Z</time>
      </trkpt>
      <trkpt lat="45.20653" lon="5.20682">
        <ele>589</ele>
        <time>2017-05-07T09:33:01Z</time>
      </trkpt>
      <trkpt lat="45.20652" lon="5.20669">
        <ele>590</ele>
        <time>2017-05-07T09:33:04Z</time>
      </trkpt>
      <trkpt lat="45.20652" lon="5.20653">
        <ele>592</ele>
        <time>2017-05-07T09:33:08Z</time>
      </trkpt>
      <trkpt lat="45.20654" lon="5.20639">
        <ele>592</ele>
        <time>2017-05-07T09:33:11Z</time>
      </trkpt>
      <trkpt lat="45.20656" lon="5.20624">
        <ele>593</ele>
        <time>2017-05-07T09:33:15Z</time>
      </trkpt>
      <trkpt lat="45.20658" lon="5.2061">
        <ele>593</ele>
        <time>2017-05-07T09:33:19Z</time>
      </trkpt>
      <trkpt lat="45.20659" lon="5.20596">
        <ele>593</ele>
        <time>2017-05-07T09:33:22Z</time>
      </trkpt>
      <trkpt lat="45.20658" lon="5.20579">
        <ele>594</ele>
        <time>2017-05-07T09:33:26Z</time>
      </trkpt>
      <trkpt lat="45.20657" lon="5.20566">
        <ele>595</ele>
        <time>2017-05-07T09:33:29Z</time>
      </trkpt>
      <trkpt lat="45.20657" lon="5.20549">
        <ele>595</ele>
        <time>2017-05-07T09:33:33Z</time>
      </trkpt>
      <trkpt lat="45.20657" lon="5.20535">
        <ele>595</ele>
        <time>2017-05-07T09:33:36Z</time>
      </trkpt>
      <trkpt lat="45.20658" lon="5.20521">
        <ele>594</ele>
        <time>2017-05-07T09:33:39Z</time>
      </trkpt>
      <trkpt lat="45.20659" lon="5.20505">
        <ele>594</ele>
        <time>2017-05-07T09:33:42Z</time>
      </trkpt>
      <trkpt lat="45.2066" lon="5.20489">
        <ele>594</ele>
        <time>2017-05-07T09:33:45Z</time>
      </trkpt>
      <trkpt lat="45.20661" lon="5.20474">
        <ele>595</ele>
        <time>2017-05-07T09:33:48Z</time>
      </trkpt>
      <trkpt lat="45.20662" lon="5.20459">
        <ele>595</ele>
        <time>2017-05-07T09:33:51Z</time>
      </trkpt>
      <trkpt lat="45.20664" lon="5.20443">
        <ele>596</ele>
        <time>2017-05-07T09:33:54Z</time>
      </trkpt>
      <trkpt lat="45.20665" lon="5.20429">
        <ele>595</ele>
        <time>2017-05-07T09:33:57Z</time>
      </trkpt>
      <trkpt lat="45.20668" lon="5.20416">
        <ele>595</ele>
        <time>2017-05-07T09:34:00Z</time>
      </trkpt>
      <trkpt lat="45.2067" lon="5.20401">
        <ele>594</ele>
        <time>2017-05-07T09:34:03Z</time>
      </trkpt>
      <trkpt lat="45.20672" lon="5.20385">
        <ele>593</ele>
        <time>2017-05-07T09:34:07Z</time>
      </trkpt>
      <trkpt lat="45.20674" lon="5.20369">
        <ele>593</ele>
        <time>2017-05-07T09:34:11Z</time>
      </trkpt>
      <trkpt lat="45.20677" lon="5.20355">
        <ele>594</ele>
        <time>2017-05-07T09:34:14Z</time>
      </trkpt>
      <trkpt lat="45.2068" lon="5.2034">
        <ele>595</ele>
        <time>2017-05-07T09:34:17Z</time>
      </trkpt>
      <trkpt lat="45.20681" lon="5.20324">
        <ele>595</ele>
        <time>2017-05-07T09:34:20Z</time>
      </trkpt>
      <trkpt lat="45.20681" lon="5.20308">
        <ele>594</ele>
        <time>2017-05-07T09:34:23Z</time>
      </trkpt>
      <trkpt lat="45.20681" lon="5.20291">
        <ele>594</ele>
        <time>2017-05-07T09:34:26Z</time>
      </trkpt>
      <trkpt lat="45.20682" lon="5.20276">
        <ele>594</ele>
        <time>2017-05-07T09:34:29Z</time>
      </trkpt>
      <trkpt lat="45.20688" lon="5.20261">
        <ele>594</ele>
        <time>2017-05-07T09:34:32Z</time>
      </trkpt>
      <trkpt lat="45.20692" lon="5.20247">
        <ele>594</ele>
        <time>2017-05-07T09:34:35Z</time>
      </trkpt>
      <trkpt lat="45.20698" lon="5.2022">
        <ele>593</ele>
        <time>2017-05-07T09:34:39Z</time>
      </trkpt>
      <trkpt lat="45.207" lon="5.20201">
        <ele>593</ele>
        <time>2017-05-07T09:34:42Z</time>
      </trkpt>
      <trkpt lat="45.20705" lon="5.20178">
        <ele>593</ele>
        <time>2017-05-07T09:34:45Z</time>
      </trkpt>
      <trkpt lat="45.20709" lon="5.2016">
        <ele>592</ele>
        <time>2017-05-07T09:34:48Z</time>
      </trkpt>
      <trkpt lat="45.20714" lon="5.20145">
        <ele>592</ele>
        <time>2017-05-07T09:34:51Z</time>
      </trkpt>
      <trkpt lat="45.20721" lon="5.2013">
        <ele>592</ele>
        <time>2017-05-07T09:34:54Z</time>
      </trkpt>
      <trkpt lat="45.20726" lon="5.20117">
        <ele>592</ele>
        <time>2017-05-07T09:34:57Z</time>
      </trkpt>
      <trkpt lat="45.20731" lon="5.20102">
        <ele>593</ele>
        <time>2017-05-07T09:35:00Z</time>
      </trkpt>
      <trkpt lat="45.20736" lon="5.20086">
        <ele>593</ele>
        <time>2017-05-07T09:35:05Z</time>
      </trkpt>
      <trkpt lat="45.20738" lon="5.20068">
        <ele>592</ele>
        <time>2017-05-07T09:35:08Z</time>
      </trkpt>
      <trkpt lat="45.20737" lon="5.20055">
        <ele>592</ele>
        <time>2017-05-07T09:35:11Z</time>
      </trkpt>
      <trkpt lat="45.2074" lon="5.20037">
        <ele>592</ele>
        <time>2017-05-07T09:35:14Z</time>
      </trkpt>
      <trkpt lat="45.20745" lon="5.20022">
        <ele>592</ele>
        <time>2017-05-07T09:35:18Z</time>
      </trkpt>
      <trkpt lat="45.20742" lon="5.20008">
        <ele>592</ele>
        <time>2017-05-07T09:35:22Z</time>
      </trkpt>
      <trkpt lat="45.20743" lon="5.19991">
        <ele>591</ele>
        <time>2017-05-07T09:35:26Z</time>
      </trkpt>
      <trkpt lat="45.20747" lon="5.19976">
        <ele>590</ele>
        <time>2017-05-07T09:35:29Z</time>
      </trkpt>
      <trkpt lat="45.2075" lon="5.19964">
        <ele>588</ele>
        <time>2017-05-07T09:35:32Z</time>
      </trkpt>
      <trkpt lat="45.20757" lon="5.19948">
        <ele>588</ele>
        <time>2017-05-07T09:35:35Z</time>
      </trkpt>
      <trkpt lat="45.20764" lon="5.19931">
        <ele>587</ele>
        <time>2017-05-07T09:35:38Z</time>
      </trkpt>
      <trkpt lat="45.20769" lon="5.19917">
        <ele>587</ele>
        <time>2017-05-07T09:35:40Z</time>
      </trkpt>
      <trkpt lat="45.20772" lon="5.19903">
        <ele>585</ele>
        <time>2017-05-07T09:35:42Z</time>
      </trkpt>
      <trkpt lat="45.20775" lon="5.19888">
        <ele>585</ele>
        <time>2017-05-07T09:35:44Z</time>
      </trkpt>
      <trkpt lat="45.20778" lon="5.19868">
        <ele>584</ele>
        <time>2017-05-07T09:35:47Z</time>
      </trkpt>
      <trkpt lat="45.20782" lon="5.19854">
        <ele>583</ele>
        <time>2017-05-07T09:35:49Z</time>
      </trkpt>
      <trkpt lat="45.20787" lon="5.19836">
        <ele>583</ele>
        <time>2017-05-07T09:35:52Z</time>
      </trkpt>
      <trkpt lat="45.2079" lon="5.19818">
        <ele>581</ele>
        <time>2017-05-07T09:35:54Z</time>
      </trkpt>
      <trkpt lat="45.20793" lon="5.19799">
        <ele>581</ele>
        <time>2017-05-07T09:35:56Z</time>
      </trkpt>
      <trkpt lat="45.20794" lon="5.19778">
        <ele>581</ele>
        <time>2017-05-07T09:35:58Z</time>
      </trkpt>
      <trkpt lat="45.20796" lon="5.19756">
        <ele>580</ele>
        <time>2017-05-07T09:36:00Z</time>
      </trkpt>
      <trkpt lat="45.20797" lon="5.19736">
        <ele>578</ele>
        <time>2017-05-07T09:36:02Z</time>
      </trkpt>
      <trkpt lat="45.20796" lon="5.19714">
        <ele>577</ele>
        <time>2017-05-07T09:36:04Z</time>
      </trkpt>
      <trkpt lat="45.2079" lon="5.19693">
        <ele>577</ele>
        <time>2017-05-07T09:36:06Z</time>
      </trkpt>
      <trkpt lat="45.20786" lon="5.19671">
        <ele>576</ele>
        <time>2017-05-07T09:36:08Z</time>
      </trkpt>
      <trkpt lat="45.20782" lon="5.19654">
        <ele>574</ele>
        <time>2017-05-07T09:36:10Z</time>
      </trkpt>
      <trkpt lat="45.20775" lon="5.1964">
        <ele>574</ele>
        <time>2017-05-07T09:36:12Z</time>
      </trkpt>
      <trkpt lat="45.20769" lon="5.19628">
        <ele>574</ele>
        <time>2017-05-07T09:36:14Z</time>
      </trkpt>
      <trkpt lat="45.20761" lon="5.19614">
        <ele>573</ele>
        <time>2017-05-07T09:36:17Z</time>
      </trkpt>
      <trkpt lat="45.20757" lon="5.19602">
        <ele>573</ele>
        <time>2017-05-07T09:36:20Z</time>
      </trkpt>
      <trkpt lat="45.20754" lon="5.19588">
        <ele>572</ele>
        <time>2017-05-07T09:36:24Z</time>
      </trkpt>
      <trkpt lat="45.20751" lon="5.19576">
        <ele>572</ele>
        <time>2017-05-07T09:36:27Z</time>
      </trkpt>
      <trkpt lat="45.20742" lon="5.19558">
        <ele>572</ele>
        <time>2017-05-07T09:36:33Z</time>
      </trkpt>
      <trkpt lat="45.20738" lon="5.19543">
        <ele>571</ele>
        <time>2017-05-07T09:36:36Z</time>
      </trkpt>
      <trkpt lat="45.20736" lon="5.19525">
        <ele>571</ele>
        <time>2017-05-07T09:36:42Z</time>
      </trkpt>
      <trkpt lat="45.20735" lon="5.19511">
        <ele>571</ele>
        <time>2017-05-07T09:36:45Z</time>
      </trkpt>
      <trkpt lat="45.20732" lon="5.19494">
        <ele>569</ele>
        <time>2017-05-07T09:36:50Z</time>
      </trkpt>
      <trkpt lat="45.20726" lon="5.19483">
        <ele>569</ele>
        <time>2017-05-07T09:36:51Z</time>
      </trkpt>
      <trkpt lat="45.20721" lon="5.19471">
        <ele>568</ele>
        <time>2017-05-07T09:36:54Z</time>
      </trkpt>
      <trkpt lat="45.2071" lon="5.19454">
        <ele>568</ele>
        <time>2017-05-07T09:36:56Z</time>
      </trkpt>
      <trkpt lat="45.20705" lon="5.19439">
        <ele>567</ele>
        <time>2017-05-07T09:36:59Z</time>
      </trkpt>
      <trkpt lat="45.20695" lon="5.19428">
        <ele>567</ele>
        <time>2017-05-07T09:37:01Z</time>
      </trkpt>
      <trkpt lat="45.2069" lon="5.19414">
        <ele>565</ele>
        <time>2017-05-07T09:37:06Z</time>
      </trkpt>
      <trkpt lat="45.20692" lon="5.19397">
        <ele>565</ele>
        <time>2017-05-07T09:37:11Z</time>
      </trkpt>
      <trkpt lat="45.20691" lon="5.19383">
        <ele>565</ele>
        <time>2017-05-07T09:37:17Z</time>
      </trkpt>
      <trkpt lat="45.20689" lon="5.19369">
        <ele>564</ele>
        <time>2017-05-07T09:37:23Z</time>
      </trkpt>
      <trkpt lat="45.20685" lon="5.19357">
        <ele>564</ele>
        <time>2017-05-07T09:37:29Z</time>
      </trkpt>
      <trkpt lat="45.20684" lon="5.19343">
        <ele>564</ele>
        <time>2017-05-07T09:37:32Z</time>
      </trkpt>
      <trkpt lat="45.20679" lon="5.19329">
        <ele>563</ele>
        <time>2017-05-07T09:37:38Z</time>
      </trkpt>
      <trkpt lat="45.20685" lon="5.19316">
        <ele>563</ele>
        <time>2017-05-07T09:37:45Z</time>
      </trkpt>
      <trkpt lat="45.20677" lon="5.19304">
        <ele>563</ele>
        <time>2017-05-07T09:37:54Z</time>
      </trkpt>
      <trkpt lat="45.20669" lon="5.19294">
        <ele>562</ele>
        <time>2017-05-07T09:38:03Z</time>
      </trkpt>
      <trkpt lat="45.20667" lon="5.1928">
        <ele>562</ele>
        <time>2017-05-07T09:38:11Z</time>
      </trkpt>
      <trkpt lat="45.20672" lon="5.19267">
        <ele>562</ele>
        <time>2017-05-07T09:38:15Z</time>
      </trkpt>
      <trkpt lat="45.20673" lon="5.19252">
        <ele>562</ele>
        <time>2017-05-07T09:38:22Z</time>
      </trkpt>
      <trkpt lat="45.20673" lon="5.19236">
        <ele>561</ele>
        <time>2017-05-07T09:38:26Z</time>
      </trkpt>
      <trkpt lat="45.20672" lon="5.19222">
        <ele>561</ele>
        <time>2017-05-07T09:38:31Z</time>
      </trkpt>
      <trkpt lat="45.20671" lon="5.19207">
        <ele>561</ele>
        <time>2017-05-07T09:38:36Z</time>
      </trkpt>
      <trkpt lat="45.2067" lon="5.19192">
        <ele>561</ele>
        <time>2017-05-07T09:38:40Z</time>
      </trkpt>
      <trkpt lat="45.20667" lon="5.19178">
        <ele>561</ele>
        <time>2017-05-07T09:38:43Z</time>
      </trkpt>
      <trkpt lat="45.20669" lon="5.19162">
        <ele>561</ele>
        <time>2017-05-07T09:38:47Z</time>
      </trkpt>
      <trkpt lat="45.20668" lon="5.19144">
        <ele>560</ele>
        <time>2017-05-07T09:38:51Z</time>
      </trkpt>
      <trkpt lat="45.20668" lon="5.1913">
        <ele>560</ele>
        <time>2017-05-07T09:38:54Z</time>
      </trkpt>
      <trkpt lat="45.20662" lon="5.19119">
        <ele>560</ele>
        <time>2017-05-07T09:38:58Z</time>
      </trkpt>
      <trkpt lat="45.20656" lon="5.1911">
        <ele>560</ele>
        <time>2017-05-07T09:39:00Z</time>
      </trkpt>
      <trkpt lat="45.20651" lon="5.19096">
        <ele>560</ele>
        <time>2017-05-07T09:39:03Z</time>
      </trkpt>
      <trkpt lat="45.20647" lon="5.19082">
        <ele>559</ele>
        <time>2017-05-07T09:39:06Z</time>
      </trkpt>
      <trkpt lat="45.20643" lon="5.19064">
        <ele>559</ele>
        <time>2017-05-07T09:39:10Z</time>
      </trkpt>
      <trkpt lat="45.20639" lon="5.19045">
        <ele>559</ele>
        <time>2017-05-07T09:39:14Z</time>
      </trkpt>
      <trkpt lat="45.20638" lon="5.19031">
        <ele>559</ele>
        <time>2017-05-07T09:39:16Z</time>
      </trkpt>
      <trkpt lat="45.20632" lon="5.19019">
        <ele>559</ele>
        <time>2017-05-07T09:39:20Z</time>
      </trkpt>
      <trkpt lat="45.20625" lon="5.19003">
        <ele>559</ele>
        <time>2017-05-07T09:39:26Z</time>
      </trkpt>
      <trkpt lat="45.2062" lon="5.18987">
        <ele>559</ele>
        <time>2017-05-07T09:39:29Z</time>
      </trkpt>
      <trkpt lat="45.20614" lon="5.18975">
        <ele>559</ele>
        <time>2017-05-07T09:39:32Z</time>
      </trkpt>
      <trkpt lat="45.20606" lon="5.18965">
        <ele>559</ele>
        <time>2017-05-07T09:39:37Z</time>
      </trkpt>
      <trkpt lat="45.20601" lon="5.18952">
        <ele>559</ele>
        <time>2017-05-07T09:39:40Z</time>
      </trkpt>
      <trkpt lat="45.20594" lon="5.1894">
        <ele>558</ele>
        <time>2017-05-07T09:39:44Z</time>
      </trkpt>
      <trkpt lat="45.20589" lon="5.18927">
        <ele>557</ele>
        <time>2017-05-07T09:39:47Z</time>
      </trkpt>
      <trkpt lat="45.20588" lon="5.18912">
        <ele>557</ele>
        <time>2017-05-07T09:39:51Z</time>
      </trkpt>
      <trkpt lat="45.20585" lon="5.18896">
        <ele>558</ele>
        <time>2017-05-07T09:39:58Z</time>
      </trkpt>
      <trkpt lat="45.2058" lon="5.18884">
        <ele>553</ele>
        <time>2017-05-07T09:40:01Z</time>
      </trkpt>
      <trkpt lat="45.2058" lon="5.18863">
        <ele>554</ele>
        <time>2017-05-07T09:40:07Z</time>
      </trkpt>
      <trkpt lat="45.20578" lon="5.18847">
        <ele>555</ele>
        <time>2017-05-07T09:40:10Z</time>
      </trkpt>
      <trkpt lat="45.20573" lon="5.18827">
        <ele>555</ele>
        <time>2017-05-07T09:40:17Z</time>
      </trkpt>
      <trkpt lat="45.20569" lon="5.18812">
        <ele>554</ele>
        <time>2017-05-07T09:40:19Z</time>
      </trkpt>
      <trkpt lat="45.20566" lon="5.188">
        <ele>553</ele>
        <time>2017-05-07T09:40:24Z</time>
      </trkpt>
      <trkpt lat="45.20558" lon="5.18788">
        <ele>552</ele>
        <time>2017-05-07T09:40:29Z</time>
      </trkpt>
      <trkpt lat="45.20553" lon="5.18776">
        <ele>552</ele>
        <time>2017-05-07T09:40:33Z</time>
      </trkpt>
      <trkpt lat="45.20547" lon="5.18763">
        <ele>552</ele>
        <time>2017-05-07T09:40:37Z</time>
      </trkpt>
      <trkpt lat="45.20538" lon="5.18752">
        <ele>551</ele>
        <time>2017-05-07T09:40:41Z</time>
      </trkpt>
      <trkpt lat="45.20532" lon="5.18738">
        <ele>549</ele>
        <time>2017-05-07T09:40:45Z</time>
      </trkpt>
      <trkpt lat="45.2053" lon="5.18722">
        <ele>549</ele>
        <time>2017-05-07T09:40:49Z</time>
      </trkpt>
      <trkpt lat="45.20531" lon="5.18706">
        <ele>549</ele>
        <time>2017-05-07T09:40:54Z</time>
      </trkpt>
      <trkpt lat="45.20527" lon="5.18691">
        <ele>549</ele>
        <time>2017-05-07T09:40:57Z</time>
      </trkpt>
      <trkpt lat="45.20525" lon="5.18673">
        <ele>548</ele>
        <time>2017-05-07T09:41:01Z</time>
      </trkpt>
      <trkpt lat="45.20528" lon="5.18653">
        <ele>547</ele>
        <time>2017-05-07T09:41:05Z</time>
      </trkpt>
      <trkpt lat="45.20525" lon="5.18641">
        <ele>547</ele>
        <time>2017-05-07T09:41:08Z</time>
      </trkpt>
      <trkpt lat="45.20522" lon="5.18625">
        <ele>546</ele>
        <time>2017-05-07T09:41:13Z</time>
      </trkpt>
      <trkpt lat="45.20524" lon="5.18612">
        <ele>546</ele>
        <time>2017-05-07T09:41:17Z</time>
      </trkpt>
      <trkpt lat="45.20529" lon="5.18596">
        <ele>546</ele>
        <time>2017-05-07T09:41:21Z</time>
      </trkpt>
      <trkpt lat="45.20529" lon="5.18579">
        <ele>544</ele>
        <time>2017-05-07T09:41:25Z</time>
      </trkpt>
      <trkpt lat="45.20528" lon="5.18563">
        <ele>544</ele>
        <time>2017-05-07T09:41:30Z</time>
      </trkpt>
      <trkpt lat="45.20523" lon="5.18552">
        <ele>544</ele>
        <time>2017-05-07T09:41:35Z</time>
      </trkpt>
      <trkpt lat="45.20521" lon="5.18538">
        <ele>544</ele>
        <time>2017-05-07T09:41:39Z</time>
      </trkpt>
      <trkpt lat="45.20515" lon="5.18525">
        <ele>544</ele>
        <time>2017-05-07T09:41:44Z</time>
      </trkpt>
      <trkpt lat="45.20514" lon="5.18509">
        <ele>544</ele>
        <time>2017-05-07T09:41:51Z</time>
      </trkpt>
      <trkpt lat="45.20517" lon="5.18495">
        <ele>543</ele>
        <time>2017-05-07T09:41:55Z</time>
      </trkpt>
      <trkpt lat="45.20517" lon="5.18481">
        <ele>542</ele>
        <time>2017-05-07T09:42:00Z</time>
      </trkpt>
      <trkpt lat="45.20515" lon="5.18468">
        <ele>542</ele>
        <time>2017-05-07T09:42:05Z</time>
      </trkpt>
      <trkpt lat="45.20517" lon="5.18451">
        <ele>542</ele>
        <time>2017-05-07T09:42:11Z</time>
      </trkpt>
      <trkpt lat="45.20515" lon="5.18437">
        <ele>542</ele>
        <time>2017-05-07T09:42:15Z</time>
      </trkpt>
      <trkpt lat="45.2052" lon="5.18424">
        <ele>542</ele>
        <time>2017-05-07T09:42:18Z</time>
      </trkpt>
      <trkpt lat="45.20519" lon="5.18409">
        <ele>540</ele>
        <time>2017-05-07T09:42:23Z</time>
      </trkpt>
      <trkpt lat="45.20515" lon="5.18386">
        <ele>540</ele>
        <time>2017-05-07T09:42:31Z</time>
      </trkpt>
      <trkpt lat="45.20514" lon="5.18373">
        <ele>539</ele>
        <time>2017-05-07T09:42:34Z</time>
      </trkpt>
      <trkpt lat="45.20513" lon="5.18359">
        <ele>539</ele>
        <time>2017-05-07T09:42:38Z</time>
      </trkpt>
      <trkpt lat="45.20515" lon="5.18346">
        <ele>539</ele>
        <time>2017-05-07T09:42:42Z</time>
      </trkpt>
      <trkpt lat="45.20512" lon="5.18331">
        <ele>538</ele>
        <time>2017-05-07T09:42:49Z</time>
      </trkpt>
      <trkpt lat="45.20508" lon="5.18316">
        <ele>538</ele>
        <time>2017-05-07T09:42:54Z</time>
      </trkpt>
      <trkpt lat="45.20505" lon="5.18303">
        <ele>537</ele>
        <time>2017-05-07T09:42:58Z</time>
      </trkpt>
      <trkpt lat="45.205" lon="5.18291">
        <ele>537</ele>
        <time>2017-05-07T09:43:02Z</time>
      </trkpt>
      <trkpt lat="45.20498" lon="5.18277">
        <ele>537</ele>
        <time>2017-05-07T09:43:07Z</time>
      </trkpt>
      <trkpt lat="45.20498" lon="5.18262">
        <ele>537</ele>
        <time>2017-05-07T09:43:11Z</time>
      </trkpt>
      <trkpt lat="45.20495" lon="5.18248">
        <ele>537</ele>
        <time>2017-05-07T09:43:16Z</time>
      </trkpt>
      <trkpt lat="45.20488" lon="5.18236">
        <ele>536</ele>
        <time>2017-05-07T09:43:21Z</time>
      </trkpt>
      <trkpt lat="45.20482" lon="5.18225">
        <ele>535</ele>
        <time>2017-05-07T09:43:26Z</time>
      </trkpt>
      <trkpt lat="45.2048" lon="5.18208">
        <ele>535</ele>
        <time>2017-05-07T09:43:29Z</time>
      </trkpt>
      <trkpt lat="45.20479" lon="5.18191">
        <ele>535</ele>
        <time>2017-05-07T09:43:35Z</time>
      </trkpt>
      <trkpt lat="45.20474" lon="5.18177">
        <ele>535</ele>
        <time>2017-05-07T09:43:38Z</time>
      </trkpt>
      <trkpt lat="45.20467" lon="5.18162">
        <ele>533</ele>
        <time>2017-05-07T09:43:42Z</time>
      </trkpt>
      <trkpt lat="45.20463" lon="5.18149">
        <ele>533</ele>
        <time>2017-05-07T09:43:45Z</time>
      </trkpt>
      <trkpt lat="45.20456" lon="5.18136">
        <ele>532</ele>
        <time>2017-05-07T09:43:49Z</time>
      </trkpt>
      <trkpt lat="45.2045" lon="5.1812">
        <ele>532</ele>
        <time>2017-05-07T09:43:52Z</time>
      </trkpt>
      <trkpt lat="45.20444" lon="5.18107">
        <ele>532</ele>
        <time>2017-05-07T09:43:55Z</time>
      </trkpt>
      <trkpt lat="45.20439" lon="5.18093">
        <ele>532</ele>
        <time>2017-05-07T09:43:58Z</time>
      </trkpt>
      <trkpt lat="45.20437" lon="5.18076">
        <ele>531</ele>
        <time>2017-05-07T09:44:01Z</time>
      </trkpt>
      <trkpt lat="45.20431" lon="5.18064">
        <ele>530</ele>
        <time>2017-05-07T09:44:04Z</time>
      </trkpt>
      <trkpt lat="45.20424" lon="5.18052">
        <ele>530</ele>
        <time>2017-05-07T09:44:07Z</time>
      </trkpt>
      <trkpt lat="45.20415" lon="5.18037">
        <ele>530</ele>
        <time>2017-05-07T09:44:10Z</time>
      </trkpt>
      <trkpt lat="45.20408" lon="5.18023">
        <ele>530</ele>
        <time>2017-05-07T09:44:13Z</time>
      </trkpt>
      <trkpt lat="45.204" lon="5.18013">
        <ele>530</ele>
        <time>2017-05-07T09:44:16Z</time>
      </trkpt>
      <trkpt lat="45.20392" lon="5.18004">
        <ele>530</ele>
        <time>2017-05-07T09:44:18Z</time>
      </trkpt>
      <trkpt lat="45.20384" lon="5.17994">
        <ele>529</ele>
        <time>2017-05-07T09:44:21Z</time>
      </trkpt>
      <trkpt lat="45.20374" lon="5.17984">
        <ele>528</ele>
        <time>2017-05-07T09:44:24Z</time>
      </trkpt>
      <trkpt lat="45.20366" lon="5.17976">
        <ele>528</ele>
        <time>2017-05-07T09:44:26Z</time>
      </trkpt>
      <trkpt lat="45.20357" lon="5.17969">
        <ele>528</ele>
        <time>2017-05-07T09:44:29Z</time>
      </trkpt>
      <trkpt lat="45.20348" lon="5.17961">
        <ele>528</ele>
        <time>2017-05-07T09:44:32Z</time>
      </trkpt>
      <trkpt lat="45.20337" lon="5.17953">
        <ele>528</ele>
        <time>2017-05-07T09:44:36Z</time>
      </trkpt>
      <trkpt lat="45.2033" lon="5.17943">
        <ele>527</ele>
        <time>2017-05-07T09:44:38Z</time>
      </trkpt>
      <trkpt lat="45.20322" lon="5.17931">
        <ele>527</ele>
        <time>2017-05-07T09:44:41Z</time>
      </trkpt>
      <trkpt lat="45.20314" lon="5.1792">
        <ele>527</ele>
        <time>2017-05-07T09:44:43Z</time>
      </trkpt>
      <trkpt lat="45.20306" lon="5.17911">
        <ele>528</ele>
        <time>2017-05-07T09:44:46Z</time>
      </trkpt>
      <trkpt lat="45.20298" lon="5.17899">
        <ele>528</ele>
        <time>2017-05-07T09:44:49Z</time>
      </trkpt>
      <trkpt lat="45.20289" lon="5.17887">
        <ele>527</ele>
        <time>2017-05-07T09:44:52Z</time>
      </trkpt>
      <trkpt lat="45.2028" lon="5.17876">
        <ele>527</ele>
        <time>2017-05-07T09:44:54Z</time>
      </trkpt>
      <trkpt lat="45.20271" lon="5.17864">
        <ele>527</ele>
        <time>2017-05-07T09:44:56Z</time>
      </trkpt>
      <trkpt lat="45.20262" lon="5.17853">
        <ele>528</ele>
        <time>2017-05-07T09:44:58Z</time>
      </trkpt>
      <trkpt lat="45.20251" lon="5.17846">
        <ele>528</ele>
        <time>2017-05-07T09:45:00Z</time>
      </trkpt>
      <trkpt lat="45.20237" lon="5.17842">
        <ele>525</ele>
        <time>2017-05-07T09:45:02Z</time>
      </trkpt>
      <trkpt lat="45.20225" lon="5.17839">
        <ele>524</ele>
        <time>2017-05-07T09:45:04Z</time>
      </trkpt>
      <trkpt lat="45.20206" lon="5.17838">
        <ele>522</ele>
        <time>2017-05-07T09:45:07Z</time>
      </trkpt>
      <trkpt lat="45.20191" lon="5.17838">
        <ele>521</ele>
        <time>2017-05-07T09:45:09Z</time>
      </trkpt>
      <trkpt lat="45.20181" lon="5.17837">
        <ele>520</ele>
        <time>2017-05-07T09:45:11Z</time>
      </trkpt>
      <trkpt lat="45.2017" lon="5.17835">
        <ele>519</ele>
        <time>2017-05-07T09:45:45Z</time>
      </trkpt>
      <trkpt lat="45.2016" lon="5.17835">
        <ele>516</ele>
        <time>2017-05-07T09:45:50Z</time>
      </trkpt>
      <trkpt lat="45.20144" lon="5.17838">
        <ele>512</ele>
        <time>2017-05-07T09:45:57Z</time>
      </trkpt>
      <trkpt lat="45.20134" lon="5.17835">
        <ele>511</ele>
        <time>2017-05-07T09:45:59Z</time>
      </trkpt>
      <trkpt lat="45.20124" lon="5.17832">
        <ele>510</ele>
        <time>2017-05-07T09:46:02Z</time>
      </trkpt>
      <trkpt lat="45.20112" lon="5.17836">
        <ele>508</ele>
        <time>2017-05-07T09:46:07Z</time>
      </trkpt>
      <trkpt lat="45.20102" lon="5.17843">
        <ele>506</ele>
        <time>2017-05-07T09:46:11Z</time>
      </trkpt>
      <trkpt lat="45.20093" lon="5.17846">
        <ele>505</ele>
        <time>2017-05-07T09:46:15Z</time>
      </trkpt>
      <trkpt lat="45.20082" lon="5.17849">
        <ele>499</ele>
        <time>2017-05-07T09:46:19Z</time>
      </trkpt>
      <trkpt lat="45.20072" lon="5.17844">
        <ele>499</ele>
        <time>2017-05-07T09:46:22Z</time>
      </trkpt>
      <trkpt lat="45.20061" lon="5.17835">
        <ele>498</ele>
        <time>2017-05-07T09:46:25Z</time>
      </trkpt>
      <trkpt lat="45.20053" lon="5.17827">
        <ele>496</ele>
        <time>2017-05-07T09:46:29Z</time>
      </trkpt>
      <trkpt lat="45.20044" lon="5.17815">
        <ele>495</ele>
        <time>2017-05-07T09:46:33Z</time>
      </trkpt>
      <trkpt lat="45.2003" lon="5.17805">
        <ele>493</ele>
        <time>2017-05-07T09:46:40Z</time>
      </trkpt>
      <trkpt lat="45.20025" lon="5.17792">
        <ele>493</ele>
        <time>2017-05-07T09:46:44Z</time>
      </trkpt>
      <trkpt lat="45.20016" lon="5.1778">
        <ele>491</ele>
        <time>2017-05-07T09:46:49Z</time>
      </trkpt>
      <trkpt lat="45.20008" lon="5.17771">
        <ele>490</ele>
        <time>2017-05-07T09:46:53Z</time>
      </trkpt>
      <trkpt lat="45.2" lon="5.1776">
        <ele>482</ele>
        <time>2017-05-07T09:46:57Z</time>
      </trkpt>
      <trkpt lat="45.19993" lon="5.1775">
        <ele>482</ele>
        <time>2017-05-07T09:47:01Z</time>
      </trkpt>
      <trkpt lat="45.1999" lon="5.17738">
        <ele>478</ele>
        <time>2017-05-07T09:47:04Z</time>
      </trkpt>
      <trkpt lat="45.19987" lon="5.17725">
        <ele>475</ele>
        <time>2017-05-07T09:47:07Z</time>
      </trkpt>
      <trkpt lat="45.19986" lon="5.17709">
        <ele>473</ele>
        <time>2017-05-07T09:47:11Z</time>
      </trkpt>
      <trkpt lat="45.19984" lon="5.17696">
        <ele>472</ele>
        <time>2017-05-07T09:47:16Z</time>
      </trkpt>
      <trkpt lat="45.19974" lon="5.17688">
        <ele>471</ele>
        <time>2017-05-07T09:47:21Z</time>
      </trkpt>
      <trkpt lat="45.19964" lon="5.17692">
        <ele>470</ele>
        <time>2017-05-07T09:47:26Z</time>
      </trkpt>
      <trkpt lat="45.19955" lon="5.17703">
        <ele>470</ele>
        <time>2017-05-07T09:47:31Z</time>
      </trkpt>
      <trkpt lat="45.19949" lon="5.17715">
        <ele>470</ele>
        <time>2017-05-07T09:47:37Z</time>
      </trkpt>
      <trkpt lat="45.19939" lon="5.17724">
        <ele>469</ele>
        <time>2017-05-07T09:47:41Z</time>
      </trkpt>
      <trkpt lat="45.19933" lon="5.17736">
        <ele>469</ele>
        <time>2017-05-07T09:47:45Z</time>
      </trkpt>
      <trkpt lat="45.19929" lon="5.17748">
        <ele>468</ele>
        <time>2017-05-07T09:47:50Z</time>
      </trkpt>
      <trkpt lat="45.19922" lon="5.17761">
        <ele>470</ele>
        <time>2017-05-07T09:47:56Z</time>
      </trkpt>
      <trkpt lat="45.19914" lon="5.17774">
        <ele>464</ele>
        <time>2017-05-07T09:48:00Z</time>
      </trkpt>
      <trkpt lat="45.19906" lon="5.17784">
        <ele>464</ele>
        <time>2017-05-07T09:48:03Z</time>
      </trkpt>
      <trkpt lat="45.19898" lon="5.17798">
        <ele>464</ele>
        <time>2017-05-07T09:48:06Z</time>
      </trkpt>
      <trkpt lat="45.19891" lon="5.17815">
        <ele>465</ele>
        <time>2017-05-07T09:48:09Z</time>
      </trkpt>
      <trkpt lat="45.19886" lon="5.17827">
        <ele>464</ele>
        <time>2017-05-07T09:48:11Z</time>
      </trkpt>
      <trkpt lat="45.1988" lon="5.17842">
        <ele>464</ele>
        <time>2017-05-07T09:48:14Z</time>
      </trkpt>
      <trkpt lat="45.19873" lon="5.17863">
        <ele>464</ele>
        <time>2017-05-07T09:48:18Z</time>
      </trkpt>
      <trkpt lat="45.19866" lon="5.17886">
        <ele>463</ele>
        <time>2017-05-07T09:48:21Z</time>
      </trkpt>
      <trkpt lat="45.19858" lon="5.17911">
        <ele>462</ele>
        <time>2017-05-07T09:48:23Z</time>
      </trkpt>
      <trkpt lat="45.19847" lon="5.17943">
        <ele>460</ele>
        <time>2017-05-07T09:48:26Z</time>
      </trkpt>
      <trkpt lat="45.19838" lon="5.1797">
        <ele>460</ele>
        <time>2017-05-07T09:48:29Z</time>
      </trkpt>
      <trkpt lat="45.19823" lon="5.1799">
        <ele>458</ele>
        <time>2017-05-07T09:48:32Z</time>
      </trkpt>
      <trkpt lat="45.19816" lon="5.17999">
        <ele>458</ele>
        <time>2017-05-07T09:48:36Z</time>
      </trkpt>
      <trkpt lat="45.19821" lon="5.18013">
        <ele>460</ele>
        <time>2017-05-07T09:48:46Z</time>
      </trkpt>
      <trkpt lat="45.19812" lon="5.18022">
        <ele>461</ele>
        <time>2017-05-07T09:48:53Z</time>
      </trkpt>
      <trkpt lat="45.19804" lon="5.18017">
        <ele>461</ele>
        <time>2017-05-07T09:48:57Z</time>
      </trkpt>
      <trkpt lat="45.19794" lon="5.18028">
        <ele>461</ele>
        <time>2017-05-07T09:49:07Z</time>
      </trkpt>
      <trkpt lat="45.19791" lon="5.18042">
        <ele>462</ele>
        <time>2017-05-07T09:49:13Z</time>
      </trkpt>
      <trkpt lat="45.19788" lon="5.18056">
        <ele>462</ele>
        <time>2017-05-07T09:49:20Z</time>
      </trkpt>
      <trkpt lat="45.19784" lon="5.18068">
        <ele>462</ele>
        <time>2017-05-07T09:49:28Z</time>
      </trkpt>
      <trkpt lat="45.19781" lon="5.18082">
        <ele>462</ele>
        <time>2017-05-07T09:49:35Z</time>
      </trkpt>
      <trkpt lat="45.19779" lon="5.18097">
        <ele>465</ele>
        <time>2017-05-07T09:49:42Z</time>
      </trkpt>
      <trkpt lat="45.19776" lon="5.18111">
        <ele>466</ele>
        <time>2017-05-07T09:49:48Z</time>
      </trkpt>
      <trkpt lat="45.19774" lon="5.18129">
        <ele>466</ele>
        <time>2017-05-07T09:49:55Z</time>
      </trkpt>
      <trkpt lat="45.19773" lon="5.18147">
        <ele>467</ele>
        <time>2017-05-07T09:49:59Z</time>
      </trkpt>
      <trkpt lat="45.19774" lon="5.18161">
        <ele>467</ele>
        <time>2017-05-07T09:50:03Z</time>
      </trkpt>
      <trkpt lat="45.19774" lon="5.18175">
        <ele>469</ele>
        <time>2017-05-07T09:50:08Z</time>
      </trkpt>
      <trkpt lat="45.19772" lon="5.1819">
        <ele>470</ele>
        <time>2017-05-07T09:50:18Z</time>
      </trkpt>
      <trkpt lat="45.19768" lon="5.18202">
        <ele>470</ele>
        <time>2017-05-07T09:50:22Z</time>
      </trkpt>
      <trkpt lat="45.19771" lon="5.18217">
        <ele>470</ele>
        <time>2017-05-07T09:50:32Z</time>
      </trkpt>
      <trkpt lat="45.19771" lon="5.1823">
        <ele>470</ele>
        <time>2017-05-07T09:50:40Z</time>
      </trkpt>
      <trkpt lat="45.19773" lon="5.18243">
        <ele>470</ele>
        <time>2017-05-07T09:50:48Z</time>
      </trkpt>
      <trkpt lat="45.19774" lon="5.18257">
        <ele>471</ele>
        <time>2017-05-07T09:50:54Z</time>
      </trkpt>
      <trkpt lat="45.19773" lon="5.1827">
        <ele>471</ele>
        <time>2017-05-07T09:50:58Z</time>
      </trkpt>
      <trkpt lat="45.19774" lon="5.18285">
        <ele>471</ele>
        <time>2017-05-07T09:51:04Z</time>
      </trkpt>
      <trkpt lat="45.19775" lon="5.18299">
        <ele>471</ele>
        <time>2017-05-07T09:51:08Z</time>
      </trkpt>
      <trkpt lat="45.19776" lon="5.18313">
        <ele>471</ele>
        <time>2017-05-07T09:51:13Z</time>
      </trkpt>
      <trkpt lat="45.19776" lon="5.18328">
        <ele>471</ele>
        <time>2017-05-07T09:51:17Z</time>
      </trkpt>
      <trkpt lat="45.19776" lon="5.18344">
        <ele>472</ele>
        <time>2017-05-07T09:51:22Z</time>
      </trkpt>
      <trkpt lat="45.19775" lon="5.18359">
        <ele>472</ele>
        <time>2017-05-07T09:51:26Z</time>
      </trkpt>
      <trkpt lat="45.19774" lon="5.18372">
        <ele>473</ele>
        <time>2017-05-07T09:51:30Z</time>
      </trkpt>
      <trkpt lat="45.19772" lon="5.18385">
        <ele>473</ele>
        <time>2017-05-07T09:51:34Z</time>
      </trkpt>
      <trkpt lat="45.19769" lon="5.18401">
        <ele>473</ele>
        <time>2017-05-07T09:51:39Z</time>
      </trkpt>
      <trkpt lat="45.19767" lon="5.18415">
        <ele>472</ele>
        <time>2017-05-07T09:51:45Z</time>
      </trkpt>
      <trkpt lat="45.19764" lon="5.18429">
        <ele>474</ele>
        <time>2017-05-07T09:51:50Z</time>
      </trkpt>
      <trkpt lat="45.19761" lon="5.18442">
        <ele>475</ele>
        <time>2017-05-07T09:51:54Z</time>
      </trkpt>
      <trkpt lat="45.1976" lon="5.18456">
        <ele>476</ele>
        <time>2017-05-07T09:51:59Z</time>
      </trkpt>
      <trkpt lat="45.19757" lon="5.18469">
        <ele>476</ele>
        <time>2017-05-07T09:52:03Z</time>
      </trkpt>
      <trkpt lat="45.19753" lon="5.18484">
        <ele>476</ele>
        <time>2017-05-07T09:52:07Z</time>
      </trkpt>
      <trkpt lat="45.1975" lon="5.185">
        <ele>474</ele>
        <time>2017-05-07T09:52:12Z</time>
      </trkpt>
      <trkpt lat="45.19747" lon="5.18512">
        <ele>473</ele>
        <time>2017-05-07T09:52:16Z</time>
      </trkpt>
      <trkpt lat="45.19745" lon="5.18526">
        <ele>472</ele>
        <time>2017-05-07T09:52:20Z</time>
      </trkpt>
      <trkpt lat="45.19742" lon="5.18539">
        <ele>472</ele>
        <time>2017-05-07T09:52:26Z</time>
      </trkpt>
      <trkpt lat="45.19736" lon="5.18553">
        <ele>473</ele>
        <time>2017-05-07T09:53:45Z</time>
      </trkpt>
      <trkpt lat="45.19733" lon="5.18567">
        <ele>473</ele>
        <time>2017-05-07T09:53:50Z</time>
      </trkpt>
      <trkpt lat="45.1973" lon="5.18582">
        <ele>474</ele>
        <time>2017-05-07T09:53:55Z</time>
      </trkpt>
      <trkpt lat="45.19727" lon="5.18597">
        <ele>475</ele>
        <time>2017-05-07T09:54:00Z</time>
      </trkpt>
      <trkpt lat="45.19725" lon="5.1861">
        <ele>475</ele>
        <time>2017-05-07T09:54:04Z</time>
      </trkpt>
      <trkpt lat="45.19722" lon="5.18625">
        <ele>475</ele>
        <time>2017-05-07T09:54:08Z</time>
      </trkpt>
      <trkpt lat="45.19717" lon="5.1864">
        <ele>475</ele>
        <time>2017-05-07T09:54:12Z</time>
      </trkpt>
      <trkpt lat="45.19713" lon="5.18653">
        <ele>475</ele>
        <time>2017-05-07T09:54:16Z</time>
      </trkpt>
      <trkpt lat="45.19711" lon="5.18669">
        <ele>478</ele>
        <time>2017-05-07T09:54:20Z</time>
      </trkpt>
      <trkpt lat="45.19708" lon="5.18685">
        <ele>478</ele>
        <time>2017-05-07T09:54:24Z</time>
      </trkpt>
      <trkpt lat="45.19705" lon="5.18699">
        <ele>478</ele>
        <time>2017-05-07T09:54:27Z</time>
      </trkpt>
      <trkpt lat="45.19703" lon="5.18713">
        <ele>478</ele>
        <time>2017-05-07T09:54:30Z</time>
      </trkpt>
      <trkpt lat="45.19701" lon="5.18728">
        <ele>478</ele>
        <time>2017-05-07T09:54:33Z</time>
      </trkpt>
      <trkpt lat="45.19698" lon="5.18742">
        <ele>478</ele>
        <time>2017-05-07T09:54:36Z</time>
      </trkpt>
      <trkpt lat="45.19696" lon="5.18757">
        <ele>480</ele>
        <time>2017-05-07T09:54:39Z</time>
      </trkpt>
      <trkpt lat="45.19694" lon="5.18774">
        <ele>481</ele>
        <time>2017-05-07T09:54:42Z</time>
      </trkpt>
      <trkpt lat="45.19691" lon="5.18791">
        <ele>481</ele>
        <time>2017-05-07T09:54:45Z</time>
      </trkpt>
      <trkpt lat="45.19687" lon="5.18809">
        <ele>481</ele>
        <time>2017-05-07T09:54:48Z</time>
      </trkpt>
      <trkpt lat="45.19683" lon="5.18824">
        <ele>480</ele>
        <time>2017-05-07T09:54:51Z</time>
      </trkpt>
      <trkpt lat="45.19679" lon="5.18838">
        <ele>480</ele>
        <time>2017-05-07T09:54:54Z</time>
      </trkpt>
      <trkpt lat="45.19676" lon="5.18855">
        <ele>481</ele>
        <time>2017-05-07T09:54:58Z</time>
      </trkpt>
      <trkpt lat="45.19673" lon="5.18871">
        <ele>482</ele>
        <time>2017-05-07T09:55:01Z</time>
      </trkpt>
      <trkpt lat="45.1967" lon="5.18886">
        <ele>482</ele>
        <time>2017-05-07T09:55:05Z</time>
      </trkpt>
      <trkpt lat="45.19661" lon="5.18897">
        <ele>477</ele>
        <time>2017-05-07T09:55:09Z</time>
      </trkpt>
      <trkpt lat="45.1965" lon="5.18903">
        <ele>477</ele>
        <time>2017-05-07T09:55:13Z</time>
      </trkpt>
      <trkpt lat="45.19642" lon="5.18909">
        <ele>477</ele>
        <time>2017-05-07T09:55:16Z</time>
      </trkpt>
      <trkpt lat="45.19635" lon="5.18918">
        <ele>477</ele>
        <time>2017-05-07T09:55:18Z</time>
      </trkpt>
      <trkpt lat="45.19626" lon="5.18926">
        <ele>477</ele>
        <time>2017-05-07T09:55:20Z</time>
      </trkpt>
      <trkpt lat="45.19617" lon="5.18936">
        <ele>477</ele>
        <time>2017-05-07T09:55:22Z</time>
      </trkpt>
      <trkpt lat="45.19607" lon="5.18942">
        <ele>476</ele>
        <time>2017-05-07T09:55:24Z</time>
      </trkpt>
      <trkpt lat="45.19597" lon="5.18947">
        <ele>476</ele>
        <time>2017-05-07T09:55:29Z</time>
      </trkpt>
      <trkpt lat="45.19587" lon="5.18946">
        <ele>476</ele>
        <time>2017-05-07T09:55:36Z</time>
      </trkpt>
      <trkpt lat="45.19577" lon="5.18947">
        <ele>478</ele>
        <time>2017-05-07T09:56:28Z</time>
      </trkpt>
      <trkpt lat="45.1957" lon="5.18937">
        <ele>478</ele>
        <time>2017-05-07T09:56:38Z</time>
      </trkpt>
      <trkpt lat="45.1956" lon="5.18934">
        <ele>478</ele>
        <time>2017-05-07T09:56:48Z</time>
      </trkpt>
      <trkpt lat="45.1955" lon="5.18937">
        <ele>479</ele>
        <time>2017-05-07T09:56:57Z</time>
      </trkpt>
      <trkpt lat="45.1954" lon="5.18941">
        <ele>480</ele>
        <time>2017-05-07T09:57:09Z</time>
      </trkpt>
      <trkpt lat="45.19532" lon="5.18949">
        <ele>480</ele>
        <time>2017-05-07T09:57:15Z</time>
      </trkpt>
      <trkpt lat="45.19522" lon="5.18951">
        <ele>480</ele>
        <time>2017-05-07T09:57:20Z</time>
      </trkpt>
      <trkpt lat="45.19514" lon="5.18958">
        <ele>481</ele>
        <time>2017-05-07T09:57:25Z</time>
      </trkpt>
      <trkpt lat="45.19508" lon="5.18972">
        <ele>481</ele>
        <time>2017-05-07T09:57:31Z</time>
      </trkpt>
      <trkpt lat="45.19506" lon="5.18985">
        <ele>482</ele>
        <time>2017-05-07T09:57:38Z</time>
      </trkpt>
      <trkpt lat="45.19506" lon="5.18999">
        <ele>483</ele>
        <time>2017-05-07T09:57:44Z</time>
      </trkpt>
      <trkpt lat="45.19501" lon="5.19012">
        <ele>481</ele>
        <time>2017-05-07T09:57:51Z</time>
      </trkpt>
      <trkpt lat="45.19498" lon="5.19024">
        <ele>484</ele>
        <time>2017-05-07T09:57:59Z</time>
      </trkpt>
      <trkpt lat="45.19498" lon="5.19038">
        <ele>483</ele>
        <time>2017-05-07T09:58:08Z</time>
      </trkpt>
      <trkpt lat="45.19496" lon="5.19053">
        <ele>482</ele>
        <time>2017-05-07T09:58:15Z</time>
      </trkpt>
      <trkpt lat="45.19493" lon="5.19065">
        <ele>480</ele>
        <time>2017-05-07T09:58:21Z</time>
      </trkpt>
      <trkpt lat="45.19489" lon="5.19079">
        <ele>479</ele>
        <time>2017-05-07T09:58:28Z</time>
      </trkpt>
      <trkpt lat="45.19483" lon="5.19092">
        <ele>478</ele>
        <time>2017-05-07T09:58:35Z</time>
      </trkpt>
      <trkpt lat="45.19477" lon="5.19104">
        <ele>479</ele>
        <time>2017-05-07T09:58:42Z</time>
      </trkpt>
      <trkpt lat="45.19471" lon="5.19114">
        <ele>480</ele>
        <time>2017-05-07T09:58:49Z</time>
      </trkpt>
      <trkpt lat="45.19466" lon="5.19127">
        <ele>480</ele>
        <time>2017-05-07T09:58:59Z</time>
      </trkpt>
      <trkpt lat="45.19464" lon="5.19142">
        <ele>480</ele>
        <time>2017-05-07T09:59:08Z</time>
      </trkpt>
      <trkpt lat="45.19458" lon="5.19154">
        <ele>480</ele>
        <time>2017-05-07T09:59:18Z</time>
      </trkpt>
      <trkpt lat="45.19455" lon="5.19167">
        <ele>482</ele>
        <time>2017-05-07T09:59:27Z</time>
      </trkpt>
      <trkpt lat="45.19451" lon="5.1918">
        <ele>482</ele>
        <time>2017-05-07T09:59:34Z</time>
      </trkpt>
      <trkpt lat="45.19445" lon="5.19191">
        <ele>483</ele>
        <time>2017-05-07T09:59:42Z</time>
      </trkpt>
      <trkpt lat="45.19445" lon="5.19206">
        <ele>483</ele>
        <time>2017-05-07T09:59:51Z</time>
      </trkpt>
      <trkpt lat="45.19444" lon="5.1922">
        <ele>484</ele>
        <time>2017-05-07T09:59:59Z</time>
      </trkpt>
      <trkpt lat="45.19448" lon="5.19233">
        <ele>484</ele>
        <time>2017-05-07T10:00:07Z</time>
      </trkpt>
      <trkpt lat="45.19446" lon="5.19248">
        <ele>484</ele>
        <time>2017-05-07T10:00:16Z</time>
      </trkpt>
      <trkpt lat="45.19452" lon="5.19265">
        <ele>487</ele>
        <time>2017-05-07T10:00:25Z</time>
      </trkpt>
      <trkpt lat="45.19456" lon="5.19279">
        <ele>487</ele>
        <time>2017-05-07T10:00:28Z</time>
      </trkpt>
      <trkpt lat="45.19459" lon="5.19297">
        <ele>487</ele>
        <time>2017-05-07T10:00:32Z</time>
      </trkpt>
      <trkpt lat="45.1946" lon="5.19315">
        <ele>487</ele>
        <time>2017-05-07T10:00:35Z</time>
      </trkpt>
      <trkpt lat="45.19461" lon="5.1933">
        <ele>487</ele>
        <time>2017-05-07T10:00:38Z</time>
      </trkpt>
      <trkpt lat="45.19461" lon="5.19347">
        <ele>490</ele>
        <time>2017-05-07T10:00:43Z</time>
      </trkpt>
      <trkpt lat="45.1946" lon="5.1936">
        <ele>490</ele>
        <time>2017-05-07T10:00:49Z</time>
      </trkpt>
      <trkpt lat="45.1946" lon="5.19374">
        <ele>490</ele>
        <time>2017-05-07T10:00:54Z</time>
      </trkpt>
      <trkpt lat="45.19461" lon="5.19388">
        <ele>490</ele>
        <time>2017-05-07T10:00:59Z</time>
      </trkpt>
      <trkpt lat="45.1946" lon="5.19401">
        <ele>490</ele>
        <time>2017-05-07T10:01:04Z</time>
      </trkpt>
      <trkpt lat="45.19459" lon="5.19415">
        <ele>491</ele>
        <time>2017-05-07T10:01:09Z</time>
      </trkpt>
      <trkpt lat="45.19457" lon="5.19429">
        <ele>491</ele>
        <time>2017-05-07T10:01:15Z</time>
      </trkpt>
      <trkpt lat="45.19458" lon="5.19444">
        <ele>491</ele>
        <time>2017-05-07T10:01:21Z</time>
      </trkpt>
      <trkpt lat="45.19455" lon="5.19459">
        <ele>491</ele>
        <time>2017-05-07T10:01:26Z</time>
      </trkpt>
      <trkpt lat="45.19452" lon="5.19472">
        <ele>492</ele>
        <time>2017-05-07T10:01:31Z</time>
      </trkpt>
      <trkpt lat="45.19443" lon="5.19478">
        <ele>492</ele>
        <time>2017-05-07T10:01:36Z</time>
      </trkpt>
      <trkpt lat="45.19433" lon="5.19478">
        <ele>493</ele>
        <time>2017-05-07T10:01:42Z</time>
      </trkpt>
      <trkpt lat="45.19423" lon="5.19477">
        <ele>494</ele>
        <time>2017-05-07T10:01:49Z</time>
      </trkpt>
      <trkpt lat="45.19413" lon="5.19476">
        <ele>500</ele>
        <time>2017-05-07T10:01:56Z</time>
      </trkpt>
      <trkpt lat="45.19403" lon="5.19476">
        <ele>500</ele>
        <time>2017-05-07T10:02:03Z</time>
      </trkpt>
      <trkpt lat="45.19391" lon="5.19474">
        <ele>501</ele>
        <time>2017-05-07T10:02:12Z</time>
      </trkpt>
      <trkpt lat="45.19382" lon="5.19471">
        <ele>501</ele>
        <time>2017-05-07T10:02:20Z</time>
      </trkpt>
      <trkpt lat="45.19372" lon="5.19469">
        <ele>502</ele>
        <time>2017-05-07T10:02:30Z</time>
      </trkpt>
      <trkpt lat="45.19363" lon="5.19476">
        <ele>503</ele>
        <time>2017-05-07T10:02:38Z</time>
      </trkpt>
      <trkpt lat="45.19354" lon="5.19482">
        <ele>503</ele>
        <time>2017-05-07T10:02:46Z</time>
      </trkpt>
      <trkpt lat="45.19345" lon="5.19489">
        <ele>505</ele>
        <time>2017-05-07T10:02:52Z</time>
      </trkpt>
      <trkpt lat="45.19335" lon="5.19492">
        <ele>506</ele>
        <time>2017-05-07T10:02:58Z</time>
      </trkpt>
      <trkpt lat="45.19323" lon="5.19496">
        <ele>508</ele>
        <time>2017-05-07T10:03:05Z</time>
      </trkpt>
      <trkpt lat="45.19313" lon="5.19501">
        <ele>510</ele>
        <time>2017-05-07T10:03:10Z</time>
      </trkpt>
      <trkpt lat="45.19304" lon="5.19509">
        <ele>510</ele>
        <time>2017-05-07T10:03:19Z</time>
      </trkpt>
      <trkpt lat="45.19293" lon="5.19509">
        <ele>511</ele>
        <time>2017-05-07T10:03:26Z</time>
      </trkpt>
      <trkpt lat="45.19283" lon="5.19507">
        <ele>512</ele>
        <time>2017-05-07T10:03:30Z</time>
      </trkpt>
      <trkpt lat="45.19273" lon="5.19509">
        <ele>512</ele>
        <time>2017-05-07T10:03:36Z</time>
      </trkpt>
      <trkpt lat="45.19264" lon="5.19513">
        <ele>513</ele>
        <time>2017-05-07T10:03:40Z</time>
      </trkpt>
      <trkpt lat="45.19253" lon="5.19516">
        <ele>513</ele>
        <time>2017-05-07T10:03:44Z</time>
      </trkpt>
      <trkpt lat="45.19244" lon="5.19518">
        <ele>515</ele>
        <time>2017-05-07T10:03:48Z</time>
      </trkpt>
      <trkpt lat="45.19235" lon="5.19524">
        <ele>515</ele>
        <time>2017-05-07T10:03:52Z</time>
      </trkpt>
      <trkpt lat="45.1923" lon="5.19537">
        <ele>515</ele>
        <time>2017-05-07T10:03:58Z</time>
      </trkpt>
      <trkpt lat="45.1922" lon="5.19543">
        <ele>515</ele>
        <time>2017-05-07T10:04:02Z</time>
      </trkpt>
      <trkpt lat="45.19212" lon="5.19547">
        <ele>515</ele>
        <time>2017-05-07T10:04:06Z</time>
      </trkpt>
      <trkpt lat="45.192" lon="5.19552">
        <ele>516</ele>
        <time>2017-05-07T10:04:09Z</time>
      </trkpt>
      <trkpt lat="45.19191" lon="5.19557">
        <ele>516</ele>
        <time>2017-05-07T10:04:12Z</time>
      </trkpt>
      <trkpt lat="45.19184" lon="5.19568">
        <ele>516</ele>
        <time>2017-05-07T10:04:15Z</time>
      </trkpt>
      <trkpt lat="45.19177" lon="5.19582">
        <ele>517</ele>
        <time>2017-05-07T10:04:18Z</time>
      </trkpt>
      <trkpt lat="45.19168" lon="5.19594">
        <ele>516</ele>
        <time>2017-05-07T10:04:21Z</time>
      </trkpt>
      <trkpt lat="45.19159" lon="5.19606">
        <ele>518</ele>
        <time>2017-05-07T10:04:24Z</time>
      </trkpt>
      <trkpt lat="45.19152" lon="5.19618">
        <ele>518</ele>
        <time>2017-05-07T10:04:27Z</time>
      </trkpt>
      <trkpt lat="45.19144" lon="5.19629">
        <ele>518</ele>
        <time>2017-05-07T10:04:30Z</time>
      </trkpt>
      <trkpt lat="45.19135" lon="5.1964">
        <ele>518</ele>
        <time>2017-05-07T10:04:33Z</time>
      </trkpt>
      <trkpt lat="45.19126" lon="5.19651">
        <ele>518</ele>
        <time>2017-05-07T10:04:36Z</time>
      </trkpt>
      <trkpt lat="45.19119" lon="5.19661">
        <ele>518</ele>
        <time>2017-05-07T10:04:39Z</time>
      </trkpt>
      <trkpt lat="45.19112" lon="5.1967">
        <ele>517</ele>
        <time>2017-05-07T10:04:42Z</time>
      </trkpt>
      <trkpt lat="45.19101" lon="5.19676">
        <ele>518</ele>
        <time>2017-05-07T10:04:46Z</time>
      </trkpt>
      <trkpt lat="45.19091" lon="5.19679">
        <ele>519</ele>
        <time>2017-05-07T10:04:51Z</time>
      </trkpt>
      <trkpt lat="45.19081" lon="5.19675">
        <ele>521</ele>
        <time>2017-05-07T10:04:55Z</time>
      </trkpt>
      <trkpt lat="45.19072" lon="5.19665">
        <ele>522</ele>
        <time>2017-05-07T10:04:59Z</time>
      </trkpt>
      <trkpt lat="45.1906" lon="5.19658">
        <ele>521</ele>
        <time>2017-05-07T10:05:03Z</time>
      </trkpt>
      <trkpt lat="45.19049" lon="5.19653">
        <ele>521</ele>
        <time>2017-05-07T10:05:07Z</time>
      </trkpt>
      <trkpt lat="45.1904" lon="5.19648">
        <ele>521</ele>
        <time>2017-05-07T10:05:10Z</time>
      </trkpt>
      <trkpt lat="45.19031" lon="5.19645">
        <ele>521</ele>
        <time>2017-05-07T10:05:13Z</time>
      </trkpt>
      <trkpt lat="45.1902" lon="5.19642">
        <ele>521</ele>
        <time>2017-05-07T10:05:16Z</time>
      </trkpt>
      <trkpt lat="45.1901" lon="5.19641">
        <ele>521</ele>
        <time>2017-05-07T10:05:19Z</time>
      </trkpt>
      <trkpt lat="45.18999" lon="5.19638">
        <ele>520</ele>
        <time>2017-05-07T10:05:22Z</time>
      </trkpt>
      <trkpt lat="45.18988" lon="5.19634">
        <ele>520</ele>
        <time>2017-05-07T10:05:25Z</time>
      </trkpt>
      <trkpt lat="45.18975" lon="5.19631">
        <ele>519</ele>
        <time>2017-05-07T10:05:28Z</time>
      </trkpt>
      <trkpt lat="45.18962" lon="5.19625">
        <ele>519</ele>
        <time>2017-05-07T10:05:31Z</time>
      </trkpt>
      <trkpt lat="45.18952" lon="5.19622">
        <ele>519</ele>
        <time>2017-05-07T10:05:33Z</time>
      </trkpt>
      <trkpt lat="45.18944" lon="5.19617">
        <ele>519</ele>
        <time>2017-05-07T10:05:35Z</time>
      </trkpt>
      <trkpt lat="45.18935" lon="5.19613">
        <ele>519</ele>
        <time>2017-05-07T10:05:37Z</time>
      </trkpt>
      <trkpt lat="45.18922" lon="5.19605">
        <ele>519</ele>
        <time>2017-05-07T10:05:40Z</time>
      </trkpt>
      <trkpt lat="45.18909" lon="5.196">
        <ele>519</ele>
        <time>2017-05-07T10:05:43Z</time>
      </trkpt>
      <trkpt lat="45.18897" lon="5.19595">
        <ele>519</ele>
        <time>2017-05-07T10:05:46Z</time>
      </trkpt>
      <trkpt lat="45.18886" lon="5.19589">
        <ele>519</ele>
        <time>2017-05-07T10:05:49Z</time>
      </trkpt>
      <trkpt lat="45.18875" lon="5.19587">
        <ele>519</ele>
        <time>2017-05-07T10:05:52Z</time>
      </trkpt>
      <trkpt lat="45.18864" lon="5.19588">
        <ele>520</ele>
        <time>2017-05-07T10:05:55Z</time>
      </trkpt>
      <trkpt lat="45.18854" lon="5.19595">
        <ele>520</ele>
        <time>2017-05-07T10:05:58Z</time>
      </trkpt>
      <trkpt lat="45.18843" lon="5.19598">
        <ele>521</ele>
        <time>2017-05-07T10:06:01Z</time>
      </trkpt>
      <trkpt lat="45.18832" lon="5.19605">
        <ele>522</ele>
        <time>2017-05-07T10:06:05Z</time>
      </trkpt>
      <trkpt lat="45.18822" lon="5.19604">
        <ele>522</ele>
        <time>2017-05-07T10:06:08Z</time>
      </trkpt>
      <trkpt lat="45.18811" lon="5.19609">
        <ele>522</ele>
        <time>2017-05-07T10:06:13Z</time>
      </trkpt>
      <trkpt lat="45.188" lon="5.19611">
        <ele>522</ele>
        <time>2017-05-07T10:06:17Z</time>
      </trkpt>
      <trkpt lat="45.1879" lon="5.19613">
        <ele>522</ele>
        <time>2017-05-07T10:06:22Z</time>
      </trkpt>
      <trkpt lat="45.18782" lon="5.19617">
        <ele>522</ele>
        <time>2017-05-07T10:06:27Z</time>
      </trkpt>
      <trkpt lat="45.18768" lon="5.19618">
        <ele>522</ele>
        <time>2017-05-07T10:06:30Z</time>
      </trkpt>
      <trkpt lat="45.18757" lon="5.19617">
        <ele>522</ele>
        <time>2017-05-07T10:06:33Z</time>
      </trkpt>
      <trkpt lat="45.1874" lon="5.19611">
        <ele>525</ele>
        <time>2017-05-07T10:06:39Z</time>
      </trkpt>
      <trkpt lat="45.18727" lon="5.19611">
        <ele>525</ele>
        <time>2017-05-07T10:06:45Z</time>
      </trkpt>
      <trkpt lat="45.18715" lon="5.19609">
        <ele>526</ele>
        <time>2017-05-07T10:06:49Z</time>
      </trkpt>
      <trkpt lat="45.18707" lon="5.19605">
        <ele>526</ele>
        <time>2017-05-07T10:06:51Z</time>
      </trkpt>
      <trkpt lat="45.18695" lon="5.19604">
        <ele>527</ele>
        <time>2017-05-07T10:06:56Z</time>
      </trkpt>
      <trkpt lat="45.18684" lon="5.19603">
        <ele>527</ele>
        <time>2017-05-07T10:06:59Z</time>
      </trkpt>
      <trkpt lat="45.18675" lon="5.19604">
        <ele>527</ele>
        <time>2017-05-07T10:07:03Z</time>
      </trkpt>
      <trkpt lat="45.18663" lon="5.19604">
        <ele>530</ele>
        <time>2017-05-07T10:07:09Z</time>
      </trkpt>
      <trkpt lat="45.18651" lon="5.19604">
        <ele>530</ele>
        <time>2017-05-07T10:07:13Z</time>
      </trkpt>
      <trkpt lat="45.18641" lon="5.19608">
        <ele>530</ele>
        <time>2017-05-07T10:07:17Z</time>
      </trkpt>
      <trkpt lat="45.1863" lon="5.19608">
        <ele>530</ele>
        <time>2017-05-07T10:07:21Z</time>
      </trkpt>
      <trkpt lat="45.18621" lon="5.19607">
        <ele>531</ele>
        <time>2017-05-07T10:07:25Z</time>
      </trkpt>
      <trkpt lat="45.18611" lon="5.19605">
        <ele>531</ele>
        <time>2017-05-07T10:07:28Z</time>
      </trkpt>
      <trkpt lat="45.186" lon="5.19603">
        <ele>531</ele>
        <time>2017-05-07T10:07:32Z</time>
      </trkpt>
      <trkpt lat="45.1859" lon="5.19602">
        <ele>532</ele>
        <time>2017-05-07T10:07:35Z</time>
      </trkpt>
      <trkpt lat="45.1858" lon="5.19602">
        <ele>533</ele>
        <time>2017-05-07T10:07:38Z</time>
      </trkpt>
      <trkpt lat="45.1857" lon="5.19603">
        <ele>533</ele>
        <time>2017-05-07T10:07:41Z</time>
      </trkpt>
      <trkpt lat="45.18558" lon="5.19603">
        <ele>534</ele>
        <time>2017-05-07T10:07:45Z</time>
      </trkpt>
      <trkpt lat="45.18548" lon="5.19603">
        <ele>534</ele>
        <time>2017-05-07T10:07:48Z</time>
      </trkpt>
      <trkpt lat="45.18538" lon="5.19603">
        <ele>534</ele>
        <time>2017-05-07T10:07:52Z</time>
      </trkpt>
      <trkpt lat="45.18527" lon="5.196">
        <ele>535</ele>
        <time>2017-05-07T10:07:58Z</time>
      </trkpt>
      <trkpt lat="45.18517" lon="5.19601">
        <ele>535</ele>
        <time>2017-05-07T10:08:03Z</time>
      </trkpt>
      <trkpt lat="45.18508" lon="5.19601">
        <ele>535</ele>
        <time>2017-05-07T10:08:08Z</time>
      </trkpt>
      <trkpt lat="45.18498" lon="5.196">
        <ele>540</ele>
        <time>2017-05-07T10:08:14Z</time>
      </trkpt>
      <trkpt lat="45.18487" lon="5.19601">
        <ele>541</ele>
        <time>2017-05-07T10:08:21Z</time>
      </trkpt>
      <trkpt lat="45.18476" lon="5.196">
        <ele>542</ele>
        <time>2017-05-07T10:08:28Z</time>
      </trkpt>
      <trkpt lat="45.18468" lon="5.19592">
        <ele>543</ele>
        <time>2017-05-07T10:08:37Z</time>
      </trkpt>
      <trkpt lat="45.18458" lon="5.1959">
        <ele>544</ele>
        <time>2017-05-07T10:08:47Z</time>
      </trkpt>
      <trkpt lat="45.18446" lon="5.19589">
        <ele>546</ele>
        <time>2017-05-07T10:08:56Z</time>
      </trkpt>
      <trkpt lat="45.18436" lon="5.19588">
        <ele>548</ele>
        <time>2017-05-07T10:09:06Z</time>
      </trkpt>
      <trkpt lat="45.18428" lon="5.19595">
        <ele>549</ele>
        <time>2017-05-07T10:09:13Z</time>
      </trkpt>
      <trkpt lat="45.18418" lon="5.19599">
        <ele>550</ele>
        <time>2017-05-07T10:09:22Z</time>
      </trkpt>
      <trkpt lat="45.18409" lon="5.19601">
        <ele>555</ele>
        <time>2017-05-07T10:09:29Z</time>
      </trkpt>
      <trkpt lat="45.18398" lon="5.19603">
        <ele>555</ele>
        <time>2017-05-07T10:09:37Z</time>
      </trkpt>
      <trkpt lat="45.18388" lon="5.19604">
        <ele>556</ele>
        <time>2017-05-07T10:09:45Z</time>
      </trkpt>
      <trkpt lat="45.18377" lon="5.19609">
        <ele>556</ele>
        <time>2017-05-07T10:09:55Z</time>
      </trkpt>
      <trkpt lat="45.18367" lon="5.19609">
        <ele>557</ele>
        <time>2017-05-07T10:10:00Z</time>
      </trkpt>
      <trkpt lat="45.18358" lon="5.19608">
        <ele>558</ele>
        <time>2017-05-07T10:10:07Z</time>
      </trkpt>
      <trkpt lat="45.18347" lon="5.19609">
        <ele>559</ele>
        <time>2017-05-07T10:10:14Z</time>
      </trkpt>
      <trkpt lat="45.18337" lon="5.19609">
        <ele>559</ele>
        <time>2017-05-07T10:10:19Z</time>
      </trkpt>
      <trkpt lat="45.18327" lon="5.19611">
        <ele>564</ele>
        <time>2017-05-07T10:10:25Z</time>
      </trkpt>
      <trkpt lat="45.18315" lon="5.19614">
        <ele>564</ele>
        <time>2017-05-07T10:10:29Z</time>
      </trkpt>
      <trkpt lat="45.18304" lon="5.1962">
        <ele>564</ele>
        <time>2017-05-07T10:10:33Z</time>
      </trkpt>
      <trkpt lat="45.18295" lon="5.19623">
        <ele>564</ele>
        <time>2017-05-07T10:10:36Z</time>
      </trkpt>
      <trkpt lat="45.18285" lon="5.19628">
        <ele>564</ele>
        <time>2017-05-07T10:10:40Z</time>
      </trkpt>
      <trkpt lat="45.18276" lon="5.19635">
        <ele>564</ele>
        <time>2017-05-07T10:10:45Z</time>
      </trkpt>
      <trkpt lat="45.18268" lon="5.1964">
        <ele>563</ele>
        <time>2017-05-07T10:10:49Z</time>
      </trkpt>
      <trkpt lat="45.18259" lon="5.19647">
        <ele>563</ele>
        <time>2017-05-07T10:10:54Z</time>
      </trkpt>
      <trkpt lat="45.18249" lon="5.19654">
        <ele>565</ele>
        <time>2017-05-07T10:10:58Z</time>
      </trkpt>
      <trkpt lat="45.18238" lon="5.19658">
        <ele>565</ele>
        <time>2017-05-07T10:11:01Z</time>
      </trkpt>
      <trkpt lat="45.18228" lon="5.19659">
        <ele>566</ele>
        <time>2017-05-07T10:11:03Z</time>
      </trkpt>
      <trkpt lat="45.18217" lon="5.19661">
        <ele>567</ele>
        <time>2017-05-07T10:11:06Z</time>
      </trkpt>
      <trkpt lat="45.18205" lon="5.19664">
        <ele>568</ele>
        <time>2017-05-07T10:11:09Z</time>
      </trkpt>
      <trkpt lat="45.18195" lon="5.19666">
        <ele>568</ele>
        <time>2017-05-07T10:11:12Z</time>
      </trkpt>
      <trkpt lat="45.18183" lon="5.19668">
        <ele>561</ele>
        <time>2017-05-07T10:11:16Z</time>
      </trkpt>
      <trkpt lat="45.18173" lon="5.19671">
        <ele>563</ele>
        <time>2017-05-07T10:11:20Z</time>
      </trkpt>
      <trkpt lat="45.18164" lon="5.19678">
        <ele>564</ele>
        <time>2017-05-07T10:11:24Z</time>
      </trkpt>
      <trkpt lat="45.18155" lon="5.19686">
        <ele>563</ele>
        <time>2017-05-07T10:11:28Z</time>
      </trkpt>
      <trkpt lat="45.18147" lon="5.19694">
        <ele>562</ele>
        <time>2017-05-07T10:11:32Z</time>
      </trkpt>
      <trkpt lat="45.18135" lon="5.19695">
        <ele>562</ele>
        <time>2017-05-07T10:11:36Z</time>
      </trkpt>
      <trkpt lat="45.18126" lon="5.19695">
        <ele>562</ele>
        <time>2017-05-07T10:11:39Z</time>
      </trkpt>
      <trkpt lat="45.18115" lon="5.19697">
        <ele>562</ele>
        <time>2017-05-07T10:11:43Z</time>
      </trkpt>
      <trkpt lat="45.18097" lon="5.19693">
        <ele>563</ele>
        <time>2017-05-07T10:11:50Z</time>
      </trkpt>
      <trkpt lat="45.18081" lon="5.19696">
        <ele>565</ele>
        <time>2017-05-07T10:11:52Z</time>
      </trkpt>
      <trkpt lat="45.18072" lon="5.19698">
        <ele>565</ele>
        <time>2017-05-07T10:11:55Z</time>
      </trkpt>
      <trkpt lat="45.18058" lon="5.19701">
        <ele>564</ele>
        <time>2017-05-07T10:12:00Z</time>
      </trkpt>
      <trkpt lat="45.18045" lon="5.19701">
        <ele>564</ele>
        <time>2017-05-07T10:12:03Z</time>
      </trkpt>
      <trkpt lat="45.18035" lon="5.19703">
        <ele>564</ele>
        <time>2017-05-07T10:12:05Z</time>
      </trkpt>
      <trkpt lat="45.18023" lon="5.19707">
        <ele>564</ele>
        <time>2017-05-07T10:12:07Z</time>
      </trkpt>
      <trkpt lat="45.18011" lon="5.19708">
        <ele>564</ele>
        <time>2017-05-07T10:12:09Z</time>
      </trkpt>
      <trkpt lat="45.18001" lon="5.19709">
        <ele>564</ele>
        <time>2017-05-07T10:12:11Z</time>
      </trkpt>
      <trkpt lat="45.17991" lon="5.19711">
        <ele>566</ele>
        <time>2017-05-07T10:12:14Z</time>
      </trkpt>
      <trkpt lat="45.17982" lon="5.19718">
        <ele>565</ele>
        <time>2017-05-07T10:12:18Z</time>
      </trkpt>
      <trkpt lat="45.1797" lon="5.19723">
        <ele>565</ele>
        <time>2017-05-07T10:12:22Z</time>
      </trkpt>
      <trkpt lat="45.1796" lon="5.19727">
        <ele>565</ele>
        <time>2017-05-07T10:12:24Z</time>
      </trkpt>
      <trkpt lat="45.17951" lon="5.19729">
        <ele>565</ele>
        <time>2017-05-07T10:12:26Z</time>
      </trkpt>
      <trkpt lat="45.1794" lon="5.19734">
        <ele>565</ele>
        <time>2017-05-07T10:12:28Z</time>
      </trkpt>
      <trkpt lat="45.17927" lon="5.19737">
        <ele>564</ele>
        <time>2017-05-07T10:12:30Z</time>
      </trkpt>
      <trkpt lat="45.17914" lon="5.19741">
        <ele>564</ele>
        <time>2017-05-07T10:12:32Z</time>
      </trkpt>
      <trkpt lat="45.17903" lon="5.19744">
        <ele>565</ele>
        <time>2017-05-07T10:12:34Z</time>
      </trkpt>
      <trkpt lat="45.17892" lon="5.19746">
        <ele>565</ele>
        <time>2017-05-07T10:12:36Z</time>
      </trkpt>
      <trkpt lat="45.17882" lon="5.19751">
        <ele>555</ele>
        <time>2017-05-07T10:12:38Z</time>
      </trkpt>
      <trkpt lat="45.17866" lon="5.19754">
        <ele>555</ele>
        <time>2017-05-07T10:12:43Z</time>
      </trkpt>
      <trkpt lat="45.17855" lon="5.19751">
        <ele>556</ele>
        <time>2017-05-07T10:12:46Z</time>
      </trkpt>
      <trkpt lat="45.17844" lon="5.19747">
        <ele>564</ele>
        <time>2017-05-07T10:12:53Z</time>
      </trkpt>
      <trkpt lat="45.17834" lon="5.19748">
        <ele>562</ele>
        <time>2017-05-07T10:13:02Z</time>
      </trkpt>
      <trkpt lat="45.17824" lon="5.19747">
        <ele>563</ele>
        <time>2017-05-07T10:13:07Z</time>
      </trkpt>
      <trkpt lat="45.17813" lon="5.19747">
        <ele>564</ele>
        <time>2017-05-07T10:13:10Z</time>
      </trkpt>
      <trkpt lat="45.178" lon="5.19747">
        <ele>564</ele>
        <time>2017-05-07T10:13:13Z</time>
      </trkpt>
      <trkpt lat="45.17787" lon="5.19747">
        <ele>563</ele>
        <time>2017-05-07T10:13:16Z</time>
      </trkpt>
      <trkpt lat="45.17776" lon="5.19749">
        <ele>562</ele>
        <time>2017-05-07T10:13:18Z</time>
      </trkpt>
      <trkpt lat="45.17766" lon="5.19749">
        <ele>560</ele>
        <time>2017-05-07T10:13:20Z</time>
      </trkpt>
      <trkpt lat="45.17756" lon="5.19747">
        <ele>558</ele>
        <time>2017-05-07T10:13:22Z</time>
      </trkpt>
      <trkpt lat="45.17746" lon="5.19746">
        <ele>557</ele>
        <time>2017-05-07T10:13:24Z</time>
      </trkpt>
      <trkpt lat="45.17736" lon="5.19746">
        <ele>558</ele>
        <time>2017-05-07T10:13:26Z</time>
      </trkpt>
      <trkpt lat="45.17723" lon="5.19744">
        <ele>558</ele>
        <time>2017-05-07T10:13:29Z</time>
      </trkpt>
      <trkpt lat="45.17713" lon="5.19743">
        <ele>558</ele>
        <time>2017-05-07T10:13:31Z</time>
      </trkpt>
      <trkpt lat="45.17703" lon="5.19739">
        <ele>558</ele>
        <time>2017-05-07T10:13:33Z</time>
      </trkpt>
      <trkpt lat="45.17692" lon="5.19736">
        <ele>557</ele>
        <time>2017-05-07T10:13:35Z</time>
      </trkpt>
      <trkpt lat="45.17681" lon="5.19733">
        <ele>556</ele>
        <time>2017-05-07T10:13:37Z</time>
      </trkpt>
      <trkpt lat="45.17672" lon="5.19728">
        <ele>556</ele>
        <time>2017-05-07T10:13:40Z</time>
      </trkpt>
      <trkpt lat="45.1766" lon="5.19727">
        <ele>555</ele>
        <time>2017-05-07T10:13:44Z</time>
      </trkpt>
      <trkpt lat="45.17648" lon="5.19728">
        <ele>556</ele>
        <time>2017-05-07T10:13:47Z</time>
      </trkpt>
      <trkpt lat="45.17638" lon="5.19726">
        <ele>556</ele>
        <time>2017-05-07T10:13:52Z</time>
      </trkpt>
      <trkpt lat="45.17628" lon="5.19728">
        <ele>556</ele>
        <time>2017-05-07T10:13:56Z</time>
      </trkpt>
      <trkpt lat="45.17618" lon="5.19727">
        <ele>556</ele>
        <time>2017-05-07T10:14:02Z</time>
      </trkpt>
      <trkpt lat="45.17608" lon="5.19726">
        <ele>556</ele>
        <time>2017-05-07T10:14:06Z</time>
      </trkpt>
      <trkpt lat="45.17597" lon="5.19723">
        <ele>556</ele>
        <time>2017-05-07T10:14:09Z</time>
      </trkpt>
      <trkpt lat="45.17584" lon="5.19721">
        <ele>556</ele>
        <time>2017-05-07T10:14:12Z</time>
      </trkpt>
      <trkpt lat="45.17573" lon="5.19724">
        <ele>553</ele>
        <time>2017-05-07T10:14:14Z</time>
      </trkpt>
      <trkpt lat="45.17562" lon="5.19723">
        <ele>553</ele>
        <time>2017-05-07T10:14:16Z</time>
      </trkpt>
      <trkpt lat="45.17552" lon="5.19719">
        <ele>553</ele>
        <time>2017-05-07T10:14:18Z</time>
      </trkpt>
      <trkpt lat="45.17541" lon="5.19717">
        <ele>553</ele>
        <time>2017-05-07T10:14:20Z</time>
      </trkpt>
      <trkpt lat="45.17531" lon="5.19714">
        <ele>553</ele>
        <time>2017-05-07T10:14:22Z</time>
      </trkpt>
      <trkpt lat="45.17517" lon="5.19713">
        <ele>553</ele>
        <time>2017-05-07T10:14:25Z</time>
      </trkpt>
      <trkpt lat="45.17506" lon="5.1971">
        <ele>553</ele>
        <time>2017-05-07T10:14:28Z</time>
      </trkpt>
      <trkpt lat="45.17496" lon="5.19707">
        <ele>548</ele>
        <time>2017-05-07T10:14:31Z</time>
      </trkpt>
      <trkpt lat="45.17483" lon="5.19698">
        <ele>549</ele>
        <time>2017-05-07T10:14:34Z</time>
      </trkpt>
      <trkpt lat="45.17471" lon="5.19689">
        <ele>549</ele>
        <time>2017-05-07T10:14:36Z</time>
      </trkpt>
      <trkpt lat="45.17463" lon="5.19681">
        <ele>548</ele>
        <time>2017-05-07T10:14:38Z</time>
      </trkpt>
      <trkpt lat="45.17454" lon="5.19668">
        <ele>548</ele>
        <time>2017-05-07T10:14:40Z</time>
      </trkpt>
      <trkpt lat="45.17443" lon="5.19657">
        <ele>553</ele>
        <time>2017-05-07T10:14:43Z</time>
      </trkpt>
      <trkpt lat="45.17426" lon="5.19648">
        <ele>552</ele>
        <time>2017-05-07T10:14:48Z</time>
      </trkpt>
      <trkpt lat="45.17418" lon="5.19645">
        <ele>552</ele>
        <time>2017-05-07T10:14:51Z</time>
      </trkpt>
      <trkpt lat="45.17407" lon="5.19646">
        <ele>549</ele>
        <time>2017-05-07T10:14:57Z</time>
      </trkpt>
      <trkpt lat="45.17397" lon="5.1965">
        <ele>549</ele>
        <time>2017-05-07T10:15:01Z</time>
      </trkpt>
      <trkpt lat="45.17386" lon="5.19654">
        <ele>549</ele>
        <time>2017-05-07T10:15:05Z</time>
      </trkpt>
      <trkpt lat="45.17376" lon="5.19656">
        <ele>549</ele>
        <time>2017-05-07T10:15:11Z</time>
      </trkpt>
      <trkpt lat="45.17365" lon="5.19657">
        <ele>549</ele>
        <time>2017-05-07T10:15:15Z</time>
      </trkpt>
      <trkpt lat="45.17356" lon="5.19652">
        <ele>549</ele>
        <time>2017-05-07T10:15:20Z</time>
      </trkpt>
      <trkpt lat="45.17346" lon="5.1965">
        <ele>549</ele>
        <time>2017-05-07T10:15:24Z</time>
      </trkpt>
      <trkpt lat="45.17334" lon="5.19648">
        <ele>549</ele>
        <time>2017-05-07T10:15:28Z</time>
      </trkpt>
      <trkpt lat="45.17321" lon="5.19642">
        <ele>549</ele>
        <time>2017-05-07T10:15:35Z</time>
      </trkpt>
      <trkpt lat="45.17312" lon="5.19639">
        <ele>549</ele>
        <time>2017-05-07T10:15:39Z</time>
      </trkpt>
      <trkpt lat="45.173" lon="5.19639">
        <ele>549</ele>
        <time>2017-05-07T10:15:42Z</time>
      </trkpt>
      <trkpt lat="45.1729" lon="5.19636">
        <ele>549</ele>
        <time>2017-05-07T10:15:46Z</time>
      </trkpt>
      <trkpt lat="45.1728" lon="5.19634">
        <ele>549</ele>
        <time>2017-05-07T10:15:49Z</time>
      </trkpt>
      <trkpt lat="45.17271" lon="5.19629">
        <ele>549</ele>
        <time>2017-05-07T10:15:53Z</time>
      </trkpt>
      <trkpt lat="45.17261" lon="5.19627">
        <ele>549</ele>
        <time>2017-05-07T10:15:59Z</time>
      </trkpt>
      <trkpt lat="45.17252" lon="5.19623">
        <ele>549</ele>
        <time>2017-05-07T10:16:05Z</time>
      </trkpt>
      <trkpt lat="45.17243" lon="5.19621">
        <ele>550</ele>
        <time>2017-05-07T10:16:11Z</time>
      </trkpt>
      <trkpt lat="45.17233" lon="5.19618">
        <ele>550</ele>
        <time>2017-05-07T10:16:20Z</time>
      </trkpt>
      <trkpt lat="45.17223" lon="5.19614">
        <ele>550</ele>
        <time>2017-05-07T10:16:26Z</time>
      </trkpt>
      <trkpt lat="45.17213" lon="5.19612">
        <ele>550</ele>
        <time>2017-05-07T10:16:34Z</time>
      </trkpt>
      <trkpt lat="45.17204" lon="5.19608">
        <ele>550</ele>
        <time>2017-05-07T10:16:41Z</time>
      </trkpt>
      <trkpt lat="45.17192" lon="5.1961">
        <ele>551</ele>
        <time>2017-05-07T10:16:47Z</time>
      </trkpt>
      <trkpt lat="45.17181" lon="5.19609">
        <ele>551</ele>
        <time>2017-05-07T10:16:51Z</time>
      </trkpt>
      <trkpt lat="45.17172" lon="5.19611">
        <ele>551</ele>
        <time>2017-05-07T10:16:55Z</time>
      </trkpt>
      <trkpt lat="45.17161" lon="5.19612">
        <ele>553</ele>
        <time>2017-05-07T10:17:02Z</time>
      </trkpt>
      <trkpt lat="45.17152" lon="5.19611">
        <ele>553</ele>
        <time>2017-05-07T10:17:09Z</time>
      </trkpt>
      <trkpt lat="45.17142" lon="5.19612">
        <ele>553</ele>
        <time>2017-05-07T10:17:13Z</time>
      </trkpt>
      <trkpt lat="45.17132" lon="5.19611">
        <ele>553</ele>
        <time>2017-05-07T10:17:18Z</time>
      </trkpt>
      <trkpt lat="45.17121" lon="5.19613">
        <ele>554</ele>
        <time>2017-05-07T10:17:23Z</time>
      </trkpt>
      <trkpt lat="45.1711" lon="5.19614">
        <ele>554</ele>
        <time>2017-05-07T10:17:29Z</time>
      </trkpt>
      <trkpt lat="45.171" lon="5.19613">
        <ele>554</ele>
        <time>2017-05-07T10:17:34Z</time>
      </trkpt>
      <trkpt lat="45.17091" lon="5.19613">
        <ele>555</ele>
        <time>2017-05-07T10:17:38Z</time>
      </trkpt>
      <trkpt lat="45.17082" lon="5.19617">
        <ele>557</ele>
        <time>2017-05-07T10:17:42Z</time>
      </trkpt>
      <trkpt lat="45.17072" lon="5.19614">
        <ele>557</ele>
        <time>2017-05-07T10:17:48Z</time>
      </trkpt>
      <trkpt lat="45.17064" lon="5.19621">
        <ele>557</ele>
        <time>2017-05-07T10:17:55Z</time>
      </trkpt>
      <trkpt lat="45.17053" lon="5.19623">
        <ele>557</ele>
        <time>2017-05-07T10:18:02Z</time>
      </trkpt>
      <trkpt lat="45.17043" lon="5.19622">
        <ele>557</ele>
        <time>2017-05-07T10:18:10Z</time>
      </trkpt>
      <trkpt lat="45.17032" lon="5.19622">
        <ele>558</ele>
        <time>2017-05-07T10:18:12Z</time>
      </trkpt>
      <trkpt lat="45.17023" lon="5.1963">
        <ele>558</ele>
        <time>2017-05-07T10:18:17Z</time>
      </trkpt>
      <trkpt lat="45.17013" lon="5.19628">
        <ele>558</ele>
        <time>2017-05-07T10:18:22Z</time>
      </trkpt>
      <trkpt lat="45.17003" lon="5.19628">
        <ele>558</ele>
        <time>2017-05-07T10:18:28Z</time>
      </trkpt>
      <trkpt lat="45.16992" lon="5.1963">
        <ele>560</ele>
        <time>2017-05-07T10:18:35Z</time>
      </trkpt>
      <trkpt lat="45.16982" lon="5.19628">
        <ele>560</ele>
        <time>2017-05-07T10:18:39Z</time>
      </trkpt>
      <trkpt lat="45.16956" lon="5.19628">
        <ele>561</ele>
        <time>2017-05-07T10:18:50Z</time>
      </trkpt>
      <trkpt lat="45.16946" lon="5.19626">
        <ele>561</ele>
        <time>2017-05-07T10:18:55Z</time>
      </trkpt>
      <trkpt lat="45.16936" lon="5.19633">
        <ele>561</ele>
        <time>2017-05-07T10:19:00Z</time>
      </trkpt>
      <trkpt lat="45.16926" lon="5.19641">
        <ele>562</ele>
        <time>2017-05-07T10:19:04Z</time>
      </trkpt>
      <trkpt lat="45.16914" lon="5.1964">
        <ele>562</ele>
        <time>2017-05-07T10:19:10Z</time>
      </trkpt>
      <trkpt lat="45.16904" lon="5.19635">
        <ele>561</ele>
        <time>2017-05-07T10:19:12Z</time>
      </trkpt>
      <trkpt lat="45.16892" lon="5.19637">
        <ele>561</ele>
        <time>2017-05-07T10:19:15Z</time>
      </trkpt>
      <trkpt lat="45.16882" lon="5.19634">
        <ele>561</ele>
        <time>2017-05-07T10:19:19Z</time>
      </trkpt>
      <trkpt lat="45.1687" lon="5.1963">
        <ele>561</ele>
        <time>2017-05-07T10:19:23Z</time>
      </trkpt>
      <trkpt lat="45.16862" lon="5.19625">
        <ele>561</ele>
        <time>2017-05-07T10:19:27Z</time>
      </trkpt>
      <trkpt lat="45.16851" lon="5.19622">
        <ele>561</ele>
        <time>2017-05-07T10:19:32Z</time>
      </trkpt>
      <trkpt lat="45.16838" lon="5.19624">
        <ele>560</ele>
        <time>2017-05-07T10:19:35Z</time>
      </trkpt>
      <trkpt lat="45.16826" lon="5.19623">
        <ele>557</ele>
        <time>2017-05-07T10:19:38Z</time>
      </trkpt>
      <trkpt lat="45.16816" lon="5.19622">
        <ele>557</ele>
        <time>2017-05-07T10:19:41Z</time>
      </trkpt>
      <trkpt lat="45.16807" lon="5.19618">
        <ele>557</ele>
        <time>2017-05-07T10:19:44Z</time>
      </trkpt>
      <trkpt lat="45.16797" lon="5.19617">
        <ele>557</ele>
        <time>2017-05-07T10:19:48Z</time>
      </trkpt>
      <trkpt lat="45.16788" lon="5.19616">
        <ele>557</ele>
        <time>2017-05-07T10:19:53Z</time>
      </trkpt>
      <trkpt lat="45.16776" lon="5.1961">
        <ele>557</ele>
        <time>2017-05-07T10:19:55Z</time>
      </trkpt>
      <trkpt lat="45.16767" lon="5.19608">
        <ele>557</ele>
        <time>2017-05-07T10:19:57Z</time>
      </trkpt>
      <trkpt lat="45.16757" lon="5.19604">
        <ele>558</ele>
        <time>2017-05-07T10:20:00Z</time>
      </trkpt>
      <trkpt lat="45.16744" lon="5.19601">
        <ele>558</ele>
        <time>2017-05-07T10:20:05Z</time>
      </trkpt>
      <trkpt lat="45.16736" lon="5.19589">
        <ele>558</ele>
        <time>2017-05-07T10:20:10Z</time>
      </trkpt>
      <trkpt lat="45.16727" lon="5.19582">
        <ele>561</ele>
        <time>2017-05-07T10:20:13Z</time>
      </trkpt>
      <trkpt lat="45.16717" lon="5.19581">
        <ele>561</ele>
        <time>2017-05-07T10:20:15Z</time>
      </trkpt>
      <trkpt lat="45.16707" lon="5.1958">
        <ele>561</ele>
        <time>2017-05-07T10:20:18Z</time>
      </trkpt>
      <trkpt lat="45.16698" lon="5.19578">
        <ele>561</ele>
        <time>2017-05-07T10:20:22Z</time>
      </trkpt>
      <trkpt lat="45.16688" lon="5.19579">
        <ele>561</ele>
        <time>2017-05-07T10:20:25Z</time>
      </trkpt>
      <trkpt lat="45.16674" lon="5.19577">
        <ele>561</ele>
        <time>2017-05-07T10:20:30Z</time>
      </trkpt>
      <trkpt lat="45.1666" lon="5.19572">
        <ele>561</ele>
        <time>2017-05-07T10:20:32Z</time>
      </trkpt>
      <trkpt lat="45.16648" lon="5.19571">
        <ele>561</ele>
        <time>2017-05-07T10:20:36Z</time>
      </trkpt>
      <trkpt lat="45.16638" lon="5.19571">
        <ele>561</ele>
        <time>2017-05-07T10:20:39Z</time>
      </trkpt>
      <trkpt lat="45.16626" lon="5.19572">
        <ele>561</ele>
        <time>2017-05-07T10:20:43Z</time>
      </trkpt>
      <trkpt lat="45.16615" lon="5.1957">
        <ele>561</ele>
        <time>2017-05-07T10:20:47Z</time>
      </trkpt>
      <trkpt lat="45.16604" lon="5.1957">
        <ele>561</ele>
        <time>2017-05-07T10:20:51Z</time>
      </trkpt>
      <trkpt lat="45.16592" lon="5.19573">
        <ele>561</ele>
        <time>2017-05-07T10:20:54Z</time>
      </trkpt>
      <trkpt lat="45.16582" lon="5.19578">
        <ele>559</ele>
        <time>2017-05-07T10:20:57Z</time>
      </trkpt>
      <trkpt lat="45.16574" lon="5.19585">
        <ele>557</ele>
        <time>2017-05-07T10:20:59Z</time>
      </trkpt>
      <trkpt lat="45.16564" lon="5.19594">
        <ele>555</ele>
        <time>2017-05-07T10:21:02Z</time>
      </trkpt>
      <trkpt lat="45.16558" lon="5.19613">
        <ele>553</ele>
        <time>2017-05-07T10:21:06Z</time>
      </trkpt>
      <trkpt lat="45.16551" lon="5.19628">
        <ele>552</ele>
        <time>2017-05-07T10:21:09Z</time>
      </trkpt>
      <trkpt lat="45.16544" lon="5.1964">
        <ele>551</ele>
        <time>2017-05-07T10:21:14Z</time>
      </trkpt>
      <trkpt lat="45.16536" lon="5.19631">
        <ele>550</ele>
        <time>2017-05-07T10:21:20Z</time>
      </trkpt>
      <trkpt lat="45.16527" lon="5.19622">
        <ele>550</ele>
        <time>2017-05-07T10:21:23Z</time>
      </trkpt>
      <trkpt lat="45.16515" lon="5.19613">
        <ele>550</ele>
        <time>2017-05-07T10:21:26Z</time>
      </trkpt>
      <trkpt lat="45.16502" lon="5.19601">
        <ele>549</ele>
        <time>2017-05-07T10:21:29Z</time>
      </trkpt>
      <trkpt lat="45.16494" lon="5.19588">
        <ele>544</ele>
        <time>2017-05-07T10:21:30Z</time>
      </trkpt>
      <trkpt lat="45.16487" lon="5.19577">
        <ele>544</ele>
        <time>2017-05-07T10:21:31Z</time>
      </trkpt>
      <trkpt lat="45.16479" lon="5.1956">
        <ele>543</ele>
        <time>2017-05-07T10:21:33Z</time>
      </trkpt>
      <trkpt lat="45.16475" lon="5.19542">
        <ele>543</ele>
        <time>2017-05-07T10:21:35Z</time>
      </trkpt>
      <trkpt lat="45.1647" lon="5.1953">
        <ele>543</ele>
        <time>2017-05-07T10:21:37Z</time>
      </trkpt>
      <trkpt lat="45.16463" lon="5.19519">
        <ele>543</ele>
        <time>2017-05-07T10:21:41Z</time>
      </trkpt>
      <trkpt lat="45.16454" lon="5.19508">
        <ele>542</ele>
        <time>2017-05-07T10:21:46Z</time>
      </trkpt>
      <trkpt lat="45.16445" lon="5.19495">
        <ele>546</ele>
        <time>2017-05-07T10:21:49Z</time>
      </trkpt>
      <trkpt lat="45.16436" lon="5.19481">
        <ele>545</ele>
        <time>2017-05-07T10:21:52Z</time>
      </trkpt>
      <trkpt lat="45.16427" lon="5.19473">
        <ele>546</ele>
        <time>2017-05-07T10:21:54Z</time>
      </trkpt>
      <trkpt lat="45.16419" lon="5.19469">
        <ele>546</ele>
        <time>2017-05-07T10:21:56Z</time>
      </trkpt>
      <trkpt lat="45.1641" lon="5.1946">
        <ele>536</ele>
        <time>2017-05-07T10:21:59Z</time>
      </trkpt>
      <trkpt lat="45.16399" lon="5.19438">
        <ele>537</ele>
        <time>2017-05-07T10:22:04Z</time>
      </trkpt>
      <trkpt lat="45.16384" lon="5.19418">
        <ele>536</ele>
        <time>2017-05-07T10:22:08Z</time>
      </trkpt>
      <trkpt lat="45.16372" lon="5.19409">
        <ele>537</ele>
        <time>2017-05-07T10:22:10Z</time>
      </trkpt>
      <trkpt lat="45.16359" lon="5.19401">
        <ele>535</ele>
        <time>2017-05-07T10:22:12Z</time>
      </trkpt>
      <trkpt lat="45.1635" lon="5.19396">
        <ele>534</ele>
        <time>2017-05-07T10:22:14Z</time>
      </trkpt>
      <trkpt lat="45.16342" lon="5.19384">
        <ele>534</ele>
        <time>2017-05-07T10:22:17Z</time>
      </trkpt>
      <trkpt lat="45.16338" lon="5.19371">
        <ele>535</ele>
        <time>2017-05-07T10:22:21Z</time>
      </trkpt>
      <trkpt lat="45.16336" lon="5.19357">
        <ele>535</ele>
        <time>2017-05-07T10:22:25Z</time>
      </trkpt>
      <trkpt lat="45.16332" lon="5.19345">
        <ele>527</ele>
        <time>2017-05-07T10:22:28Z</time>
      </trkpt>
      <trkpt lat="45.1633" lon="5.19329">
        <ele>530</ele>
        <time>2017-05-07T10:22:30Z</time>
      </trkpt>
      <trkpt lat="45.16328" lon="5.1931">
        <ele>529</ele>
        <time>2017-05-07T10:22:33Z</time>
      </trkpt>
      <trkpt lat="45.16325" lon="5.19293">
        <ele>529</ele>
        <time>2017-05-07T10:22:35Z</time>
      </trkpt>
      <trkpt lat="45.16321" lon="5.19275">
        <ele>531</ele>
        <time>2017-05-07T10:22:37Z</time>
      </trkpt>
      <trkpt lat="45.16319" lon="5.1926">
        <ele>532</ele>
        <time>2017-05-07T10:22:39Z</time>
      </trkpt>
      <trkpt lat="45.16317" lon="5.19243">
        <ele>535</ele>
        <time>2017-05-07T10:22:41Z</time>
      </trkpt>
      <trkpt lat="45.16314" lon="5.19229">
        <ele>534</ele>
        <time>2017-05-07T10:22:44Z</time>
      </trkpt>
      <trkpt lat="45.16307" lon="5.19214">
        <ele>534</ele>
        <time>2017-05-07T10:22:48Z</time>
      </trkpt>
      <trkpt lat="45.16301" lon="5.19201">
        <ele>534</ele>
        <time>2017-05-07T10:22:51Z</time>
      </trkpt>
      <trkpt lat="45.16297" lon="5.19186">
        <ele>534</ele>
        <time>2017-05-07T10:22:53Z</time>
      </trkpt>
      <trkpt lat="45.16293" lon="5.1917">
        <ele>533</ele>
        <time>2017-05-07T10:22:55Z</time>
      </trkpt>
      <trkpt lat="45.16286" lon="5.19144">
        <ele>537</ele>
        <time>2017-05-07T10:22:59Z</time>
      </trkpt>
      <trkpt lat="45.16285" lon="5.19129">
        <ele>538</ele>
        <time>2017-05-07T10:23:01Z</time>
      </trkpt>
      <trkpt lat="45.16281" lon="5.19116">
        <ele>538</ele>
        <time>2017-05-07T10:23:05Z</time>
      </trkpt>
      <trkpt lat="45.16276" lon="5.19103">
        <ele>538</ele>
        <time>2017-05-07T10:23:09Z</time>
      </trkpt>
      <trkpt lat="45.16271" lon="5.19091">
        <ele>537</ele>
        <time>2017-05-07T10:23:14Z</time>
      </trkpt>
      <trkpt lat="45.16265" lon="5.19079">
        <ele>538</ele>
        <time>2017-05-07T10:23:19Z</time>
      </trkpt>
      <trkpt lat="45.16262" lon="5.19065">
        <ele>538</ele>
        <time>2017-05-07T10:23:24Z</time>
      </trkpt>
      <trkpt lat="45.1626" lon="5.19051">
        <ele>539</ele>
        <time>2017-05-07T10:23:28Z</time>
      </trkpt>
      <trkpt lat="45.1626" lon="5.19038">
        <ele>540</ele>
        <time>2017-05-07T10:23:32Z</time>
      </trkpt>
      <trkpt lat="45.1626" lon="5.19017">
        <ele>538</ele>
        <time>2017-05-07T10:23:38Z</time>
      </trkpt>
      <trkpt lat="45.16262" lon="5.18998">
        <ele>536</ele>
        <time>2017-05-07T10:23:41Z</time>
      </trkpt>
      <trkpt lat="45.16264" lon="5.18983">
        <ele>537</ele>
        <time>2017-05-07T10:23:45Z</time>
      </trkpt>
      <trkpt lat="45.16264" lon="5.18968">
        <ele>538</ele>
        <time>2017-05-07T10:23:48Z</time>
      </trkpt>
      <trkpt lat="45.16262" lon="5.18954">
        <ele>537</ele>
        <time>2017-05-07T10:23:50Z</time>
      </trkpt>
      <trkpt lat="45.16262" lon="5.1894">
        <ele>536</ele>
        <time>2017-05-07T10:23:53Z</time>
      </trkpt>
      <trkpt lat="45.16263" lon="5.18923">
        <ele>534</ele>
        <time>2017-05-07T10:23:56Z</time>
      </trkpt>
      <trkpt lat="45.16261" lon="5.18906">
        <ele>532</ele>
        <time>2017-05-07T10:23:59Z</time>
      </trkpt>
      <trkpt lat="45.16258" lon="5.18892">
        <ele>533</ele>
        <time>2017-05-07T10:24:01Z</time>
      </trkpt>
      <trkpt lat="45.16255" lon="5.18878">
        <ele>533</ele>
        <time>2017-05-07T10:24:03Z</time>
      </trkpt>
      <trkpt lat="45.16251" lon="5.18862">
        <ele>533</ele>
        <time>2017-05-07T10:24:05Z</time>
      </trkpt>
      <trkpt lat="45.16247" lon="5.18845">
        <ele>525</ele>
        <time>2017-05-07T10:24:07Z</time>
      </trkpt>
      <trkpt lat="45.16242" lon="5.18829">
        <ele>526</ele>
        <time>2017-05-07T10:24:09Z</time>
      </trkpt>
      <trkpt lat="45.16237" lon="5.18815">
        <ele>524</ele>
        <time>2017-05-07T10:24:11Z</time>
      </trkpt>
      <trkpt lat="45.16232" lon="5.188">
        <ele>523</ele>
        <time>2017-05-07T10:24:13Z</time>
      </trkpt>
      <trkpt lat="45.16227" lon="5.18787">
        <ele>522</ele>
        <time>2017-05-07T10:24:15Z</time>
      </trkpt>
      <trkpt lat="45.16223" lon="5.18773">
        <ele>522</ele>
        <time>2017-05-07T10:24:17Z</time>
      </trkpt>
      <trkpt lat="45.16218" lon="5.18759">
        <ele>522</ele>
        <time>2017-05-07T10:24:19Z</time>
      </trkpt>
      <trkpt lat="45.16214" lon="5.18745">
        <ele>522</ele>
        <time>2017-05-07T10:24:21Z</time>
      </trkpt>
      <trkpt lat="45.1621" lon="5.1873">
        <ele>522</ele>
        <time>2017-05-07T10:24:23Z</time>
      </trkpt>
      <trkpt lat="45.16206" lon="5.18714">
        <ele>522</ele>
        <time>2017-05-07T10:24:25Z</time>
      </trkpt>
      <trkpt lat="45.16201" lon="5.18699">
        <ele>521</ele>
        <time>2017-05-07T10:24:27Z</time>
      </trkpt>
      <trkpt lat="45.16196" lon="5.18685">
        <ele>521</ele>
        <time>2017-05-07T10:24:29Z</time>
      </trkpt>
      <trkpt lat="45.1619" lon="5.18668">
        <ele>520</ele>
        <time>2017-05-07T10:24:31Z</time>
      </trkpt>
      <trkpt lat="45.16185" lon="5.18653">
        <ele>521</ele>
        <time>2017-05-07T10:24:33Z</time>
      </trkpt>
      <trkpt lat="45.16178" lon="5.18639">
        <ele>521</ele>
        <time>2017-05-07T10:24:35Z</time>
      </trkpt>
      <trkpt lat="45.16173" lon="5.18625">
        <ele>522</ele>
        <time>2017-05-07T10:24:37Z</time>
      </trkpt>
      <trkpt lat="45.16166" lon="5.18613">
        <ele>512</ele>
        <time>2017-05-07T10:24:39Z</time>
      </trkpt>
      <trkpt lat="45.16157" lon="5.18603">
        <ele>512</ele>
        <time>2017-05-07T10:24:41Z</time>
      </trkpt>
      <trkpt lat="45.1615" lon="5.1859">
        <ele>513</ele>
        <time>2017-05-07T10:24:43Z</time>
      </trkpt>
      <trkpt lat="45.16143" lon="5.18577">
        <ele>515</ele>
        <time>2017-05-07T10:24:45Z</time>
      </trkpt>
      <trkpt lat="45.16137" lon="5.18563">
        <ele>514</ele>
        <time>2017-05-07T10:24:47Z</time>
      </trkpt>
      <trkpt lat="45.16131" lon="5.1855">
        <ele>513</ele>
        <time>2017-05-07T10:24:49Z</time>
      </trkpt>
      <trkpt lat="45.16123" lon="5.1854">
        <ele>513</ele>
        <time>2017-05-07T10:24:51Z</time>
      </trkpt>
      <trkpt lat="45.16115" lon="5.18528">
        <ele>512</ele>
        <time>2017-05-07T10:24:53Z</time>
      </trkpt>
      <trkpt lat="45.16108" lon="5.18518">
        <ele>511</ele>
        <time>2017-05-07T10:24:55Z</time>
      </trkpt>
      <trkpt lat="45.16103" lon="5.18507">
        <ele>511</ele>
        <time>2017-05-07T10:24:57Z</time>
      </trkpt>
      <trkpt lat="45.16096" lon="5.18496">
        <ele>512</ele>
        <time>2017-05-07T10:24:59Z</time>
      </trkpt>
      <trkpt lat="45.16091" lon="5.18485">
        <ele>513</ele>
        <time>2017-05-07T10:25:01Z</time>
      </trkpt>
      <trkpt lat="45.16082" lon="5.18471">
        <ele>507</ele>
        <time>2017-05-07T10:25:04Z</time>
      </trkpt>
      <trkpt lat="45.16075" lon="5.18461">
        <ele>507</ele>
        <time>2017-05-07T10:25:06Z</time>
      </trkpt>
      <trkpt lat="45.16068" lon="5.18446">
        <ele>508</ele>
        <time>2017-05-07T10:25:09Z</time>
      </trkpt>
      <trkpt lat="45.16061" lon="5.18431">
        <ele>509</ele>
        <time>2017-05-07T10:25:12Z</time>
      </trkpt>
      <trkpt lat="45.16053" lon="5.1842">
        <ele>509</ele>
        <time>2017-05-07T10:25:16Z</time>
      </trkpt>
      <trkpt lat="45.16046" lon="5.18409">
        <ele>513</ele>
        <time>2017-05-07T10:25:19Z</time>
      </trkpt>
      <trkpt lat="45.16037" lon="5.18401">
        <ele>513</ele>
        <time>2017-05-07T10:25:22Z</time>
      </trkpt>
      <trkpt lat="45.16027" lon="5.18396">
        <ele>512</ele>
        <time>2017-05-07T10:25:25Z</time>
      </trkpt>
      <trkpt lat="45.16017" lon="5.18393">
        <ele>511</ele>
        <time>2017-05-07T10:25:27Z</time>
      </trkpt>
      <trkpt lat="45.15993" lon="5.18376">
        <ele>503</ele>
        <time>2017-05-07T10:25:35Z</time>
      </trkpt>
      <trkpt lat="45.15985" lon="5.18367">
        <ele>504</ele>
        <time>2017-05-07T10:25:39Z</time>
      </trkpt>
      <trkpt lat="45.15974" lon="5.18367">
        <ele>503</ele>
        <time>2017-05-07T10:25:45Z</time>
      </trkpt>
      <trkpt lat="45.15961" lon="5.18372">
        <ele>501</ele>
        <time>2017-05-07T10:25:48Z</time>
      </trkpt>
      <trkpt lat="45.15951" lon="5.18372">
        <ele>500</ele>
        <time>2017-05-07T10:25:50Z</time>
      </trkpt>
      <trkpt lat="45.15938" lon="5.18371">
        <ele>500</ele>
        <time>2017-05-07T10:25:53Z</time>
      </trkpt>
      <trkpt lat="45.15932" lon="5.18383">
        <ele>499</ele>
        <time>2017-05-07T10:25:57Z</time>
      </trkpt>
      <trkpt lat="45.15934" lon="5.18399">
        <ele>498</ele>
        <time>2017-05-07T10:26:07Z</time>
      </trkpt>
      <trkpt lat="45.15941" lon="5.18411">
        <ele>498</ele>
        <time>2017-05-07T10:26:10Z</time>
      </trkpt>
      <trkpt lat="45.15943" lon="5.18425">
        <ele>493</ele>
        <time>2017-05-07T10:26:17Z</time>
      </trkpt>
      <trkpt lat="45.15949" lon="5.18436">
        <ele>493</ele>
        <time>2017-05-07T10:26:22Z</time>
      </trkpt>
      <trkpt lat="45.15952" lon="5.18449">
        <ele>492</ele>
        <time>2017-05-07T10:26:26Z</time>
      </trkpt>
      <trkpt lat="45.15957" lon="5.18461">
        <ele>491</ele>
        <time>2017-05-07T10:26:29Z</time>
      </trkpt>
      <trkpt lat="45.15963" lon="5.18474">
        <ele>491</ele>
        <time>2017-05-07T10:26:34Z</time>
      </trkpt>
      <trkpt lat="45.15972" lon="5.18492">
        <ele>491</ele>
        <time>2017-05-07T10:26:39Z</time>
      </trkpt>
      <trkpt lat="45.15978" lon="5.1851">
        <ele>484</ele>
        <time>2017-05-07T10:26:43Z</time>
      </trkpt>
      <trkpt lat="45.15985" lon="5.1852">
        <ele>484</ele>
        <time>2017-05-07T10:26:47Z</time>
      </trkpt>
      <trkpt lat="45.15988" lon="5.18535">
        <ele>482</ele>
        <time>2017-05-07T10:26:54Z</time>
      </trkpt>
      <trkpt lat="45.15994" lon="5.18546">
        <ele>481</ele>
        <time>2017-05-07T10:26:58Z</time>
      </trkpt>
      <trkpt lat="45.15997" lon="5.18561">
        <ele>481</ele>
        <time>2017-05-07T10:27:03Z</time>
      </trkpt>
      <trkpt lat="45.15999" lon="5.18575">
        <ele>481</ele>
        <time>2017-05-07T10:27:09Z</time>
      </trkpt>
      <trkpt lat="45.16005" lon="5.18585">
        <ele>483</ele>
        <time>2017-05-07T10:27:15Z</time>
      </trkpt>
      <trkpt lat="45.16011" lon="5.186">
        <ele>484</ele>
        <time>2017-05-07T10:27:20Z</time>
      </trkpt>
      <trkpt lat="45.16009" lon="5.18618">
        <ele>484</ele>
        <time>2017-05-07T10:27:23Z</time>
      </trkpt>
      <trkpt lat="45.1601" lon="5.18635">
        <ele>483</ele>
        <time>2017-05-07T10:27:27Z</time>
      </trkpt>
      <trkpt lat="45.16012" lon="5.18649">
        <ele>481</ele>
        <time>2017-05-07T10:27:29Z</time>
      </trkpt>
      <trkpt lat="45.16015" lon="5.18664">
        <ele>480</ele>
        <time>2017-05-07T10:27:31Z</time>
      </trkpt>
      <trkpt lat="45.16018" lon="5.18682">
        <ele>478</ele>
        <time>2017-05-07T10:27:33Z</time>
      </trkpt>
      <trkpt lat="45.16016" lon="5.187">
        <ele>479</ele>
        <time>2017-05-07T10:27:35Z</time>
      </trkpt>
      <trkpt lat="45.16012" lon="5.18718">
        <ele>478</ele>
        <time>2017-05-07T10:27:37Z</time>
      </trkpt>
      <trkpt lat="45.16006" lon="5.18734">
        <ele>475</ele>
        <time>2017-05-07T10:27:39Z</time>
      </trkpt>
      <trkpt lat="45.16" lon="5.18747">
        <ele>470</ele>
        <time>2017-05-07T10:27:41Z</time>
      </trkpt>
      <trkpt lat="45.15992" lon="5.18752">
        <ele>465</ele>
        <time>2017-05-07T10:27:43Z</time>
      </trkpt>
      <trkpt lat="45.15981" lon="5.18748">
        <ele>464</ele>
        <time>2017-05-07T10:27:46Z</time>
      </trkpt>
      <trkpt lat="45.15975" lon="5.18736">
        <ele>463</ele>
        <time>2017-05-07T10:27:51Z</time>
      </trkpt>
      <trkpt lat="45.15965" lon="5.18724">
        <ele>461</ele>
        <time>2017-05-07T10:27:55Z</time>
      </trkpt>
      <trkpt lat="45.15957" lon="5.18713">
        <ele>461</ele>
        <time>2017-05-07T10:27:58Z</time>
      </trkpt>
      <trkpt lat="45.1595" lon="5.18703">
        <ele>460</ele>
        <time>2017-05-07T10:28:01Z</time>
      </trkpt>
      <trkpt lat="45.15941" lon="5.18694">
        <ele>459</ele>
        <time>2017-05-07T10:28:04Z</time>
      </trkpt>
      <trkpt lat="45.15934" lon="5.18683">
        <ele>458</ele>
        <time>2017-05-07T10:28:07Z</time>
      </trkpt>
      <trkpt lat="45.15928" lon="5.18671">
        <ele>456</ele>
        <time>2017-05-07T10:28:13Z</time>
      </trkpt>
      <trkpt lat="45.15922" lon="5.18659">
        <ele>458</ele>
        <time>2017-05-07T10:28:18Z</time>
      </trkpt>
      <trkpt lat="45.15914" lon="5.18649">
        <ele>452</ele>
        <time>2017-05-07T10:28:23Z</time>
      </trkpt>
      <trkpt lat="45.15908" lon="5.18639">
        <ele>451</ele>
        <time>2017-05-07T10:28:27Z</time>
      </trkpt>
      <trkpt lat="45.15904" lon="5.18625">
        <ele>452</ele>
        <time>2017-05-07T10:28:30Z</time>
      </trkpt>
      <trkpt lat="45.15897" lon="5.18609">
        <ele>453</ele>
        <time>2017-05-07T10:28:34Z</time>
      </trkpt>
      <trkpt lat="45.15889" lon="5.18601">
        <ele>452</ele>
        <time>2017-05-07T10:28:36Z</time>
      </trkpt>
      <trkpt lat="45.15883" lon="5.18588">
        <ele>452</ele>
        <time>2017-05-07T10:28:40Z</time>
      </trkpt>
      <trkpt lat="45.15877" lon="5.18573">
        <ele>459</ele>
        <time>2017-05-07T10:28:45Z</time>
      </trkpt>
      <trkpt lat="45.15873" lon="5.18561">
        <ele>459</ele>
        <time>2017-05-07T10:28:48Z</time>
      </trkpt>
      <trkpt lat="45.15866" lon="5.18547">
        <ele>460</ele>
        <time>2017-05-07T10:28:53Z</time>
      </trkpt>
      <trkpt lat="45.15861" lon="5.18535">
        <ele>460</ele>
        <time>2017-05-07T10:28:58Z</time>
      </trkpt>
      <trkpt lat="45.15859" lon="5.18519">
        <ele>461</ele>
        <time>2017-05-07T10:29:02Z</time>
      </trkpt>
      <trkpt lat="45.15857" lon="5.18502">
        <ele>462</ele>
        <time>2017-05-07T10:29:08Z</time>
      </trkpt>
      <trkpt lat="45.15847" lon="5.18491">
        <ele>468</ele>
        <time>2017-05-07T10:29:17Z</time>
      </trkpt>
      <trkpt lat="45.1584" lon="5.18482">
        <ele>469</ele>
        <time>2017-05-07T10:29:25Z</time>
      </trkpt>
      <trkpt lat="45.15831" lon="5.18477">
        <ele>460</ele>
        <time>2017-05-07T10:29:30Z</time>
      </trkpt>
      <trkpt lat="45.15822" lon="5.1848">
        <ele>459</ele>
        <time>2017-05-07T10:29:34Z</time>
      </trkpt>
      <trkpt lat="45.15812" lon="5.18476">
        <ele>459</ele>
        <time>2017-05-07T10:29:40Z</time>
      </trkpt>
      <trkpt lat="45.15806" lon="5.18465">
        <ele>459</ele>
        <time>2017-05-07T10:29:44Z</time>
      </trkpt>
      <trkpt lat="45.15797" lon="5.18456">
        <ele>459</ele>
        <time>2017-05-07T10:29:49Z</time>
      </trkpt>
      <trkpt lat="45.1579" lon="5.18447">
        <ele>459</ele>
        <time>2017-05-07T10:29:55Z</time>
      </trkpt>
      <trkpt lat="45.15781" lon="5.18439">
        <ele>458</ele>
        <time>2017-05-07T10:30:02Z</time>
      </trkpt>
      <trkpt lat="45.15774" lon="5.18427">
        <ele>458</ele>
        <time>2017-05-07T10:30:07Z</time>
      </trkpt>
      <trkpt lat="45.15767" lon="5.18418">
        <ele>458</ele>
        <time>2017-05-07T10:30:13Z</time>
      </trkpt>
      <trkpt lat="45.1576" lon="5.18407">
        <ele>461</ele>
        <time>2017-05-07T10:30:19Z</time>
      </trkpt>
      <trkpt lat="45.15753" lon="5.18395">
        <ele>462</ele>
        <time>2017-05-07T10:30:23Z</time>
      </trkpt>
      <trkpt lat="45.15746" lon="5.18383">
        <ele>453</ele>
        <time>2017-05-07T10:30:25Z</time>
      </trkpt>
      <trkpt lat="45.15742" lon="5.1837">
        <ele>453</ele>
        <time>2017-05-07T10:30:27Z</time>
      </trkpt>
      <trkpt lat="45.15738" lon="5.18356">
        <ele>454</ele>
        <time>2017-05-07T10:30:30Z</time>
      </trkpt>
      <trkpt lat="45.15735" lon="5.18341">
        <ele>454</ele>
        <time>2017-05-07T10:30:33Z</time>
      </trkpt>
      <trkpt lat="45.15733" lon="5.18328">
        <ele>453</ele>
        <time>2017-05-07T10:30:37Z</time>
      </trkpt>
      <trkpt lat="45.15722" lon="5.18328">
        <ele>452</ele>
        <time>2017-05-07T10:30:42Z</time>
      </trkpt>
      <trkpt lat="45.15712" lon="5.18332">
        <ele>451</ele>
        <time>2017-05-07T10:30:45Z</time>
      </trkpt>
      <trkpt lat="45.15699" lon="5.1833">
        <ele>449</ele>
        <time>2017-05-07T10:30:48Z</time>
      </trkpt>
      <trkpt lat="45.15688" lon="5.18324">
        <ele>448</ele>
        <time>2017-05-07T10:30:50Z</time>
      </trkpt>
      <trkpt lat="45.15676" lon="5.18318">
        <ele>448</ele>
        <time>2017-05-07T10:30:52Z</time>
      </trkpt>
      <trkpt lat="45.15664" lon="5.18311">
        <ele>443</ele>
        <time>2017-05-07T10:30:54Z</time>
      </trkpt>
      <trkpt lat="45.15654" lon="5.18304">
        <ele>442</ele>
        <time>2017-05-07T10:30:56Z</time>
      </trkpt>
      <trkpt lat="45.15644" lon="5.18296">
        <ele>442</ele>
        <time>2017-05-07T10:30:59Z</time>
      </trkpt>
      <trkpt lat="45.15642" lon="5.18282">
        <ele>441</ele>
        <time>2017-05-07T10:31:05Z</time>
      </trkpt>
      <trkpt lat="45.15641" lon="5.18269">
        <ele>441</ele>
        <time>2017-05-07T10:35:05Z</time>
      </trkpt>
      <trkpt lat="45.15644" lon="5.18281">
        <ele>441</ele>
        <time>2017-05-07T10:35:44Z</time>
      </trkpt>
      <trkpt lat="45.15632" lon="5.18284">
        <ele>441</ele>
        <time>2017-05-07T10:39:09Z</time>
      </trkpt>
      <trkpt lat="45.15621" lon="5.18285">
        <ele>440</ele>
        <time>2017-05-07T10:39:11Z</time>
      </trkpt>
      <trkpt lat="45.15611" lon="5.18286">
        <ele>440</ele>
        <time>2017-05-07T10:39:13Z</time>
      </trkpt>
      <trkpt lat="45.15599" lon="5.18284">
        <ele>439</ele>
        <time>2017-05-07T10:39:16Z</time>
      </trkpt>
      <trkpt lat="45.15592" lon="5.18274">
        <ele>439</ele>
        <time>2017-05-07T10:39:19Z</time>
      </trkpt>
      <trkpt lat="45.15587" lon="5.18259">
        <ele>437</ele>
        <time>2017-05-07T10:39:22Z</time>
      </trkpt>
      <trkpt lat="45.15582" lon="5.18247">
        <ele>435</ele>
        <time>2017-05-07T10:39:24Z</time>
      </trkpt>
      <trkpt lat="45.15575" lon="5.18235">
        <ele>432</ele>
        <time>2017-05-07T10:39:26Z</time>
      </trkpt>
      <trkpt lat="45.15567" lon="5.18226">
        <ele>430</ele>
        <time>2017-05-07T10:39:28Z</time>
      </trkpt>
      <trkpt lat="45.15559" lon="5.18218">
        <ele>429</ele>
        <time>2017-05-07T10:39:30Z</time>
      </trkpt>
      <trkpt lat="45.15551" lon="5.1821">
        <ele>429</ele>
        <time>2017-05-07T10:39:32Z</time>
      </trkpt>
      <trkpt lat="45.15549" lon="5.18196">
        <ele>428</ele>
        <time>2017-05-07T10:39:34Z</time>
      </trkpt>
      <trkpt lat="45.15548" lon="5.18182">
        <ele>428</ele>
        <time>2017-05-07T10:39:38Z</time>
      </trkpt>
      <trkpt lat="45.15541" lon="5.18173">
        <ele>427</ele>
        <time>2017-05-07T10:39:42Z</time>
      </trkpt>
      <trkpt lat="45.15529" lon="5.1816">
        <ele>424</ele>
        <time>2017-05-07T10:39:45Z</time>
      </trkpt>
      <trkpt lat="45.15521" lon="5.18149">
        <ele>423</ele>
        <time>2017-05-07T10:39:47Z</time>
      </trkpt>
      <trkpt lat="45.1551" lon="5.18139">
        <ele>423</ele>
        <time>2017-05-07T10:39:50Z</time>
      </trkpt>
      <trkpt lat="45.15498" lon="5.18135">
        <ele>418</ele>
        <time>2017-05-07T10:39:53Z</time>
      </trkpt>
      <trkpt lat="45.15486" lon="5.18131">
        <ele>417</ele>
        <time>2017-05-07T10:39:56Z</time>
      </trkpt>
      <trkpt lat="45.15475" lon="5.18126">
        <ele>416</ele>
        <time>2017-05-07T10:39:59Z</time>
      </trkpt>
      <trkpt lat="45.15465" lon="5.18123">
        <ele>415</ele>
        <time>2017-05-07T10:40:02Z</time>
      </trkpt>
      <trkpt lat="45.15454" lon="5.1812">
        <ele>415</ele>
        <time>2017-05-07T10:40:05Z</time>
      </trkpt>
      <trkpt lat="45.15443" lon="5.18116">
        <ele>414</ele>
        <time>2017-05-07T10:40:08Z</time>
      </trkpt>
      <trkpt lat="45.15431" lon="5.18113">
        <ele>413</ele>
        <time>2017-05-07T10:40:11Z</time>
      </trkpt>
      <trkpt lat="45.15419" lon="5.1811">
        <ele>413</ele>
        <time>2017-05-07T10:40:15Z</time>
      </trkpt>
      <trkpt lat="45.15409" lon="5.18106">
        <ele>406</ele>
        <time>2017-05-07T10:40:19Z</time>
      </trkpt>
      <trkpt lat="45.15395" lon="5.18103">
        <ele>405</ele>
        <time>2017-05-07T10:40:28Z</time>
      </trkpt>
      <trkpt lat="45.15386" lon="5.181">
        <ele>404</ele>
        <time>2017-05-07T10:40:34Z</time>
      </trkpt>
      <trkpt lat="45.15375" lon="5.18096">
        <ele>403</ele>
        <time>2017-05-07T10:40:38Z</time>
      </trkpt>
      <trkpt lat="45.15363" lon="5.18095">
        <ele>401</ele>
        <time>2017-05-07T10:40:42Z</time>
      </trkpt>
      <trkpt lat="45.15351" lon="5.18094">
        <ele>400</ele>
        <time>2017-05-07T10:40:45Z</time>
      </trkpt>
      <trkpt lat="45.15337" lon="5.18091">
        <ele>397</ele>
        <time>2017-05-07T10:40:48Z</time>
      </trkpt>
      <trkpt lat="45.15327" lon="5.18088">
        <ele>394</ele>
        <time>2017-05-07T10:40:51Z</time>
      </trkpt>
      <trkpt lat="45.15317" lon="5.18085">
        <ele>393</ele>
        <time>2017-05-07T10:40:54Z</time>
      </trkpt>
      <trkpt lat="45.15308" lon="5.18081">
        <ele>391</ele>
        <time>2017-05-07T10:40:57Z</time>
      </trkpt>
      <trkpt lat="45.15295" lon="5.18072">
        <ele>389</ele>
        <time>2017-05-07T10:41:00Z</time>
      </trkpt>
      <trkpt lat="45.15286" lon="5.18065">
        <ele>389</ele>
        <time>2017-05-07T10:41:02Z</time>
      </trkpt>
      <trkpt lat="45.15278" lon="5.18058">
        <ele>388</ele>
        <time>2017-05-07T10:41:04Z</time>
      </trkpt>
      <trkpt lat="45.15266" lon="5.18049">
        <ele>388</ele>
        <time>2017-05-07T10:41:07Z</time>
      </trkpt>
      <trkpt lat="45.15257" lon="5.18044">
        <ele>387</ele>
        <time>2017-05-07T10:41:09Z</time>
      </trkpt>
      <trkpt lat="45.15248" lon="5.18035">
        <ele>379</ele>
        <time>2017-05-07T10:41:12Z</time>
      </trkpt>
      <trkpt lat="45.15244" lon="5.1802">
        <ele>380</ele>
        <time>2017-05-07T10:41:15Z</time>
      </trkpt>
      <trkpt lat="45.15243" lon="5.18005">
        <ele>382</ele>
        <time>2017-05-07T10:41:18Z</time>
      </trkpt>
      <trkpt lat="45.15242" lon="5.1799">
        <ele>381</ele>
        <time>2017-05-07T10:41:22Z</time>
      </trkpt>
      <trkpt lat="45.1524" lon="5.17975">
        <ele>379</ele>
        <time>2017-05-07T10:41:33Z</time>
      </trkpt>
      <trkpt lat="45.15236" lon="5.17962">
        <ele>378</ele>
        <time>2017-05-07T10:41:38Z</time>
      </trkpt>
      <trkpt lat="45.15225" lon="5.17954">
        <ele>377</ele>
        <time>2017-05-07T10:41:44Z</time>
      </trkpt>
      <trkpt lat="45.15216" lon="5.17945">
        <ele>376</ele>
        <time>2017-05-07T10:41:49Z</time>
      </trkpt>
      <trkpt lat="45.15208" lon="5.17937">
        <ele>376</ele>
        <time>2017-05-07T10:41:54Z</time>
      </trkpt>
      <trkpt lat="45.15203" lon="5.17926">
        <ele>375</ele>
        <time>2017-05-07T10:41:59Z</time>
      </trkpt>
      <trkpt lat="45.15193" lon="5.17918">
        <ele>374</ele>
        <time>2017-05-07T10:42:04Z</time>
      </trkpt>
      <trkpt lat="45.15184" lon="5.17913">
        <ele>370</ele>
        <time>2017-05-07T10:42:09Z</time>
      </trkpt>
      <trkpt lat="45.15174" lon="5.17909">
        <ele>369</ele>
        <time>2017-05-07T10:42:13Z</time>
      </trkpt>
      <trkpt lat="45.15165" lon="5.17903">
        <ele>364</ele>
        <time>2017-05-07T10:42:17Z</time>
      </trkpt>
      <trkpt lat="45.15156" lon="5.17893">
        <ele>361</ele>
        <time>2017-05-07T10:42:22Z</time>
      </trkpt>
      <trkpt lat="45.15147" lon="5.17889">
        <ele>360</ele>
        <time>2017-05-07T10:42:29Z</time>
      </trkpt>
      <trkpt lat="45.15134" lon="5.17888">
        <ele>358</ele>
        <time>2017-05-07T10:42:33Z</time>
      </trkpt>
      <trkpt lat="45.15123" lon="5.1789">
        <ele>357</ele>
        <time>2017-05-07T10:42:36Z</time>
      </trkpt>
      <trkpt lat="45.15111" lon="5.17892">
        <ele>356</ele>
        <time>2017-05-07T10:42:39Z</time>
      </trkpt>
      <trkpt lat="45.15099" lon="5.17895">
        <ele>355</ele>
        <time>2017-05-07T10:42:42Z</time>
      </trkpt>
      <trkpt lat="45.15088" lon="5.179">
        <ele>355</ele>
        <time>2017-05-07T10:42:45Z</time>
      </trkpt>
      <trkpt lat="45.15076" lon="5.17906">
        <ele>350</ele>
        <time>2017-05-07T10:42:48Z</time>
      </trkpt>
      <trkpt lat="45.15064" lon="5.17911">
        <ele>349</ele>
        <time>2017-05-07T10:42:51Z</time>
      </trkpt>
      <trkpt lat="45.15053" lon="5.17917">
        <ele>348</ele>
        <time>2017-05-07T10:42:54Z</time>
      </trkpt>
      <trkpt lat="45.15043" lon="5.17926">
        <ele>347</ele>
        <time>2017-05-07T10:42:58Z</time>
      </trkpt>
      <trkpt lat="45.15036" lon="5.17935">
        <ele>346</ele>
        <time>2017-05-07T10:43:03Z</time>
      </trkpt>
      <trkpt lat="45.15025" lon="5.17935">
        <ele>345</ele>
        <time>2017-05-07T10:43:11Z</time>
      </trkpt>
      <trkpt lat="45.15019" lon="5.17926">
        <ele>344</ele>
        <time>2017-05-07T10:43:15Z</time>
      </trkpt>
      <trkpt lat="45.15013" lon="5.17913">
        <ele>343</ele>
        <time>2017-05-07T10:43:21Z</time>
      </trkpt>
      <trkpt lat="45.15009" lon="5.17899">
        <ele>344</ele>
        <time>2017-05-07T10:43:27Z</time>
      </trkpt>
      <trkpt lat="45.15008" lon="5.17884">
        <ele>344</ele>
        <time>2017-05-07T10:43:35Z</time>
      </trkpt>
      <trkpt lat="45.15002" lon="5.17873">
        <ele>345</ele>
        <time>2017-05-07T10:43:42Z</time>
      </trkpt>
      <trkpt lat="45.14992" lon="5.17873">
        <ele>342</ele>
        <time>2017-05-07T10:43:58Z</time>
      </trkpt>
      <trkpt lat="45.14992" lon="5.17886">
        <ele>342</ele>
        <time>2017-05-07T10:44:04Z</time>
      </trkpt>
      <trkpt lat="45.14992" lon="5.179">
        <ele>342</ele>
        <time>2017-05-07T10:44:12Z</time>
      </trkpt>
      <trkpt lat="45.14992" lon="5.1792">
        <ele>340</ele>
        <time>2017-05-07T10:44:20Z</time>
      </trkpt>
      <trkpt lat="45.14992" lon="5.17934">
        <ele>340</ele>
        <time>2017-05-07T10:44:23Z</time>
      </trkpt>
      <trkpt lat="45.14992" lon="5.17947">
        <ele>340</ele>
        <time>2017-05-07T10:44:28Z</time>
      </trkpt>
      <trkpt lat="45.1499" lon="5.17962">
        <ele>339</ele>
        <time>2017-05-07T10:44:34Z</time>
      </trkpt>
      <trkpt lat="45.14981" lon="5.17967">
        <ele>339</ele>
        <time>2017-05-07T10:44:42Z</time>
      </trkpt>
      <trkpt lat="45.14976" lon="5.17979">
        <ele>339</ele>
        <time>2017-05-07T10:44:44Z</time>
      </trkpt>
      <trkpt lat="45.14968" lon="5.17988">
        <ele>338</ele>
        <time>2017-05-07T10:44:50Z</time>
      </trkpt>
      <trkpt lat="45.14958" lon="5.1799">
        <ele>338</ele>
        <time>2017-05-07T10:44:58Z</time>
      </trkpt>
      <trkpt lat="45.14949" lon="5.17994">
        <ele>337</ele>
        <time>2017-05-07T10:45:12Z</time>
      </trkpt>
      <trkpt lat="45.1494" lon="5.17993">
        <ele>336</ele>
        <time>2017-05-07T10:45:31Z</time>
      </trkpt>
      <trkpt lat="45.1493" lon="5.17996">
        <ele>335</ele>
        <time>2017-05-07T10:45:47Z</time>
      </trkpt>
      <trkpt lat="45.1492" lon="5.18004">
        <ele>333</ele>
        <time>2017-05-07T10:45:54Z</time>
      </trkpt>
      <trkpt lat="45.1491" lon="5.18005">
        <ele>331</ele>
        <time>2017-05-07T10:46:06Z</time>
      </trkpt>
      <trkpt lat="45.14901" lon="5.18007">
        <ele>330</ele>
        <time>2017-05-07T10:46:10Z</time>
      </trkpt>
      <trkpt lat="45.14892" lon="5.18011">
        <ele>329</ele>
        <time>2017-05-07T10:46:31Z</time>
      </trkpt>
      <trkpt lat="45.14884" lon="5.18022">
        <ele>328</ele>
        <time>2017-05-07T10:46:42Z</time>
      </trkpt>
      <trkpt lat="45.14874" lon="5.18031">
        <ele>328</ele>
        <time>2017-05-07T10:46:48Z</time>
      </trkpt>
      <trkpt lat="45.14866" lon="5.18042">
        <ele>327</ele>
        <time>2017-05-07T10:46:53Z</time>
      </trkpt>
      <trkpt lat="45.14858" lon="5.18053">
        <ele>327</ele>
        <time>2017-05-07T10:46:56Z</time>
      </trkpt>
      <trkpt lat="45.14849" lon="5.18061">
        <ele>326</ele>
        <time>2017-05-07T10:46:59Z</time>
      </trkpt>
      <trkpt lat="45.1484" lon="5.18069">
        <ele>325</ele>
        <time>2017-05-07T10:47:02Z</time>
      </trkpt>
      <trkpt lat="45.1483" lon="5.18076">
        <ele>322</ele>
        <time>2017-05-07T10:47:05Z</time>
      </trkpt>
      <trkpt lat="45.14816" lon="5.18079">
        <ele>321</ele>
        <time>2017-05-07T10:47:08Z</time>
      </trkpt>
      <trkpt lat="45.14805" lon="5.1808">
        <ele>321</ele>
        <time>2017-05-07T10:47:10Z</time>
      </trkpt>
      <trkpt lat="45.14795" lon="5.18079">
        <ele>321</ele>
        <time>2017-05-07T10:47:12Z</time>
      </trkpt>
      <trkpt lat="45.14786" lon="5.18076">
        <ele>320</ele>
        <time>2017-05-07T10:47:14Z</time>
      </trkpt>
      <trkpt lat="45.14776" lon="5.18071">
        <ele>320</ele>
        <time>2017-05-07T10:47:16Z</time>
      </trkpt>
      <trkpt lat="45.14765" lon="5.18066">
        <ele>319</ele>
        <time>2017-05-07T10:47:18Z</time>
      </trkpt>
      <trkpt lat="45.14756" lon="5.1806">
        <ele>319</ele>
        <time>2017-05-07T10:47:20Z</time>
      </trkpt>
      <trkpt lat="45.14744" lon="5.18051">
        <ele>321</ele>
        <time>2017-05-07T10:47:23Z</time>
      </trkpt>
      <trkpt lat="45.14734" lon="5.18041">
        <ele>322</ele>
        <time>2017-05-07T10:47:26Z</time>
      </trkpt>
      <trkpt lat="45.14726" lon="5.1803">
        <ele>322</ele>
        <time>2017-05-07T10:47:29Z</time>
      </trkpt>
      <trkpt lat="45.14718" lon="5.18022">
        <ele>322</ele>
        <time>2017-05-07T10:47:31Z</time>
      </trkpt>
      <trkpt lat="45.14709" lon="5.18014">
        <ele>323</ele>
        <time>2017-05-07T10:47:33Z</time>
      </trkpt>
      <trkpt lat="45.14695" lon="5.18012">
        <ele>324</ele>
        <time>2017-05-07T10:47:36Z</time>
      </trkpt>
      <trkpt lat="45.14683" lon="5.18013">
        <ele>324</ele>
        <time>2017-05-07T10:47:39Z</time>
      </trkpt>
      <trkpt lat="45.14678" lon="5.18002">
        <ele>324</ele>
        <time>2017-05-07T10:47:42Z</time>
      </trkpt>
      <trkpt lat="45.14674" lon="5.17988">
        <ele>323</ele>
        <time>2017-05-07T10:47:45Z</time>
      </trkpt>
      <trkpt lat="45.14667" lon="5.1798">
        <ele>322</ele>
        <time>2017-05-07T10:47:48Z</time>
      </trkpt>
      <trkpt lat="45.14659" lon="5.17967">
        <ele>327</ele>
        <time>2017-05-07T10:47:53Z</time>
      </trkpt>
      <trkpt lat="45.14659" lon="5.17953">
        <ele>326</ele>
        <time>2017-05-07T10:47:57Z</time>
      </trkpt>
      <trkpt lat="45.14661" lon="5.1794">
        <ele>324</ele>
        <time>2017-05-07T10:48:00Z</time>
      </trkpt>
      <trkpt lat="45.14659" lon="5.17927">
        <ele>321</ele>
        <time>2017-05-07T10:48:04Z</time>
      </trkpt>
      <trkpt lat="45.14653" lon="5.17917">
        <ele>318</ele>
        <time>2017-05-07T10:48:09Z</time>
      </trkpt>
      <trkpt lat="45.14647" lon="5.17907">
        <ele>319</ele>
        <time>2017-05-07T10:48:14Z</time>
      </trkpt>
      <trkpt lat="45.14641" lon="5.17896">
        <ele>320</ele>
        <time>2017-05-07T10:48:19Z</time>
      </trkpt>
      <trkpt lat="45.14635" lon="5.17883">
        <ele>320</ele>
        <time>2017-05-07T10:48:23Z</time>
      </trkpt>
      <trkpt lat="45.14631" lon="5.17869">
        <ele>320</ele>
        <time>2017-05-07T10:48:26Z</time>
      </trkpt>
      <trkpt lat="45.14625" lon="5.17857">
        <ele>320</ele>
        <time>2017-05-07T10:48:29Z</time>
      </trkpt>
      <trkpt lat="45.14618" lon="5.17846">
        <ele>320</ele>
        <time>2017-05-07T10:48:33Z</time>
      </trkpt>
      <trkpt lat="45.14609" lon="5.17837">
        <ele>319</ele>
        <time>2017-05-07T10:48:37Z</time>
      </trkpt>
      <trkpt lat="45.14598" lon="5.1783">
        <ele>317</ele>
        <time>2017-05-07T10:48:41Z</time>
      </trkpt>
      <trkpt lat="45.14589" lon="5.17823">
        <ele>317</ele>
        <time>2017-05-07T10:48:44Z</time>
      </trkpt>
      <trkpt lat="45.14581" lon="5.17817">
        <ele>318</ele>
        <time>2017-05-07T10:48:47Z</time>
      </trkpt>
      <trkpt lat="45.14572" lon="5.1781">
        <ele>318</ele>
        <time>2017-05-07T10:48:51Z</time>
      </trkpt>
      <trkpt lat="45.14564" lon="5.17796">
        <ele>318</ele>
        <time>2017-05-07T10:48:56Z</time>
      </trkpt>
      <trkpt lat="45.14554" lon="5.17787">
        <ele>318</ele>
        <time>2017-05-07T10:48:59Z</time>
      </trkpt>
      <trkpt lat="45.14544" lon="5.1778">
        <ele>318</ele>
        <time>2017-05-07T10:49:01Z</time>
      </trkpt>
      <trkpt lat="45.14535" lon="5.17769">
        <ele>318</ele>
        <time>2017-05-07T10:49:03Z</time>
      </trkpt>
      <trkpt lat="45.14512" lon="5.17742">
        <ele>317</ele>
        <time>2017-05-07T10:49:09Z</time>
      </trkpt>
      <trkpt lat="45.14501" lon="5.17731">
        <ele>316</ele>
        <time>2017-05-07T10:49:10Z</time>
      </trkpt>
      <trkpt lat="45.14493" lon="5.17724">
        <ele>319</ele>
        <time>2017-05-07T10:49:12Z</time>
      </trkpt>
      <trkpt lat="45.1449" lon="5.17708">
        <ele>318</ele>
        <time>2017-05-07T10:49:15Z</time>
      </trkpt>
      <trkpt lat="45.14481" lon="5.17698">
        <ele>318</ele>
        <time>2017-05-07T10:49:18Z</time>
      </trkpt>
      <trkpt lat="45.1447" lon="5.17688">
        <ele>318</ele>
        <time>2017-05-07T10:49:20Z</time>
      </trkpt>
      <trkpt lat="45.14462" lon="5.17679">
        <ele>318</ele>
        <time>2017-05-07T10:49:23Z</time>
      </trkpt>
      <trkpt lat="45.14452" lon="5.17674">
        <ele>318</ele>
        <time>2017-05-07T10:49:26Z</time>
      </trkpt>
      <trkpt lat="45.14443" lon="5.17665">
        <ele>314</ele>
        <time>2017-05-07T10:49:30Z</time>
      </trkpt>
      <trkpt lat="45.14432" lon="5.17662">
        <ele>315</ele>
        <time>2017-05-07T10:49:33Z</time>
      </trkpt>
      <trkpt lat="45.14416" lon="5.17658">
        <ele>316</ele>
        <time>2017-05-07T10:49:38Z</time>
      </trkpt>
      <trkpt lat="45.14402" lon="5.17652">
        <ele>316</ele>
        <time>2017-05-07T10:49:40Z</time>
      </trkpt>
      <trkpt lat="45.1439" lon="5.17644">
        <ele>316</ele>
        <time>2017-05-07T10:49:42Z</time>
      </trkpt>
      <trkpt lat="45.1438" lon="5.17642">
        <ele>316</ele>
        <time>2017-05-07T10:49:45Z</time>
      </trkpt>
      <trkpt lat="45.1437" lon="5.1764">
        <ele>316</ele>
        <time>2017-05-07T10:49:47Z</time>
      </trkpt>
      <trkpt lat="45.1436" lon="5.17628">
        <ele>316</ele>
        <time>2017-05-07T10:49:50Z</time>
      </trkpt>
      <trkpt lat="45.14353" lon="5.17618">
        <ele>316</ele>
        <time>2017-05-07T10:49:51Z</time>
      </trkpt>
      <trkpt lat="45.14343" lon="5.17612">
        <ele>316</ele>
        <time>2017-05-07T10:49:53Z</time>
      </trkpt>
      <trkpt lat="45.14336" lon="5.17603">
        <ele>316</ele>
        <time>2017-05-07T10:49:55Z</time>
      </trkpt>
      <trkpt lat="45.14329" lon="5.1759">
        <ele>318</ele>
        <time>2017-05-07T10:49:59Z</time>
      </trkpt>
      <trkpt lat="45.14331" lon="5.17573">
        <ele>318</ele>
        <time>2017-05-07T10:50:04Z</time>
      </trkpt>
      <trkpt lat="45.14338" lon="5.1756">
        <ele>313</ele>
        <time>2017-05-07T10:50:08Z</time>
      </trkpt>
      <trkpt lat="45.14336" lon="5.17536">
        <ele>312</ele>
        <time>2017-05-07T10:50:14Z</time>
      </trkpt>
      <trkpt lat="45.14333" lon="5.17521">
        <ele>317</ele>
        <time>2017-05-07T10:50:17Z</time>
      </trkpt>
      <trkpt lat="45.14331" lon="5.17502">
        <ele>313</ele>
        <time>2017-05-07T10:50:20Z</time>
      </trkpt>
      <trkpt lat="45.14331" lon="5.17484">
        <ele>315</ele>
        <time>2017-05-07T10:50:23Z</time>
      </trkpt>
      <trkpt lat="45.14328" lon="5.17467">
        <ele>316</ele>
        <time>2017-05-07T10:50:26Z</time>
      </trkpt>
      <trkpt lat="45.14332" lon="5.17452">
        <ele>315</ele>
        <time>2017-05-07T10:50:28Z</time>
      </trkpt>
      <trkpt lat="45.14339" lon="5.17435">
        <ele>308</ele>
        <time>2017-05-07T10:50:31Z</time>
      </trkpt>
      <trkpt lat="45.14332" lon="5.17418">
        <ele>306</ele>
        <time>2017-05-07T10:50:34Z</time>
      </trkpt>
      <trkpt lat="45.14323" lon="5.17406">
        <ele>310</ele>
        <time>2017-05-07T10:50:36Z</time>
      </trkpt>
      <trkpt lat="45.14315" lon="5.17395">
        <ele>312</ele>
        <time>2017-05-07T10:50:38Z</time>
      </trkpt>
      <trkpt lat="45.14303" lon="5.17386">
        <ele>314</ele>
        <time>2017-05-07T10:50:40Z</time>
      </trkpt>
      <trkpt lat="45.14292" lon="5.17376">
        <ele>315</ele>
        <time>2017-05-07T10:50:42Z</time>
      </trkpt>
      <trkpt lat="45.14285" lon="5.17365">
        <ele>316</ele>
        <time>2017-05-07T10:50:44Z</time>
      </trkpt>
      <trkpt lat="45.14278" lon="5.17352">
        <ele>317</ele>
        <time>2017-05-07T10:50:47Z</time>
      </trkpt>
      <trkpt lat="45.14286" lon="5.17342">
        <ele>315</ele>
        <time>2017-05-07T10:50:50Z</time>
      </trkpt>
      <trkpt lat="45.14294" lon="5.17325">
        <ele>312</ele>
        <time>2017-05-07T10:50:54Z</time>
      </trkpt>
      <trkpt lat="45.14301" lon="5.17313">
        <ele>311</ele>
        <time>2017-05-07T10:50:56Z</time>
      </trkpt>
      <trkpt lat="45.1431" lon="5.17298">
        <ele>310</ele>
        <time>2017-05-07T10:50:59Z</time>
      </trkpt>
      <trkpt lat="45.14317" lon="5.17287">
        <ele>309</ele>
        <time>2017-05-07T10:51:02Z</time>
      </trkpt>
      <trkpt lat="45.14323" lon="5.17276">
        <ele>308</ele>
        <time>2017-05-07T10:51:04Z</time>
      </trkpt>
      <trkpt lat="45.14323" lon="5.17257">
        <ele>306</ele>
        <time>2017-05-07T10:51:08Z</time>
      </trkpt>
      <trkpt lat="45.14317" lon="5.17243">
        <ele>305</ele>
        <time>2017-05-07T10:51:11Z</time>
      </trkpt>
      <trkpt lat="45.14307" lon="5.17237">
        <ele>307</ele>
        <time>2017-05-07T10:51:15Z</time>
      </trkpt>
      <trkpt lat="45.14294" lon="5.17241">
        <ele>308</ele>
        <time>2017-05-07T10:51:17Z</time>
      </trkpt>
      <trkpt lat="45.14279" lon="5.17234">
        <ele>310</ele>
        <time>2017-05-07T10:51:21Z</time>
      </trkpt>
      <trkpt lat="45.14271" lon="5.17226">
        <ele>311</ele>
        <time>2017-05-07T10:51:22Z</time>
      </trkpt>
      <trkpt lat="45.1426" lon="5.17217">
        <ele>311</ele>
        <time>2017-05-07T10:51:24Z</time>
      </trkpt>
      <trkpt lat="45.14262" lon="5.17201">
        <ele>310</ele>
        <time>2017-05-07T10:51:28Z</time>
      </trkpt>
      <trkpt lat="45.14272" lon="5.17193">
        <ele>310</ele>
        <time>2017-05-07T10:51:30Z</time>
      </trkpt>
      <trkpt lat="45.14281" lon="5.17183">
        <ele>309</ele>
        <time>2017-05-07T10:51:32Z</time>
      </trkpt>
      <trkpt lat="45.14287" lon="5.17171">
        <ele>308</ele>
        <time>2017-05-07T10:51:35Z</time>
      </trkpt>
      <trkpt lat="45.14294" lon="5.17158">
        <ele>306</ele>
        <time>2017-05-07T10:51:39Z</time>
      </trkpt>
      <trkpt lat="45.14304" lon="5.17147">
        <ele>306</ele>
        <time>2017-05-07T10:51:43Z</time>
      </trkpt>
      <trkpt lat="45.143" lon="5.17132">
        <ele>306</ele>
        <time>2017-05-07T10:51:47Z</time>
      </trkpt>
      <trkpt lat="45.14291" lon="5.17123">
        <ele>307</ele>
        <time>2017-05-07T10:51:50Z</time>
      </trkpt>
      <trkpt lat="45.14282" lon="5.17118">
        <ele>307</ele>
        <time>2017-05-07T10:51:53Z</time>
      </trkpt>
      <trkpt lat="45.1427" lon="5.17118">
        <ele>308</ele>
        <time>2017-05-07T10:51:56Z</time>
      </trkpt>
      <trkpt lat="45.14263" lon="5.1711">
        <ele>308</ele>
        <time>2017-05-07T10:51:59Z</time>
      </trkpt>
      <trkpt lat="45.14263" lon="5.17096">
        <ele>308</ele>
        <time>2017-05-07T10:52:03Z</time>
      </trkpt>
      <trkpt lat="45.14261" lon="5.17082">
        <ele>308</ele>
        <time>2017-05-07T10:52:07Z</time>
      </trkpt>
      <trkpt lat="45.14253" lon="5.17069">
        <ele>308</ele>
        <time>2017-05-07T10:52:11Z</time>
      </trkpt>
      <trkpt lat="45.14251" lon="5.17051">
        <ele>309</ele>
        <time>2017-05-07T10:52:17Z</time>
      </trkpt>
      <trkpt lat="45.1425" lon="5.17035">
        <ele>309</ele>
        <time>2017-05-07T10:52:19Z</time>
      </trkpt>
      <trkpt lat="45.14251" lon="5.17016">
        <ele>309</ele>
        <time>2017-05-07T10:52:22Z</time>
      </trkpt>
      <trkpt lat="45.14253" lon="5.16998">
        <ele>309</ele>
        <time>2017-05-07T10:52:24Z</time>
      </trkpt>
      <trkpt lat="45.14252" lon="5.1698">
        <ele>309</ele>
        <time>2017-05-07T10:52:27Z</time>
      </trkpt>
      <trkpt lat="45.14243" lon="5.16967">
        <ele>310</ele>
        <time>2017-05-07T10:52:30Z</time>
      </trkpt>
      <trkpt lat="45.14235" lon="5.16955">
        <ele>309</ele>
        <time>2017-05-07T10:52:33Z</time>
      </trkpt>
      <trkpt lat="45.14228" lon="5.16945">
        <ele>309</ele>
        <time>2017-05-07T10:52:36Z</time>
      </trkpt>
      <trkpt lat="45.14221" lon="5.16931">
        <ele>309</ele>
        <time>2017-05-07T10:52:39Z</time>
      </trkpt>
      <trkpt lat="45.14219" lon="5.16911">
        <ele>306</ele>
        <time>2017-05-07T10:52:41Z</time>
      </trkpt>
      <trkpt lat="45.14219" lon="5.16894">
        <ele>306</ele>
        <time>2017-05-07T10:52:43Z</time>
      </trkpt>
      <trkpt lat="45.14223" lon="5.16879">
        <ele>305</ele>
        <time>2017-05-07T10:52:45Z</time>
      </trkpt>
      <trkpt lat="45.14228" lon="5.16865">
        <ele>305</ele>
        <time>2017-05-07T10:52:47Z</time>
      </trkpt>
      <trkpt lat="45.14233" lon="5.16852">
        <ele>304</ele>
        <time>2017-05-07T10:52:49Z</time>
      </trkpt>
      <trkpt lat="45.14239" lon="5.16838">
        <ele>302</ele>
        <time>2017-05-07T10:52:52Z</time>
      </trkpt>
      <trkpt lat="45.14244" lon="5.16826">
        <ele>300</ele>
        <time>2017-05-07T10:52:54Z</time>
      </trkpt>
      <trkpt lat="45.14249" lon="5.16813">
        <ele>300</ele>
        <time>2017-05-07T10:52:57Z</time>
      </trkpt>
      <trkpt lat="45.14251" lon="5.16799">
        <ele>303</ele>
        <time>2017-05-07T10:53:01Z</time>
      </trkpt>
      <trkpt lat="45.14252" lon="5.16785">
        <ele>302</ele>
        <time>2017-05-07T10:53:06Z</time>
      </trkpt>
      <trkpt lat="45.14252" lon="5.1677">
        <ele>301</ele>
        <time>2017-05-07T10:53:14Z</time>
      </trkpt>
      <trkpt lat="45.14249" lon="5.16757">
        <ele>298</ele>
        <time>2017-05-07T10:53:19Z</time>
      </trkpt>
      <trkpt lat="45.1424" lon="5.16751">
        <ele>299</ele>
        <time>2017-05-07T10:53:23Z</time>
      </trkpt>
      <trkpt lat="45.14229" lon="5.16745">
        <ele>299</ele>
        <time>2017-05-07T10:53:27Z</time>
      </trkpt>
      <trkpt lat="45.14221" lon="5.16738">
        <ele>299</ele>
        <time>2017-05-07T10:53:32Z</time>
      </trkpt>
      <trkpt lat="45.14209" lon="5.16735">
        <ele>300</ele>
        <time>2017-05-07T10:53:37Z</time>
      </trkpt>
      <trkpt lat="45.14202" lon="5.16726">
        <ele>300</ele>
        <time>2017-05-07T10:53:44Z</time>
      </trkpt>
      <trkpt lat="45.14193" lon="5.16721">
        <ele>300</ele>
        <time>2017-05-07T10:53:48Z</time>
      </trkpt>
      <trkpt lat="45.14185" lon="5.16711">
        <ele>300</ele>
        <time>2017-05-07T10:53:55Z</time>
      </trkpt>
      <trkpt lat="45.1418" lon="5.16698">
        <ele>300</ele>
        <time>2017-05-07T10:54:00Z</time>
      </trkpt>
      <trkpt lat="45.14174" lon="5.16686">
        <ele>300</ele>
        <time>2017-05-07T10:54:03Z</time>
      </trkpt>
      <trkpt lat="45.14168" lon="5.16673">
        <ele>300</ele>
        <time>2017-05-07T10:54:05Z</time>
      </trkpt>
      <trkpt lat="45.14156" lon="5.16652">
        <ele>301</ele>
        <time>2017-05-07T10:54:11Z</time>
      </trkpt>
      <trkpt lat="45.14161" lon="5.16636">
        <ele>300</ele>
        <time>2017-05-07T10:54:12Z</time>
      </trkpt>
      <trkpt lat="45.1416" lon="5.16615">
        <ele>299</ele>
        <time>2017-05-07T10:54:14Z</time>
      </trkpt>
      <trkpt lat="45.14152" lon="5.16603">
        <ele>299</ele>
        <time>2017-05-07T10:54:16Z</time>
      </trkpt>
      <trkpt lat="45.14152" lon="5.16587">
        <ele>298</ele>
        <time>2017-05-07T10:54:19Z</time>
      </trkpt>
      <trkpt lat="45.14149" lon="5.16565">
        <ele>295</ele>
        <time>2017-05-07T10:54:25Z</time>
      </trkpt>
      <trkpt lat="45.14141" lon="5.16553">
        <ele>295</ele>
        <time>2017-05-07T10:54:28Z</time>
      </trkpt>
      <trkpt lat="45.14133" lon="5.16544">
        <ele>295</ele>
        <time>2017-05-07T10:54:31Z</time>
      </trkpt>
      <trkpt lat="45.14123" lon="5.16539">
        <ele>294</ele>
        <time>2017-05-07T10:54:35Z</time>
      </trkpt>
      <trkpt lat="45.14111" lon="5.16538">
        <ele>294</ele>
        <time>2017-05-07T10:54:38Z</time>
      </trkpt>
      <trkpt lat="45.141" lon="5.16529">
        <ele>294</ele>
        <time>2017-05-07T10:54:42Z</time>
      </trkpt>
      <trkpt lat="45.14088" lon="5.16515">
        <ele>292</ele>
        <time>2017-05-07T10:54:46Z</time>
      </trkpt>
      <trkpt lat="45.14081" lon="5.16504">
        <ele>292</ele>
        <time>2017-05-07T10:54:49Z</time>
      </trkpt>
      <trkpt lat="45.14071" lon="5.16495">
        <ele>292</ele>
        <time>2017-05-07T10:54:54Z</time>
      </trkpt>
      <trkpt lat="45.14061" lon="5.16495">
        <ele>293</ele>
        <time>2017-05-07T10:54:57Z</time>
      </trkpt>
      <trkpt lat="45.1405" lon="5.16492">
        <ele>294</ele>
        <time>2017-05-07T10:55:01Z</time>
      </trkpt>
      <trkpt lat="45.14047" lon="5.16477">
        <ele>293</ele>
        <time>2017-05-07T10:55:04Z</time>
      </trkpt>
      <trkpt lat="45.14046" lon="5.16462">
        <ele>293</ele>
        <time>2017-05-07T10:55:06Z</time>
      </trkpt>
      <trkpt lat="45.14044" lon="5.16449">
        <ele>292</ele>
        <time>2017-05-07T10:55:08Z</time>
      </trkpt>
      <trkpt lat="45.14043" lon="5.16431">
        <ele>292</ele>
        <time>2017-05-07T10:55:11Z</time>
      </trkpt>
      <trkpt lat="45.14042" lon="5.16415">
        <ele>287</ele>
        <time>2017-05-07T10:55:14Z</time>
      </trkpt>
      <trkpt lat="45.14041" lon="5.16401">
        <ele>287</ele>
        <time>2017-05-07T10:55:18Z</time>
      </trkpt>
      <trkpt lat="45.14028" lon="5.16405">
        <ele>288</ele>
        <time>2017-05-07T10:55:23Z</time>
      </trkpt>
      <trkpt lat="45.14013" lon="5.16402">
        <ele>288</ele>
        <time>2017-05-07T10:55:42Z</time>
      </trkpt>
      <trkpt lat="45.14011" lon="5.16389">
        <ele>287</ele>
        <time>2017-05-07T10:55:47Z</time>
      </trkpt>
      <trkpt lat="45.14" lon="5.16385">
        <ele>289</ele>
        <time>2017-05-07T10:55:57Z</time>
      </trkpt>
      <trkpt lat="45.13997" lon="5.16372">
        <ele>288</ele>
        <time>2017-05-07T10:56:11Z</time>
      </trkpt>
      <trkpt lat="45.13988" lon="5.16368">
        <ele>288</ele>
        <time>2017-05-07T10:56:40Z</time>
      </trkpt>
      <trkpt lat="45.13979" lon="5.16375">
        <ele>289</ele>
        <time>2017-05-07T10:56:57Z</time>
      </trkpt>
      <trkpt lat="45.13971" lon="5.16381">
        <ele>289</ele>
        <time>2017-05-07T10:57:04Z</time>
      </trkpt>
      <trkpt lat="45.13963" lon="5.16373">
        <ele>289</ele>
        <time>2017-05-07T10:57:20Z</time>
      </trkpt>
      <trkpt lat="45.13954" lon="5.16374">
        <ele>290</ele>
        <time>2017-05-07T10:57:32Z</time>
      </trkpt>
      <trkpt lat="45.13948" lon="5.16386">
        <ele>291</ele>
        <time>2017-05-07T10:58:05Z</time>
      </trkpt>
      <trkpt lat="45.13952" lon="5.16398">
        <ele>291</ele>
        <time>2017-05-07T10:58:17Z</time>
      </trkpt>
      <trkpt lat="45.13955" lon="5.16413">
        <ele>292</ele>
        <time>2017-05-07T10:58:32Z</time>
      </trkpt>
      <trkpt lat="45.13959" lon="5.16426">
        <ele>299</ele>
        <time>2017-05-07T10:58:42Z</time>
      </trkpt>
      <trkpt lat="45.13962" lon="5.16439">
        <ele>299</ele>
        <time>2017-05-07T10:58:53Z</time>
      </trkpt>
      <trkpt lat="45.13962" lon="5.16454">
        <ele>300</ele>
        <time>2017-05-07T10:59:04Z</time>
      </trkpt>
      <trkpt lat="45.13961" lon="5.16468">
        <ele>301</ele>
        <time>2017-05-07T10:59:20Z</time>
      </trkpt>
      <trkpt lat="45.13965" lon="5.1648">
        <ele>302</ele>
        <time>2017-05-07T10:59:30Z</time>
      </trkpt>
      <trkpt lat="45.13969" lon="5.16493">
        <ele>303</ele>
        <time>2017-05-07T10:59:43Z</time>
      </trkpt>
      <trkpt lat="45.13969" lon="5.16506">
        <ele>307</ele>
        <time>2017-05-07T10:59:56Z</time>
      </trkpt>
      <trkpt lat="45.13964" lon="5.16517">
        <ele>308</ele>
        <time>2017-05-07T11:00:13Z</time>
      </trkpt>
      <trkpt lat="45.13962" lon="5.1653">
        <ele>308</ele>
        <time>2017-05-07T11:00:25Z</time>
      </trkpt>
      <trkpt lat="45.13955" lon="5.1654">
        <ele>309</ele>
        <time>2017-05-07T11:00:32Z</time>
      </trkpt>
      <trkpt lat="45.1395" lon="5.16552">
        <ele>309</ele>
        <time>2017-05-07T11:00:45Z</time>
      </trkpt>
      <trkpt lat="45.13943" lon="5.16563">
        <ele>310</ele>
        <time>2017-05-07T11:00:53Z</time>
      </trkpt>
      <trkpt lat="45.13938" lon="5.16574">
        <ele>311</ele>
        <time>2017-05-07T11:01:04Z</time>
      </trkpt>
      <trkpt lat="45.13932" lon="5.16584">
        <ele>313</ele>
        <time>2017-05-07T11:01:13Z</time>
      </trkpt>
      <trkpt lat="45.13926" lon="5.16596">
        <ele>313</ele>
        <time>2017-05-07T11:01:23Z</time>
      </trkpt>
      <trkpt lat="45.13919" lon="5.16607">
        <ele>313</ele>
        <time>2017-05-07T11:01:31Z</time>
      </trkpt>
      <trkpt lat="45.13913" lon="5.16618">
        <ele>316</ele>
        <time>2017-05-07T11:01:40Z</time>
      </trkpt>
      <trkpt lat="45.13903" lon="5.16628">
        <ele>317</ele>
        <time>2017-05-07T11:01:48Z</time>
      </trkpt>
      <trkpt lat="45.13896" lon="5.16637">
        <ele>317</ele>
        <time>2017-05-07T11:01:54Z</time>
      </trkpt>
      <trkpt lat="45.13888" lon="5.16646">
        <ele>317</ele>
        <time>2017-05-07T11:02:04Z</time>
      </trkpt>
      <trkpt lat="45.13881" lon="5.16656">
        <ele>317</ele>
        <time>2017-05-07T11:02:14Z</time>
      </trkpt>
      <trkpt lat="45.13875" lon="5.16668">
        <ele>320</ele>
        <time>2017-05-07T11:02:24Z</time>
      </trkpt>
      <trkpt lat="45.1387" lon="5.16679">
        <ele>320</ele>
        <time>2017-05-07T11:02:33Z</time>
      </trkpt>
      <trkpt lat="45.13863" lon="5.16689">
        <ele>321</ele>
        <time>2017-05-07T11:02:42Z</time>
      </trkpt>
      <trkpt lat="45.13856" lon="5.167">
        <ele>321</ele>
        <time>2017-05-07T11:02:52Z</time>
      </trkpt>
      <trkpt lat="45.13851" lon="5.16712">
        <ele>322</ele>
        <time>2017-05-07T11:03:02Z</time>
      </trkpt>
      <trkpt lat="45.13846" lon="5.16724">
        <ele>322</ele>
        <time>2017-05-07T11:03:14Z</time>
      </trkpt>
      <trkpt lat="45.1384" lon="5.16735">
        <ele>323</ele>
        <time>2017-05-07T11:03:24Z</time>
      </trkpt>
      <trkpt lat="45.13833" lon="5.16746">
        <ele>324</ele>
        <time>2017-05-07T11:03:33Z</time>
      </trkpt>
      <trkpt lat="45.13826" lon="5.16758">
        <ele>326</ele>
        <time>2017-05-07T11:03:41Z</time>
      </trkpt>
      <trkpt lat="45.13819" lon="5.16767">
        <ele>327</ele>
        <time>2017-05-07T11:03:48Z</time>
      </trkpt>
      <trkpt lat="45.13811" lon="5.16777">
        <ele>328</ele>
        <time>2017-05-07T11:03:55Z</time>
      </trkpt>
      <trkpt lat="45.13804" lon="5.16786">
        <ele>329</ele>
        <time>2017-05-07T11:04:03Z</time>
      </trkpt>
      <trkpt lat="45.13798" lon="5.16797">
        <ele>329</ele>
        <time>2017-05-07T11:04:10Z</time>
      </trkpt>
      <trkpt lat="45.13791" lon="5.16806">
        <ele>330</ele>
        <time>2017-05-07T11:04:16Z</time>
      </trkpt>
      <trkpt lat="45.13786" lon="5.16818">
        <ele>330</ele>
        <time>2017-05-07T11:04:25Z</time>
      </trkpt>
      <trkpt lat="45.13781" lon="5.1683">
        <ele>331</ele>
        <time>2017-05-07T11:04:34Z</time>
      </trkpt>
      <trkpt lat="45.13775" lon="5.16841">
        <ele>334</ele>
        <time>2017-05-07T11:04:43Z</time>
      </trkpt>
      <trkpt lat="45.13773" lon="5.16855">
        <ele>335</ele>
        <time>2017-05-07T11:04:55Z</time>
      </trkpt>
      <trkpt lat="45.13767" lon="5.16866">
        <ele>335</ele>
        <time>2017-05-07T11:05:06Z</time>
      </trkpt>
      <trkpt lat="45.13763" lon="5.16879">
        <ele>335</ele>
        <time>2017-05-07T11:05:16Z</time>
      </trkpt>
      <trkpt lat="45.13759" lon="5.16891">
        <ele>336</ele>
        <time>2017-05-07T11:05:23Z</time>
      </trkpt>
      <trkpt lat="45.13756" lon="5.16903">
        <ele>337</ele>
        <time>2017-05-07T11:05:31Z</time>
      </trkpt>
      <trkpt lat="45.13753" lon="5.16917">
        <ele>339</ele>
        <time>2017-05-07T11:05:43Z</time>
      </trkpt>
      <trkpt lat="45.13748" lon="5.16928">
        <ele>339</ele>
        <time>2017-05-07T11:05:54Z</time>
      </trkpt>
      <trkpt lat="45.13742" lon="5.16939">
        <ele>339</ele>
        <time>2017-05-07T11:06:05Z</time>
      </trkpt>
      <trkpt lat="45.13734" lon="5.16948">
        <ele>339</ele>
        <time>2017-05-07T11:06:32Z</time>
      </trkpt>
      <trkpt lat="45.13728" lon="5.16958">
        <ele>339</ele>
        <time>2017-05-07T11:06:46Z</time>
      </trkpt>
      <trkpt lat="45.13721" lon="5.16967">
        <ele>339</ele>
        <time>2017-05-07T11:06:57Z</time>
      </trkpt>
      <trkpt lat="45.13715" lon="5.16979">
        <ele>340</ele>
        <time>2017-05-07T11:07:05Z</time>
      </trkpt>
      <trkpt lat="45.13708" lon="5.16989">
        <ele>340</ele>
        <time>2017-05-07T11:07:13Z</time>
      </trkpt>
      <trkpt lat="45.13701" lon="5.16998">
        <ele>340</ele>
        <time>2017-05-07T11:07:21Z</time>
      </trkpt>
      <trkpt lat="45.13694" lon="5.17007">
        <ele>340</ele>
        <time>2017-05-07T11:07:56Z</time>
      </trkpt>
      <trkpt lat="45.13687" lon="5.17017">
        <ele>340</ele>
        <time>2017-05-07T11:08:19Z</time>
      </trkpt>
      <trkpt lat="45.1368" lon="5.17026">
        <ele>339</ele>
        <time>2017-05-07T11:10:10Z</time>
      </trkpt>
      <trkpt lat="45.13669" lon="5.17019">
        <ele>340</ele>
        <time>2017-05-07T11:12:18Z</time>
      </trkpt>
      <trkpt lat="45.13664" lon="5.17007">
        <ele>340</ele>
        <time>2017-05-07T11:12:27Z</time>
      </trkpt>
      <trkpt lat="45.13664" lon="5.16993">
        <ele>340</ele>
        <time>2017-05-07T11:12:53Z</time>
      </trkpt>
      <trkpt lat="45.13659" lon="5.16979">
        <ele>337</ele>
        <time>2017-05-07T11:12:57Z</time>
      </trkpt>
      <trkpt lat="45.13655" lon="5.16964">
        <ele>335</ele>
        <time>2017-05-07T11:13:00Z</time>
      </trkpt>
      <trkpt lat="45.1365" lon="5.16949">
        <ele>334</ele>
        <time>2017-05-07T11:13:03Z</time>
      </trkpt>
      <trkpt lat="45.13644" lon="5.16931">
        <ele>334</ele>
        <time>2017-05-07T11:13:06Z</time>
      </trkpt>
      <trkpt lat="45.13639" lon="5.16919">
        <ele>334</ele>
        <time>2017-05-07T11:13:08Z</time>
      </trkpt>
      <trkpt lat="45.13634" lon="5.16906">
        <ele>331</ele>
        <time>2017-05-07T11:13:10Z</time>
      </trkpt>
      <trkpt lat="45.1363" lon="5.16892">
        <ele>330</ele>
        <time>2017-05-07T11:13:12Z</time>
      </trkpt>
      <trkpt lat="45.13625" lon="5.16877">
        <ele>329</ele>
        <time>2017-05-07T11:13:14Z</time>
      </trkpt>
      <trkpt lat="45.13622" lon="5.16863">
        <ele>329</ele>
        <time>2017-05-07T11:13:16Z</time>
      </trkpt>
      <trkpt lat="45.13618" lon="5.16847">
        <ele>328</ele>
        <time>2017-05-07T11:13:18Z</time>
      </trkpt>
      <trkpt lat="45.13615" lon="5.16831">
        <ele>327</ele>
        <time>2017-05-07T11:13:20Z</time>
      </trkpt>
      <trkpt lat="45.13613" lon="5.16815">
        <ele>327</ele>
        <time>2017-05-07T11:13:22Z</time>
      </trkpt>
      <trkpt lat="45.13612" lon="5.16799">
        <ele>327</ele>
        <time>2017-05-07T11:13:24Z</time>
      </trkpt>
      <trkpt lat="45.13612" lon="5.16778">
        <ele>328</ele>
        <time>2017-05-07T11:13:26Z</time>
      </trkpt>
      <trkpt lat="45.13606" lon="5.16763">
        <ele>327</ele>
        <time>2017-05-07T11:13:29Z</time>
      </trkpt>
      <trkpt lat="45.13601" lon="5.16752">
        <ele>327</ele>
        <time>2017-05-07T11:13:32Z</time>
      </trkpt>
      <trkpt lat="45.13597" lon="5.16739">
        <ele>327</ele>
        <time>2017-05-07T11:13:35Z</time>
      </trkpt>
      <trkpt lat="45.13597" lon="5.16723">
        <ele>327</ele>
        <time>2017-05-07T11:13:37Z</time>
      </trkpt>
      <trkpt lat="45.13597" lon="5.16703">
        <ele>327</ele>
        <time>2017-05-07T11:13:39Z</time>
      </trkpt>
      <trkpt lat="45.13597" lon="5.1668">
        <ele>327</ele>
        <time>2017-05-07T11:13:41Z</time>
      </trkpt>
      <trkpt lat="45.13596" lon="5.16654">
        <ele>326</ele>
        <time>2017-05-07T11:13:43Z</time>
      </trkpt>
      <trkpt lat="45.13597" lon="5.16641">
        <ele>325</ele>
        <time>2017-05-07T11:13:44Z</time>
      </trkpt>
      <trkpt lat="45.13598" lon="5.16627">
        <ele>325</ele>
        <time>2017-05-07T11:13:45Z</time>
      </trkpt>
      <trkpt lat="45.13598" lon="5.16604">
        <ele>324</ele>
        <time>2017-05-07T11:13:47Z</time>
      </trkpt>
      <trkpt lat="45.13601" lon="5.16582">
        <ele>322</ele>
        <time>2017-05-07T11:13:49Z</time>
      </trkpt>
      <trkpt lat="45.13603" lon="5.16558">
        <ele>321</ele>
        <time>2017-05-07T11:13:51Z</time>
      </trkpt>
      <trkpt lat="45.13605" lon="5.16536">
        <ele>320</ele>
        <time>2017-05-07T11:13:53Z</time>
      </trkpt>
      <trkpt lat="45.13605" lon="5.16516">
        <ele>319</ele>
        <time>2017-05-07T11:13:55Z</time>
      </trkpt>
      <trkpt lat="45.13603" lon="5.16496">
        <ele>317</ele>
        <time>2017-05-07T11:13:57Z</time>
      </trkpt>
      <trkpt lat="45.13602" lon="5.16476">
        <ele>316</ele>
        <time>2017-05-07T11:13:59Z</time>
      </trkpt>
      <trkpt lat="45.13603" lon="5.1646">
        <ele>315</ele>
        <time>2017-05-07T11:14:00Z</time>
      </trkpt>
      <trkpt lat="45.13602" lon="5.16438">
        <ele>314</ele>
        <time>2017-05-07T11:14:02Z</time>
      </trkpt>
      <trkpt lat="45.13601" lon="5.16413">
        <ele>313</ele>
        <time>2017-05-07T11:14:04Z</time>
      </trkpt>
      <trkpt lat="45.13602" lon="5.16399">
        <ele>312</ele>
        <time>2017-05-07T11:14:05Z</time>
      </trkpt>
      <trkpt lat="45.13603" lon="5.16386">
        <ele>312</ele>
        <time>2017-05-07T11:14:06Z</time>
      </trkpt>
      <trkpt lat="45.13603" lon="5.16362">
        <ele>312</ele>
        <time>2017-05-07T11:14:08Z</time>
      </trkpt>
      <trkpt lat="45.13602" lon="5.16344">
        <ele>311</ele>
        <time>2017-05-07T11:14:10Z</time>
      </trkpt>
      <trkpt lat="45.13599" lon="5.16329">
        <ele>311</ele>
        <time>2017-05-07T11:14:12Z</time>
      </trkpt>
      <trkpt lat="45.13589" lon="5.16318">
        <ele>311</ele>
        <time>2017-05-07T11:14:14Z</time>
      </trkpt>
      <trkpt lat="45.13577" lon="5.16309">
        <ele>309</ele>
        <time>2017-05-07T11:14:16Z</time>
      </trkpt>
      <trkpt lat="45.13563" lon="5.16305">
        <ele>308</ele>
        <time>2017-05-07T11:14:18Z</time>
      </trkpt>
      <trkpt lat="45.1355" lon="5.163">
        <ele>308</ele>
        <time>2017-05-07T11:14:20Z</time>
      </trkpt>
      <trkpt lat="45.13538" lon="5.16297">
        <ele>307</ele>
        <time>2017-05-07T11:14:22Z</time>
      </trkpt>
      <trkpt lat="45.13528" lon="5.16296">
        <ele>307</ele>
        <time>2017-05-07T11:14:24Z</time>
      </trkpt>
      <trkpt lat="45.13516" lon="5.16291">
        <ele>306</ele>
        <time>2017-05-07T11:14:26Z</time>
      </trkpt>
      <trkpt lat="45.13491" lon="5.1627">
        <ele>299</ele>
        <time>2017-05-07T11:14:30Z</time>
      </trkpt>
      <trkpt lat="45.13479" lon="5.16262">
        <ele>298</ele>
        <time>2017-05-07T11:14:32Z</time>
      </trkpt>
      <trkpt lat="45.13468" lon="5.16255">
        <ele>297</ele>
        <time>2017-05-07T11:14:35Z</time>
      </trkpt>
      <trkpt lat="45.13462" lon="5.16242">
        <ele>295</ele>
        <time>2017-05-07T11:14:38Z</time>
      </trkpt>
      <trkpt lat="45.13458" lon="5.16226">
        <ele>294</ele>
        <time>2017-05-07T11:14:40Z</time>
      </trkpt>
      <trkpt lat="45.13452" lon="5.16215">
        <ele>294</ele>
        <time>2017-05-07T11:14:42Z</time>
      </trkpt>
      <trkpt lat="45.13446" lon="5.16198">
        <ele>293</ele>
        <time>2017-05-07T11:14:44Z</time>
      </trkpt>
      <trkpt lat="45.13443" lon="5.16183">
        <ele>292</ele>
        <time>2017-05-07T11:14:45Z</time>
      </trkpt>
      <trkpt lat="45.13435" lon="5.16159">
        <ele>293</ele>
        <time>2017-05-07T11:14:47Z</time>
      </trkpt>
      <trkpt lat="45.13432" lon="5.16146">
        <ele>294</ele>
        <time>2017-05-07T11:14:48Z</time>
      </trkpt>
      <trkpt lat="45.13422" lon="5.1613">
        <ele>295</ele>
        <time>2017-05-07T11:14:50Z</time>
      </trkpt>
      <trkpt lat="45.13411" lon="5.16115">
        <ele>286</ele>
        <time>2017-05-07T11:14:52Z</time>
      </trkpt>
      <trkpt lat="45.13404" lon="5.16099">
        <ele>288</ele>
        <time>2017-05-07T11:14:54Z</time>
      </trkpt>
      <trkpt lat="45.13397" lon="5.16079">
        <ele>292</ele>
        <time>2017-05-07T11:14:56Z</time>
      </trkpt>
      <trkpt lat="45.1339" lon="5.16061">
        <ele>292</ele>
        <time>2017-05-07T11:14:58Z</time>
      </trkpt>
      <trkpt lat="45.13382" lon="5.16047">
        <ele>292</ele>
        <time>2017-05-07T11:15:00Z</time>
      </trkpt>
      <trkpt lat="45.13375" lon="5.16034">
        <ele>292</ele>
        <time>2017-05-07T11:15:02Z</time>
      </trkpt>
      <trkpt lat="45.13369" lon="5.16019">
        <ele>292</ele>
        <time>2017-05-07T11:15:04Z</time>
      </trkpt>
      <trkpt lat="45.13365" lon="5.16006">
        <ele>291</ele>
        <time>2017-05-07T11:15:06Z</time>
      </trkpt>
      <trkpt lat="45.13357" lon="5.15994">
        <ele>295</ele>
        <time>2017-05-07T11:15:10Z</time>
      </trkpt>
      <trkpt lat="45.1335" lon="5.15982">
        <ele>295</ele>
        <time>2017-05-07T11:15:15Z</time>
      </trkpt>
      <trkpt lat="45.13343" lon="5.15972">
        <ele>296</ele>
        <time>2017-05-07T11:15:19Z</time>
      </trkpt>
      <trkpt lat="45.13335" lon="5.15962">
        <ele>297</ele>
        <time>2017-05-07T11:15:24Z</time>
      </trkpt>
      <trkpt lat="45.13326" lon="5.15955">
        <ele>285</ele>
        <time>2017-05-07T11:15:30Z</time>
      </trkpt>
      <trkpt lat="45.13317" lon="5.15947">
        <ele>286</ele>
        <time>2017-05-07T11:15:35Z</time>
      </trkpt>
      <trkpt lat="45.13309" lon="5.15937">
        <ele>286</ele>
        <time>2017-05-07T11:15:39Z</time>
      </trkpt>
      <trkpt lat="45.13297" lon="5.15923">
        <ele>284</ele>
        <time>2017-05-07T11:15:42Z</time>
      </trkpt>
      <trkpt lat="45.1329" lon="5.1591">
        <ele>287</ele>
        <time>2017-05-07T11:15:44Z</time>
      </trkpt>
      <trkpt lat="45.13282" lon="5.15895">
        <ele>286</ele>
        <time>2017-05-07T11:15:46Z</time>
      </trkpt>
      <trkpt lat="45.13273" lon="5.15877">
        <ele>285</ele>
        <time>2017-05-07T11:15:48Z</time>
      </trkpt>
      <trkpt lat="45.13265" lon="5.15859">
        <ele>285</ele>
        <time>2017-05-07T11:15:50Z</time>
      </trkpt>
      <trkpt lat="45.13254" lon="5.15845">
        <ele>282</ele>
        <time>2017-05-07T11:15:52Z</time>
      </trkpt>
      <trkpt lat="45.13243" lon="5.15827">
        <ele>277</ele>
        <time>2017-05-07T11:15:54Z</time>
      </trkpt>
      <trkpt lat="45.13233" lon="5.15808">
        <ele>277</ele>
        <time>2017-05-07T11:15:56Z</time>
      </trkpt>
      <trkpt lat="45.13223" lon="5.15787">
        <ele>276</ele>
        <time>2017-05-07T11:15:58Z</time>
      </trkpt>
      <trkpt lat="45.13213" lon="5.15765">
        <ele>276</ele>
        <time>2017-05-07T11:16:00Z</time>
      </trkpt>
      <trkpt lat="45.13207" lon="5.15741">
        <ele>274</ele>
        <time>2017-05-07T11:16:02Z</time>
      </trkpt>
      <trkpt lat="45.13204" lon="5.15717">
        <ele>273</ele>
        <time>2017-05-07T11:16:04Z</time>
      </trkpt>
      <trkpt lat="45.13198" lon="5.15704">
        <ele>272</ele>
        <time>2017-05-07T11:16:06Z</time>
      </trkpt>
      <trkpt lat="45.13191" lon="5.15687">
        <ele>270</ele>
        <time>2017-05-07T11:16:09Z</time>
      </trkpt>
      <trkpt lat="45.13185" lon="5.15669">
        <ele>269</ele>
        <time>2017-05-07T11:16:12Z</time>
      </trkpt>
      <trkpt lat="45.13183" lon="5.15655">
        <ele>265</ele>
        <time>2017-05-07T11:16:14Z</time>
      </trkpt>
      <trkpt lat="45.13174" lon="5.15659">
        <ele>265</ele>
        <time>2017-05-07T11:16:24Z</time>
      </trkpt>
      <trkpt lat="45.13173" lon="5.15673">
        <ele>267</ele>
        <time>2017-05-07T11:17:04Z</time>
      </trkpt>
      <trkpt lat="45.13177" lon="5.15685">
        <ele>269</ele>
        <time>2017-05-07T11:17:09Z</time>
      </trkpt>
      <trkpt lat="45.13179" lon="5.157">
        <ele>270</ele>
        <time>2017-05-07T11:17:14Z</time>
      </trkpt>
      <trkpt lat="45.13182" lon="5.15716">
        <ele>271</ele>
        <time>2017-05-07T11:17:19Z</time>
      </trkpt>
      <trkpt lat="45.13182" lon="5.1573">
        <ele>271</ele>
        <time>2017-05-07T11:17:24Z</time>
      </trkpt>
      <trkpt lat="45.13186" lon="5.15744">
        <ele>271</ele>
        <time>2017-05-07T11:17:29Z</time>
      </trkpt>
      <trkpt lat="45.1319" lon="5.15757">
        <ele>273</ele>
        <time>2017-05-07T11:17:33Z</time>
      </trkpt>
      <trkpt lat="45.13193" lon="5.1577">
        <ele>274</ele>
        <time>2017-05-07T11:17:37Z</time>
      </trkpt>
      <trkpt lat="45.13195" lon="5.15785">
        <ele>274</ele>
        <time>2017-05-07T11:17:43Z</time>
      </trkpt>
      <trkpt lat="45.13195" lon="5.15799">
        <ele>274</ele>
        <time>2017-05-07T11:17:47Z</time>
      </trkpt>
      <trkpt lat="45.13192" lon="5.15814">
        <ele>274</ele>
        <time>2017-05-07T11:17:51Z</time>
      </trkpt>
      <trkpt lat="45.13193" lon="5.15828">
        <ele>274</ele>
        <time>2017-05-07T11:17:57Z</time>
      </trkpt>
      <trkpt lat="45.13192" lon="5.15841">
        <ele>274</ele>
        <time>2017-05-07T11:18:02Z</time>
      </trkpt>
      <trkpt lat="45.13195" lon="5.15855">
        <ele>275</ele>
        <time>2017-05-07T11:18:07Z</time>
      </trkpt>
      <trkpt lat="45.13203" lon="5.15867">
        <ele>275</ele>
        <time>2017-05-07T11:18:12Z</time>
      </trkpt>
      <trkpt lat="45.13211" lon="5.15879">
        <ele>275</ele>
        <time>2017-05-07T11:18:18Z</time>
      </trkpt>
      <trkpt lat="45.13218" lon="5.15893">
        <ele>275</ele>
        <time>2017-05-07T11:18:25Z</time>
      </trkpt>
      <trkpt lat="45.13226" lon="5.159">
        <ele>275</ele>
        <time>2017-05-07T11:18:30Z</time>
      </trkpt>
      <trkpt lat="45.1323" lon="5.15912">
        <ele>275</ele>
        <time>2017-05-07T11:18:35Z</time>
      </trkpt>
      <trkpt lat="45.13237" lon="5.1593">
        <ele>277</ele>
        <time>2017-05-07T11:18:41Z</time>
      </trkpt>
      <trkpt lat="45.13244" lon="5.15939">
        <ele>277</ele>
        <time>2017-05-07T11:18:43Z</time>
      </trkpt>
      <trkpt lat="45.13247" lon="5.15953">
        <ele>278</ele>
        <time>2017-05-07T11:18:47Z</time>
      </trkpt>
      <trkpt lat="45.1325" lon="5.15965">
        <ele>279</ele>
        <time>2017-05-07T11:18:49Z</time>
      </trkpt>
      <trkpt lat="45.13255" lon="5.15982">
        <ele>280</ele>
        <time>2017-05-07T11:18:54Z</time>
      </trkpt>
      <trkpt lat="45.13261" lon="5.15996">
        <ele>280</ele>
        <time>2017-05-07T11:18:57Z</time>
      </trkpt>
      <trkpt lat="45.13268" lon="5.16009">
        <ele>280</ele>
        <time>2017-05-07T11:19:01Z</time>
      </trkpt>
      <trkpt lat="45.13273" lon="5.1602">
        <ele>280</ele>
        <time>2017-05-07T11:19:06Z</time>
      </trkpt>
      <trkpt lat="45.1328" lon="5.16029">
        <ele>281</ele>
        <time>2017-05-07T11:19:11Z</time>
      </trkpt>
      <trkpt lat="45.13287" lon="5.1604">
        <ele>281</ele>
        <time>2017-05-07T11:19:15Z</time>
      </trkpt>
      <trkpt lat="45.13296" lon="5.16048">
        <ele>280</ele>
        <time>2017-05-07T11:19:19Z</time>
      </trkpt>
      <trkpt lat="45.13302" lon="5.16058">
        <ele>280</ele>
        <time>2017-05-07T11:19:23Z</time>
      </trkpt>
      <trkpt lat="45.13308" lon="5.16069">
        <ele>279</ele>
        <time>2017-05-07T11:19:29Z</time>
      </trkpt>
      <trkpt lat="45.13309" lon="5.16084">
        <ele>279</ele>
        <time>2017-05-07T11:19:35Z</time>
      </trkpt>
      <trkpt lat="45.13309" lon="5.16098">
        <ele>279</ele>
        <time>2017-05-07T11:19:43Z</time>
      </trkpt>
      <trkpt lat="45.13308" lon="5.16112">
        <ele>280</ele>
        <time>2017-05-07T11:19:52Z</time>
      </trkpt>
      <trkpt lat="45.13306" lon="5.1613">
        <ele>280</ele>
        <time>2017-05-07T11:20:05Z</time>
      </trkpt>
      <trkpt lat="45.13304" lon="5.16144">
        <ele>280</ele>
        <time>2017-05-07T11:20:25Z</time>
      </trkpt>
      <trkpt lat="45.13303" lon="5.16159">
        <ele>280</ele>
        <time>2017-05-07T11:20:40Z</time>
      </trkpt>
      <trkpt lat="45.13304" lon="5.16173">
        <ele>281</ele>
        <time>2017-05-07T11:20:52Z</time>
      </trkpt>
      <trkpt lat="45.13301" lon="5.16188">
        <ele>282</ele>
        <time>2017-05-07T11:21:01Z</time>
      </trkpt>
      <trkpt lat="45.13296" lon="5.16202">
        <ele>283</ele>
        <time>2017-05-07T11:21:10Z</time>
      </trkpt>
      <trkpt lat="45.1329" lon="5.16213">
        <ele>284</ele>
        <time>2017-05-07T11:21:19Z</time>
      </trkpt>
      <trkpt lat="45.13286" lon="5.16226">
        <ele>284</ele>
        <time>2017-05-07T11:21:32Z</time>
      </trkpt>
      <trkpt lat="45.13279" lon="5.16237">
        <ele>285</ele>
        <time>2017-05-07T11:21:41Z</time>
      </trkpt>
      <trkpt lat="45.13273" lon="5.16247">
        <ele>286</ele>
        <time>2017-05-07T11:21:49Z</time>
      </trkpt>
      <trkpt lat="45.13266" lon="5.16256">
        <ele>287</ele>
        <time>2017-05-07T11:21:57Z</time>
      </trkpt>
      <trkpt lat="45.13257" lon="5.16262">
        <ele>288</ele>
        <time>2017-05-07T11:22:07Z</time>
      </trkpt>
      <trkpt lat="45.13248" lon="5.16268">
        <ele>293</ele>
        <time>2017-05-07T11:22:18Z</time>
      </trkpt>
      <trkpt lat="45.1324" lon="5.16275">
        <ele>294</ele>
        <time>2017-05-07T11:22:22Z</time>
      </trkpt>
      <trkpt lat="45.13231" lon="5.16281">
        <ele>294</ele>
        <time>2017-05-07T11:22:30Z</time>
      </trkpt>
      <trkpt lat="45.13221" lon="5.16284">
        <ele>295</ele>
        <time>2017-05-07T11:22:41Z</time>
      </trkpt>
      <trkpt lat="45.1321" lon="5.16285">
        <ele>296</ele>
        <time>2017-05-07T11:23:00Z</time>
      </trkpt>
      <trkpt lat="45.13199" lon="5.16291">
        <ele>297</ele>
        <time>2017-05-07T11:23:09Z</time>
      </trkpt>
      <trkpt lat="45.13188" lon="5.16291">
        <ele>298</ele>
        <time>2017-05-07T11:23:15Z</time>
      </trkpt>
      <trkpt lat="45.13177" lon="5.16297">
        <ele>298</ele>
        <time>2017-05-07T11:23:25Z</time>
      </trkpt>
      <trkpt lat="45.13167" lon="5.16294">
        <ele>299</ele>
        <time>2017-05-07T11:23:41Z</time>
      </trkpt>
      <trkpt lat="45.13158" lon="5.163">
        <ele>304</ele>
        <time>2017-05-07T11:23:49Z</time>
      </trkpt>
      <trkpt lat="45.13148" lon="5.16297">
        <ele>305</ele>
        <time>2017-05-07T11:23:59Z</time>
      </trkpt>
      <trkpt lat="45.13138" lon="5.1629">
        <ele>305</ele>
        <time>2017-05-07T11:24:06Z</time>
      </trkpt>
      <trkpt lat="45.13128" lon="5.16291">
        <ele>305</ele>
        <time>2017-05-07T11:24:13Z</time>
      </trkpt>
      <trkpt lat="45.13119" lon="5.16296">
        <ele>306</ele>
        <time>2017-05-07T11:24:20Z</time>
      </trkpt>
      <trkpt lat="45.13109" lon="5.16293">
        <ele>306</ele>
        <time>2017-05-07T11:24:27Z</time>
      </trkpt>
      <trkpt lat="45.131" lon="5.1629">
        <ele>306</ele>
        <time>2017-05-07T11:24:40Z</time>
      </trkpt>
      <trkpt lat="45.13091" lon="5.16285">
        <ele>307</ele>
        <time>2017-05-07T11:24:51Z</time>
      </trkpt>
      <trkpt lat="45.13076" lon="5.16285">
        <ele>311</ele>
        <time>2017-05-07T11:24:59Z</time>
      </trkpt>
      <trkpt lat="45.13067" lon="5.16282">
        <ele>311</ele>
        <time>2017-05-07T11:25:05Z</time>
      </trkpt>
      <trkpt lat="45.13056" lon="5.16284">
        <ele>311</ele>
        <time>2017-05-07T11:25:11Z</time>
      </trkpt>
      <trkpt lat="45.13046" lon="5.16288">
        <ele>311</ele>
        <time>2017-05-07T11:25:17Z</time>
      </trkpt>
      <trkpt lat="45.13035" lon="5.1629">
        <ele>312</ele>
        <time>2017-05-07T11:25:24Z</time>
      </trkpt>
      <trkpt lat="45.13026" lon="5.16293">
        <ele>312</ele>
        <time>2017-05-07T11:25:31Z</time>
      </trkpt>
      <trkpt lat="45.13017" lon="5.16298">
        <ele>312</ele>
        <time>2017-05-07T11:25:37Z</time>
      </trkpt>
      <trkpt lat="45.13007" lon="5.16299">
        <ele>312</ele>
        <time>2017-05-07T11:25:46Z</time>
      </trkpt>
      <trkpt lat="45.12996" lon="5.163">
        <ele>316</ele>
        <time>2017-05-07T11:25:58Z</time>
      </trkpt>
      <trkpt lat="45.12986" lon="5.16301">
        <ele>316</ele>
        <time>2017-05-07T11:26:04Z</time>
      </trkpt>
      <trkpt lat="45.12976" lon="5.16305">
        <ele>316</ele>
        <time>2017-05-07T11:26:10Z</time>
      </trkpt>
      <trkpt lat="45.12965" lon="5.16307">
        <ele>316</ele>
        <time>2017-05-07T11:26:16Z</time>
      </trkpt>
      <trkpt lat="45.12953" lon="5.16308">
        <ele>317</ele>
        <time>2017-05-07T11:26:21Z</time>
      </trkpt>
      <trkpt lat="45.12944" lon="5.16308">
        <ele>317</ele>
        <time>2017-05-07T11:26:28Z</time>
      </trkpt>
      <trkpt lat="45.12935" lon="5.16314">
        <ele>317</ele>
        <time>2017-05-07T11:26:36Z</time>
      </trkpt>
      <trkpt lat="45.12928" lon="5.16324">
        <ele>317</ele>
        <time>2017-05-07T11:26:44Z</time>
      </trkpt>
      <trkpt lat="45.1292" lon="5.16334">
        <ele>317</ele>
        <time>2017-05-07T11:26:52Z</time>
      </trkpt>
      <trkpt lat="45.12913" lon="5.16343">
        <ele>318</ele>
        <time>2017-05-07T11:27:00Z</time>
      </trkpt>
      <trkpt lat="45.12906" lon="5.16353">
        <ele>319</ele>
        <time>2017-05-07T11:27:08Z</time>
      </trkpt>
      <trkpt lat="45.12897" lon="5.16361">
        <ele>320</ele>
        <time>2017-05-07T11:27:16Z</time>
      </trkpt>
      <trkpt lat="45.12889" lon="5.1637">
        <ele>320</ele>
        <time>2017-05-07T11:27:23Z</time>
      </trkpt>
      <trkpt lat="45.12881" lon="5.16376">
        <ele>320</ele>
        <time>2017-05-07T11:27:29Z</time>
      </trkpt>
      <trkpt lat="45.12873" lon="5.16382">
        <ele>320</ele>
        <time>2017-05-07T11:27:36Z</time>
      </trkpt>
      <trkpt lat="45.12863" lon="5.16388">
        <ele>321</ele>
        <time>2017-05-07T11:27:44Z</time>
      </trkpt>
      <trkpt lat="45.12855" lon="5.16394">
        <ele>321</ele>
        <time>2017-05-07T11:27:53Z</time>
      </trkpt>
      <trkpt lat="45.12853" lon="5.16408">
        <ele>321</ele>
        <time>2017-05-07T11:28:04Z</time>
      </trkpt>
      <trkpt lat="45.12855" lon="5.16424">
        <ele>322</ele>
        <time>2017-05-07T11:28:12Z</time>
      </trkpt>
      <trkpt lat="45.12858" lon="5.16437">
        <ele>322</ele>
        <time>2017-05-07T11:28:19Z</time>
      </trkpt>
      <trkpt lat="45.12862" lon="5.1645">
        <ele>323</ele>
        <time>2017-05-07T11:28:26Z</time>
      </trkpt>
      <trkpt lat="45.12866" lon="5.16463">
        <ele>323</ele>
        <time>2017-05-07T11:28:32Z</time>
      </trkpt>
      <trkpt lat="45.1287" lon="5.16476">
        <ele>323</ele>
        <time>2017-05-07T11:28:38Z</time>
      </trkpt>
      <trkpt lat="45.12874" lon="5.16489">
        <ele>323</ele>
        <time>2017-05-07T11:28:43Z</time>
      </trkpt>
      <trkpt lat="45.12879" lon="5.16503">
        <ele>324</ele>
        <time>2017-05-07T11:28:48Z</time>
      </trkpt>
      <trkpt lat="45.12883" lon="5.16514">
        <ele>324</ele>
        <time>2017-05-07T11:28:52Z</time>
      </trkpt>
      <trkpt lat="45.12888" lon="5.16526">
        <ele>324</ele>
        <time>2017-05-07T11:28:56Z</time>
      </trkpt>
      <trkpt lat="45.12892" lon="5.16539">
        <ele>324</ele>
        <time>2017-05-07T11:29:01Z</time>
      </trkpt>
      <trkpt lat="45.12897" lon="5.16552">
        <ele>325</ele>
        <time>2017-05-07T11:29:05Z</time>
      </trkpt>
      <trkpt lat="45.12901" lon="5.16565">
        <ele>325</ele>
        <time>2017-05-07T11:29:09Z</time>
      </trkpt>
      <trkpt lat="45.12906" lon="5.16579">
        <ele>325</ele>
        <time>2017-05-07T11:29:13Z</time>
      </trkpt>
      <trkpt lat="45.12909" lon="5.16592">
        <ele>325</ele>
        <time>2017-05-07T11:29:20Z</time>
      </trkpt>
      <trkpt lat="45.12913" lon="5.16606">
        <ele>325</ele>
        <time>2017-05-07T11:29:28Z</time>
      </trkpt>
      <trkpt lat="45.12915" lon="5.16619">
        <ele>325</ele>
        <time>2017-05-07T11:29:33Z</time>
      </trkpt>
      <trkpt lat="45.12918" lon="5.16633">
        <ele>325</ele>
        <time>2017-05-07T11:29:37Z</time>
      </trkpt>
      <trkpt lat="45.12921" lon="5.16648">
        <ele>325</ele>
        <time>2017-05-07T11:29:41Z</time>
      </trkpt>
      <trkpt lat="45.12925" lon="5.16662">
        <ele>326</ele>
        <time>2017-05-07T11:29:45Z</time>
      </trkpt>
      <trkpt lat="45.1293" lon="5.16674">
        <ele>327</ele>
        <time>2017-05-07T11:29:49Z</time>
      </trkpt>
      <trkpt lat="45.12934" lon="5.16689">
        <ele>328</ele>
        <time>2017-05-07T11:29:53Z</time>
      </trkpt>
      <trkpt lat="45.12939" lon="5.16702">
        <ele>328</ele>
        <time>2017-05-07T11:29:56Z</time>
      </trkpt>
      <trkpt lat="45.1293" lon="5.1671">
        <ele>328</ele>
        <time>2017-05-07T11:30:02Z</time>
      </trkpt>
      <trkpt lat="45.12918" lon="5.16707">
        <ele>328</ele>
        <time>2017-05-07T11:30:05Z</time>
      </trkpt>
      <trkpt lat="45.1291" lon="5.167">
        <ele>328</ele>
        <time>2017-05-07T11:30:08Z</time>
      </trkpt>
      <trkpt lat="45.129" lon="5.1669">
        <ele>328</ele>
        <time>2017-05-07T11:30:11Z</time>
      </trkpt>
      <trkpt lat="45.12889" lon="5.16682">
        <ele>327</ele>
        <time>2017-05-07T11:30:14Z</time>
      </trkpt>
      <trkpt lat="45.12879" lon="5.16672">
        <ele>327</ele>
        <time>2017-05-07T11:30:17Z</time>
      </trkpt>
      <trkpt lat="45.12873" lon="5.16662">
        <ele>325</ele>
        <time>2017-05-07T11:30:20Z</time>
      </trkpt>
      <trkpt lat="45.12864" lon="5.1665">
        <ele>325</ele>
        <time>2017-05-07T11:30:23Z</time>
      </trkpt>
      <trkpt lat="45.12854" lon="5.16641">
        <ele>325</ele>
        <time>2017-05-07T11:30:26Z</time>
      </trkpt>
      <trkpt lat="45.12845" lon="5.16634">
        <ele>325</ele>
        <time>2017-05-07T11:30:28Z</time>
      </trkpt>
      <trkpt lat="45.12836" lon="5.16626">
        <ele>325</ele>
        <time>2017-05-07T11:30:31Z</time>
      </trkpt>
      <trkpt lat="45.12826" lon="5.16623">
        <ele>321</ele>
        <time>2017-05-07T11:30:34Z</time>
      </trkpt>
      <trkpt lat="45.12814" lon="5.16623">
        <ele>321</ele>
        <time>2017-05-07T11:30:38Z</time>
      </trkpt>
      <trkpt lat="45.12806" lon="5.16631">
        <ele>320</ele>
        <time>2017-05-07T11:30:43Z</time>
      </trkpt>
      <trkpt lat="45.12803" lon="5.16644">
        <ele>320</ele>
        <time>2017-05-07T11:30:46Z</time>
      </trkpt>
      <trkpt lat="45.12797" lon="5.16662">
        <ele>319</ele>
        <time>2017-05-07T11:30:52Z</time>
      </trkpt>
      <trkpt lat="45.12794" lon="5.16677">
        <ele>317</ele>
        <time>2017-05-07T11:30:54Z</time>
      </trkpt>
      <trkpt lat="45.12792" lon="5.16694">
        <ele>317</ele>
        <time>2017-05-07T11:30:57Z</time>
      </trkpt>
      <trkpt lat="45.1279" lon="5.16714">
        <ele>317</ele>
        <time>2017-05-07T11:31:00Z</time>
      </trkpt>
      <trkpt lat="45.12793" lon="5.1673">
        <ele>317</ele>
        <time>2017-05-07T11:31:03Z</time>
      </trkpt>
      <trkpt lat="45.12791" lon="5.16748">
        <ele>317</ele>
        <time>2017-05-07T11:31:06Z</time>
      </trkpt>
      <trkpt lat="45.12787" lon="5.16763">
        <ele>319</ele>
        <time>2017-05-07T11:31:09Z</time>
      </trkpt>
      <trkpt lat="45.1278" lon="5.16777">
        <ele>318</ele>
        <time>2017-05-07T11:31:12Z</time>
      </trkpt>
      <trkpt lat="45.12773" lon="5.1679">
        <ele>318</ele>
        <time>2017-05-07T11:31:15Z</time>
      </trkpt>
      <trkpt lat="45.12761" lon="5.16799">
        <ele>318</ele>
        <time>2017-05-07T11:31:17Z</time>
      </trkpt>
      <trkpt lat="45.12752" lon="5.16805">
        <ele>318</ele>
        <time>2017-05-07T11:31:19Z</time>
      </trkpt>
      <trkpt lat="45.12742" lon="5.16809">
        <ele>307</ele>
        <time>2017-05-07T11:31:24Z</time>
      </trkpt>
      <trkpt lat="45.12729" lon="5.16811">
        <ele>306</ele>
        <time>2017-05-07T11:31:28Z</time>
      </trkpt>
      <trkpt lat="45.12715" lon="5.16819">
        <ele>304</ele>
        <time>2017-05-07T11:31:32Z</time>
      </trkpt>
      <trkpt lat="45.12703" lon="5.16819">
        <ele>302</ele>
        <time>2017-05-07T11:31:34Z</time>
      </trkpt>
      <trkpt lat="45.12693" lon="5.16823">
        <ele>300</ele>
        <time>2017-05-07T11:31:37Z</time>
      </trkpt>
      <trkpt lat="45.12684" lon="5.16828">
        <ele>299</ele>
        <time>2017-05-07T11:31:40Z</time>
      </trkpt>
      <trkpt lat="45.12672" lon="5.16826">
        <ele>297</ele>
        <time>2017-05-07T11:31:43Z</time>
      </trkpt>
      <trkpt lat="45.12661" lon="5.16828">
        <ele>292</ele>
        <time>2017-05-07T11:31:46Z</time>
      </trkpt>
      <trkpt lat="45.1265" lon="5.16828">
        <ele>290</ele>
        <time>2017-05-07T11:31:48Z</time>
      </trkpt>
      <trkpt lat="45.12641" lon="5.16828">
        <ele>289</ele>
        <time>2017-05-07T11:31:50Z</time>
      </trkpt>
      <trkpt lat="45.12631" lon="5.16833">
        <ele>288</ele>
        <time>2017-05-07T11:31:55Z</time>
      </trkpt>
      <trkpt lat="45.1262" lon="5.16836">
        <ele>290</ele>
        <time>2017-05-07T11:31:59Z</time>
      </trkpt>
      <trkpt lat="45.12607" lon="5.16833">
        <ele>286</ele>
        <time>2017-05-07T11:32:02Z</time>
      </trkpt>
      <trkpt lat="45.12595" lon="5.16831">
        <ele>285</ele>
        <time>2017-05-07T11:32:05Z</time>
      </trkpt>
      <trkpt lat="45.12584" lon="5.16829">
        <ele>284</ele>
        <time>2017-05-07T11:32:08Z</time>
      </trkpt>
      <trkpt lat="45.12574" lon="5.16829">
        <ele>282</ele>
        <time>2017-05-07T11:32:11Z</time>
      </trkpt>
      <trkpt lat="45.12558" lon="5.16833">
        <ele>279</ele>
        <time>2017-05-07T11:32:16Z</time>
      </trkpt>
      <trkpt lat="45.12546" lon="5.16832">
        <ele>278</ele>
        <time>2017-05-07T11:32:18Z</time>
      </trkpt>
      <trkpt lat="45.12534" lon="5.16835">
        <ele>276</ele>
        <time>2017-05-07T11:32:20Z</time>
      </trkpt>
      <trkpt lat="45.12522" lon="5.16838">
        <ele>274</ele>
        <time>2017-05-07T11:32:22Z</time>
      </trkpt>
      <trkpt lat="45.12513" lon="5.1685">
        <ele>274</ele>
        <time>2017-05-07T11:32:25Z</time>
      </trkpt>
      <trkpt lat="45.12511" lon="5.16864">
        <ele>275</ele>
        <time>2017-05-07T11:32:29Z</time>
      </trkpt>
      <trkpt lat="45.12517" lon="5.16877">
        <ele>275</ele>
        <time>2017-05-07T11:32:34Z</time>
      </trkpt>
      <trkpt lat="45.12525" lon="5.16891">
        <ele>275</ele>
        <time>2017-05-07T11:32:39Z</time>
      </trkpt>
      <trkpt lat="45.12532" lon="5.16901">
        <ele>276</ele>
        <time>2017-05-07T11:32:44Z</time>
      </trkpt>
      <trkpt lat="45.12536" lon="5.16919">
        <ele>275</ele>
        <time>2017-05-07T11:32:48Z</time>
      </trkpt>
      <trkpt lat="45.12543" lon="5.1693">
        <ele>276</ele>
        <time>2017-05-07T11:32:51Z</time>
      </trkpt>
      <trkpt lat="45.12546" lon="5.16943">
        <ele>276</ele>
        <time>2017-05-07T11:32:54Z</time>
      </trkpt>
      <trkpt lat="45.12551" lon="5.16955">
        <ele>276</ele>
        <time>2017-05-07T11:33:02Z</time>
      </trkpt>
      <trkpt lat="45.12541" lon="5.16946">
        <ele>275</ele>
        <time>2017-05-07T11:33:30Z</time>
      </trkpt>
      <trkpt lat="45.12531" lon="5.1694">
        <ele>274</ele>
        <time>2017-05-07T11:33:32Z</time>
      </trkpt>
      <trkpt lat="45.12517" lon="5.16931">
        <ele>272</ele>
        <time>2017-05-07T11:33:34Z</time>
      </trkpt>
      <trkpt lat="45.12505" lon="5.16922">
        <ele>270</ele>
        <time>2017-05-07T11:33:36Z</time>
      </trkpt>
      <trkpt lat="45.12493" lon="5.16908">
        <ele>268</ele>
        <time>2017-05-07T11:33:38Z</time>
      </trkpt>
      <trkpt lat="45.12483" lon="5.1689">
        <ele>269</ele>
        <time>2017-05-07T11:33:40Z</time>
      </trkpt>
      <trkpt lat="45.12473" lon="5.16873">
        <ele>269</ele>
        <time>2017-05-07T11:33:42Z</time>
      </trkpt>
      <trkpt lat="45.12465" lon="5.16855">
        <ele>269</ele>
        <time>2017-05-07T11:33:44Z</time>
      </trkpt>
      <trkpt lat="45.12458" lon="5.1684">
        <ele>268</ele>
        <time>2017-05-07T11:33:46Z</time>
      </trkpt>
      <trkpt lat="45.12446" lon="5.16838">
        <ele>268</ele>
        <time>2017-05-07T11:33:49Z</time>
      </trkpt>
      <trkpt lat="45.12436" lon="5.16837">
        <ele>267</ele>
        <time>2017-05-07T11:33:52Z</time>
      </trkpt>
      <trkpt lat="45.12424" lon="5.16837">
        <ele>266</ele>
        <time>2017-05-07T11:33:55Z</time>
      </trkpt>
      <trkpt lat="45.12413" lon="5.16833">
        <ele>265</ele>
        <time>2017-05-07T11:33:59Z</time>
      </trkpt>
      <trkpt lat="45.12409" lon="5.16821">
        <ele>266</ele>
        <time>2017-05-07T11:34:05Z</time>
      </trkpt>
      <trkpt lat="45.12398" lon="5.16816">
        <ele>267</ele>
        <time>2017-05-07T11:34:09Z</time>
      </trkpt>
      <trkpt lat="45.12391" lon="5.16799">
        <ele>267</ele>
        <time>2017-05-07T11:34:14Z</time>
      </trkpt>
      <trkpt lat="45.12383" lon="5.16786">
        <ele>267</ele>
        <time>2017-05-07T11:34:18Z</time>
      </trkpt>
      <trkpt lat="45.12373" lon="5.1678">
        <ele>267</ele>
        <time>2017-05-07T11:34:22Z</time>
      </trkpt>
      <trkpt lat="45.12362" lon="5.16774">
        <ele>267</ele>
        <time>2017-05-07T11:34:25Z</time>
      </trkpt>
      <trkpt lat="45.12352" lon="5.16767">
        <ele>266</ele>
        <time>2017-05-07T11:34:28Z</time>
      </trkpt>
      <trkpt lat="45.1234" lon="5.16763">
        <ele>265</ele>
        <time>2017-05-07T11:34:31Z</time>
      </trkpt>
      <trkpt lat="45.1233" lon="5.16762">
        <ele>267</ele>
        <time>2017-05-07T11:34:33Z</time>
      </trkpt>
      <trkpt lat="45.12321" lon="5.16762">
        <ele>268</ele>
        <time>2017-05-07T11:34:35Z</time>
      </trkpt>
      <trkpt lat="45.12311" lon="5.16762">
        <ele>269</ele>
        <time>2017-05-07T11:34:37Z</time>
      </trkpt>
      <trkpt lat="45.123" lon="5.16761">
        <ele>270</ele>
        <time>2017-05-07T11:34:40Z</time>
      </trkpt>
      <trkpt lat="45.1229" lon="5.16757">
        <ele>271</ele>
        <time>2017-05-07T11:34:43Z</time>
      </trkpt>
      <trkpt lat="45.1228" lon="5.16753">
        <ele>271</ele>
        <time>2017-05-07T11:34:45Z</time>
      </trkpt>
      <trkpt lat="45.1227" lon="5.16744">
        <ele>267</ele>
        <time>2017-05-07T11:34:48Z</time>
      </trkpt>
      <trkpt lat="45.1226" lon="5.16735">
        <ele>267</ele>
        <time>2017-05-07T11:34:51Z</time>
      </trkpt>
      <trkpt lat="45.12251" lon="5.16726">
        <ele>267</ele>
        <time>2017-05-07T11:34:54Z</time>
      </trkpt>
      <trkpt lat="45.12242" lon="5.16723">
        <ele>270</ele>
        <time>2017-05-07T11:34:57Z</time>
      </trkpt>
      <trkpt lat="45.1223" lon="5.16715">
        <ele>271</ele>
        <time>2017-05-07T11:35:01Z</time>
      </trkpt>
      <trkpt lat="45.12223" lon="5.16706">
        <ele>271</ele>
        <time>2017-05-07T11:35:03Z</time>
      </trkpt>
      <trkpt lat="45.12213" lon="5.16698">
        <ele>271</ele>
        <time>2017-05-07T11:35:06Z</time>
      </trkpt>
      <trkpt lat="45.12204" lon="5.16689">
        <ele>271</ele>
        <time>2017-05-07T11:35:09Z</time>
      </trkpt>
      <trkpt lat="45.12194" lon="5.16679">
        <ele>271</ele>
        <time>2017-05-07T11:35:13Z</time>
      </trkpt>
      <trkpt lat="45.12179" lon="5.1666">
        <ele>268</ele>
        <time>2017-05-07T11:35:18Z</time>
      </trkpt>
      <trkpt lat="45.12171" lon="5.16645">
        <ele>267</ele>
        <time>2017-05-07T11:35:20Z</time>
      </trkpt>
      <trkpt lat="45.12163" lon="5.16631">
        <ele>268</ele>
        <time>2017-05-07T11:35:22Z</time>
      </trkpt>
      <trkpt lat="45.12156" lon="5.16618">
        <ele>267</ele>
        <time>2017-05-07T11:35:24Z</time>
      </trkpt>
      <trkpt lat="45.12149" lon="5.16601">
        <ele>266</ele>
        <time>2017-05-07T11:35:26Z</time>
      </trkpt>
      <trkpt lat="45.12141" lon="5.16577">
        <ele>261</ele>
        <time>2017-05-07T11:35:31Z</time>
      </trkpt>
      <trkpt lat="45.12127" lon="5.16575">
        <ele>261</ele>
        <time>2017-05-07T11:35:37Z</time>
      </trkpt>
      <trkpt lat="45.1212" lon="5.16585">
        <ele>267</ele>
        <time>2017-05-07T11:35:49Z</time>
      </trkpt>
      <trkpt lat="45.12123" lon="5.166">
        <ele>267</ele>
        <time>2017-05-07T11:35:55Z</time>
      </trkpt>
      <trkpt lat="45.12125" lon="5.16613">
        <ele>268</ele>
        <time>2017-05-07T11:36:05Z</time>
      </trkpt>
      <trkpt lat="45.1213" lon="5.16626">
        <ele>268</ele>
        <time>2017-05-07T11:36:14Z</time>
      </trkpt>
      <trkpt lat="45.12133" lon="5.1664">
        <ele>269</ele>
        <time>2017-05-07T11:36:25Z</time>
      </trkpt>
      <trkpt lat="45.12134" lon="5.16654">
        <ele>269</ele>
        <time>2017-05-07T11:36:32Z</time>
      </trkpt>
      <trkpt lat="45.12144" lon="5.16657">
        <ele>269</ele>
        <time>2017-05-07T11:36:41Z</time>
      </trkpt>
      <trkpt lat="45.12151" lon="5.16668">
        <ele>273</ele>
        <time>2017-05-07T11:36:49Z</time>
      </trkpt>
      <trkpt lat="45.12156" lon="5.1668">
        <ele>274</ele>
        <time>2017-05-07T11:36:58Z</time>
      </trkpt>
      <trkpt lat="45.12162" lon="5.16691">
        <ele>275</ele>
        <time>2017-05-07T11:37:08Z</time>
      </trkpt>
      <trkpt lat="45.12168" lon="5.16702">
        <ele>273</ele>
        <time>2017-05-07T11:37:16Z</time>
      </trkpt>
      <trkpt lat="45.12174" lon="5.16713">
        <ele>274</ele>
        <time>2017-05-07T11:37:24Z</time>
      </trkpt>
      <trkpt lat="45.12179" lon="5.16724">
        <ele>275</ele>
        <time>2017-05-07T11:37:31Z</time>
      </trkpt>
      <trkpt lat="45.12186" lon="5.16733">
        <ele>275</ele>
        <time>2017-05-07T11:37:38Z</time>
      </trkpt>
      <trkpt lat="45.12192" lon="5.16747">
        <ele>276</ele>
        <time>2017-05-07T11:37:47Z</time>
      </trkpt>
      <trkpt lat="45.12197" lon="5.1676">
        <ele>281</ele>
        <time>2017-05-07T11:37:55Z</time>
      </trkpt>
      <trkpt lat="45.12203" lon="5.16771">
        <ele>281</ele>
        <time>2017-05-07T11:38:04Z</time>
      </trkpt>
      <trkpt lat="45.12209" lon="5.16781">
        <ele>281</ele>
        <time>2017-05-07T11:38:13Z</time>
      </trkpt>
      <trkpt lat="45.12217" lon="5.16791">
        <ele>281</ele>
        <time>2017-05-07T11:38:20Z</time>
      </trkpt>
      <trkpt lat="45.12222" lon="5.16803">
        <ele>282</ele>
        <time>2017-05-07T11:38:27Z</time>
      </trkpt>
      <trkpt lat="45.12228" lon="5.16813">
        <ele>283</ele>
        <time>2017-05-07T11:38:34Z</time>
      </trkpt>
      <trkpt lat="45.12235" lon="5.16822">
        <ele>283</ele>
        <time>2017-05-07T11:38:41Z</time>
      </trkpt>
      <trkpt lat="45.12241" lon="5.16833">
        <ele>284</ele>
        <time>2017-05-07T11:38:49Z</time>
      </trkpt>
      <trkpt lat="45.12244" lon="5.16846">
        <ele>288</ele>
        <time>2017-05-07T11:38:57Z</time>
      </trkpt>
      <trkpt lat="45.12253" lon="5.16853">
        <ele>288</ele>
        <time>2017-05-07T11:39:06Z</time>
      </trkpt>
      <trkpt lat="45.12261" lon="5.16862">
        <ele>289</ele>
        <time>2017-05-07T11:39:13Z</time>
      </trkpt>
      <trkpt lat="45.12268" lon="5.16873">
        <ele>290</ele>
        <time>2017-05-07T11:39:20Z</time>
      </trkpt>
      <trkpt lat="45.12274" lon="5.16884">
        <ele>291</ele>
        <time>2017-05-07T11:39:26Z</time>
      </trkpt>
      <trkpt lat="45.12282" lon="5.16895">
        <ele>292</ele>
        <time>2017-05-07T11:39:35Z</time>
      </trkpt>
      <trkpt lat="45.12291" lon="5.16901">
        <ele>292</ele>
        <time>2017-05-07T11:39:43Z</time>
      </trkpt>
      <trkpt lat="45.12296" lon="5.16912">
        <ele>292</ele>
        <time>2017-05-07T11:39:51Z</time>
      </trkpt>
      <trkpt lat="45.12305" lon="5.16922">
        <ele>298</ele>
        <time>2017-05-07T11:39:58Z</time>
      </trkpt>
      <trkpt lat="45.12309" lon="5.16936">
        <ele>299</ele>
        <time>2017-05-07T11:40:04Z</time>
      </trkpt>
      <trkpt lat="45.12313" lon="5.1695">
        <ele>299</ele>
        <time>2017-05-07T11:40:12Z</time>
      </trkpt>
      <trkpt lat="45.12314" lon="5.16964">
        <ele>300</ele>
        <time>2017-05-07T11:40:17Z</time>
      </trkpt>
      <trkpt lat="45.12314" lon="5.16978">
        <ele>300</ele>
        <time>2017-05-07T11:40:24Z</time>
      </trkpt>
      <trkpt lat="45.12311" lon="5.1699">
        <ele>300</ele>
        <time>2017-05-07T11:40:30Z</time>
      </trkpt>
      <trkpt lat="45.12304" lon="5.17">
        <ele>305</ele>
        <time>2017-05-07T11:40:36Z</time>
      </trkpt>
      <trkpt lat="45.12298" lon="5.17012">
        <ele>306</ele>
        <time>2017-05-07T11:40:42Z</time>
      </trkpt>
      <trkpt lat="45.12291" lon="5.17022">
        <ele>307</ele>
        <time>2017-05-07T11:40:50Z</time>
      </trkpt>
      <trkpt lat="45.12289" lon="5.17035">
        <ele>308</ele>
        <time>2017-05-07T11:41:04Z</time>
      </trkpt>
      <trkpt lat="45.12281" lon="5.17044">
        <ele>309</ele>
        <time>2017-05-07T11:41:11Z</time>
      </trkpt>
      <trkpt lat="45.12274" lon="5.17054">
        <ele>310</ele>
        <time>2017-05-07T11:41:18Z</time>
      </trkpt>
      <trkpt lat="45.12267" lon="5.17063">
        <ele>312</ele>
        <time>2017-05-07T11:41:24Z</time>
      </trkpt>
      <trkpt lat="45.12259" lon="5.17072">
        <ele>314</ele>
        <time>2017-05-07T11:41:33Z</time>
      </trkpt>
      <trkpt lat="45.12254" lon="5.17086">
        <ele>319</ele>
        <time>2017-05-07T11:41:43Z</time>
      </trkpt>
      <trkpt lat="45.12251" lon="5.17099">
        <ele>320</ele>
        <time>2017-05-07T11:42:07Z</time>
      </trkpt>
      <trkpt lat="45.12262" lon="5.17106">
        <ele>320</ele>
        <time>2017-05-07T11:42:18Z</time>
      </trkpt>
      <trkpt lat="45.12269" lon="5.17115">
        <ele>320</ele>
        <time>2017-05-07T11:42:23Z</time>
      </trkpt>
      <trkpt lat="45.12276" lon="5.17128">
        <ele>321</ele>
        <time>2017-05-07T11:42:29Z</time>
      </trkpt>
      <trkpt lat="45.12276" lon="5.17143">
        <ele>323</ele>
        <time>2017-05-07T11:42:42Z</time>
      </trkpt>
      <trkpt lat="45.12283" lon="5.17154">
        <ele>323</ele>
        <time>2017-05-07T11:42:52Z</time>
      </trkpt>
      <trkpt lat="45.12291" lon="5.17161">
        <ele>323</ele>
        <time>2017-05-07T11:42:59Z</time>
      </trkpt>
      <trkpt lat="45.1229" lon="5.17176">
        <ele>332</ele>
        <time>2017-05-07T11:43:06Z</time>
      </trkpt>
      <trkpt lat="45.12293" lon="5.17192">
        <ele>332</ele>
        <time>2017-05-07T11:43:16Z</time>
      </trkpt>
      <trkpt lat="45.12298" lon="5.17202">
        <ele>332</ele>
        <time>2017-05-07T11:43:28Z</time>
      </trkpt>
      <trkpt lat="45.12303" lon="5.17215">
        <ele>332</ele>
        <time>2017-05-07T11:43:42Z</time>
      </trkpt>
      <trkpt lat="45.12301" lon="5.17228">
        <ele>333</ele>
        <time>2017-05-07T11:43:49Z</time>
      </trkpt>
      <trkpt lat="45.123" lon="5.17242">
        <ele>334</ele>
        <time>2017-05-07T11:43:57Z</time>
      </trkpt>
      <trkpt lat="45.12301" lon="5.17255">
        <ele>337</ele>
        <time>2017-05-07T11:44:07Z</time>
      </trkpt>
      <trkpt lat="45.123" lon="5.1727">
        <ele>337</ele>
        <time>2017-05-07T11:44:16Z</time>
      </trkpt>
      <trkpt lat="45.12303" lon="5.17283">
        <ele>337</ele>
        <time>2017-05-07T11:44:23Z</time>
      </trkpt>
      <trkpt lat="45.12302" lon="5.17301">
        <ele>337</ele>
        <time>2017-05-07T11:44:31Z</time>
      </trkpt>
      <trkpt lat="45.123" lon="5.17316">
        <ele>336</ele>
        <time>2017-05-07T11:44:36Z</time>
      </trkpt>
      <trkpt lat="45.12296" lon="5.17328">
        <ele>337</ele>
        <time>2017-05-07T11:44:43Z</time>
      </trkpt>
      <trkpt lat="45.12301" lon="5.17343">
        <ele>335</ele>
        <time>2017-05-07T11:44:50Z</time>
      </trkpt>
      <trkpt lat="45.12306" lon="5.17354">
        <ele>335</ele>
        <time>2017-05-07T11:44:55Z</time>
      </trkpt>
      <trkpt lat="45.12305" lon="5.17369">
        <ele>335</ele>
        <time>2017-05-07T11:45:02Z</time>
      </trkpt>
      <trkpt lat="45.1231" lon="5.17381">
        <ele>334</ele>
        <time>2017-05-07T11:45:08Z</time>
      </trkpt>
      <trkpt lat="45.12308" lon="5.17395">
        <ele>334</ele>
        <time>2017-05-07T11:45:13Z</time>
      </trkpt>
      <trkpt lat="45.12307" lon="5.17409">
        <ele>334</ele>
        <time>2017-05-07T11:45:20Z</time>
      </trkpt>
      <trkpt lat="45.12303" lon="5.17424">
        <ele>332</ele>
        <time>2017-05-07T11:45:25Z</time>
      </trkpt>
      <trkpt lat="45.123" lon="5.17437">
        <ele>332</ele>
        <time>2017-05-07T11:45:31Z</time>
      </trkpt>
      <trkpt lat="45.12293" lon="5.17449">
        <ele>333</ele>
        <time>2017-05-07T11:45:37Z</time>
      </trkpt>
      <trkpt lat="45.12286" lon="5.17459">
        <ele>333</ele>
        <time>2017-05-07T11:45:40Z</time>
      </trkpt>
      <trkpt lat="45.12279" lon="5.17468">
        <ele>333</ele>
        <time>2017-05-07T11:45:43Z</time>
      </trkpt>
      <trkpt lat="45.12272" lon="5.17482">
        <ele>333</ele>
        <time>2017-05-07T11:45:48Z</time>
      </trkpt>
      <trkpt lat="45.12265" lon="5.17494">
        <ele>334</ele>
        <time>2017-05-07T11:45:53Z</time>
      </trkpt>
      <trkpt lat="45.12258" lon="5.17504">
        <ele>335</ele>
        <time>2017-05-07T11:45:57Z</time>
      </trkpt>
      <trkpt lat="45.12249" lon="5.17516">
        <ele>337</ele>
        <time>2017-05-07T11:46:01Z</time>
      </trkpt>
      <trkpt lat="45.12242" lon="5.17528">
        <ele>338</ele>
        <time>2017-05-07T11:46:05Z</time>
      </trkpt>
      <trkpt lat="45.12238" lon="5.17543">
        <ele>338</ele>
        <time>2017-05-07T11:46:09Z</time>
      </trkpt>
      <trkpt lat="45.12232" lon="5.17557">
        <ele>339</ele>
        <time>2017-05-07T11:46:13Z</time>
      </trkpt>
      <trkpt lat="45.12231" lon="5.17572">
        <ele>339</ele>
        <time>2017-05-07T11:46:18Z</time>
      </trkpt>
      <trkpt lat="45.12229" lon="5.17589">
        <ele>340</ele>
        <time>2017-05-07T11:46:23Z</time>
      </trkpt>
      <trkpt lat="45.12227" lon="5.17602">
        <ele>340</ele>
        <time>2017-05-07T11:46:26Z</time>
      </trkpt>
      <trkpt lat="45.12226" lon="5.17616">
        <ele>340</ele>
        <time>2017-05-07T11:46:30Z</time>
      </trkpt>
      <trkpt lat="45.12223" lon="5.1763">
        <ele>340</ele>
        <time>2017-05-07T11:46:35Z</time>
      </trkpt>
      <trkpt lat="45.12222" lon="5.17645">
        <ele>340</ele>
        <time>2017-05-07T11:46:39Z</time>
      </trkpt>
      <trkpt lat="45.1222" lon="5.17661">
        <ele>340</ele>
        <time>2017-05-07T11:46:42Z</time>
      </trkpt>
      <trkpt lat="45.12218" lon="5.17673">
        <ele>339</ele>
        <time>2017-05-07T11:46:44Z</time>
      </trkpt>
      <trkpt lat="45.12214" lon="5.17686">
        <ele>339</ele>
        <time>2017-05-07T11:46:46Z</time>
      </trkpt>
      <trkpt lat="45.1221" lon="5.17702">
        <ele>339</ele>
        <time>2017-05-07T11:46:49Z</time>
      </trkpt>
      <trkpt lat="45.12205" lon="5.17717">
        <ele>338</ele>
        <time>2017-05-07T11:46:52Z</time>
      </trkpt>
      <trkpt lat="45.122" lon="5.17734">
        <ele>338</ele>
        <time>2017-05-07T11:46:55Z</time>
      </trkpt>
      <trkpt lat="45.12195" lon="5.17746">
        <ele>339</ele>
        <time>2017-05-07T11:46:57Z</time>
      </trkpt>
      <trkpt lat="45.1219" lon="5.17757">
        <ele>339</ele>
        <time>2017-05-07T11:46:59Z</time>
      </trkpt>
      <trkpt lat="45.12181" lon="5.17769">
        <ele>339</ele>
        <time>2017-05-07T11:47:02Z</time>
      </trkpt>
      <trkpt lat="45.12172" lon="5.17776">
        <ele>340</ele>
        <time>2017-05-07T11:47:05Z</time>
      </trkpt>
      <trkpt lat="45.12164" lon="5.17787">
        <ele>343</ele>
        <time>2017-05-07T11:47:10Z</time>
      </trkpt>
      <trkpt lat="45.12158" lon="5.17797">
        <ele>344</ele>
        <time>2017-05-07T11:47:15Z</time>
      </trkpt>
      <trkpt lat="45.12151" lon="5.17807">
        <ele>344</ele>
        <time>2017-05-07T11:47:22Z</time>
      </trkpt>
      <trkpt lat="45.12144" lon="5.17819">
        <ele>344</ele>
        <time>2017-05-07T11:47:30Z</time>
      </trkpt>
      <trkpt lat="45.12135" lon="5.17828">
        <ele>344</ele>
        <time>2017-05-07T11:47:36Z</time>
      </trkpt>
      <trkpt lat="45.12127" lon="5.17839">
        <ele>348</ele>
        <time>2017-05-07T11:47:42Z</time>
      </trkpt>
      <trkpt lat="45.1212" lon="5.17848">
        <ele>348</ele>
        <time>2017-05-07T11:47:46Z</time>
      </trkpt>
      <trkpt lat="45.12115" lon="5.17863">
        <ele>349</ele>
        <time>2017-05-07T11:47:55Z</time>
      </trkpt>
      <trkpt lat="45.12108" lon="5.17873">
        <ele>349</ele>
        <time>2017-05-07T11:48:01Z</time>
      </trkpt>
      <trkpt lat="45.12103" lon="5.17883">
        <ele>350</ele>
        <time>2017-05-07T11:48:07Z</time>
      </trkpt>
      <trkpt lat="45.12098" lon="5.17897">
        <ele>351</ele>
        <time>2017-05-07T11:48:15Z</time>
      </trkpt>
      <trkpt lat="45.12093" lon="5.17909">
        <ele>352</ele>
        <time>2017-05-07T11:48:21Z</time>
      </trkpt>
      <trkpt lat="45.1209" lon="5.17922">
        <ele>355</ele>
        <time>2017-05-07T11:48:27Z</time>
      </trkpt>
      <trkpt lat="45.12085" lon="5.17934">
        <ele>355</ele>
        <time>2017-05-07T11:48:32Z</time>
      </trkpt>
      <trkpt lat="45.1208" lon="5.17944">
        <ele>357</ele>
        <time>2017-05-07T11:48:39Z</time>
      </trkpt>
      <trkpt lat="45.12077" lon="5.17959">
        <ele>358</ele>
        <time>2017-05-07T11:48:45Z</time>
      </trkpt>
      <trkpt lat="45.12073" lon="5.17971">
        <ele>359</ele>
        <time>2017-05-07T11:48:51Z</time>
      </trkpt>
      <trkpt lat="45.12067" lon="5.17982">
        <ele>359</ele>
        <time>2017-05-07T11:48:59Z</time>
      </trkpt>
      <trkpt lat="45.12062" lon="5.17995">
        <ele>360</ele>
        <time>2017-05-07T11:49:08Z</time>
      </trkpt>
      <trkpt lat="45.12057" lon="5.18007">
        <ele>363</ele>
        <time>2017-05-07T11:49:16Z</time>
      </trkpt>
      <trkpt lat="45.12048" lon="5.18019">
        <ele>363</ele>
        <time>2017-05-07T11:49:21Z</time>
      </trkpt>
      <trkpt lat="45.12043" lon="5.18032">
        <ele>364</ele>
        <time>2017-05-07T11:49:27Z</time>
      </trkpt>
      <trkpt lat="45.1204" lon="5.18046">
        <ele>364</ele>
        <time>2017-05-07T11:49:33Z</time>
      </trkpt>
      <trkpt lat="45.12034" lon="5.18059">
        <ele>364</ele>
        <time>2017-05-07T11:49:38Z</time>
      </trkpt>
      <trkpt lat="45.12031" lon="5.18075">
        <ele>364</ele>
        <time>2017-05-07T11:49:42Z</time>
      </trkpt>
      <trkpt lat="45.12031" lon="5.1809">
        <ele>366</ele>
        <time>2017-05-07T11:49:48Z</time>
      </trkpt>
      <trkpt lat="45.12025" lon="5.18102">
        <ele>366</ele>
        <time>2017-05-07T11:49:54Z</time>
      </trkpt>
      <trkpt lat="45.12022" lon="5.18115">
        <ele>366</ele>
        <time>2017-05-07T11:49:58Z</time>
      </trkpt>
      <trkpt lat="45.1202" lon="5.18131">
        <ele>366</ele>
        <time>2017-05-07T11:50:02Z</time>
      </trkpt>
      <trkpt lat="45.12017" lon="5.18146">
        <ele>366</ele>
        <time>2017-05-07T11:50:06Z</time>
      </trkpt>
      <trkpt lat="45.12012" lon="5.18159">
        <ele>367</ele>
        <time>2017-05-07T11:50:10Z</time>
      </trkpt>
      <trkpt lat="45.12009" lon="5.18173">
        <ele>368</ele>
        <time>2017-05-07T11:50:15Z</time>
      </trkpt>
      <trkpt lat="45.12009" lon="5.18189">
        <ele>367</ele>
        <time>2017-05-07T11:50:20Z</time>
      </trkpt>
      <trkpt lat="45.12006" lon="5.18202">
        <ele>367</ele>
        <time>2017-05-07T11:50:25Z</time>
      </trkpt>
      <trkpt lat="45.12009" lon="5.18222">
        <ele>368</ele>
        <time>2017-05-07T11:50:32Z</time>
      </trkpt>
      <trkpt lat="45.1201" lon="5.18236">
        <ele>369</ele>
        <time>2017-05-07T11:50:35Z</time>
      </trkpt>
      <trkpt lat="45.12013" lon="5.1825">
        <ele>369</ele>
        <time>2017-05-07T11:50:38Z</time>
      </trkpt>
      <trkpt lat="45.12015" lon="5.18267">
        <ele>369</ele>
        <time>2017-05-07T11:50:41Z</time>
      </trkpt>
      <trkpt lat="45.12019" lon="5.18279">
        <ele>368</ele>
        <time>2017-05-07T11:50:43Z</time>
      </trkpt>
      <trkpt lat="45.12022" lon="5.18295">
        <ele>368</ele>
        <time>2017-05-07T11:50:46Z</time>
      </trkpt>
      <trkpt lat="45.12023" lon="5.1831">
        <ele>368</ele>
        <time>2017-05-07T11:50:49Z</time>
      </trkpt>
      <trkpt lat="45.12023" lon="5.18323">
        <ele>369</ele>
        <time>2017-05-07T11:50:51Z</time>
      </trkpt>
      <trkpt lat="45.12024" lon="5.18338">
        <ele>370</ele>
        <time>2017-05-07T11:50:53Z</time>
      </trkpt>
      <trkpt lat="45.12024" lon="5.18351">
        <ele>369</ele>
        <time>2017-05-07T11:50:55Z</time>
      </trkpt>
      <trkpt lat="45.12023" lon="5.18369">
        <ele>369</ele>
        <time>2017-05-07T11:50:58Z</time>
      </trkpt>
      <trkpt lat="45.1202" lon="5.18385">
        <ele>369</ele>
        <time>2017-05-07T11:51:02Z</time>
      </trkpt>
      <trkpt lat="45.12023" lon="5.18397">
        <ele>370</ele>
        <time>2017-05-07T11:51:07Z</time>
      </trkpt>
      <trkpt lat="45.12023" lon="5.18412">
        <ele>370</ele>
        <time>2017-05-07T11:51:11Z</time>
      </trkpt>
      <trkpt lat="45.12022" lon="5.18427">
        <ele>371</ele>
        <time>2017-05-07T11:51:14Z</time>
      </trkpt>
      <trkpt lat="45.12027" lon="5.18439">
        <ele>371</ele>
        <time>2017-05-07T11:51:19Z</time>
      </trkpt>
      <trkpt lat="45.12034" lon="5.1845">
        <ele>370</ele>
        <time>2017-05-07T11:51:25Z</time>
      </trkpt>
      <trkpt lat="45.12037" lon="5.18464">
        <ele>370</ele>
        <time>2017-05-07T11:51:31Z</time>
      </trkpt>
      <trkpt lat="45.1204" lon="5.18477">
        <ele>370</ele>
        <time>2017-05-07T11:51:37Z</time>
      </trkpt>
      <trkpt lat="45.12044" lon="5.1849">
        <ele>370</ele>
        <time>2017-05-07T11:51:42Z</time>
      </trkpt>
      <trkpt lat="45.1205" lon="5.18501">
        <ele>371</ele>
        <time>2017-05-07T11:51:46Z</time>
      </trkpt>
      <trkpt lat="45.12054" lon="5.18514">
        <ele>371</ele>
        <time>2017-05-07T11:51:51Z</time>
      </trkpt>
      <trkpt lat="45.12054" lon="5.18529">
        <ele>371</ele>
        <time>2017-05-07T11:51:56Z</time>
      </trkpt>
      <trkpt lat="45.12057" lon="5.18544">
        <ele>372</ele>
        <time>2017-05-07T11:52:01Z</time>
      </trkpt>
      <trkpt lat="45.12059" lon="5.18561">
        <ele>372</ele>
        <time>2017-05-07T11:52:07Z</time>
      </trkpt>
      <trkpt lat="45.12057" lon="5.18574">
        <ele>372</ele>
        <time>2017-05-07T11:52:12Z</time>
      </trkpt>
      <trkpt lat="45.12054" lon="5.18587">
        <ele>373</ele>
        <time>2017-05-07T11:52:19Z</time>
      </trkpt>
      <trkpt lat="45.12049" lon="5.186">
        <ele>374</ele>
        <time>2017-05-07T11:52:26Z</time>
      </trkpt>
      <trkpt lat="45.12046" lon="5.18613">
        <ele>374</ele>
        <time>2017-05-07T11:52:33Z</time>
      </trkpt>
      <trkpt lat="45.1204" lon="5.18624">
        <ele>374</ele>
        <time>2017-05-07T11:52:42Z</time>
      </trkpt>
      <trkpt lat="45.12033" lon="5.18634">
        <ele>374</ele>
        <time>2017-05-07T11:52:49Z</time>
      </trkpt>
      <trkpt lat="45.12027" lon="5.18645">
        <ele>374</ele>
        <time>2017-05-07T11:52:59Z</time>
      </trkpt>
      <trkpt lat="45.12017" lon="5.1865">
        <ele>374</ele>
        <time>2017-05-07T11:53:06Z</time>
      </trkpt>
      <trkpt lat="45.12014" lon="5.18664">
        <ele>374</ele>
        <time>2017-05-07T11:53:13Z</time>
      </trkpt>
      <trkpt lat="45.12014" lon="5.18678">
        <ele>374</ele>
        <time>2017-05-07T11:53:19Z</time>
      </trkpt>
      <trkpt lat="45.12015" lon="5.18692">
        <ele>374</ele>
        <time>2017-05-07T11:53:24Z</time>
      </trkpt>
      <trkpt lat="45.12009" lon="5.18702">
        <ele>374</ele>
        <time>2017-05-07T11:53:32Z</time>
      </trkpt>
      <trkpt lat="45.11998" lon="5.18698">
        <ele>365</ele>
        <time>2017-05-07T11:53:36Z</time>
      </trkpt>
      <trkpt lat="45.11989" lon="5.18695">
        <ele>365</ele>
        <time>2017-05-07T11:53:41Z</time>
      </trkpt>
      <trkpt lat="45.11978" lon="5.1869">
        <ele>365</ele>
        <time>2017-05-07T11:53:44Z</time>
      </trkpt>
      <trkpt lat="45.11968" lon="5.18686">
        <ele>363</ele>
        <time>2017-05-07T11:53:46Z</time>
      </trkpt>
      <trkpt lat="45.11959" lon="5.1868">
        <ele>362</ele>
        <time>2017-05-07T11:53:48Z</time>
      </trkpt>
      <trkpt lat="45.11947" lon="5.1867">
        <ele>361</ele>
        <time>2017-05-07T11:53:51Z</time>
      </trkpt>
      <trkpt lat="45.11938" lon="5.18661">
        <ele>366</ele>
        <time>2017-05-07T11:53:53Z</time>
      </trkpt>
      <trkpt lat="45.11931" lon="5.18653">
        <ele>366</ele>
        <time>2017-05-07T11:53:55Z</time>
      </trkpt>
      <trkpt lat="45.11922" lon="5.18648">
        <ele>366</ele>
        <time>2017-05-07T11:53:58Z</time>
      </trkpt>
      <trkpt lat="45.11915" lon="5.18638">
        <ele>361</ele>
        <time>2017-05-07T11:54:05Z</time>
      </trkpt>
      <trkpt lat="45.11905" lon="5.18638">
        <ele>361</ele>
        <time>2017-05-07T11:54:13Z</time>
      </trkpt>
      <trkpt lat="45.11901" lon="5.18624">
        <ele>363</ele>
        <time>2017-05-07T11:54:21Z</time>
      </trkpt>
      <trkpt lat="45.11889" lon="5.18627">
        <ele>362</ele>
        <time>2017-05-07T11:54:36Z</time>
      </trkpt>
      <trkpt lat="45.11878" lon="5.18624">
        <ele>361</ele>
        <time>2017-05-07T11:54:39Z</time>
      </trkpt>
      <trkpt lat="45.11869" lon="5.18621">
        <ele>361</ele>
        <time>2017-05-07T11:54:41Z</time>
      </trkpt>
      <trkpt lat="45.1186" lon="5.18615">
        <ele>361</ele>
        <time>2017-05-07T11:54:43Z</time>
      </trkpt>
      <trkpt lat="45.11848" lon="5.18607">
        <ele>361</ele>
        <time>2017-05-07T11:54:46Z</time>
      </trkpt>
      <trkpt lat="45.11833" lon="5.18606">
        <ele>361</ele>
        <time>2017-05-07T11:54:49Z</time>
      </trkpt>
      <trkpt lat="45.11822" lon="5.18607">
        <ele>354</ele>
        <time>2017-05-07T11:54:51Z</time>
      </trkpt>
      <trkpt lat="45.11813" lon="5.18614">
        <ele>352</ele>
        <time>2017-05-07T11:54:53Z</time>
      </trkpt>
      <trkpt lat="45.11805" lon="5.18626">
        <ele>350</ele>
        <time>2017-05-07T11:54:56Z</time>
      </trkpt>
      <trkpt lat="45.118" lon="5.18641">
        <ele>349</ele>
        <time>2017-05-07T11:55:00Z</time>
      </trkpt>
      <trkpt lat="45.11797" lon="5.1866">
        <ele>348</ele>
        <time>2017-05-07T11:55:04Z</time>
      </trkpt>
      <trkpt lat="45.11788" lon="5.18673">
        <ele>342</ele>
        <time>2017-05-07T11:55:07Z</time>
      </trkpt>
      <trkpt lat="45.11778" lon="5.18679">
        <ele>342</ele>
        <time>2017-05-07T11:55:09Z</time>
      </trkpt>
      <trkpt lat="45.11769" lon="5.18687">
        <ele>342</ele>
        <time>2017-05-07T11:55:11Z</time>
      </trkpt>
      <trkpt lat="45.1176" lon="5.18695">
        <ele>341</ele>
        <time>2017-05-07T11:55:13Z</time>
      </trkpt>
      <trkpt lat="45.1175" lon="5.18703">
        <ele>339</ele>
        <time>2017-05-07T11:55:15Z</time>
      </trkpt>
      <trkpt lat="45.11738" lon="5.1871">
        <ele>338</ele>
        <time>2017-05-07T11:55:17Z</time>
      </trkpt>
      <trkpt lat="45.11725" lon="5.18716">
        <ele>338</ele>
        <time>2017-05-07T11:55:19Z</time>
      </trkpt>
      <trkpt lat="45.11711" lon="5.18719">
        <ele>337</ele>
        <time>2017-05-07T11:55:21Z</time>
      </trkpt>
      <trkpt lat="45.11695" lon="5.18722">
        <ele>336</ele>
        <time>2017-05-07T11:55:23Z</time>
      </trkpt>
      <trkpt lat="45.1168" lon="5.18729">
        <ele>336</ele>
        <time>2017-05-07T11:55:25Z</time>
      </trkpt>
      <trkpt lat="45.11665" lon="5.18736">
        <ele>333</ele>
        <time>2017-05-07T11:55:27Z</time>
      </trkpt>
      <trkpt lat="45.11652" lon="5.18744">
        <ele>332</ele>
        <time>2017-05-07T11:55:29Z</time>
      </trkpt>
      <trkpt lat="45.11641" lon="5.18752">
        <ele>330</ele>
        <time>2017-05-07T11:55:31Z</time>
      </trkpt>
      <trkpt lat="45.1163" lon="5.1876">
        <ele>329</ele>
        <time>2017-05-07T11:55:33Z</time>
      </trkpt>
      <trkpt lat="45.11595" lon="5.18774">
        <ele>328</ele>
        <time>2017-05-07T11:55:38Z</time>
      </trkpt>
      <trkpt lat="45.1158" lon="5.18777">
        <ele>326</ele>
        <time>2017-05-07T11:55:40Z</time>
      </trkpt>
      <trkpt lat="45.11567" lon="5.18781">
        <ele>325</ele>
        <time>2017-05-07T11:55:42Z</time>
      </trkpt>
      <trkpt lat="45.11553" lon="5.18783">
        <ele>325</ele>
        <time>2017-05-07T11:55:44Z</time>
      </trkpt>
      <trkpt lat="45.11539" lon="5.18787">
        <ele>324</ele>
        <time>2017-05-07T11:55:46Z</time>
      </trkpt>
      <trkpt lat="45.11526" lon="5.18795">
        <ele>324</ele>
        <time>2017-05-07T11:55:48Z</time>
      </trkpt>
      <trkpt lat="45.11513" lon="5.18805">
        <ele>323</ele>
        <time>2017-05-07T11:55:50Z</time>
      </trkpt>
      <trkpt lat="45.11501" lon="5.18817">
        <ele>323</ele>
        <time>2017-05-07T11:55:52Z</time>
      </trkpt>
      <trkpt lat="45.11489" lon="5.18827">
        <ele>321</ele>
        <time>2017-05-07T11:55:54Z</time>
      </trkpt>
      <trkpt lat="45.11479" lon="5.18835">
        <ele>319</ele>
        <time>2017-05-07T11:55:56Z</time>
      </trkpt>
      <trkpt lat="45.11471" lon="5.18841">
        <ele>318</ele>
        <time>2017-05-07T11:55:58Z</time>
      </trkpt>
      <trkpt lat="45.11462" lon="5.18845">
        <ele>318</ele>
        <time>2017-05-07T11:56:03Z</time>
      </trkpt>
      <trkpt lat="45.11452" lon="5.18845">
        <ele>318</ele>
        <time>2017-05-07T11:57:34Z</time>
      </trkpt>
      <trkpt lat="45.11443" lon="5.18841">
        <ele>318</ele>
        <time>2017-05-07T11:57:42Z</time>
      </trkpt>
      <trkpt lat="45.11433" lon="5.18838">
        <ele>318</ele>
        <time>2017-05-07T11:58:06Z</time>
      </trkpt>
      <trkpt lat="45.11424" lon="5.18835">
        <ele>319</ele>
        <time>2017-05-07T11:58:12Z</time>
      </trkpt>
      <trkpt lat="45.11414" lon="5.18829">
        <ele>320</ele>
        <time>2017-05-07T11:58:17Z</time>
      </trkpt>
      <trkpt lat="45.11405" lon="5.18826">
        <ele>319</ele>
        <time>2017-05-07T11:58:22Z</time>
      </trkpt>
      <trkpt lat="45.11395" lon="5.18826">
        <ele>319</ele>
        <time>2017-05-07T11:58:27Z</time>
      </trkpt>
      <trkpt lat="45.11384" lon="5.18824">
        <ele>319</ele>
        <time>2017-05-07T11:58:32Z</time>
      </trkpt>
      <trkpt lat="45.11376" lon="5.1882">
        <ele>319</ele>
        <time>2017-05-07T11:58:38Z</time>
      </trkpt>
      <trkpt lat="45.11366" lon="5.18814">
        <ele>319</ele>
        <time>2017-05-07T11:58:44Z</time>
      </trkpt>
      <trkpt lat="45.11356" lon="5.18808">
        <ele>319</ele>
        <time>2017-05-07T11:58:50Z</time>
      </trkpt>
      <trkpt lat="45.11346" lon="5.18801">
        <ele>319</ele>
        <time>2017-05-07T11:58:54Z</time>
      </trkpt>
      <trkpt lat="45.11335" lon="5.18799">
        <ele>319</ele>
        <time>2017-05-07T11:58:58Z</time>
      </trkpt>
      <trkpt lat="45.11322" lon="5.18795">
        <ele>318</ele>
        <time>2017-05-07T11:59:02Z</time>
      </trkpt>
      <trkpt lat="45.11311" lon="5.18789">
        <ele>318</ele>
        <time>2017-05-07T11:59:06Z</time>
      </trkpt>
      <trkpt lat="45.113" lon="5.18784">
        <ele>318</ele>
        <time>2017-05-07T11:59:09Z</time>
      </trkpt>
      <trkpt lat="45.11292" lon="5.1878">
        <ele>318</ele>
        <time>2017-05-07T11:59:12Z</time>
      </trkpt>
      <trkpt lat="45.11281" lon="5.18774">
        <ele>319</ele>
        <time>2017-05-07T11:59:16Z</time>
      </trkpt>
      <trkpt lat="45.1127" lon="5.18764">
        <ele>319</ele>
        <time>2017-05-07T11:59:20Z</time>
      </trkpt>
      <trkpt lat="45.1126" lon="5.18756">
        <ele>320</ele>
        <time>2017-05-07T11:59:22Z</time>
      </trkpt>
      <trkpt lat="45.11252" lon="5.18747">
        <ele>321</ele>
        <time>2017-05-07T11:59:25Z</time>
      </trkpt>
      <trkpt lat="45.11243" lon="5.1874">
        <ele>318</ele>
        <time>2017-05-07T11:59:28Z</time>
      </trkpt>
      <trkpt lat="45.11236" lon="5.18731">
        <ele>315</ele>
        <time>2017-05-07T11:59:30Z</time>
      </trkpt>
      <trkpt lat="45.11227" lon="5.1872">
        <ele>313</ele>
        <time>2017-05-07T11:59:32Z</time>
      </trkpt>
      <trkpt lat="45.11218" lon="5.18708">
        <ele>312</ele>
        <time>2017-05-07T11:59:34Z</time>
      </trkpt>
      <trkpt lat="45.11211" lon="5.18698">
        <ele>311</ele>
        <time>2017-05-07T11:59:36Z</time>
      </trkpt>
      <trkpt lat="45.11204" lon="5.18685">
        <ele>310</ele>
        <time>2017-05-07T11:59:39Z</time>
      </trkpt>
      <trkpt lat="45.112" lon="5.1867">
        <ele>310</ele>
        <time>2017-05-07T11:59:43Z</time>
      </trkpt>
      <trkpt lat="45.11194" lon="5.18658">
        <ele>308</ele>
        <time>2017-05-07T11:59:47Z</time>
      </trkpt>
      <trkpt lat="45.11189" lon="5.18643">
        <ele>308</ele>
        <time>2017-05-07T11:59:50Z</time>
      </trkpt>
      <trkpt lat="45.1118" lon="5.1863">
        <ele>307</ele>
        <time>2017-05-07T11:59:53Z</time>
      </trkpt>
      <trkpt lat="45.11171" lon="5.18625">
        <ele>307</ele>
        <time>2017-05-07T11:59:59Z</time>
      </trkpt>
      <trkpt lat="45.11167" lon="5.18639">
        <ele>307</ele>
        <time>2017-05-07T12:00:09Z</time>
      </trkpt>
      <trkpt lat="45.11169" lon="5.18651">
        <ele>307</ele>
        <time>2017-05-07T12:00:12Z</time>
      </trkpt>
      <trkpt lat="45.11171" lon="5.18666">
        <ele>306</ele>
        <time>2017-05-07T12:00:16Z</time>
      </trkpt>
      <trkpt lat="45.11164" lon="5.18675">
        <ele>303</ele>
        <time>2017-05-07T12:00:25Z</time>
      </trkpt>
      <trkpt lat="45.11164" lon="5.18689">
        <ele>301</ele>
        <time>2017-05-07T12:00:29Z</time>
      </trkpt>
      <trkpt lat="45.11162" lon="5.18708">
        <ele>300</ele>
        <time>2017-05-07T12:00:32Z</time>
      </trkpt>
      <trkpt lat="45.11159" lon="5.18723">
        <ele>300</ele>
        <time>2017-05-07T12:00:34Z</time>
      </trkpt>
      <trkpt lat="45.11156" lon="5.1874">
        <ele>301</ele>
        <time>2017-05-07T12:00:36Z</time>
      </trkpt>
      <trkpt lat="45.11155" lon="5.18755">
        <ele>300</ele>
        <time>2017-05-07T12:00:38Z</time>
      </trkpt>
      <trkpt lat="45.11153" lon="5.18768">
        <ele>298</ele>
        <time>2017-05-07T12:00:40Z</time>
      </trkpt>
      <trkpt lat="45.1115" lon="5.18781">
        <ele>296</ele>
        <time>2017-05-07T12:00:42Z</time>
      </trkpt>
      <trkpt lat="45.11147" lon="5.18795">
        <ele>295</ele>
        <time>2017-05-07T12:00:44Z</time>
      </trkpt>
      <trkpt lat="45.11143" lon="5.18809">
        <ele>294</ele>
        <time>2017-05-07T12:00:46Z</time>
      </trkpt>
      <trkpt lat="45.11138" lon="5.18826">
        <ele>294</ele>
        <time>2017-05-07T12:00:49Z</time>
      </trkpt>
      <trkpt lat="45.11133" lon="5.18841">
        <ele>289</ele>
        <time>2017-05-07T12:00:53Z</time>
      </trkpt>
      <trkpt lat="45.1114" lon="5.18851">
        <ele>289</ele>
        <time>2017-05-07T12:00:59Z</time>
      </trkpt>
      <trkpt lat="45.1115" lon="5.18858">
        <ele>290</ele>
        <time>2017-05-07T12:01:04Z</time>
      </trkpt>
      <trkpt lat="45.11159" lon="5.18869">
        <ele>289</ele>
        <time>2017-05-07T12:01:07Z</time>
      </trkpt>
      <trkpt lat="45.11169" lon="5.18878">
        <ele>293</ele>
        <time>2017-05-07T12:01:10Z</time>
      </trkpt>
      <trkpt lat="45.11187" lon="5.18891">
        <ele>292</ele>
        <time>2017-05-07T12:01:15Z</time>
      </trkpt>
      <trkpt lat="45.11197" lon="5.18898">
        <ele>293</ele>
        <time>2017-05-07T12:01:17Z</time>
      </trkpt>
      <trkpt lat="45.11206" lon="5.18904">
        <ele>293</ele>
        <time>2017-05-07T12:01:19Z</time>
      </trkpt>
      <trkpt lat="45.11218" lon="5.18914">
        <ele>293</ele>
        <time>2017-05-07T12:01:22Z</time>
      </trkpt>
      <trkpt lat="45.11226" lon="5.1892">
        <ele>287</ele>
        <time>2017-05-07T12:01:24Z</time>
      </trkpt>
      <trkpt lat="45.1124" lon="5.1893">
        <ele>288</ele>
        <time>2017-05-07T12:01:28Z</time>
      </trkpt>
      <trkpt lat="45.11249" lon="5.18941">
        <ele>287</ele>
        <time>2017-05-07T12:01:31Z</time>
      </trkpt>
      <trkpt lat="45.11258" lon="5.18944">
        <ele>290</ele>
        <time>2017-05-07T12:01:34Z</time>
      </trkpt>
      <trkpt lat="45.11267" lon="5.18952">
        <ele>289</ele>
        <time>2017-05-07T12:01:37Z</time>
      </trkpt>
      <trkpt lat="45.11279" lon="5.18955">
        <ele>289</ele>
        <time>2017-05-07T12:01:43Z</time>
      </trkpt>
      <trkpt lat="45.11288" lon="5.18959">
        <ele>289</ele>
        <time>2017-05-07T12:01:47Z</time>
      </trkpt>
      <trkpt lat="45.11299" lon="5.18965">
        <ele>289</ele>
        <time>2017-05-07T12:01:52Z</time>
      </trkpt>
      <trkpt lat="45.11309" lon="5.18971">
        <ele>289</ele>
        <time>2017-05-07T12:01:57Z</time>
      </trkpt>
      <trkpt lat="45.11319" lon="5.18977">
        <ele>289</ele>
        <time>2017-05-07T12:02:01Z</time>
      </trkpt>
      <trkpt lat="45.11328" lon="5.18983">
        <ele>288</ele>
        <time>2017-05-07T12:02:05Z</time>
      </trkpt>
      <trkpt lat="45.11338" lon="5.18987">
        <ele>290</ele>
        <time>2017-05-07T12:02:10Z</time>
      </trkpt>
      <trkpt lat="45.11348" lon="5.18992">
        <ele>291</ele>
        <time>2017-05-07T12:02:15Z</time>
      </trkpt>
      <trkpt lat="45.11358" lon="5.18996">
        <ele>292</ele>
        <time>2017-05-07T12:02:20Z</time>
      </trkpt>
      <trkpt lat="45.11369" lon="5.19001">
        <ele>287</ele>
        <time>2017-05-07T12:02:24Z</time>
      </trkpt>
      <trkpt lat="45.11378" lon="5.19006">
        <ele>288</ele>
        <time>2017-05-07T12:02:27Z</time>
      </trkpt>
      <trkpt lat="45.11387" lon="5.19011">
        <ele>288</ele>
        <time>2017-05-07T12:02:30Z</time>
      </trkpt>
      <trkpt lat="45.11398" lon="5.19017">
        <ele>289</ele>
        <time>2017-05-07T12:02:34Z</time>
      </trkpt>
      <trkpt lat="45.11407" lon="5.19021">
        <ele>289</ele>
        <time>2017-05-07T12:02:37Z</time>
      </trkpt>
      <trkpt lat="45.11416" lon="5.19026">
        <ele>289</ele>
        <time>2017-05-07T12:02:41Z</time>
      </trkpt>
      <trkpt lat="45.11425" lon="5.1903">
        <ele>291</ele>
        <time>2017-05-07T12:02:45Z</time>
      </trkpt>
      <trkpt lat="45.11436" lon="5.19036">
        <ele>291</ele>
        <time>2017-05-07T12:02:50Z</time>
      </trkpt>
      <trkpt lat="45.11447" lon="5.1904">
        <ele>291</ele>
        <time>2017-05-07T12:02:55Z</time>
      </trkpt>
      <trkpt lat="45.11456" lon="5.19046">
        <ele>291</ele>
        <time>2017-05-07T12:03:00Z</time>
      </trkpt>
      <trkpt lat="45.11466" lon="5.19053">
        <ele>291</ele>
        <time>2017-05-07T12:03:05Z</time>
      </trkpt>
      <trkpt lat="45.11475" lon="5.19058">
        <ele>291</ele>
        <time>2017-05-07T12:03:09Z</time>
      </trkpt>
      <trkpt lat="45.11485" lon="5.19065">
        <ele>291</ele>
        <time>2017-05-07T12:03:14Z</time>
      </trkpt>
      <trkpt lat="45.11495" lon="5.19071">
        <ele>291</ele>
        <time>2017-05-07T12:03:19Z</time>
      </trkpt>
      <trkpt lat="45.11503" lon="5.19077">
        <ele>293</ele>
        <time>2017-05-07T12:03:23Z</time>
      </trkpt>
      <trkpt lat="45.11514" lon="5.19083">
        <ele>293</ele>
        <time>2017-05-07T12:03:28Z</time>
      </trkpt>
      <trkpt lat="45.11523" lon="5.19091">
        <ele>294</ele>
        <time>2017-05-07T12:03:33Z</time>
      </trkpt>
      <trkpt lat="45.11532" lon="5.19097">
        <ele>295</ele>
        <time>2017-05-07T12:03:37Z</time>
      </trkpt>
      <trkpt lat="45.1154" lon="5.19103">
        <ele>296</ele>
        <time>2017-05-07T12:03:41Z</time>
      </trkpt>
      <trkpt lat="45.1155" lon="5.19111">
        <ele>296</ele>
        <time>2017-05-07T12:03:46Z</time>
      </trkpt>
      <trkpt lat="45.11559" lon="5.1912">
        <ele>297</ele>
        <time>2017-05-07T12:03:51Z</time>
      </trkpt>
      <trkpt lat="45.11568" lon="5.19129">
        <ele>297</ele>
        <time>2017-05-07T12:03:56Z</time>
      </trkpt>
      <trkpt lat="45.11575" lon="5.19138">
        <ele>297</ele>
        <time>2017-05-07T12:04:01Z</time>
      </trkpt>
      <trkpt lat="45.11584" lon="5.1915">
        <ele>299</ele>
        <time>2017-05-07T12:04:06Z</time>
      </trkpt>
      <trkpt lat="45.11591" lon="5.19161">
        <ele>299</ele>
        <time>2017-05-07T12:04:12Z</time>
      </trkpt>
      <trkpt lat="45.11599" lon="5.19167">
        <ele>297</ele>
        <time>2017-05-07T12:04:18Z</time>
      </trkpt>
      <trkpt lat="45.11608" lon="5.19175">
        <ele>296</ele>
        <time>2017-05-07T12:04:22Z</time>
      </trkpt>
      <trkpt lat="45.11617" lon="5.19183">
        <ele>296</ele>
        <time>2017-05-07T12:04:25Z</time>
      </trkpt>
      <trkpt lat="45.11629" lon="5.19192">
        <ele>295</ele>
        <time>2017-05-07T12:04:28Z</time>
      </trkpt>
      <trkpt lat="45.11639" lon="5.19198">
        <ele>295</ele>
        <time>2017-05-07T12:04:30Z</time>
      </trkpt>
      <trkpt lat="45.1165" lon="5.19206">
        <ele>294</ele>
        <time>2017-05-07T12:04:32Z</time>
      </trkpt>
      <trkpt lat="45.11661" lon="5.19213">
        <ele>293</ele>
        <time>2017-05-07T12:04:34Z</time>
      </trkpt>
      <trkpt lat="45.11673" lon="5.19217">
        <ele>291</ele>
        <time>2017-05-07T12:04:36Z</time>
      </trkpt>
      <trkpt lat="45.11686" lon="5.19221">
        <ele>290</ele>
        <time>2017-05-07T12:04:38Z</time>
      </trkpt>
      <trkpt lat="45.11699" lon="5.19224">
        <ele>290</ele>
        <time>2017-05-07T12:04:40Z</time>
      </trkpt>
      <trkpt lat="45.11714" lon="5.19225">
        <ele>290</ele>
        <time>2017-05-07T12:04:42Z</time>
      </trkpt>
      <trkpt lat="45.11728" lon="5.19227">
        <ele>290</ele>
        <time>2017-05-07T12:04:44Z</time>
      </trkpt>
      <trkpt lat="45.11743" lon="5.19231">
        <ele>289</ele>
        <time>2017-05-07T12:04:46Z</time>
      </trkpt>
      <trkpt lat="45.11755" lon="5.19233">
        <ele>288</ele>
        <time>2017-05-07T12:04:48Z</time>
      </trkpt>
      <trkpt lat="45.11767" lon="5.19234">
        <ele>289</ele>
        <time>2017-05-07T12:04:50Z</time>
      </trkpt>
      <trkpt lat="45.11778" lon="5.19237">
        <ele>289</ele>
        <time>2017-05-07T12:04:52Z</time>
      </trkpt>
      <trkpt lat="45.11786" lon="5.19244">
        <ele>289</ele>
        <time>2017-05-07T12:04:54Z</time>
      </trkpt>
      <trkpt lat="45.11795" lon="5.19255">
        <ele>286</ele>
        <time>2017-05-07T12:04:57Z</time>
      </trkpt>
      <trkpt lat="45.11802" lon="5.19266">
        <ele>286</ele>
        <time>2017-05-07T12:05:01Z</time>
      </trkpt>
      <trkpt lat="45.11812" lon="5.19276">
        <ele>286</ele>
        <time>2017-05-07T12:05:06Z</time>
      </trkpt>
      <trkpt lat="45.11821" lon="5.19283">
        <ele>286</ele>
        <time>2017-05-07T12:05:10Z</time>
      </trkpt>
      <trkpt lat="45.1183" lon="5.19292">
        <ele>286</ele>
        <time>2017-05-07T12:05:15Z</time>
      </trkpt>
      <trkpt lat="45.1184" lon="5.19304">
        <ele>289</ele>
        <time>2017-05-07T12:05:20Z</time>
      </trkpt>
      <trkpt lat="45.1185" lon="5.19314">
        <ele>288</ele>
        <time>2017-05-07T12:05:24Z</time>
      </trkpt>
      <trkpt lat="45.11859" lon="5.19326">
        <ele>288</ele>
        <time>2017-05-07T12:05:28Z</time>
      </trkpt>
      <trkpt lat="45.11868" lon="5.19335">
        <ele>286</ele>
        <time>2017-05-07T12:05:31Z</time>
      </trkpt>
      <trkpt lat="45.11878" lon="5.19347">
        <ele>286</ele>
        <time>2017-05-07T12:05:34Z</time>
      </trkpt>
      <trkpt lat="45.11898" lon="5.19366">
        <ele>286</ele>
        <time>2017-05-07T12:05:39Z</time>
      </trkpt>
      <trkpt lat="45.1191" lon="5.19376">
        <ele>285</ele>
        <time>2017-05-07T12:05:42Z</time>
      </trkpt>
      <trkpt lat="45.11919" lon="5.19383">
        <ele>286</ele>
        <time>2017-05-07T12:05:44Z</time>
      </trkpt>
      <trkpt lat="45.11928" lon="5.19391">
        <ele>286</ele>
        <time>2017-05-07T12:05:46Z</time>
      </trkpt>
      <trkpt lat="45.11938" lon="5.19401">
        <ele>285</ele>
        <time>2017-05-07T12:05:48Z</time>
      </trkpt>
      <trkpt lat="45.11947" lon="5.1941">
        <ele>285</ele>
        <time>2017-05-07T12:05:50Z</time>
      </trkpt>
      <trkpt lat="45.11957" lon="5.19419">
        <ele>281</ele>
        <time>2017-05-07T12:05:52Z</time>
      </trkpt>
      <trkpt lat="45.11968" lon="5.19429">
        <ele>281</ele>
        <time>2017-05-07T12:05:54Z</time>
      </trkpt>
      <trkpt lat="45.11978" lon="5.19437">
        <ele>281</ele>
        <time>2017-05-07T12:05:56Z</time>
      </trkpt>
      <trkpt lat="45.11988" lon="5.19447">
        <ele>281</ele>
        <time>2017-05-07T12:05:58Z</time>
      </trkpt>
      <trkpt lat="45.11997" lon="5.19457">
        <ele>281</ele>
        <time>2017-05-07T12:06:00Z</time>
      </trkpt>
      <trkpt lat="45.12008" lon="5.19467">
        <ele>280</ele>
        <time>2017-05-07T12:06:02Z</time>
      </trkpt>
      <trkpt lat="45.12019" lon="5.19476">
        <ele>279</ele>
        <time>2017-05-07T12:06:04Z</time>
      </trkpt>
      <trkpt lat="45.12029" lon="5.19485">
        <ele>279</ele>
        <time>2017-05-07T12:06:06Z</time>
      </trkpt>
      <trkpt lat="45.12036" lon="5.19496">
        <ele>279</ele>
        <time>2017-05-07T12:06:08Z</time>
      </trkpt>
      <trkpt lat="45.12035" lon="5.19512">
        <ele>275</ele>
        <time>2017-05-07T12:06:11Z</time>
      </trkpt>
      <trkpt lat="45.12029" lon="5.19525">
        <ele>275</ele>
        <time>2017-05-07T12:06:15Z</time>
      </trkpt>
      <trkpt lat="45.12024" lon="5.19537">
        <ele>275</ele>
        <time>2017-05-07T12:06:19Z</time>
      </trkpt>
      <trkpt lat="45.12017" lon="5.19551">
        <ele>274</ele>
        <time>2017-05-07T12:06:24Z</time>
      </trkpt>
      <trkpt lat="45.12008" lon="5.19564">
        <ele>274</ele>
        <time>2017-05-07T12:06:28Z</time>
      </trkpt>
      <trkpt lat="45.12" lon="5.19578">
        <ele>273</ele>
        <time>2017-05-07T12:06:32Z</time>
      </trkpt>
      <trkpt lat="45.11996" lon="5.1959">
        <ele>273</ele>
        <time>2017-05-07T12:06:36Z</time>
      </trkpt>
      <trkpt lat="45.11991" lon="5.19603">
        <ele>273</ele>
        <time>2017-05-07T12:06:39Z</time>
      </trkpt>
      <trkpt lat="45.11982" lon="5.19611">
        <ele>272</ele>
        <time>2017-05-07T12:06:42Z</time>
      </trkpt>
      <trkpt lat="45.11974" lon="5.19622">
        <ele>272</ele>
        <time>2017-05-07T12:06:46Z</time>
      </trkpt>
      <trkpt lat="45.11966" lon="5.19628">
        <ele>272</ele>
        <time>2017-05-07T12:06:50Z</time>
      </trkpt>
      <trkpt lat="45.11971" lon="5.19616">
        <ele>272</ele>
        <time>2017-05-07T12:07:00Z</time>
      </trkpt>
      <trkpt lat="45.11978" lon="5.19605">
        <ele>272</ele>
        <time>2017-05-07T12:07:04Z</time>
      </trkpt>
      <trkpt lat="45.11985" lon="5.19595">
        <ele>273</ele>
        <time>2017-05-07T12:07:08Z</time>
      </trkpt>
      <trkpt lat="45.11991" lon="5.19581">
        <ele>274</ele>
        <time>2017-05-07T12:07:12Z</time>
      </trkpt>
      <trkpt lat="45.11997" lon="5.19569">
        <ele>274</ele>
        <time>2017-05-07T12:07:17Z</time>
      </trkpt>
      <trkpt lat="45.12005" lon="5.19559">
        <ele>274</ele>
        <time>2017-05-07T12:07:22Z</time>
      </trkpt>
      <trkpt lat="45.12012" lon="5.19549">
        <ele>275</ele>
        <time>2017-05-07T12:07:26Z</time>
      </trkpt>
      <trkpt lat="45.12018" lon="5.19538">
        <ele>275</ele>
        <time>2017-05-07T12:07:30Z</time>
      </trkpt>
      <trkpt lat="45.12024" lon="5.19526">
        <ele>275</ele>
        <time>2017-05-07T12:07:34Z</time>
      </trkpt>
      <trkpt lat="45.12031" lon="5.19516">
        <ele>275</ele>
        <time>2017-05-07T12:07:38Z</time>
      </trkpt>
      <trkpt lat="45.12039" lon="5.19504">
        <ele>275</ele>
        <time>2017-05-07T12:07:42Z</time>
      </trkpt>
      <trkpt lat="45.12047" lon="5.19496">
        <ele>279</ele>
        <time>2017-05-07T12:07:45Z</time>
      </trkpt>
      <trkpt lat="45.12056" lon="5.19486">
        <ele>279</ele>
        <time>2017-05-07T12:07:49Z</time>
      </trkpt>
      <trkpt lat="45.12065" lon="5.19479">
        <ele>279</ele>
        <time>2017-05-07T12:07:53Z</time>
      </trkpt>
      <trkpt lat="45.12073" lon="5.19471">
        <ele>279</ele>
        <time>2017-05-07T12:07:58Z</time>
      </trkpt>
      <trkpt lat="45.12082" lon="5.19463">
        <ele>279</ele>
        <time>2017-05-07T12:08:03Z</time>
      </trkpt>
      <trkpt lat="45.1209" lon="5.19457">
        <ele>280</ele>
        <time>2017-05-07T12:08:09Z</time>
      </trkpt>
      <trkpt lat="45.12099" lon="5.19451">
        <ele>280</ele>
        <time>2017-05-07T12:08:13Z</time>
      </trkpt>
      <trkpt lat="45.12108" lon="5.19444">
        <ele>280</ele>
        <time>2017-05-07T12:08:18Z</time>
      </trkpt>
      <trkpt lat="45.12116" lon="5.19438">
        <ele>280</ele>
        <time>2017-05-07T12:08:24Z</time>
      </trkpt>
      <trkpt lat="45.12125" lon="5.19431">
        <ele>280</ele>
        <time>2017-05-07T12:08:30Z</time>
      </trkpt>
      <trkpt lat="45.12133" lon="5.1942">
        <ele>281</ele>
        <time>2017-05-07T12:08:35Z</time>
      </trkpt>
      <trkpt lat="45.12143" lon="5.19412">
        <ele>286</ele>
        <time>2017-05-07T12:08:41Z</time>
      </trkpt>
      <trkpt lat="45.12152" lon="5.19405">
        <ele>285</ele>
        <time>2017-05-07T12:08:45Z</time>
      </trkpt>
      <trkpt lat="45.12162" lon="5.19398">
        <ele>285</ele>
        <time>2017-05-07T12:08:49Z</time>
      </trkpt>
      <trkpt lat="45.1217" lon="5.1939">
        <ele>286</ele>
        <time>2017-05-07T12:08:53Z</time>
      </trkpt>
      <trkpt lat="45.12178" lon="5.19383">
        <ele>287</ele>
        <time>2017-05-07T12:08:58Z</time>
      </trkpt>
      <trkpt lat="45.12188" lon="5.19383">
        <ele>287</ele>
        <time>2017-05-07T12:09:07Z</time>
      </trkpt>
      <trkpt lat="45.12197" lon="5.19376">
        <ele>288</ele>
        <time>2017-05-07T12:09:15Z</time>
      </trkpt>
      <trkpt lat="45.12204" lon="5.19366">
        <ele>289</ele>
        <time>2017-05-07T12:09:21Z</time>
      </trkpt>
      <trkpt lat="45.12213" lon="5.19359">
        <ele>289</ele>
        <time>2017-05-07T12:09:28Z</time>
      </trkpt>
      <trkpt lat="45.12222" lon="5.19353">
        <ele>290</ele>
        <time>2017-05-07T12:09:35Z</time>
      </trkpt>
      <trkpt lat="45.1223" lon="5.19347">
        <ele>290</ele>
        <time>2017-05-07T12:09:42Z</time>
      </trkpt>
      <trkpt lat="45.12237" lon="5.19336">
        <ele>291</ele>
        <time>2017-05-07T12:09:49Z</time>
      </trkpt>
      <trkpt lat="45.12246" lon="5.19329">
        <ele>294</ele>
        <time>2017-05-07T12:09:57Z</time>
      </trkpt>
      <trkpt lat="45.12252" lon="5.19318">
        <ele>299</ele>
        <time>2017-05-07T12:10:03Z</time>
      </trkpt>
      <trkpt lat="45.12255" lon="5.19305">
        <ele>301</ele>
        <time>2017-05-07T12:10:13Z</time>
      </trkpt>
      <trkpt lat="45.12254" lon="5.19292">
        <ele>303</ele>
        <time>2017-05-07T12:10:24Z</time>
      </trkpt>
      <trkpt lat="45.12253" lon="5.19277">
        <ele>303</ele>
        <time>2017-05-07T12:10:33Z</time>
      </trkpt>
      <trkpt lat="45.12253" lon="5.19264">
        <ele>303</ele>
        <time>2017-05-07T12:10:41Z</time>
      </trkpt>
      <trkpt lat="45.12251" lon="5.19251">
        <ele>301</ele>
        <time>2017-05-07T12:10:47Z</time>
      </trkpt>
      <trkpt lat="45.12252" lon="5.19235">
        <ele>305</ele>
        <time>2017-05-07T12:10:53Z</time>
      </trkpt>
      <trkpt lat="45.12252" lon="5.19222">
        <ele>307</ele>
        <time>2017-05-07T12:11:00Z</time>
      </trkpt>
      <trkpt lat="45.12251" lon="5.19207">
        <ele>308</ele>
        <time>2017-05-07T12:11:10Z</time>
      </trkpt>
      <trkpt lat="45.12251" lon="5.19194">
        <ele>308</ele>
        <time>2017-05-07T12:11:18Z</time>
      </trkpt>
      <trkpt lat="45.12252" lon="5.1918">
        <ele>307</ele>
        <time>2017-05-07T12:11:26Z</time>
      </trkpt>
      <trkpt lat="45.12255" lon="5.19166">
        <ele>307</ele>
        <time>2017-05-07T12:11:35Z</time>
      </trkpt>
      <trkpt lat="45.12262" lon="5.19157">
        <ele>309</ele>
        <time>2017-05-07T12:11:41Z</time>
      </trkpt>
      <trkpt lat="45.12268" lon="5.19146">
        <ele>311</ele>
        <time>2017-05-07T12:11:48Z</time>
      </trkpt>
      <trkpt lat="45.12277" lon="5.19138">
        <ele>312</ele>
        <time>2017-05-07T12:11:56Z</time>
      </trkpt>
      <trkpt lat="45.12286" lon="5.19132">
        <ele>313</ele>
        <time>2017-05-07T12:12:06Z</time>
      </trkpt>
      <trkpt lat="45.12296" lon="5.1913">
        <ele>314</ele>
        <time>2017-05-07T12:12:18Z</time>
      </trkpt>
      <trkpt lat="45.12306" lon="5.19127">
        <ele>314</ele>
        <time>2017-05-07T12:12:28Z</time>
      </trkpt>
      <trkpt lat="45.12315" lon="5.19118">
        <ele>314</ele>
        <time>2017-05-07T12:12:35Z</time>
      </trkpt>
      <trkpt lat="45.12324" lon="5.19117">
        <ele>314</ele>
        <time>2017-05-07T12:12:43Z</time>
      </trkpt>
      <trkpt lat="45.12334" lon="5.19113">
        <ele>321</ele>
        <time>2017-05-07T12:12:51Z</time>
      </trkpt>
      <trkpt lat="45.12343" lon="5.19109">
        <ele>321</ele>
        <time>2017-05-07T12:13:00Z</time>
      </trkpt>
      <trkpt lat="45.12351" lon="5.19101">
        <ele>321</ele>
        <time>2017-05-07T12:13:10Z</time>
      </trkpt>
      <trkpt lat="45.12356" lon="5.19088">
        <ele>321</ele>
        <time>2017-05-07T12:13:23Z</time>
      </trkpt>
      <trkpt lat="45.12362" lon="5.19077">
        <ele>324</ele>
        <time>2017-05-07T12:13:32Z</time>
      </trkpt>
      <trkpt lat="45.12371" lon="5.1907">
        <ele>326</ele>
        <time>2017-05-07T12:13:38Z</time>
      </trkpt>
      <trkpt lat="45.1238" lon="5.19078">
        <ele>327</ele>
        <time>2017-05-07T12:13:49Z</time>
      </trkpt>
      <trkpt lat="45.12386" lon="5.19089">
        <ele>325</ele>
        <time>2017-05-07T12:13:59Z</time>
      </trkpt>
      <trkpt lat="45.1239" lon="5.19101">
        <ele>326</ele>
        <time>2017-05-07T12:14:12Z</time>
      </trkpt>
      <trkpt lat="45.124" lon="5.19101">
        <ele>327</ele>
        <time>2017-05-07T12:14:20Z</time>
      </trkpt>
      <trkpt lat="45.12409" lon="5.19101">
        <ele>328</ele>
        <time>2017-05-07T12:14:31Z</time>
      </trkpt>
      <trkpt lat="45.12419" lon="5.19096">
        <ele>331</ele>
        <time>2017-05-07T12:14:37Z</time>
      </trkpt>
      <trkpt lat="45.12427" lon="5.19087">
        <ele>331</ele>
        <time>2017-05-07T12:14:47Z</time>
      </trkpt>
      <trkpt lat="45.1243" lon="5.19074">
        <ele>333</ele>
        <time>2017-05-07T12:14:55Z</time>
      </trkpt>
      <trkpt lat="45.12438" lon="5.19066">
        <ele>333</ele>
        <time>2017-05-07T12:15:03Z</time>
      </trkpt>
      <trkpt lat="45.12444" lon="5.19053">
        <ele>333</ele>
        <time>2017-05-07T12:15:14Z</time>
      </trkpt>
      <trkpt lat="45.12452" lon="5.1904">
        <ele>334</ele>
        <time>2017-05-07T12:15:21Z</time>
      </trkpt>
      <trkpt lat="45.12458" lon="5.19029">
        <ele>334</ele>
        <time>2017-05-07T12:15:25Z</time>
      </trkpt>
      <trkpt lat="45.12466" lon="5.19018">
        <ele>335</ele>
        <time>2017-05-07T12:15:31Z</time>
      </trkpt>
      <trkpt lat="45.12475" lon="5.19012">
        <ele>336</ele>
        <time>2017-05-07T12:15:37Z</time>
      </trkpt>
      <trkpt lat="45.12483" lon="5.19004">
        <ele>336</ele>
        <time>2017-05-07T12:15:45Z</time>
      </trkpt>
      <trkpt lat="45.12494" lon="5.19001">
        <ele>338</ele>
        <time>2017-05-07T12:15:52Z</time>
      </trkpt>
      <trkpt lat="45.12504" lon="5.18999">
        <ele>341</ele>
        <time>2017-05-07T12:15:57Z</time>
      </trkpt>
      <trkpt lat="45.12513" lon="5.18998">
        <ele>343</ele>
        <time>2017-05-07T12:16:03Z</time>
      </trkpt>
      <trkpt lat="45.12522" lon="5.18989">
        <ele>345</ele>
        <time>2017-05-07T12:16:08Z</time>
      </trkpt>
      <trkpt lat="45.12526" lon="5.18977">
        <ele>347</ele>
        <time>2017-05-07T12:16:15Z</time>
      </trkpt>
      <trkpt lat="45.12532" lon="5.18967">
        <ele>349</ele>
        <time>2017-05-07T12:16:22Z</time>
      </trkpt>
      <trkpt lat="45.12539" lon="5.18955">
        <ele>351</ele>
        <time>2017-05-07T12:16:28Z</time>
      </trkpt>
      <trkpt lat="45.12548" lon="5.18946">
        <ele>352</ele>
        <time>2017-05-07T12:16:34Z</time>
      </trkpt>
      <trkpt lat="45.12557" lon="5.18944">
        <ele>352</ele>
        <time>2017-05-07T12:16:40Z</time>
      </trkpt>
      <trkpt lat="45.12567" lon="5.18948">
        <ele>352</ele>
        <time>2017-05-07T12:16:46Z</time>
      </trkpt>
      <trkpt lat="45.12577" lon="5.18947">
        <ele>352</ele>
        <time>2017-05-07T12:16:52Z</time>
      </trkpt>
      <trkpt lat="45.12588" lon="5.18945">
        <ele>353</ele>
        <time>2017-05-07T12:17:02Z</time>
      </trkpt>
      <trkpt lat="45.12597" lon="5.18946">
        <ele>353</ele>
        <time>2017-05-07T12:17:09Z</time>
      </trkpt>
      <trkpt lat="45.12607" lon="5.18952">
        <ele>352</ele>
        <time>2017-05-07T12:17:17Z</time>
      </trkpt>
      <trkpt lat="45.12617" lon="5.18956">
        <ele>351</ele>
        <time>2017-05-07T12:17:23Z</time>
      </trkpt>
      <trkpt lat="45.12627" lon="5.18957">
        <ele>352</ele>
        <time>2017-05-07T12:17:28Z</time>
      </trkpt>
      <trkpt lat="45.12638" lon="5.18956">
        <ele>352</ele>
        <time>2017-05-07T12:17:33Z</time>
      </trkpt>
      <trkpt lat="45.12648" lon="5.18952">
        <ele>353</ele>
        <time>2017-05-07T12:17:39Z</time>
      </trkpt>
      <trkpt lat="45.12659" lon="5.18949">
        <ele>355</ele>
        <time>2017-05-07T12:17:45Z</time>
      </trkpt>
      <trkpt lat="45.12669" lon="5.18949">
        <ele>357</ele>
        <time>2017-05-07T12:17:54Z</time>
      </trkpt>
      <trkpt lat="45.12678" lon="5.18948">
        <ele>357</ele>
        <time>2017-05-07T12:18:00Z</time>
      </trkpt>
      <trkpt lat="45.12687" lon="5.18942">
        <ele>358</ele>
        <time>2017-05-07T12:18:09Z</time>
      </trkpt>
      <trkpt lat="45.12696" lon="5.1894">
        <ele>358</ele>
        <time>2017-05-07T12:18:17Z</time>
      </trkpt>
      <trkpt lat="45.12707" lon="5.18938">
        <ele>357</ele>
        <time>2017-05-07T12:18:25Z</time>
      </trkpt>
      <trkpt lat="45.12716" lon="5.18933">
        <ele>358</ele>
        <time>2017-05-07T12:18:31Z</time>
      </trkpt>
      <trkpt lat="45.12724" lon="5.18928">
        <ele>359</ele>
        <time>2017-05-07T12:18:39Z</time>
      </trkpt>
      <trkpt lat="45.12734" lon="5.18929">
        <ele>360</ele>
        <time>2017-05-07T12:18:46Z</time>
      </trkpt>
      <trkpt lat="45.12744" lon="5.18927">
        <ele>362</ele>
        <time>2017-05-07T12:18:55Z</time>
      </trkpt>
      <trkpt lat="45.12754" lon="5.18922">
        <ele>362</ele>
        <time>2017-05-07T12:19:04Z</time>
      </trkpt>
      <trkpt lat="45.12763" lon="5.18914">
        <ele>366</ele>
        <time>2017-05-07T12:19:12Z</time>
      </trkpt>
      <trkpt lat="45.12771" lon="5.18906">
        <ele>366</ele>
        <time>2017-05-07T12:19:20Z</time>
      </trkpt>
      <trkpt lat="45.1278" lon="5.18898">
        <ele>366</ele>
        <time>2017-05-07T12:19:28Z</time>
      </trkpt>
      <trkpt lat="45.12789" lon="5.18891">
        <ele>366</ele>
        <time>2017-05-07T12:19:36Z</time>
      </trkpt>
      <trkpt lat="45.12797" lon="5.18882">
        <ele>367</ele>
        <time>2017-05-07T12:19:43Z</time>
      </trkpt>
      <trkpt lat="45.12804" lon="5.18871">
        <ele>367</ele>
        <time>2017-05-07T12:19:53Z</time>
      </trkpt>
      <trkpt lat="45.12809" lon="5.18859">
        <ele>368</ele>
        <time>2017-05-07T12:20:01Z</time>
      </trkpt>
      <trkpt lat="45.12816" lon="5.18846">
        <ele>369</ele>
        <time>2017-05-07T12:20:07Z</time>
      </trkpt>
      <trkpt lat="45.12821" lon="5.18832">
        <ele>371</ele>
        <time>2017-05-07T12:20:13Z</time>
      </trkpt>
      <trkpt lat="45.1283" lon="5.18826">
        <ele>371</ele>
        <time>2017-05-07T12:20:19Z</time>
      </trkpt>
      <trkpt lat="45.12841" lon="5.18826">
        <ele>372</ele>
        <time>2017-05-07T12:20:25Z</time>
      </trkpt>
      <trkpt lat="45.12851" lon="5.18826">
        <ele>373</ele>
        <time>2017-05-07T12:20:30Z</time>
      </trkpt>
      <trkpt lat="45.12862" lon="5.18827">
        <ele>374</ele>
        <time>2017-05-07T12:20:36Z</time>
      </trkpt>
      <trkpt lat="45.12872" lon="5.18827">
        <ele>374</ele>
        <time>2017-05-07T12:20:41Z</time>
      </trkpt>
      <trkpt lat="45.12882" lon="5.18827">
        <ele>375</ele>
        <time>2017-05-07T12:20:45Z</time>
      </trkpt>
      <trkpt lat="45.12892" lon="5.18824">
        <ele>375</ele>
        <time>2017-05-07T12:20:50Z</time>
      </trkpt>
      <trkpt lat="45.12903" lon="5.18826">
        <ele>376</ele>
        <time>2017-05-07T12:20:55Z</time>
      </trkpt>
      <trkpt lat="45.12913" lon="5.18828">
        <ele>376</ele>
        <time>2017-05-07T12:21:00Z</time>
      </trkpt>
      <trkpt lat="45.12924" lon="5.18833">
        <ele>379</ele>
        <time>2017-05-07T12:21:06Z</time>
      </trkpt>
      <trkpt lat="45.12934" lon="5.18837">
        <ele>375</ele>
        <time>2017-05-07T12:21:10Z</time>
      </trkpt>
      <trkpt lat="45.12943" lon="5.18842">
        <ele>375</ele>
        <time>2017-05-07T12:21:16Z</time>
      </trkpt>
      <trkpt lat="45.12952" lon="5.18848">
        <ele>376</ele>
        <time>2017-05-07T12:21:21Z</time>
      </trkpt>
      <trkpt lat="45.12962" lon="5.18854">
        <ele>376</ele>
        <time>2017-05-07T12:21:25Z</time>
      </trkpt>
      <trkpt lat="45.12971" lon="5.1886">
        <ele>376</ele>
        <time>2017-05-07T12:21:29Z</time>
      </trkpt>
      <trkpt lat="45.12979" lon="5.1887">
        <ele>376</ele>
        <time>2017-05-07T12:21:34Z</time>
      </trkpt>
      <trkpt lat="45.12987" lon="5.18878">
        <ele>375</ele>
        <time>2017-05-07T12:21:38Z</time>
      </trkpt>
      <trkpt lat="45.12995" lon="5.18887">
        <ele>375</ele>
        <time>2017-05-07T12:21:43Z</time>
      </trkpt>
      <trkpt lat="45.13003" lon="5.18896">
        <ele>381</ele>
        <time>2017-05-07T12:21:47Z</time>
      </trkpt>
      <trkpt lat="45.13011" lon="5.18906">
        <ele>379</ele>
        <time>2017-05-07T12:21:52Z</time>
      </trkpt>
      <trkpt lat="45.13019" lon="5.18914">
        <ele>380</ele>
        <time>2017-05-07T12:21:58Z</time>
      </trkpt>
      <trkpt lat="45.13028" lon="5.18921">
        <ele>371</ele>
        <time>2017-05-07T12:22:04Z</time>
      </trkpt>
      <trkpt lat="45.13039" lon="5.18927">
        <ele>372</ele>
        <time>2017-05-07T12:22:09Z</time>
      </trkpt>
      <trkpt lat="45.13049" lon="5.18934">
        <ele>372</ele>
        <time>2017-05-07T12:22:13Z</time>
      </trkpt>
      <trkpt lat="45.1306" lon="5.18938">
        <ele>373</ele>
        <time>2017-05-07T12:22:18Z</time>
      </trkpt>
      <trkpt lat="45.1307" lon="5.18941">
        <ele>373</ele>
        <time>2017-05-07T12:22:23Z</time>
      </trkpt>
      <trkpt lat="45.13081" lon="5.18941">
        <ele>374</ele>
        <time>2017-05-07T12:22:28Z</time>
      </trkpt>
      <trkpt lat="45.13091" lon="5.18938">
        <ele>379</ele>
        <time>2017-05-07T12:22:34Z</time>
      </trkpt>
      <trkpt lat="45.131" lon="5.18935">
        <ele>379</ele>
        <time>2017-05-07T12:22:41Z</time>
      </trkpt>
      <trkpt lat="45.1311" lon="5.18941">
        <ele>378</ele>
        <time>2017-05-07T12:22:48Z</time>
      </trkpt>
      <trkpt lat="45.13119" lon="5.18943">
        <ele>378</ele>
        <time>2017-05-07T12:22:54Z</time>
      </trkpt>
      <trkpt lat="45.1313" lon="5.18943">
        <ele>378</ele>
        <time>2017-05-07T12:23:00Z</time>
      </trkpt>
      <trkpt lat="45.13139" lon="5.1894">
        <ele>379</ele>
        <time>2017-05-07T12:23:05Z</time>
      </trkpt>
      <trkpt lat="45.13149" lon="5.18941">
        <ele>380</ele>
        <time>2017-05-07T12:23:10Z</time>
      </trkpt>
      <trkpt lat="45.13158" lon="5.18939">
        <ele>381</ele>
        <time>2017-05-07T12:23:18Z</time>
      </trkpt>
      <trkpt lat="45.13168" lon="5.18941">
        <ele>385</ele>
        <time>2017-05-07T12:23:25Z</time>
      </trkpt>
      <trkpt lat="45.13177" lon="5.18948">
        <ele>384</ele>
        <time>2017-05-07T12:23:32Z</time>
      </trkpt>
      <trkpt lat="45.13187" lon="5.18952">
        <ele>384</ele>
        <time>2017-05-07T12:23:38Z</time>
      </trkpt>
      <trkpt lat="45.13198" lon="5.18958">
        <ele>384</ele>
        <time>2017-05-07T12:23:44Z</time>
      </trkpt>
      <trkpt lat="45.13209" lon="5.18961">
        <ele>384</ele>
        <time>2017-05-07T12:23:48Z</time>
      </trkpt>
      <trkpt lat="45.13219" lon="5.18962">
        <ele>384</ele>
        <time>2017-05-07T12:23:55Z</time>
      </trkpt>
      <trkpt lat="45.13229" lon="5.18963">
        <ele>385</ele>
        <time>2017-05-07T12:24:01Z</time>
      </trkpt>
      <trkpt lat="45.1324" lon="5.18959">
        <ele>386</ele>
        <time>2017-05-07T12:24:09Z</time>
      </trkpt>
      <trkpt lat="45.1325" lon="5.1896">
        <ele>391</ele>
        <time>2017-05-07T12:24:16Z</time>
      </trkpt>
      <trkpt lat="45.13262" lon="5.18966">
        <ele>391</ele>
        <time>2017-05-07T12:24:24Z</time>
      </trkpt>
      <trkpt lat="45.13271" lon="5.18971">
        <ele>391</ele>
        <time>2017-05-07T12:24:30Z</time>
      </trkpt>
      <trkpt lat="45.1328" lon="5.18976">
        <ele>391</ele>
        <time>2017-05-07T12:24:37Z</time>
      </trkpt>
      <trkpt lat="45.1329" lon="5.18977">
        <ele>392</ele>
        <time>2017-05-07T12:24:45Z</time>
      </trkpt>
      <trkpt lat="45.133" lon="5.1898">
        <ele>392</ele>
        <time>2017-05-07T12:24:51Z</time>
      </trkpt>
      <trkpt lat="45.13311" lon="5.18983">
        <ele>393</ele>
        <time>2017-05-07T12:24:58Z</time>
      </trkpt>
      <trkpt lat="45.1332" lon="5.18986">
        <ele>393</ele>
        <time>2017-05-07T12:25:06Z</time>
      </trkpt>
      <trkpt lat="45.1333" lon="5.1899">
        <ele>394</ele>
        <time>2017-05-07T12:25:13Z</time>
      </trkpt>
      <trkpt lat="45.13339" lon="5.18995">
        <ele>395</ele>
        <time>2017-05-07T12:25:22Z</time>
      </trkpt>
      <trkpt lat="45.1335" lon="5.18995">
        <ele>395</ele>
        <time>2017-05-07T12:25:29Z</time>
      </trkpt>
      <trkpt lat="45.13358" lon="5.18988">
        <ele>396</ele>
        <time>2017-05-07T12:25:37Z</time>
      </trkpt>
      <trkpt lat="45.13369" lon="5.18984">
        <ele>396</ele>
        <time>2017-05-07T12:25:42Z</time>
      </trkpt>
      <trkpt lat="45.13385" lon="5.18976">
        <ele>396</ele>
        <time>2017-05-07T12:25:48Z</time>
      </trkpt>
      <trkpt lat="45.13395" lon="5.18975">
        <ele>396</ele>
        <time>2017-05-07T12:25:52Z</time>
      </trkpt>
      <trkpt lat="45.13407" lon="5.18977">
        <ele>396</ele>
        <time>2017-05-07T12:25:56Z</time>
      </trkpt>
      <trkpt lat="45.13417" lon="5.18978">
        <ele>396</ele>
        <time>2017-05-07T12:25:59Z</time>
      </trkpt>
      <trkpt lat="45.13426" lon="5.18976">
        <ele>397</ele>
        <time>2017-05-07T12:26:03Z</time>
      </trkpt>
      <trkpt lat="45.13437" lon="5.18973">
        <ele>397</ele>
        <time>2017-05-07T12:26:09Z</time>
      </trkpt>
      <trkpt lat="45.13446" lon="5.18967">
        <ele>398</ele>
        <time>2017-05-07T12:26:17Z</time>
      </trkpt>
      <trkpt lat="45.13455" lon="5.18962">
        <ele>398</ele>
        <time>2017-05-07T12:26:24Z</time>
      </trkpt>
      <trkpt lat="45.13464" lon="5.18957">
        <ele>399</ele>
        <time>2017-05-07T12:26:31Z</time>
      </trkpt>
      <trkpt lat="45.13473" lon="5.18952">
        <ele>399</ele>
        <time>2017-05-07T12:26:37Z</time>
      </trkpt>
      <trkpt lat="45.13482" lon="5.18949">
        <ele>400</ele>
        <time>2017-05-07T12:26:44Z</time>
      </trkpt>
      <trkpt lat="45.13491" lon="5.18946">
        <ele>400</ele>
        <time>2017-05-07T12:26:51Z</time>
      </trkpt>
      <trkpt lat="45.13502" lon="5.18945">
        <ele>405</ele>
        <time>2017-05-07T12:26:58Z</time>
      </trkpt>
      <trkpt lat="45.13512" lon="5.18943">
        <ele>405</ele>
        <time>2017-05-07T12:27:05Z</time>
      </trkpt>
      <trkpt lat="45.13522" lon="5.18945">
        <ele>406</ele>
        <time>2017-05-07T12:27:11Z</time>
      </trkpt>
      <trkpt lat="45.13533" lon="5.18946">
        <ele>406</ele>
        <time>2017-05-07T12:27:19Z</time>
      </trkpt>
      <trkpt lat="45.13542" lon="5.18951">
        <ele>407</ele>
        <time>2017-05-07T12:27:25Z</time>
      </trkpt>
      <trkpt lat="45.13551" lon="5.18957">
        <ele>407</ele>
        <time>2017-05-07T12:27:33Z</time>
      </trkpt>
      <trkpt lat="45.1356" lon="5.18961">
        <ele>408</ele>
        <time>2017-05-07T12:27:41Z</time>
      </trkpt>
      <trkpt lat="45.13569" lon="5.18968">
        <ele>408</ele>
        <time>2017-05-07T12:27:49Z</time>
      </trkpt>
      <trkpt lat="45.13577" lon="5.18976">
        <ele>408</ele>
        <time>2017-05-07T12:27:56Z</time>
      </trkpt>
      <trkpt lat="45.13585" lon="5.18982">
        <ele>414</ele>
        <time>2017-05-07T12:28:03Z</time>
      </trkpt>
      <trkpt lat="45.13594" lon="5.18989">
        <ele>414</ele>
        <time>2017-05-07T12:28:12Z</time>
      </trkpt>
      <trkpt lat="45.13603" lon="5.18994">
        <ele>415</ele>
        <time>2017-05-07T12:28:21Z</time>
      </trkpt>
      <trkpt lat="45.13612" lon="5.19001">
        <ele>412</ele>
        <time>2017-05-07T12:28:30Z</time>
      </trkpt>
      <trkpt lat="45.1362" lon="5.19007">
        <ele>413</ele>
        <time>2017-05-07T12:28:39Z</time>
      </trkpt>
      <trkpt lat="45.1363" lon="5.1901">
        <ele>414</ele>
        <time>2017-05-07T12:28:48Z</time>
      </trkpt>
      <trkpt lat="45.13639" lon="5.19012">
        <ele>416</ele>
        <time>2017-05-07T12:28:57Z</time>
      </trkpt>
      <trkpt lat="45.13648" lon="5.19005">
        <ele>417</ele>
        <time>2017-05-07T12:29:08Z</time>
      </trkpt>
      <trkpt lat="45.13655" lon="5.18995">
        <ele>421</ele>
        <time>2017-05-07T12:29:30Z</time>
      </trkpt>
      <trkpt lat="45.13663" lon="5.18987">
        <ele>422</ele>
        <time>2017-05-07T12:29:39Z</time>
      </trkpt>
      <trkpt lat="45.13671" lon="5.1898">
        <ele>427</ele>
        <time>2017-05-07T12:29:57Z</time>
      </trkpt>
      <trkpt lat="45.13681" lon="5.18983">
        <ele>427</ele>
        <time>2017-05-07T12:33:18Z</time>
      </trkpt>
      <trkpt lat="45.13672" lon="5.18978">
        <ele>427</ele>
        <time>2017-05-07T12:33:44Z</time>
      </trkpt>
      <trkpt lat="45.13681" lon="5.18977">
        <ele>428</ele>
        <time>2017-05-07T12:57:44Z</time>
      </trkpt>
      <trkpt lat="45.13674" lon="5.18986">
        <ele>426</ele>
        <time>2017-05-07T12:58:54Z</time>
      </trkpt>
      <trkpt lat="45.13671" lon="5.18974">
        <ele>427</ele>
        <time>2017-05-07T13:02:50Z</time>
      </trkpt>
      <trkpt lat="45.13674" lon="5.18987">
        <ele>426</ele>
        <time>2017-05-07T13:04:32Z</time>
      </trkpt>
      <trkpt lat="45.13678" lon="5.19001">
        <ele>424</ele>
        <time>2017-05-07T13:04:37Z</time>
      </trkpt>
      <trkpt lat="45.13681" lon="5.19014">
        <ele>424</ele>
        <time>2017-05-07T13:04:42Z</time>
      </trkpt>
      <trkpt lat="45.13685" lon="5.19027">
        <ele>425</ele>
        <time>2017-05-07T13:04:47Z</time>
      </trkpt>
      <trkpt lat="45.13688" lon="5.19041">
        <ele>424</ele>
        <time>2017-05-07T13:04:52Z</time>
      </trkpt>
      <trkpt lat="45.13692" lon="5.19057">
        <ele>424</ele>
        <time>2017-05-07T13:04:55Z</time>
      </trkpt>
      <trkpt lat="45.13696" lon="5.19072">
        <ele>423</ele>
        <time>2017-05-07T13:04:58Z</time>
      </trkpt>
      <trkpt lat="45.13704" lon="5.19083">
        <ele>420</ele>
        <time>2017-05-07T13:05:02Z</time>
      </trkpt>
      <trkpt lat="45.13711" lon="5.19097">
        <ele>421</ele>
        <time>2017-05-07T13:05:09Z</time>
      </trkpt>
      <trkpt lat="45.13711" lon="5.19112">
        <ele>420</ele>
        <time>2017-05-07T13:05:13Z</time>
      </trkpt>
      <trkpt lat="45.13713" lon="5.19127">
        <ele>420</ele>
        <time>2017-05-07T13:05:16Z</time>
      </trkpt>
      <trkpt lat="45.13713" lon="5.19145">
        <ele>419</ele>
        <time>2017-05-07T13:05:19Z</time>
      </trkpt>
      <trkpt lat="45.13702" lon="5.19155">
        <ele>418</ele>
        <time>2017-05-07T13:05:22Z</time>
      </trkpt>
      <trkpt lat="45.13692" lon="5.19155">
        <ele>417</ele>
        <time>2017-05-07T13:05:24Z</time>
      </trkpt>
      <trkpt lat="45.13683" lon="5.1915">
        <ele>416</ele>
        <time>2017-05-07T13:05:26Z</time>
      </trkpt>
      <trkpt lat="45.13674" lon="5.19141">
        <ele>416</ele>
        <time>2017-05-07T13:05:28Z</time>
      </trkpt>
      <trkpt lat="45.13662" lon="5.19133">
        <ele>409</ele>
        <time>2017-05-07T13:05:31Z</time>
      </trkpt>
      <trkpt lat="45.13653" lon="5.19144">
        <ele>408</ele>
        <time>2017-05-07T13:05:33Z</time>
      </trkpt>
      <trkpt lat="45.13648" lon="5.19158">
        <ele>408</ele>
        <time>2017-05-07T13:05:35Z</time>
      </trkpt>
      <trkpt lat="45.13648" lon="5.19172">
        <ele>404</ele>
        <time>2017-05-07T13:05:37Z</time>
      </trkpt>
      <trkpt lat="45.13651" lon="5.19186">
        <ele>403</ele>
        <time>2017-05-07T13:05:39Z</time>
      </trkpt>
      <trkpt lat="45.13659" lon="5.19204">
        <ele>401</ele>
        <time>2017-05-07T13:05:42Z</time>
      </trkpt>
      <trkpt lat="45.13666" lon="5.19219">
        <ele>400</ele>
        <time>2017-05-07T13:05:45Z</time>
      </trkpt>
      <trkpt lat="45.13673" lon="5.19229">
        <ele>405</ele>
        <time>2017-05-07T13:05:47Z</time>
      </trkpt>
      <trkpt lat="45.1368" lon="5.19237">
        <ele>404</ele>
        <time>2017-05-07T13:05:49Z</time>
      </trkpt>
      <trkpt lat="45.13691" lon="5.19248">
        <ele>405</ele>
        <time>2017-05-07T13:05:52Z</time>
      </trkpt>
      <trkpt lat="45.13702" lon="5.19258">
        <ele>400</ele>
        <time>2017-05-07T13:05:55Z</time>
      </trkpt>
      <trkpt lat="45.13713" lon="5.19266">
        <ele>401</ele>
        <time>2017-05-07T13:05:58Z</time>
      </trkpt>
      <trkpt lat="45.13721" lon="5.19275">
        <ele>401</ele>
        <time>2017-05-07T13:06:01Z</time>
      </trkpt>
      <trkpt lat="45.1373" lon="5.19283">
        <ele>401</ele>
        <time>2017-05-07T13:06:06Z</time>
      </trkpt>
      <trkpt lat="45.13739" lon="5.19286">
        <ele>401</ele>
        <time>2017-05-07T13:06:15Z</time>
      </trkpt>
      <trkpt lat="45.13749" lon="5.19287">
        <ele>401</ele>
        <time>2017-05-07T13:06:22Z</time>
      </trkpt>
      <trkpt lat="45.13758" lon="5.19296">
        <ele>407</ele>
        <time>2017-05-07T13:06:26Z</time>
      </trkpt>
      <trkpt lat="45.13765" lon="5.19306">
        <ele>406</ele>
        <time>2017-05-07T13:06:29Z</time>
      </trkpt>
      <trkpt lat="45.13775" lon="5.19311">
        <ele>406</ele>
        <time>2017-05-07T13:06:32Z</time>
      </trkpt>
      <trkpt lat="45.13786" lon="5.19316">
        <ele>407</ele>
        <time>2017-05-07T13:06:35Z</time>
      </trkpt>
      <trkpt lat="45.13797" lon="5.19319">
        <ele>407</ele>
        <time>2017-05-07T13:06:38Z</time>
      </trkpt>
      <trkpt lat="45.13807" lon="5.1932">
        <ele>407</ele>
        <time>2017-05-07T13:06:42Z</time>
      </trkpt>
      <trkpt lat="45.13819" lon="5.19317">
        <ele>407</ele>
        <time>2017-05-07T13:06:48Z</time>
      </trkpt>
      <trkpt lat="45.13831" lon="5.19319">
        <ele>407</ele>
        <time>2017-05-07T13:06:52Z</time>
      </trkpt>
      <trkpt lat="45.1384" lon="5.19328">
        <ele>409</ele>
        <time>2017-05-07T13:06:55Z</time>
      </trkpt>
      <trkpt lat="45.13844" lon="5.19345">
        <ele>408</ele>
        <time>2017-05-07T13:06:58Z</time>
      </trkpt>
      <trkpt lat="45.13842" lon="5.19359">
        <ele>408</ele>
        <time>2017-05-07T13:07:01Z</time>
      </trkpt>
      <trkpt lat="45.1384" lon="5.19376">
        <ele>407</ele>
        <time>2017-05-07T13:07:04Z</time>
      </trkpt>
      <trkpt lat="45.13839" lon="5.19392">
        <ele>406</ele>
        <time>2017-05-07T13:07:08Z</time>
      </trkpt>
      <trkpt lat="45.13837" lon="5.19406">
        <ele>404</ele>
        <time>2017-05-07T13:07:14Z</time>
      </trkpt>
      <trkpt lat="45.13835" lon="5.19419">
        <ele>402</ele>
        <time>2017-05-07T13:07:18Z</time>
      </trkpt>
      <trkpt lat="45.13835" lon="5.19435">
        <ele>403</ele>
        <time>2017-05-07T13:07:22Z</time>
      </trkpt>
      <trkpt lat="45.13833" lon="5.19448">
        <ele>403</ele>
        <time>2017-05-07T13:07:24Z</time>
      </trkpt>
      <trkpt lat="45.13839" lon="5.19463">
        <ele>402</ele>
        <time>2017-05-07T13:07:27Z</time>
      </trkpt>
      <trkpt lat="45.13845" lon="5.19476">
        <ele>401</ele>
        <time>2017-05-07T13:07:31Z</time>
      </trkpt>
      <trkpt lat="45.13845" lon="5.19492">
        <ele>399</ele>
        <time>2017-05-07T13:07:35Z</time>
      </trkpt>
      <trkpt lat="45.13848" lon="5.19507">
        <ele>397</ele>
        <time>2017-05-07T13:07:40Z</time>
      </trkpt>
      <trkpt lat="45.13849" lon="5.1952">
        <ele>398</ele>
        <time>2017-05-07T13:07:46Z</time>
      </trkpt>
      <trkpt lat="45.13853" lon="5.19536">
        <ele>399</ele>
        <time>2017-05-07T13:07:51Z</time>
      </trkpt>
      <trkpt lat="45.1386" lon="5.19546">
        <ele>399</ele>
        <time>2017-05-07T13:07:55Z</time>
      </trkpt>
      <trkpt lat="45.13866" lon="5.1956">
        <ele>399</ele>
        <time>2017-05-07T13:07:59Z</time>
      </trkpt>
      <trkpt lat="45.13872" lon="5.19571">
        <ele>400</ele>
        <time>2017-05-07T13:08:04Z</time>
      </trkpt>
      <trkpt lat="45.1388" lon="5.19584">
        <ele>399</ele>
        <time>2017-05-07T13:08:09Z</time>
      </trkpt>
      <trkpt lat="45.13886" lon="5.19597">
        <ele>400</ele>
        <time>2017-05-07T13:08:13Z</time>
      </trkpt>
      <trkpt lat="45.13893" lon="5.19611">
        <ele>400</ele>
        <time>2017-05-07T13:08:17Z</time>
      </trkpt>
      <trkpt lat="45.13899" lon="5.19628">
        <ele>400</ele>
        <time>2017-05-07T13:08:21Z</time>
      </trkpt>
      <trkpt lat="45.13902" lon="5.19643">
        <ele>401</ele>
        <time>2017-05-07T13:08:24Z</time>
      </trkpt>
      <trkpt lat="45.13905" lon="5.19663">
        <ele>402</ele>
        <time>2017-05-07T13:08:27Z</time>
      </trkpt>
      <trkpt lat="45.13906" lon="5.19676">
        <ele>402</ele>
        <time>2017-05-07T13:08:29Z</time>
      </trkpt>
      <trkpt lat="45.13906" lon="5.1969">
        <ele>401</ele>
        <time>2017-05-07T13:08:32Z</time>
      </trkpt>
      <trkpt lat="45.13907" lon="5.19709">
        <ele>400</ele>
        <time>2017-05-07T13:08:35Z</time>
      </trkpt>
      <trkpt lat="45.13905" lon="5.19725">
        <ele>400</ele>
        <time>2017-05-07T13:08:38Z</time>
      </trkpt>
      <trkpt lat="45.13898" lon="5.19737">
        <ele>400</ele>
        <time>2017-05-07T13:08:41Z</time>
      </trkpt>
      <trkpt lat="45.13895" lon="5.19752">
        <ele>400</ele>
        <time>2017-05-07T13:08:45Z</time>
      </trkpt>
      <trkpt lat="45.13891" lon="5.19766">
        <ele>400</ele>
        <time>2017-05-07T13:08:50Z</time>
      </trkpt>
      <trkpt lat="45.13894" lon="5.1978">
        <ele>400</ele>
        <time>2017-05-07T13:08:56Z</time>
      </trkpt>
      <trkpt lat="45.13903" lon="5.19781">
        <ele>400</ele>
        <time>2017-05-07T13:09:00Z</time>
      </trkpt>
      <trkpt lat="45.13913" lon="5.19785">
        <ele>400</ele>
        <time>2017-05-07T13:09:04Z</time>
      </trkpt>
      <trkpt lat="45.13921" lon="5.19799">
        <ele>396</ele>
        <time>2017-05-07T13:09:08Z</time>
      </trkpt>
      <trkpt lat="45.1392" lon="5.19816">
        <ele>396</ele>
        <time>2017-05-07T13:09:11Z</time>
      </trkpt>
      <trkpt lat="45.13917" lon="5.19828">
        <ele>398</ele>
        <time>2017-05-07T13:09:15Z</time>
      </trkpt>
      <trkpt lat="45.13925" lon="5.1984">
        <ele>394</ele>
        <time>2017-05-07T13:09:20Z</time>
      </trkpt>
      <trkpt lat="45.13931" lon="5.19851">
        <ele>392</ele>
        <time>2017-05-07T13:09:23Z</time>
      </trkpt>
      <trkpt lat="45.13938" lon="5.1986">
        <ele>391</ele>
        <time>2017-05-07T13:09:26Z</time>
      </trkpt>
      <trkpt lat="45.13941" lon="5.19874">
        <ele>390</ele>
        <time>2017-05-07T13:09:29Z</time>
      </trkpt>
      <trkpt lat="45.13948" lon="5.19887">
        <ele>389</ele>
        <time>2017-05-07T13:09:32Z</time>
      </trkpt>
      <trkpt lat="45.13954" lon="5.19899">
        <ele>388</ele>
        <time>2017-05-07T13:09:36Z</time>
      </trkpt>
      <trkpt lat="45.13959" lon="5.19912">
        <ele>388</ele>
        <time>2017-05-07T13:09:40Z</time>
      </trkpt>
      <trkpt lat="45.13954" lon="5.19928">
        <ele>385</ele>
        <time>2017-05-07T13:09:43Z</time>
      </trkpt>
      <trkpt lat="45.13948" lon="5.19942">
        <ele>385</ele>
        <time>2017-05-07T13:09:46Z</time>
      </trkpt>
      <trkpt lat="45.13943" lon="5.19955">
        <ele>385</ele>
        <time>2017-05-07T13:09:49Z</time>
      </trkpt>
      <trkpt lat="45.13939" lon="5.1997">
        <ele>385</ele>
        <time>2017-05-07T13:09:52Z</time>
      </trkpt>
      <trkpt lat="45.13936" lon="5.19984">
        <ele>385</ele>
        <time>2017-05-07T13:09:55Z</time>
      </trkpt>
      <trkpt lat="45.13933" lon="5.19997">
        <ele>385</ele>
        <time>2017-05-07T13:09:59Z</time>
      </trkpt>
      <trkpt lat="45.13933" lon="5.20011">
        <ele>381</ele>
        <time>2017-05-07T13:10:09Z</time>
      </trkpt>
      <trkpt lat="45.1394" lon="5.2002">
        <ele>379</ele>
        <time>2017-05-07T13:10:15Z</time>
      </trkpt>
      <trkpt lat="45.13947" lon="5.20032">
        <ele>378</ele>
        <time>2017-05-07T13:10:21Z</time>
      </trkpt>
      <trkpt lat="45.13953" lon="5.20042">
        <ele>377</ele>
        <time>2017-05-07T13:10:26Z</time>
      </trkpt>
      <trkpt lat="45.1396" lon="5.20051">
        <ele>377</ele>
        <time>2017-05-07T13:10:30Z</time>
      </trkpt>
      <trkpt lat="45.13963" lon="5.20064">
        <ele>376</ele>
        <time>2017-05-07T13:10:34Z</time>
      </trkpt>
      <trkpt lat="45.13962" lon="5.20079">
        <ele>375</ele>
        <time>2017-05-07T13:10:38Z</time>
      </trkpt>
      <trkpt lat="45.13955" lon="5.2009">
        <ele>369</ele>
        <time>2017-05-07T13:10:42Z</time>
      </trkpt>
      <trkpt lat="45.13949" lon="5.20101">
        <ele>369</ele>
        <time>2017-05-07T13:10:48Z</time>
      </trkpt>
      <trkpt lat="45.13942" lon="5.20114">
        <ele>369</ele>
        <time>2017-05-07T13:10:53Z</time>
      </trkpt>
      <trkpt lat="45.13934" lon="5.20127">
        <ele>368</ele>
        <time>2017-05-07T13:10:59Z</time>
      </trkpt>
      <trkpt lat="45.13929" lon="5.20139">
        <ele>367</ele>
        <time>2017-05-07T13:11:03Z</time>
      </trkpt>
      <trkpt lat="45.13924" lon="5.20152">
        <ele>365</ele>
        <time>2017-05-07T13:11:08Z</time>
      </trkpt>
      <trkpt lat="45.13919" lon="5.20165">
        <ele>363</ele>
        <time>2017-05-07T13:11:13Z</time>
      </trkpt>
      <trkpt lat="45.13908" lon="5.20171">
        <ele>362</ele>
        <time>2017-05-07T13:11:19Z</time>
      </trkpt>
      <trkpt lat="45.13896" lon="5.20175">
        <ele>362</ele>
        <time>2017-05-07T13:11:22Z</time>
      </trkpt>
      <trkpt lat="45.13886" lon="5.20178">
        <ele>362</ele>
        <time>2017-05-07T13:11:25Z</time>
      </trkpt>
      <trkpt lat="45.13873" lon="5.20185">
        <ele>362</ele>
        <time>2017-05-07T13:11:30Z</time>
      </trkpt>
      <trkpt lat="45.13861" lon="5.20187">
        <ele>362</ele>
        <time>2017-05-07T13:11:32Z</time>
      </trkpt>
      <trkpt lat="45.13852" lon="5.20192">
        <ele>362</ele>
        <time>2017-05-07T13:11:35Z</time>
      </trkpt>
      <trkpt lat="45.13842" lon="5.20196">
        <ele>361</ele>
        <time>2017-05-07T13:11:40Z</time>
      </trkpt>
      <trkpt lat="45.13836" lon="5.20206">
        <ele>361</ele>
        <time>2017-05-07T13:11:44Z</time>
      </trkpt>
      <trkpt lat="45.13834" lon="5.20222">
        <ele>360</ele>
        <time>2017-05-07T13:11:49Z</time>
      </trkpt>
      <trkpt lat="45.13827" lon="5.20231">
        <ele>357</ele>
        <time>2017-05-07T13:11:53Z</time>
      </trkpt>
      <trkpt lat="45.1382" lon="5.2024">
        <ele>357</ele>
        <time>2017-05-07T13:12:00Z</time>
      </trkpt>
      <trkpt lat="45.13816" lon="5.20253">
        <ele>355</ele>
        <time>2017-05-07T13:12:07Z</time>
      </trkpt>
      <trkpt lat="45.13813" lon="5.20267">
        <ele>355</ele>
        <time>2017-05-07T13:12:13Z</time>
      </trkpt>
      <trkpt lat="45.13805" lon="5.20275">
        <ele>355</ele>
        <time>2017-05-07T13:12:19Z</time>
      </trkpt>
      <trkpt lat="45.13804" lon="5.20288">
        <ele>354</ele>
        <time>2017-05-07T13:12:26Z</time>
      </trkpt>
      <trkpt lat="45.138" lon="5.20301">
        <ele>354</ele>
        <time>2017-05-07T13:12:31Z</time>
      </trkpt>
      <trkpt lat="45.13798" lon="5.20314">
        <ele>354</ele>
        <time>2017-05-07T13:12:37Z</time>
      </trkpt>
      <trkpt lat="45.13798" lon="5.20328">
        <ele>354</ele>
        <time>2017-05-07T13:12:44Z</time>
      </trkpt>
      <trkpt lat="45.13792" lon="5.20339">
        <ele>352</ele>
        <time>2017-05-07T13:12:50Z</time>
      </trkpt>
      <trkpt lat="45.13797" lon="5.20352">
        <ele>353</ele>
        <time>2017-05-07T13:13:05Z</time>
      </trkpt>
      <trkpt lat="45.13805" lon="5.2036">
        <ele>354</ele>
        <time>2017-05-07T13:13:11Z</time>
      </trkpt>
      <trkpt lat="45.13814" lon="5.20364">
        <ele>354</ele>
        <time>2017-05-07T13:13:19Z</time>
      </trkpt>
      <trkpt lat="45.13822" lon="5.20374">
        <ele>355</ele>
        <time>2017-05-07T13:13:31Z</time>
      </trkpt>
      <trkpt lat="45.1383" lon="5.20381">
        <ele>355</ele>
        <time>2017-05-07T13:13:44Z</time>
      </trkpt>
      <trkpt lat="45.13837" lon="5.20391">
        <ele>367</ele>
        <time>2017-05-07T13:13:54Z</time>
      </trkpt>
      <trkpt lat="45.13844" lon="5.20401">
        <ele>366</ele>
        <time>2017-05-07T13:14:03Z</time>
      </trkpt>
      <trkpt lat="45.13852" lon="5.2041">
        <ele>367</ele>
        <time>2017-05-07T13:14:10Z</time>
      </trkpt>
      <trkpt lat="45.13861" lon="5.20415">
        <ele>368</ele>
        <time>2017-05-07T13:14:21Z</time>
      </trkpt>
      <trkpt lat="45.13868" lon="5.20423">
        <ele>368</ele>
        <time>2017-05-07T13:14:34Z</time>
      </trkpt>
      <trkpt lat="45.13875" lon="5.20433">
        <ele>369</ele>
        <time>2017-05-07T13:14:44Z</time>
      </trkpt>
      <trkpt lat="45.13884" lon="5.20439">
        <ele>370</ele>
        <time>2017-05-07T13:14:54Z</time>
      </trkpt>
      <trkpt lat="45.13891" lon="5.20448">
        <ele>370</ele>
        <time>2017-05-07T13:15:05Z</time>
      </trkpt>
      <trkpt lat="45.139" lon="5.20452">
        <ele>371</ele>
        <time>2017-05-07T13:15:12Z</time>
      </trkpt>
      <trkpt lat="45.1391" lon="5.20457">
        <ele>371</ele>
        <time>2017-05-07T13:15:21Z</time>
      </trkpt>
      <trkpt lat="45.13921" lon="5.20458">
        <ele>377</ele>
        <time>2017-05-07T13:15:30Z</time>
      </trkpt>
      <trkpt lat="45.13931" lon="5.20454">
        <ele>377</ele>
        <time>2017-05-07T13:15:38Z</time>
      </trkpt>
      <trkpt lat="45.1394" lon="5.20449">
        <ele>377</ele>
        <time>2017-05-07T13:15:45Z</time>
      </trkpt>
      <trkpt lat="45.13948" lon="5.20444">
        <ele>377</ele>
        <time>2017-05-07T13:15:52Z</time>
      </trkpt>
      <trkpt lat="45.13958" lon="5.20439">
        <ele>377</ele>
        <time>2017-05-07T13:15:59Z</time>
      </trkpt>
      <trkpt lat="45.13967" lon="5.20433">
        <ele>378</ele>
        <time>2017-05-07T13:16:05Z</time>
      </trkpt>
      <trkpt lat="45.13976" lon="5.20426">
        <ele>378</ele>
        <time>2017-05-07T13:16:12Z</time>
      </trkpt>
      <trkpt lat="45.13987" lon="5.20419">
        <ele>379</ele>
        <time>2017-05-07T13:16:19Z</time>
      </trkpt>
      <trkpt lat="45.13997" lon="5.20414">
        <ele>380</ele>
        <time>2017-05-07T13:16:23Z</time>
      </trkpt>
      <trkpt lat="45.14007" lon="5.20412">
        <ele>381</ele>
        <time>2017-05-07T13:16:26Z</time>
      </trkpt>
      <trkpt lat="45.1402" lon="5.20409">
        <ele>381</ele>
        <time>2017-05-07T13:16:29Z</time>
      </trkpt>
      <trkpt lat="45.14033" lon="5.20413">
        <ele>382</ele>
        <time>2017-05-07T13:16:32Z</time>
      </trkpt>
      <trkpt lat="45.14042" lon="5.20417">
        <ele>380</ele>
        <time>2017-05-07T13:16:34Z</time>
      </trkpt>
      <trkpt lat="45.14052" lon="5.20425">
        <ele>380</ele>
        <time>2017-05-07T13:16:37Z</time>
      </trkpt>
      <trkpt lat="45.1406" lon="5.20432">
        <ele>380</ele>
        <time>2017-05-07T13:16:40Z</time>
      </trkpt>
      <trkpt lat="45.14069" lon="5.20438">
        <ele>380</ele>
        <time>2017-05-07T13:16:44Z</time>
      </trkpt>
      <trkpt lat="45.14079" lon="5.20448">
        <ele>380</ele>
        <time>2017-05-07T13:16:49Z</time>
      </trkpt>
      <trkpt lat="45.14087" lon="5.20457">
        <ele>383</ele>
        <time>2017-05-07T13:16:53Z</time>
      </trkpt>
      <trkpt lat="45.14096" lon="5.20464">
        <ele>383</ele>
        <time>2017-05-07T13:16:58Z</time>
      </trkpt>
      <trkpt lat="45.14107" lon="5.20467">
        <ele>383</ele>
        <time>2017-05-07T13:17:04Z</time>
      </trkpt>
      <trkpt lat="45.14117" lon="5.20463">
        <ele>384</ele>
        <time>2017-05-07T13:17:09Z</time>
      </trkpt>
      <trkpt lat="45.14126" lon="5.20458">
        <ele>384</ele>
        <time>2017-05-07T13:17:15Z</time>
      </trkpt>
      <trkpt lat="45.14135" lon="5.2045">
        <ele>385</ele>
        <time>2017-05-07T13:17:22Z</time>
      </trkpt>
      <trkpt lat="45.14143" lon="5.20441">
        <ele>385</ele>
        <time>2017-05-07T13:17:29Z</time>
      </trkpt>
      <trkpt lat="45.14152" lon="5.20435">
        <ele>386</ele>
        <time>2017-05-07T13:17:35Z</time>
      </trkpt>
      <trkpt lat="45.14161" lon="5.20426">
        <ele>387</ele>
        <time>2017-05-07T13:17:42Z</time>
      </trkpt>
      <trkpt lat="45.14169" lon="5.20417">
        <ele>389</ele>
        <time>2017-05-07T13:17:49Z</time>
      </trkpt>
      <trkpt lat="45.14177" lon="5.20409">
        <ele>390</ele>
        <time>2017-05-07T13:17:55Z</time>
      </trkpt>
      <trkpt lat="45.14185" lon="5.20401">
        <ele>390</ele>
        <time>2017-05-07T13:18:01Z</time>
      </trkpt>
      <trkpt lat="45.14194" lon="5.20394">
        <ele>390</ele>
        <time>2017-05-07T13:18:07Z</time>
      </trkpt>
      <trkpt lat="45.14202" lon="5.20385">
        <ele>391</ele>
        <time>2017-05-07T13:18:14Z</time>
      </trkpt>
      <trkpt lat="45.1421" lon="5.20379">
        <ele>391</ele>
        <time>2017-05-07T13:18:21Z</time>
      </trkpt>
      <trkpt lat="45.14209" lon="5.20392">
        <ele>390</ele>
        <time>2017-05-07T13:19:45Z</time>
      </trkpt>
      <trkpt lat="45.14205" lon="5.20407">
        <ele>390</ele>
        <time>2017-05-07T13:19:49Z</time>
      </trkpt>
      <trkpt lat="45.14202" lon="5.20423">
        <ele>387</ele>
        <time>2017-05-07T13:19:53Z</time>
      </trkpt>
      <trkpt lat="45.14198" lon="5.20437">
        <ele>387</ele>
        <time>2017-05-07T13:19:56Z</time>
      </trkpt>
      <trkpt lat="45.14193" lon="5.20455">
        <ele>387</ele>
        <time>2017-05-07T13:19:59Z</time>
      </trkpt>
      <trkpt lat="45.1419" lon="5.2047">
        <ele>387</ele>
        <time>2017-05-07T13:20:01Z</time>
      </trkpt>
      <trkpt lat="45.14188" lon="5.20486">
        <ele>387</ele>
        <time>2017-05-07T13:20:03Z</time>
      </trkpt>
      <trkpt lat="45.14183" lon="5.20503">
        <ele>385</ele>
        <time>2017-05-07T13:20:05Z</time>
      </trkpt>
      <trkpt lat="45.14179" lon="5.20522">
        <ele>385</ele>
        <time>2017-05-07T13:20:07Z</time>
      </trkpt>
      <trkpt lat="45.14173" lon="5.20541">
        <ele>384</ele>
        <time>2017-05-07T13:20:09Z</time>
      </trkpt>
      <trkpt lat="45.14168" lon="5.2056">
        <ele>384</ele>
        <time>2017-05-07T13:20:11Z</time>
      </trkpt>
      <trkpt lat="45.14163" lon="5.20576">
        <ele>382</ele>
        <time>2017-05-07T13:20:13Z</time>
      </trkpt>
      <trkpt lat="45.14158" lon="5.20594">
        <ele>380</ele>
        <time>2017-05-07T13:20:15Z</time>
      </trkpt>
      <trkpt lat="45.14156" lon="5.20609">
        <ele>377</ele>
        <time>2017-05-07T13:20:17Z</time>
      </trkpt>
      <trkpt lat="45.14158" lon="5.20626">
        <ele>376</ele>
        <time>2017-05-07T13:20:19Z</time>
      </trkpt>
      <trkpt lat="45.14161" lon="5.20639">
        <ele>376</ele>
        <time>2017-05-07T13:20:21Z</time>
      </trkpt>
      <trkpt lat="45.14161" lon="5.20657">
        <ele>376</ele>
        <time>2017-05-07T13:20:24Z</time>
      </trkpt>
      <trkpt lat="45.14163" lon="5.20671">
        <ele>374</ele>
        <time>2017-05-07T13:20:27Z</time>
      </trkpt>
      <trkpt lat="45.14166" lon="5.20684">
        <ele>371</ele>
        <time>2017-05-07T13:20:31Z</time>
      </trkpt>
      <trkpt lat="45.14167" lon="5.20701">
        <ele>369</ele>
        <time>2017-05-07T13:20:37Z</time>
      </trkpt>
      <trkpt lat="45.14166" lon="5.20718">
        <ele>367</ele>
        <time>2017-05-07T13:20:44Z</time>
      </trkpt>
      <trkpt lat="45.14161" lon="5.20736">
        <ele>365</ele>
        <time>2017-05-07T13:20:49Z</time>
      </trkpt>
      <trkpt lat="45.14153" lon="5.20751">
        <ele>361</ele>
        <time>2017-05-07T13:20:52Z</time>
      </trkpt>
      <trkpt lat="45.1415" lon="5.20766">
        <ele>360</ele>
        <time>2017-05-07T13:20:54Z</time>
      </trkpt>
      <trkpt lat="45.14151" lon="5.20787">
        <ele>358</ele>
        <time>2017-05-07T13:20:56Z</time>
      </trkpt>
      <trkpt lat="45.14147" lon="5.20808">
        <ele>356</ele>
        <time>2017-05-07T13:20:58Z</time>
      </trkpt>
      <trkpt lat="45.14139" lon="5.20823">
        <ele>356</ele>
        <time>2017-05-07T13:21:00Z</time>
      </trkpt>
      <trkpt lat="45.14128" lon="5.20832">
        <ele>355</ele>
        <time>2017-05-07T13:21:02Z</time>
      </trkpt>
      <trkpt lat="45.14113" lon="5.20838">
        <ele>350</ele>
        <time>2017-05-07T13:21:04Z</time>
      </trkpt>
      <trkpt lat="45.141" lon="5.20842">
        <ele>350</ele>
        <time>2017-05-07T13:21:06Z</time>
      </trkpt>
      <trkpt lat="45.14089" lon="5.20846">
        <ele>350</ele>
        <time>2017-05-07T13:21:08Z</time>
      </trkpt>
      <trkpt lat="45.14076" lon="5.20851">
        <ele>349</ele>
        <time>2017-05-07T13:21:10Z</time>
      </trkpt>
      <trkpt lat="45.14064" lon="5.20856">
        <ele>348</ele>
        <time>2017-05-07T13:21:12Z</time>
      </trkpt>
      <trkpt lat="45.14051" lon="5.20861">
        <ele>347</ele>
        <time>2017-05-07T13:21:14Z</time>
      </trkpt>
      <trkpt lat="45.14037" lon="5.20864">
        <ele>347</ele>
        <time>2017-05-07T13:21:16Z</time>
      </trkpt>
      <trkpt lat="45.14025" lon="5.2087">
        <ele>347</ele>
        <time>2017-05-07T13:21:18Z</time>
      </trkpt>
      <trkpt lat="45.14018" lon="5.20886">
        <ele>346</ele>
        <time>2017-05-07T13:21:21Z</time>
      </trkpt>
      <trkpt lat="45.14018" lon="5.20902">
        <ele>345</ele>
        <time>2017-05-07T13:21:23Z</time>
      </trkpt>
      <trkpt lat="45.14019" lon="5.20918">
        <ele>342</ele>
        <time>2017-05-07T13:21:25Z</time>
      </trkpt>
      <trkpt lat="45.14019" lon="5.20933">
        <ele>342</ele>
        <time>2017-05-07T13:21:27Z</time>
      </trkpt>
      <trkpt lat="45.14017" lon="5.20949">
        <ele>341</ele>
        <time>2017-05-07T13:21:29Z</time>
      </trkpt>
      <trkpt lat="45.14013" lon="5.20966">
        <ele>341</ele>
        <time>2017-05-07T13:21:31Z</time>
      </trkpt>
      <trkpt lat="45.1401" lon="5.20984">
        <ele>340</ele>
        <time>2017-05-07T13:21:33Z</time>
      </trkpt>
      <trkpt lat="45.14006" lon="5.21">
        <ele>338</ele>
        <time>2017-05-07T13:21:35Z</time>
      </trkpt>
      <trkpt lat="45.14003" lon="5.21018">
        <ele>337</ele>
        <time>2017-05-07T13:21:37Z</time>
      </trkpt>
      <trkpt lat="45.13996" lon="5.21033">
        <ele>335</ele>
        <time>2017-05-07T13:21:40Z</time>
      </trkpt>
      <trkpt lat="45.13984" lon="5.21041">
        <ele>334</ele>
        <time>2017-05-07T13:21:43Z</time>
      </trkpt>
      <trkpt lat="45.13973" lon="5.21049">
        <ele>334</ele>
        <time>2017-05-07T13:21:45Z</time>
      </trkpt>
      <trkpt lat="45.13962" lon="5.21057">
        <ele>333</ele>
        <time>2017-05-07T13:21:47Z</time>
      </trkpt>
      <trkpt lat="45.13952" lon="5.21062">
        <ele>333</ele>
        <time>2017-05-07T13:21:49Z</time>
      </trkpt>
      <trkpt lat="45.13944" lon="5.2107">
        <ele>332</ele>
        <time>2017-05-07T13:21:52Z</time>
      </trkpt>
      <trkpt lat="45.13952" lon="5.21081">
        <ele>332</ele>
        <time>2017-05-07T13:21:55Z</time>
      </trkpt>
      <trkpt lat="45.13964" lon="5.21087">
        <ele>329</ele>
        <time>2017-05-07T13:21:57Z</time>
      </trkpt>
      <trkpt lat="45.13976" lon="5.21095">
        <ele>329</ele>
        <time>2017-05-07T13:21:59Z</time>
      </trkpt>
      <trkpt lat="45.13981" lon="5.2111">
        <ele>329</ele>
        <time>2017-05-07T13:22:01Z</time>
      </trkpt>
      <trkpt lat="45.13978" lon="5.21128">
        <ele>328</ele>
        <time>2017-05-07T13:22:03Z</time>
      </trkpt>
      <trkpt lat="45.13973" lon="5.21144">
        <ele>328</ele>
        <time>2017-05-07T13:22:05Z</time>
      </trkpt>
      <trkpt lat="45.13969" lon="5.21159">
        <ele>328</ele>
        <time>2017-05-07T13:22:08Z</time>
      </trkpt>
      <trkpt lat="45.13967" lon="5.21173">
        <ele>329</ele>
        <time>2017-05-07T13:22:15Z</time>
      </trkpt>
      <trkpt lat="45.13963" lon="5.21186">
        <ele>329</ele>
        <time>2017-05-07T13:22:26Z</time>
      </trkpt>
      <trkpt lat="45.13964" lon="5.21201">
        <ele>330</ele>
        <time>2017-05-07T13:22:35Z</time>
      </trkpt>
      <trkpt lat="45.13961" lon="5.21213">
        <ele>330</ele>
        <time>2017-05-07T13:22:42Z</time>
      </trkpt>
      <trkpt lat="45.13956" lon="5.21225">
        <ele>331</ele>
        <time>2017-05-07T13:22:49Z</time>
      </trkpt>
      <trkpt lat="45.1395" lon="5.21237">
        <ele>331</ele>
        <time>2017-05-07T13:22:55Z</time>
      </trkpt>
      <trkpt lat="45.13945" lon="5.21248">
        <ele>331</ele>
        <time>2017-05-07T13:23:01Z</time>
      </trkpt>
      <trkpt lat="45.1394" lon="5.21259">
        <ele>333</ele>
        <time>2017-05-07T13:23:07Z</time>
      </trkpt>
      <trkpt lat="45.13934" lon="5.21271">
        <ele>333</ele>
        <time>2017-05-07T13:23:15Z</time>
      </trkpt>
      <trkpt lat="45.13929" lon="5.21283">
        <ele>333</ele>
        <time>2017-05-07T13:23:22Z</time>
      </trkpt>
      <trkpt lat="45.13921" lon="5.21292">
        <ele>333</ele>
        <time>2017-05-07T13:23:27Z</time>
      </trkpt>
      <trkpt lat="45.13914" lon="5.21301">
        <ele>331</ele>
        <time>2017-05-07T13:23:31Z</time>
      </trkpt>
      <trkpt lat="45.13907" lon="5.21311">
        <ele>331</ele>
        <time>2017-05-07T13:23:34Z</time>
      </trkpt>
      <trkpt lat="45.13901" lon="5.21321">
        <ele>331</ele>
        <time>2017-05-07T13:23:38Z</time>
      </trkpt>
      <trkpt lat="45.13896" lon="5.21334">
        <ele>331</ele>
        <time>2017-05-07T13:23:43Z</time>
      </trkpt>
      <trkpt lat="45.13891" lon="5.21347">
        <ele>330</ele>
        <time>2017-05-07T13:23:47Z</time>
      </trkpt>
      <trkpt lat="45.13902" lon="5.21348">
        <ele>331</ele>
        <time>2017-05-07T13:23:55Z</time>
      </trkpt>
      <trkpt lat="45.13914" lon="5.21347">
        <ele>331</ele>
        <time>2017-05-07T13:24:00Z</time>
      </trkpt>
      <trkpt lat="45.13924" lon="5.21345">
        <ele>332</ele>
        <time>2017-05-07T13:24:05Z</time>
      </trkpt>
      <trkpt lat="45.13934" lon="5.21342">
        <ele>333</ele>
        <time>2017-05-07T13:24:10Z</time>
      </trkpt>
      <trkpt lat="45.13943" lon="5.21338">
        <ele>333</ele>
        <time>2017-05-07T13:24:15Z</time>
      </trkpt>
      <trkpt lat="45.13953" lon="5.21335">
        <ele>333</ele>
        <time>2017-05-07T13:24:21Z</time>
      </trkpt>
      <trkpt lat="45.13964" lon="5.21332">
        <ele>334</ele>
        <time>2017-05-07T13:24:26Z</time>
      </trkpt>
      <trkpt lat="45.13973" lon="5.21327">
        <ele>334</ele>
        <time>2017-05-07T13:24:31Z</time>
      </trkpt>
      <trkpt lat="45.13982" lon="5.21321">
        <ele>334</ele>
        <time>2017-05-07T13:24:36Z</time>
      </trkpt>
      <trkpt lat="45.13992" lon="5.21321">
        <ele>335</ele>
        <time>2017-05-07T13:24:42Z</time>
      </trkpt>
      <trkpt lat="45.14003" lon="5.21318">
        <ele>336</ele>
        <time>2017-05-07T13:24:48Z</time>
      </trkpt>
      <trkpt lat="45.14013" lon="5.21314">
        <ele>336</ele>
        <time>2017-05-07T13:24:54Z</time>
      </trkpt>
      <trkpt lat="45.14022" lon="5.21309">
        <ele>336</ele>
        <time>2017-05-07T13:24:59Z</time>
      </trkpt>
      <trkpt lat="45.14032" lon="5.21305">
        <ele>336</ele>
        <time>2017-05-07T13:25:04Z</time>
      </trkpt>
      <trkpt lat="45.14041" lon="5.213">
        <ele>336</ele>
        <time>2017-05-07T13:25:09Z</time>
      </trkpt>
      <trkpt lat="45.14051" lon="5.21294">
        <ele>336</ele>
        <time>2017-05-07T13:25:14Z</time>
      </trkpt>
      <trkpt lat="45.1406" lon="5.2129">
        <ele>336</ele>
        <time>2017-05-07T13:25:19Z</time>
      </trkpt>
      <trkpt lat="45.14069" lon="5.21284">
        <ele>336</ele>
        <time>2017-05-07T13:25:24Z</time>
      </trkpt>
      <trkpt lat="45.14078" lon="5.21281">
        <ele>337</ele>
        <time>2017-05-07T13:25:29Z</time>
      </trkpt>
      <trkpt lat="45.14086" lon="5.21276">
        <ele>338</ele>
        <time>2017-05-07T13:25:34Z</time>
      </trkpt>
      <trkpt lat="45.14096" lon="5.21272">
        <ele>338</ele>
        <time>2017-05-07T13:25:39Z</time>
      </trkpt>
      <trkpt lat="45.14106" lon="5.21268">
        <ele>338</ele>
        <time>2017-05-07T13:25:44Z</time>
      </trkpt>
      <trkpt lat="45.14115" lon="5.21265">
        <ele>339</ele>
        <time>2017-05-07T13:25:49Z</time>
      </trkpt>
      <trkpt lat="45.14124" lon="5.21261">
        <ele>339</ele>
        <time>2017-05-07T13:25:54Z</time>
      </trkpt>
      <trkpt lat="45.14133" lon="5.21256">
        <ele>339</ele>
        <time>2017-05-07T13:26:00Z</time>
      </trkpt>
      <trkpt lat="45.14142" lon="5.21247">
        <ele>340</ele>
        <time>2017-05-07T13:26:06Z</time>
      </trkpt>
      <trkpt lat="45.14149" lon="5.21237">
        <ele>340</ele>
        <time>2017-05-07T13:26:12Z</time>
      </trkpt>
      <trkpt lat="45.14155" lon="5.21224">
        <ele>340</ele>
        <time>2017-05-07T13:26:17Z</time>
      </trkpt>
      <trkpt lat="45.14161" lon="5.21212">
        <ele>340</ele>
        <time>2017-05-07T13:26:22Z</time>
      </trkpt>
      <trkpt lat="45.14168" lon="5.21202">
        <ele>340</ele>
        <time>2017-05-07T13:26:27Z</time>
      </trkpt>
      <trkpt lat="45.14173" lon="5.2119">
        <ele>340</ele>
        <time>2017-05-07T13:26:32Z</time>
      </trkpt>
      <trkpt lat="45.14179" lon="5.21179">
        <ele>341</ele>
        <time>2017-05-07T13:26:37Z</time>
      </trkpt>
      <trkpt lat="45.14185" lon="5.21168">
        <ele>341</ele>
        <time>2017-05-07T13:26:43Z</time>
      </trkpt>
      <trkpt lat="45.1419" lon="5.21155">
        <ele>343</ele>
        <time>2017-05-07T13:26:48Z</time>
      </trkpt>
      <trkpt lat="45.14195" lon="5.21141">
        <ele>343</ele>
        <time>2017-05-07T13:26:53Z</time>
      </trkpt>
      <trkpt lat="45.142" lon="5.21128">
        <ele>344</ele>
        <time>2017-05-07T13:26:58Z</time>
      </trkpt>
      <trkpt lat="45.14205" lon="5.21115">
        <ele>344</ele>
        <time>2017-05-07T13:27:03Z</time>
      </trkpt>
      <trkpt lat="45.1421" lon="5.21102">
        <ele>345</ele>
        <time>2017-05-07T13:27:07Z</time>
      </trkpt>
      <trkpt lat="45.14215" lon="5.21087">
        <ele>345</ele>
        <time>2017-05-07T13:27:12Z</time>
      </trkpt>
      <trkpt lat="45.14221" lon="5.21076">
        <ele>348</ele>
        <time>2017-05-07T13:27:16Z</time>
      </trkpt>
      <trkpt lat="45.14228" lon="5.21064">
        <ele>348</ele>
        <time>2017-05-07T13:27:21Z</time>
      </trkpt>
      <trkpt lat="45.14236" lon="5.21056">
        <ele>348</ele>
        <time>2017-05-07T13:27:26Z</time>
      </trkpt>
      <trkpt lat="45.14245" lon="5.21048">
        <ele>349</ele>
        <time>2017-05-07T13:27:32Z</time>
      </trkpt>
      <trkpt lat="45.14254" lon="5.21041">
        <ele>353</ele>
        <time>2017-05-07T13:27:36Z</time>
      </trkpt>
      <trkpt lat="45.14262" lon="5.21034">
        <ele>353</ele>
        <time>2017-05-07T13:27:40Z</time>
      </trkpt>
      <trkpt lat="45.14271" lon="5.21027">
        <ele>354</ele>
        <time>2017-05-07T13:27:44Z</time>
      </trkpt>
      <trkpt lat="45.1428" lon="5.21023">
        <ele>354</ele>
        <time>2017-05-07T13:27:48Z</time>
      </trkpt>
      <trkpt lat="45.14291" lon="5.21018">
        <ele>354</ele>
        <time>2017-05-07T13:27:53Z</time>
      </trkpt>
      <trkpt lat="45.14303" lon="5.21015">
        <ele>355</ele>
        <time>2017-05-07T13:27:59Z</time>
      </trkpt>
      <trkpt lat="45.14312" lon="5.21011">
        <ele>355</ele>
        <time>2017-05-07T13:28:04Z</time>
      </trkpt>
      <trkpt lat="45.14322" lon="5.21008">
        <ele>356</ele>
        <time>2017-05-07T13:28:10Z</time>
      </trkpt>
      <trkpt lat="45.14333" lon="5.21008">
        <ele>357</ele>
        <time>2017-05-07T13:28:16Z</time>
      </trkpt>
      <trkpt lat="45.14342" lon="5.21004">
        <ele>358</ele>
        <time>2017-05-07T13:28:21Z</time>
      </trkpt>
      <trkpt lat="45.14353" lon="5.21002">
        <ele>358</ele>
        <time>2017-05-07T13:28:27Z</time>
      </trkpt>
      <trkpt lat="45.14362" lon="5.21">
        <ele>359</ele>
        <time>2017-05-07T13:28:32Z</time>
      </trkpt>
      <trkpt lat="45.14373" lon="5.21">
        <ele>362</ele>
        <time>2017-05-07T13:28:38Z</time>
      </trkpt>
      <trkpt lat="45.14383" lon="5.20998">
        <ele>362</ele>
        <time>2017-05-07T13:28:44Z</time>
      </trkpt>
      <trkpt lat="45.14394" lon="5.20997">
        <ele>363</ele>
        <time>2017-05-07T13:28:50Z</time>
      </trkpt>
      <trkpt lat="45.14404" lon="5.20995">
        <ele>363</ele>
        <time>2017-05-07T13:28:56Z</time>
      </trkpt>
      <trkpt lat="45.14414" lon="5.20992">
        <ele>364</ele>
        <time>2017-05-07T13:29:01Z</time>
      </trkpt>
      <trkpt lat="45.14423" lon="5.20991">
        <ele>366</ele>
        <time>2017-05-07T13:29:07Z</time>
      </trkpt>
      <trkpt lat="45.14434" lon="5.20991">
        <ele>366</ele>
        <time>2017-05-07T13:29:13Z</time>
      </trkpt>
      <trkpt lat="45.14444" lon="5.2099">
        <ele>367</ele>
        <time>2017-05-07T13:29:19Z</time>
      </trkpt>
      <trkpt lat="45.14453" lon="5.20987">
        <ele>368</ele>
        <time>2017-05-07T13:29:25Z</time>
      </trkpt>
      <trkpt lat="45.14463" lon="5.20984">
        <ele>368</ele>
        <time>2017-05-07T13:29:32Z</time>
      </trkpt>
      <trkpt lat="45.14472" lon="5.20982">
        <ele>369</ele>
        <time>2017-05-07T13:29:39Z</time>
      </trkpt>
      <trkpt lat="45.14482" lon="5.20981">
        <ele>369</ele>
        <time>2017-05-07T13:29:45Z</time>
      </trkpt>
      <trkpt lat="45.14492" lon="5.2098">
        <ele>370</ele>
        <time>2017-05-07T13:29:51Z</time>
      </trkpt>
      <trkpt lat="45.14502" lon="5.20979">
        <ele>373</ele>
        <time>2017-05-07T13:29:58Z</time>
      </trkpt>
      <trkpt lat="45.14512" lon="5.20977">
        <ele>374</ele>
        <time>2017-05-07T13:30:06Z</time>
      </trkpt>
      <trkpt lat="45.14523" lon="5.20975">
        <ele>375</ele>
        <time>2017-05-07T13:30:13Z</time>
      </trkpt>
      <trkpt lat="45.14533" lon="5.20971">
        <ele>375</ele>
        <time>2017-05-07T13:30:21Z</time>
      </trkpt>
      <trkpt lat="45.14544" lon="5.2097">
        <ele>376</ele>
        <time>2017-05-07T13:30:28Z</time>
      </trkpt>
      <trkpt lat="45.14554" lon="5.20967">
        <ele>376</ele>
        <time>2017-05-07T13:30:35Z</time>
      </trkpt>
      <trkpt lat="45.14564" lon="5.20965">
        <ele>377</ele>
        <time>2017-05-07T13:30:41Z</time>
      </trkpt>
      <trkpt lat="45.14573" lon="5.20964">
        <ele>377</ele>
        <time>2017-05-07T13:30:48Z</time>
      </trkpt>
      <trkpt lat="45.14584" lon="5.20961">
        <ele>384</ele>
        <time>2017-05-07T13:30:55Z</time>
      </trkpt>
      <trkpt lat="45.14592" lon="5.20956">
        <ele>384</ele>
        <time>2017-05-07T13:31:02Z</time>
      </trkpt>
      <trkpt lat="45.14599" lon="5.20946">
        <ele>384</ele>
        <time>2017-05-07T13:31:09Z</time>
      </trkpt>
      <trkpt lat="45.14605" lon="5.20933">
        <ele>384</ele>
        <time>2017-05-07T13:31:17Z</time>
      </trkpt>
      <trkpt lat="45.1461" lon="5.20921">
        <ele>384</ele>
        <time>2017-05-07T13:31:23Z</time>
      </trkpt>
      <trkpt lat="45.14615" lon="5.20909">
        <ele>386</ele>
        <time>2017-05-07T13:31:30Z</time>
      </trkpt>
      <trkpt lat="45.14621" lon="5.20898">
        <ele>387</ele>
        <time>2017-05-07T13:31:37Z</time>
      </trkpt>
      <trkpt lat="45.14625" lon="5.20885">
        <ele>387</ele>
        <time>2017-05-07T13:31:43Z</time>
      </trkpt>
      <trkpt lat="45.1463" lon="5.20871">
        <ele>388</ele>
        <time>2017-05-07T13:31:49Z</time>
      </trkpt>
      <trkpt lat="45.14634" lon="5.20859">
        <ele>388</ele>
        <time>2017-05-07T13:31:55Z</time>
      </trkpt>
      <trkpt lat="45.14641" lon="5.20848">
        <ele>389</ele>
        <time>2017-05-07T13:32:02Z</time>
      </trkpt>
      <trkpt lat="45.14648" lon="5.20838">
        <ele>391</ele>
        <time>2017-05-07T13:32:11Z</time>
      </trkpt>
      <trkpt lat="45.14657" lon="5.20833">
        <ele>393</ele>
        <time>2017-05-07T13:32:20Z</time>
      </trkpt>
      <trkpt lat="45.14666" lon="5.20828">
        <ele>394</ele>
        <time>2017-05-07T13:32:31Z</time>
      </trkpt>
      <trkpt lat="45.14676" lon="5.20828">
        <ele>397</ele>
        <time>2017-05-07T13:32:40Z</time>
      </trkpt>
      <trkpt lat="45.14685" lon="5.20826">
        <ele>399</ele>
        <time>2017-05-07T13:32:50Z</time>
      </trkpt>
      <trkpt lat="45.14696" lon="5.20823">
        <ele>400</ele>
        <time>2017-05-07T13:32:57Z</time>
      </trkpt>
      <trkpt lat="45.14706" lon="5.20822">
        <ele>401</ele>
        <time>2017-05-07T13:33:05Z</time>
      </trkpt>
      <trkpt lat="45.14716" lon="5.20822">
        <ele>402</ele>
        <time>2017-05-07T13:33:13Z</time>
      </trkpt>
      <trkpt lat="45.14727" lon="5.2082">
        <ele>403</ele>
        <time>2017-05-07T13:33:22Z</time>
      </trkpt>
      <trkpt lat="45.14736" lon="5.20818">
        <ele>404</ele>
        <time>2017-05-07T13:33:30Z</time>
      </trkpt>
      <trkpt lat="45.14746" lon="5.20819">
        <ele>404</ele>
        <time>2017-05-07T13:33:37Z</time>
      </trkpt>
      <trkpt lat="45.14755" lon="5.2082">
        <ele>407</ele>
        <time>2017-05-07T13:33:44Z</time>
      </trkpt>
      <trkpt lat="45.14765" lon="5.20821">
        <ele>407</ele>
        <time>2017-05-07T13:33:51Z</time>
      </trkpt>
      <trkpt lat="45.14775" lon="5.2082">
        <ele>408</ele>
        <time>2017-05-07T13:33:58Z</time>
      </trkpt>
      <trkpt lat="45.14784" lon="5.20816">
        <ele>408</ele>
        <time>2017-05-07T13:34:05Z</time>
      </trkpt>
      <trkpt lat="45.14794" lon="5.20812">
        <ele>408</ele>
        <time>2017-05-07T13:34:10Z</time>
      </trkpt>
      <trkpt lat="45.14804" lon="5.20808">
        <ele>408</ele>
        <time>2017-05-07T13:34:14Z</time>
      </trkpt>
      <trkpt lat="45.14813" lon="5.20806">
        <ele>408</ele>
        <time>2017-05-07T13:34:18Z</time>
      </trkpt>
      <trkpt lat="45.14823" lon="5.20802">
        <ele>409</ele>
        <time>2017-05-07T13:34:22Z</time>
      </trkpt>
      <trkpt lat="45.14833" lon="5.20799">
        <ele>410</ele>
        <time>2017-05-07T13:34:26Z</time>
      </trkpt>
      <trkpt lat="45.14844" lon="5.20797">
        <ele>410</ele>
        <time>2017-05-07T13:34:30Z</time>
      </trkpt>
      <trkpt lat="45.14853" lon="5.20794">
        <ele>410</ele>
        <time>2017-05-07T13:34:34Z</time>
      </trkpt>
      <trkpt lat="45.14863" lon="5.20791">
        <ele>411</ele>
        <time>2017-05-07T13:34:38Z</time>
      </trkpt>
      <trkpt lat="45.14873" lon="5.20788">
        <ele>411</ele>
        <time>2017-05-07T13:34:43Z</time>
      </trkpt>
      <trkpt lat="45.14882" lon="5.20785">
        <ele>411</ele>
        <time>2017-05-07T13:34:48Z</time>
      </trkpt>
      <trkpt lat="45.14893" lon="5.20781">
        <ele>411</ele>
        <time>2017-05-07T13:34:53Z</time>
      </trkpt>
      <trkpt lat="45.14902" lon="5.20777">
        <ele>412</ele>
        <time>2017-05-07T13:34:58Z</time>
      </trkpt>
      <trkpt lat="45.14911" lon="5.2077">
        <ele>413</ele>
        <time>2017-05-07T13:35:03Z</time>
      </trkpt>
      <trkpt lat="45.14919" lon="5.20761">
        <ele>415</ele>
        <time>2017-05-07T13:35:09Z</time>
      </trkpt>
      <trkpt lat="45.14926" lon="5.2075">
        <ele>417</ele>
        <time>2017-05-07T13:35:16Z</time>
      </trkpt>
      <trkpt lat="45.14931" lon="5.20737">
        <ele>418</ele>
        <time>2017-05-07T13:35:24Z</time>
      </trkpt>
      <trkpt lat="45.14935" lon="5.20724">
        <ele>419</ele>
        <time>2017-05-07T13:35:31Z</time>
      </trkpt>
      <trkpt lat="45.1494" lon="5.20712">
        <ele>420</ele>
        <time>2017-05-07T13:35:38Z</time>
      </trkpt>
      <trkpt lat="45.14947" lon="5.20701">
        <ele>421</ele>
        <time>2017-05-07T13:35:46Z</time>
      </trkpt>
      <trkpt lat="45.14953" lon="5.20691">
        <ele>421</ele>
        <time>2017-05-07T13:35:53Z</time>
      </trkpt>
      <trkpt lat="45.14961" lon="5.20682">
        <ele>422</ele>
        <time>2017-05-07T13:36:00Z</time>
      </trkpt>
      <trkpt lat="45.14968" lon="5.20671">
        <ele>423</ele>
        <time>2017-05-07T13:36:08Z</time>
      </trkpt>
      <trkpt lat="45.14976" lon="5.20664">
        <ele>426</ele>
        <time>2017-05-07T13:36:17Z</time>
      </trkpt>
      <trkpt lat="45.14983" lon="5.20653">
        <ele>426</ele>
        <time>2017-05-07T13:36:23Z</time>
      </trkpt>
      <trkpt lat="45.1499" lon="5.20642">
        <ele>426</ele>
        <time>2017-05-07T13:36:29Z</time>
      </trkpt>
      <trkpt lat="45.14994" lon="5.20629">
        <ele>426</ele>
        <time>2017-05-07T13:36:36Z</time>
      </trkpt>
      <trkpt lat="45.15" lon="5.20618">
        <ele>427</ele>
        <time>2017-05-07T13:36:41Z</time>
      </trkpt>
      <trkpt lat="45.15006" lon="5.20605">
        <ele>432</ele>
        <time>2017-05-07T13:36:47Z</time>
      </trkpt>
      <trkpt lat="45.15011" lon="5.20592">
        <ele>433</ele>
        <time>2017-05-07T13:36:52Z</time>
      </trkpt>
      <trkpt lat="45.15016" lon="5.20577">
        <ele>433</ele>
        <time>2017-05-07T13:36:56Z</time>
      </trkpt>
      <trkpt lat="45.15023" lon="5.20562">
        <ele>433</ele>
        <time>2017-05-07T13:37:00Z</time>
      </trkpt>
      <trkpt lat="45.15029" lon="5.20549">
        <ele>433</ele>
        <time>2017-05-07T13:37:04Z</time>
      </trkpt>
      <trkpt lat="45.15034" lon="5.20538">
        <ele>433</ele>
        <time>2017-05-07T13:37:08Z</time>
      </trkpt>
      <trkpt lat="45.15041" lon="5.20526">
        <ele>433</ele>
        <time>2017-05-07T13:37:11Z</time>
      </trkpt>
      <trkpt lat="45.15045" lon="5.20514">
        <ele>434</ele>
        <time>2017-05-07T13:37:14Z</time>
      </trkpt>
      <trkpt lat="45.1505" lon="5.20502">
        <ele>434</ele>
        <time>2017-05-07T13:37:16Z</time>
      </trkpt>
      <trkpt lat="45.15056" lon="5.20489">
        <ele>433</ele>
        <time>2017-05-07T13:37:19Z</time>
      </trkpt>
      <trkpt lat="45.15061" lon="5.20477">
        <ele>433</ele>
        <time>2017-05-07T13:37:22Z</time>
      </trkpt>
      <trkpt lat="45.15065" lon="5.20464">
        <ele>433</ele>
        <time>2017-05-07T13:37:25Z</time>
      </trkpt>
      <trkpt lat="45.15071" lon="5.20452">
        <ele>434</ele>
        <time>2017-05-07T13:37:28Z</time>
      </trkpt>
      <trkpt lat="45.15077" lon="5.20439">
        <ele>435</ele>
        <time>2017-05-07T13:37:31Z</time>
      </trkpt>
      <trkpt lat="45.15079" lon="5.20417">
        <ele>438</ele>
        <time>2017-05-07T13:37:36Z</time>
      </trkpt>
      <trkpt lat="45.1508" lon="5.20402">
        <ele>436</ele>
        <time>2017-05-07T13:37:39Z</time>
      </trkpt>
      <trkpt lat="45.15078" lon="5.20386">
        <ele>435</ele>
        <time>2017-05-07T13:37:42Z</time>
      </trkpt>
      <trkpt lat="45.15072" lon="5.20373">
        <ele>434</ele>
        <time>2017-05-07T13:37:45Z</time>
      </trkpt>
      <trkpt lat="45.15068" lon="5.2036">
        <ele>434</ele>
        <time>2017-05-07T13:37:48Z</time>
      </trkpt>
      <trkpt lat="45.15064" lon="5.20347">
        <ele>435</ele>
        <time>2017-05-07T13:37:51Z</time>
      </trkpt>
      <trkpt lat="45.15061" lon="5.20333">
        <ele>436</ele>
        <time>2017-05-07T13:37:54Z</time>
      </trkpt>
      <trkpt lat="45.15053" lon="5.20305">
        <ele>435</ele>
        <time>2017-05-07T13:38:00Z</time>
      </trkpt>
      <trkpt lat="45.15049" lon="5.2029">
        <ele>435</ele>
        <time>2017-05-07T13:38:04Z</time>
      </trkpt>
      <trkpt lat="45.15046" lon="5.20274">
        <ele>435</ele>
        <time>2017-05-07T13:38:08Z</time>
      </trkpt>
      <trkpt lat="45.15052" lon="5.20263">
        <ele>435</ele>
        <time>2017-05-07T13:38:11Z</time>
      </trkpt>
      <trkpt lat="45.15062" lon="5.20258">
        <ele>435</ele>
        <time>2017-05-07T13:38:15Z</time>
      </trkpt>
      <trkpt lat="45.15073" lon="5.20261">
        <ele>435</ele>
        <time>2017-05-07T13:38:19Z</time>
      </trkpt>
      <trkpt lat="45.15085" lon="5.20265">
        <ele>437</ele>
        <time>2017-05-07T13:38:23Z</time>
      </trkpt>
      <trkpt lat="45.15095" lon="5.2027">
        <ele>438</ele>
        <time>2017-05-07T13:38:27Z</time>
      </trkpt>
      <trkpt lat="45.15101" lon="5.20282">
        <ele>438</ele>
        <time>2017-05-07T13:38:34Z</time>
      </trkpt>
      <trkpt lat="45.15107" lon="5.20292">
        <ele>439</ele>
        <time>2017-05-07T13:38:41Z</time>
      </trkpt>
      <trkpt lat="45.15116" lon="5.20297">
        <ele>440</ele>
        <time>2017-05-07T13:38:49Z</time>
      </trkpt>
      <trkpt lat="45.15126" lon="5.20301">
        <ele>440</ele>
        <time>2017-05-07T13:38:55Z</time>
      </trkpt>
      <trkpt lat="45.15135" lon="5.20305">
        <ele>441</ele>
        <time>2017-05-07T13:39:00Z</time>
      </trkpt>
      <trkpt lat="45.15144" lon="5.20306">
        <ele>441</ele>
        <time>2017-05-07T13:39:05Z</time>
      </trkpt>
      <trkpt lat="45.15154" lon="5.20307">
        <ele>442</ele>
        <time>2017-05-07T13:39:11Z</time>
      </trkpt>
      <trkpt lat="45.15163" lon="5.20307">
        <ele>443</ele>
        <time>2017-05-07T13:39:16Z</time>
      </trkpt>
      <trkpt lat="45.15173" lon="5.2031">
        <ele>444</ele>
        <time>2017-05-07T13:39:22Z</time>
      </trkpt>
      <trkpt lat="45.15182" lon="5.20312">
        <ele>444</ele>
        <time>2017-05-07T13:39:26Z</time>
      </trkpt>
      <trkpt lat="45.15192" lon="5.20317">
        <ele>444</ele>
        <time>2017-05-07T13:39:31Z</time>
      </trkpt>
      <trkpt lat="45.15201" lon="5.2032">
        <ele>443</ele>
        <time>2017-05-07T13:39:35Z</time>
      </trkpt>
      <trkpt lat="45.15211" lon="5.20326">
        <ele>443</ele>
        <time>2017-05-07T13:39:41Z</time>
      </trkpt>
      <trkpt lat="45.15222" lon="5.20328">
        <ele>444</ele>
        <time>2017-05-07T13:39:45Z</time>
      </trkpt>
      <trkpt lat="45.15232" lon="5.20329">
        <ele>444</ele>
        <time>2017-05-07T13:39:49Z</time>
      </trkpt>
      <trkpt lat="45.15242" lon="5.20329">
        <ele>445</ele>
        <time>2017-05-07T13:39:53Z</time>
      </trkpt>
      <trkpt lat="45.15252" lon="5.20329">
        <ele>446</ele>
        <time>2017-05-07T13:39:58Z</time>
      </trkpt>
      <trkpt lat="45.15263" lon="5.20329">
        <ele>445</ele>
        <time>2017-05-07T13:40:03Z</time>
      </trkpt>
      <trkpt lat="45.15274" lon="5.20329">
        <ele>444</ele>
        <time>2017-05-07T13:40:07Z</time>
      </trkpt>
      <trkpt lat="45.15284" lon="5.2033">
        <ele>444</ele>
        <time>2017-05-07T13:40:11Z</time>
      </trkpt>
      <trkpt lat="45.15294" lon="5.20334">
        <ele>452</ele>
        <time>2017-05-07T13:40:15Z</time>
      </trkpt>
      <trkpt lat="45.15304" lon="5.20342">
        <ele>452</ele>
        <time>2017-05-07T13:40:19Z</time>
      </trkpt>
      <trkpt lat="45.15314" lon="5.20347">
        <ele>452</ele>
        <time>2017-05-07T13:40:23Z</time>
      </trkpt>
      <trkpt lat="45.15324" lon="5.20355">
        <ele>452</ele>
        <time>2017-05-07T13:40:27Z</time>
      </trkpt>
      <trkpt lat="45.15332" lon="5.20362">
        <ele>452</ele>
        <time>2017-05-07T13:40:31Z</time>
      </trkpt>
      <trkpt lat="45.15341" lon="5.20371">
        <ele>454</ele>
        <time>2017-05-07T13:40:36Z</time>
      </trkpt>
      <trkpt lat="45.15353" lon="5.20373">
        <ele>454</ele>
        <time>2017-05-07T13:40:41Z</time>
      </trkpt>
      <trkpt lat="45.15362" lon="5.20379">
        <ele>454</ele>
        <time>2017-05-07T13:40:45Z</time>
      </trkpt>
      <trkpt lat="45.15372" lon="5.20386">
        <ele>455</ele>
        <time>2017-05-07T13:40:50Z</time>
      </trkpt>
      <trkpt lat="45.15379" lon="5.20396">
        <ele>455</ele>
        <time>2017-05-07T13:40:55Z</time>
      </trkpt>
      <trkpt lat="45.15388" lon="5.20402">
        <ele>456</ele>
        <time>2017-05-07T13:41:01Z</time>
      </trkpt>
      <trkpt lat="45.15399" lon="5.20403">
        <ele>456</ele>
        <time>2017-05-07T13:41:08Z</time>
      </trkpt>
      <trkpt lat="45.15408" lon="5.20407">
        <ele>457</ele>
        <time>2017-05-07T13:41:12Z</time>
      </trkpt>
      <trkpt lat="45.15417" lon="5.2041">
        <ele>458</ele>
        <time>2017-05-07T13:41:15Z</time>
      </trkpt>
      <trkpt lat="45.15428" lon="5.20412">
        <ele>457</ele>
        <time>2017-05-07T13:41:18Z</time>
      </trkpt>
      <trkpt lat="45.15437" lon="5.20415">
        <ele>456</ele>
        <time>2017-05-07T13:41:21Z</time>
      </trkpt>
      <trkpt lat="45.15449" lon="5.20417">
        <ele>456</ele>
        <time>2017-05-07T13:41:25Z</time>
      </trkpt>
      <trkpt lat="45.1546" lon="5.20416">
        <ele>454</ele>
        <time>2017-05-07T13:41:30Z</time>
      </trkpt>
      <trkpt lat="45.1547" lon="5.20415">
        <ele>454</ele>
        <time>2017-05-07T13:41:35Z</time>
      </trkpt>
      <trkpt lat="45.1548" lon="5.20416">
        <ele>454</ele>
        <time>2017-05-07T13:41:40Z</time>
      </trkpt>
      <trkpt lat="45.15489" lon="5.20418">
        <ele>455</ele>
        <time>2017-05-07T13:41:44Z</time>
      </trkpt>
      <trkpt lat="45.155" lon="5.20422">
        <ele>455</ele>
        <time>2017-05-07T13:41:48Z</time>
      </trkpt>
      <trkpt lat="45.1551" lon="5.20424">
        <ele>455</ele>
        <time>2017-05-07T13:41:51Z</time>
      </trkpt>
      <trkpt lat="45.15521" lon="5.20426">
        <ele>455</ele>
        <time>2017-05-07T13:41:55Z</time>
      </trkpt>
      <trkpt lat="45.15533" lon="5.20427">
        <ele>455</ele>
        <time>2017-05-07T13:41:59Z</time>
      </trkpt>
      <trkpt lat="45.15546" lon="5.20428">
        <ele>455</ele>
        <time>2017-05-07T13:42:03Z</time>
      </trkpt>
      <trkpt lat="45.15556" lon="5.20432">
        <ele>455</ele>
        <time>2017-05-07T13:42:06Z</time>
      </trkpt>
      <trkpt lat="45.15566" lon="5.20436">
        <ele>455</ele>
        <time>2017-05-07T13:42:09Z</time>
      </trkpt>
      <trkpt lat="45.15575" lon="5.20438">
        <ele>455</ele>
        <time>2017-05-07T13:42:12Z</time>
      </trkpt>
      <trkpt lat="45.15587" lon="5.20439">
        <ele>457</ele>
        <time>2017-05-07T13:42:16Z</time>
      </trkpt>
      <trkpt lat="45.15598" lon="5.20441">
        <ele>457</ele>
        <time>2017-05-07T13:42:20Z</time>
      </trkpt>
      <trkpt lat="45.15608" lon="5.20442">
        <ele>457</ele>
        <time>2017-05-07T13:42:24Z</time>
      </trkpt>
      <trkpt lat="45.15618" lon="5.20444">
        <ele>457</ele>
        <time>2017-05-07T13:42:28Z</time>
      </trkpt>
      <trkpt lat="45.15629" lon="5.20446">
        <ele>457</ele>
        <time>2017-05-07T13:42:32Z</time>
      </trkpt>
      <trkpt lat="45.15639" lon="5.20444">
        <ele>457</ele>
        <time>2017-05-07T13:42:36Z</time>
      </trkpt>
      <trkpt lat="45.15649" lon="5.20444">
        <ele>457</ele>
        <time>2017-05-07T13:42:39Z</time>
      </trkpt>
      <trkpt lat="45.15658" lon="5.20444">
        <ele>457</ele>
        <time>2017-05-07T13:42:42Z</time>
      </trkpt>
      <trkpt lat="45.15668" lon="5.20444">
        <ele>456</ele>
        <time>2017-05-07T13:42:45Z</time>
      </trkpt>
      <trkpt lat="45.15679" lon="5.20446">
        <ele>456</ele>
        <time>2017-05-07T13:42:49Z</time>
      </trkpt>
      <trkpt lat="45.15692" lon="5.20448">
        <ele>456</ele>
        <time>2017-05-07T13:42:53Z</time>
      </trkpt>
      <trkpt lat="45.15704" lon="5.2045">
        <ele>456</ele>
        <time>2017-05-07T13:42:57Z</time>
      </trkpt>
      <trkpt lat="45.15713" lon="5.2045">
        <ele>455</ele>
        <time>2017-05-07T13:43:00Z</time>
      </trkpt>
      <trkpt lat="45.15723" lon="5.20453">
        <ele>455</ele>
        <time>2017-05-07T13:43:03Z</time>
      </trkpt>
      <trkpt lat="45.15735" lon="5.20454">
        <ele>455</ele>
        <time>2017-05-07T13:43:06Z</time>
      </trkpt>
      <trkpt lat="45.15745" lon="5.20453">
        <ele>455</ele>
        <time>2017-05-07T13:43:08Z</time>
      </trkpt>
      <trkpt lat="45.15756" lon="5.20452">
        <ele>452</ele>
        <time>2017-05-07T13:43:10Z</time>
      </trkpt>
      <trkpt lat="45.15768" lon="5.20448">
        <ele>452</ele>
        <time>2017-05-07T13:43:12Z</time>
      </trkpt>
      <trkpt lat="45.15779" lon="5.20443">
        <ele>451</ele>
        <time>2017-05-07T13:43:14Z</time>
      </trkpt>
      <trkpt lat="45.15787" lon="5.20435">
        <ele>451</ele>
        <time>2017-05-07T13:43:16Z</time>
      </trkpt>
      <trkpt lat="45.15796" lon="5.20427">
        <ele>451</ele>
        <time>2017-05-07T13:43:19Z</time>
      </trkpt>
      <trkpt lat="45.15805" lon="5.2042">
        <ele>451</ele>
        <time>2017-05-07T13:43:22Z</time>
      </trkpt>
      <trkpt lat="45.15808" lon="5.20435">
        <ele>451</ele>
        <time>2017-05-07T13:43:26Z</time>
      </trkpt>
      <trkpt lat="45.15809" lon="5.20453">
        <ele>450</ele>
        <time>2017-05-07T13:43:29Z</time>
      </trkpt>
      <trkpt lat="45.1581" lon="5.20471">
        <ele>450</ele>
        <time>2017-05-07T13:43:32Z</time>
      </trkpt>
      <trkpt lat="45.15807" lon="5.20488">
        <ele>449</ele>
        <time>2017-05-07T13:43:35Z</time>
      </trkpt>
      <trkpt lat="45.15805" lon="5.20505">
        <ele>447</ele>
        <time>2017-05-07T13:43:38Z</time>
      </trkpt>
      <trkpt lat="45.15804" lon="5.20523">
        <ele>447</ele>
        <time>2017-05-07T13:43:42Z</time>
      </trkpt>
      <trkpt lat="45.15803" lon="5.20538">
        <ele>447</ele>
        <time>2017-05-07T13:43:45Z</time>
      </trkpt>
      <trkpt lat="45.15801" lon="5.20554">
        <ele>447</ele>
        <time>2017-05-07T13:43:48Z</time>
      </trkpt>
      <trkpt lat="45.158" lon="5.20568">
        <ele>447</ele>
        <time>2017-05-07T13:43:51Z</time>
      </trkpt>
      <trkpt lat="45.158" lon="5.20584">
        <ele>445</ele>
        <time>2017-05-07T13:43:54Z</time>
      </trkpt>
      <trkpt lat="45.158" lon="5.20601">
        <ele>445</ele>
        <time>2017-05-07T13:43:57Z</time>
      </trkpt>
      <trkpt lat="45.15801" lon="5.20617">
        <ele>445</ele>
        <time>2017-05-07T13:44:00Z</time>
      </trkpt>
      <trkpt lat="45.15805" lon="5.20631">
        <ele>445</ele>
        <time>2017-05-07T13:44:03Z</time>
      </trkpt>
      <trkpt lat="45.1581" lon="5.20644">
        <ele>445</ele>
        <time>2017-05-07T13:44:07Z</time>
      </trkpt>
      <trkpt lat="45.15818" lon="5.20658">
        <ele>443</ele>
        <time>2017-05-07T13:44:11Z</time>
      </trkpt>
      <trkpt lat="45.15823" lon="5.20673">
        <ele>441</ele>
        <time>2017-05-07T13:44:15Z</time>
      </trkpt>
      <trkpt lat="45.15829" lon="5.20685">
        <ele>441</ele>
        <time>2017-05-07T13:44:18Z</time>
      </trkpt>
      <trkpt lat="45.15838" lon="5.20692">
        <ele>435</ele>
        <time>2017-05-07T13:44:20Z</time>
      </trkpt>
      <trkpt lat="45.15849" lon="5.20703">
        <ele>433</ele>
        <time>2017-05-07T13:44:23Z</time>
      </trkpt>
      <trkpt lat="45.15855" lon="5.20713">
        <ele>432</ele>
        <time>2017-05-07T13:44:25Z</time>
      </trkpt>
      <trkpt lat="45.15861" lon="5.20729">
        <ele>432</ele>
        <time>2017-05-07T13:44:28Z</time>
      </trkpt>
      <trkpt lat="45.15869" lon="5.20744">
        <ele>431</ele>
        <time>2017-05-07T13:44:30Z</time>
      </trkpt>
      <trkpt lat="45.15876" lon="5.20759">
        <ele>428</ele>
        <time>2017-05-07T13:44:32Z</time>
      </trkpt>
      <trkpt lat="45.15882" lon="5.20773">
        <ele>427</ele>
        <time>2017-05-07T13:44:34Z</time>
      </trkpt>
      <trkpt lat="45.15887" lon="5.20788">
        <ele>426</ele>
        <time>2017-05-07T13:44:36Z</time>
      </trkpt>
      <trkpt lat="45.15891" lon="5.20801">
        <ele>426</ele>
        <time>2017-05-07T13:44:38Z</time>
      </trkpt>
      <trkpt lat="45.15896" lon="5.20815">
        <ele>425</ele>
        <time>2017-05-07T13:44:40Z</time>
      </trkpt>
      <trkpt lat="45.15898" lon="5.20834">
        <ele>420</ele>
        <time>2017-05-07T13:44:42Z</time>
      </trkpt>
      <trkpt lat="45.15901" lon="5.20853">
        <ele>419</ele>
        <time>2017-05-07T13:44:44Z</time>
      </trkpt>
      <trkpt lat="45.15905" lon="5.2087">
        <ele>418</ele>
        <time>2017-05-07T13:44:46Z</time>
      </trkpt>
      <trkpt lat="45.1591" lon="5.20885">
        <ele>417</ele>
        <time>2017-05-07T13:44:48Z</time>
      </trkpt>
      <trkpt lat="45.15913" lon="5.20902">
        <ele>415</ele>
        <time>2017-05-07T13:44:50Z</time>
      </trkpt>
      <trkpt lat="45.15917" lon="5.2092">
        <ele>413</ele>
        <time>2017-05-07T13:44:52Z</time>
      </trkpt>
      <trkpt lat="45.1592" lon="5.20937">
        <ele>409</ele>
        <time>2017-05-07T13:44:54Z</time>
      </trkpt>
      <trkpt lat="45.15925" lon="5.20954">
        <ele>408</ele>
        <time>2017-05-07T13:44:56Z</time>
      </trkpt>
      <trkpt lat="45.15928" lon="5.20971">
        <ele>406</ele>
        <time>2017-05-07T13:44:58Z</time>
      </trkpt>
      <trkpt lat="45.15928" lon="5.20991">
        <ele>406</ele>
        <time>2017-05-07T13:45:00Z</time>
      </trkpt>
      <trkpt lat="45.15926" lon="5.21009">
        <ele>403</ele>
        <time>2017-05-07T13:45:02Z</time>
      </trkpt>
      <trkpt lat="45.15924" lon="5.21028">
        <ele>402</ele>
        <time>2017-05-07T13:45:04Z</time>
      </trkpt>
      <trkpt lat="45.1592" lon="5.21048">
        <ele>402</ele>
        <time>2017-05-07T13:45:06Z</time>
      </trkpt>
      <trkpt lat="45.15915" lon="5.21066">
        <ele>402</ele>
        <time>2017-05-07T13:45:08Z</time>
      </trkpt>
      <trkpt lat="45.15911" lon="5.21084">
        <ele>402</ele>
        <time>2017-05-07T13:45:10Z</time>
      </trkpt>
      <trkpt lat="45.15907" lon="5.21103">
        <ele>401</ele>
        <time>2017-05-07T13:45:12Z</time>
      </trkpt>
      <trkpt lat="45.159" lon="5.21118">
        <ele>400</ele>
        <time>2017-05-07T13:45:14Z</time>
      </trkpt>
      <trkpt lat="45.1589" lon="5.21132">
        <ele>400</ele>
        <time>2017-05-07T13:45:16Z</time>
      </trkpt>
      <trkpt lat="45.15881" lon="5.21142">
        <ele>400</ele>
        <time>2017-05-07T13:45:18Z</time>
      </trkpt>
      <trkpt lat="45.15873" lon="5.21155">
        <ele>400</ele>
        <time>2017-05-07T13:45:20Z</time>
      </trkpt>
      <trkpt lat="45.15868" lon="5.21167">
        <ele>399</ele>
        <time>2017-05-07T13:45:22Z</time>
      </trkpt>
      <trkpt lat="45.15868" lon="5.21186">
        <ele>398</ele>
        <time>2017-05-07T13:45:25Z</time>
      </trkpt>
      <trkpt lat="45.15869" lon="5.21203">
        <ele>397</ele>
        <time>2017-05-07T13:45:28Z</time>
      </trkpt>
      <trkpt lat="45.15868" lon="5.21221">
        <ele>397</ele>
        <time>2017-05-07T13:45:31Z</time>
      </trkpt>
      <trkpt lat="45.15864" lon="5.21238">
        <ele>396</ele>
        <time>2017-05-07T13:45:34Z</time>
      </trkpt>
      <trkpt lat="45.15857" lon="5.21249">
        <ele>396</ele>
        <time>2017-05-07T13:45:40Z</time>
      </trkpt>
      <trkpt lat="45.15854" lon="5.21265">
        <ele>394</ele>
        <time>2017-05-07T13:45:44Z</time>
      </trkpt>
      <trkpt lat="45.1585" lon="5.21279">
        <ele>393</ele>
        <time>2017-05-07T13:45:46Z</time>
      </trkpt>
      <trkpt lat="45.15847" lon="5.21292">
        <ele>393</ele>
        <time>2017-05-07T13:45:48Z</time>
      </trkpt>
      <trkpt lat="45.15845" lon="5.21309">
        <ele>392</ele>
        <time>2017-05-07T13:45:50Z</time>
      </trkpt>
      <trkpt lat="45.15845" lon="5.21324">
        <ele>391</ele>
        <time>2017-05-07T13:45:52Z</time>
      </trkpt>
      <trkpt lat="45.15845" lon="5.21339">
        <ele>390</ele>
        <time>2017-05-07T13:45:54Z</time>
      </trkpt>
      <trkpt lat="45.15846" lon="5.21353">
        <ele>390</ele>
        <time>2017-05-07T13:45:56Z</time>
      </trkpt>
      <trkpt lat="45.15847" lon="5.21369">
        <ele>390</ele>
        <time>2017-05-07T13:45:58Z</time>
      </trkpt>
      <trkpt lat="45.15849" lon="5.21382">
        <ele>390</ele>
        <time>2017-05-07T13:46:00Z</time>
      </trkpt>
      <trkpt lat="45.15852" lon="5.21395">
        <ele>390</ele>
        <time>2017-05-07T13:46:02Z</time>
      </trkpt>
      <trkpt lat="45.15856" lon="5.21406">
        <ele>390</ele>
        <time>2017-05-07T13:46:04Z</time>
      </trkpt>
      <trkpt lat="45.15862" lon="5.2142">
        <ele>387</ele>
        <time>2017-05-07T13:46:06Z</time>
      </trkpt>
      <trkpt lat="45.15867" lon="5.21433">
        <ele>387</ele>
        <time>2017-05-07T13:46:08Z</time>
      </trkpt>
      <trkpt lat="45.15872" lon="5.21447">
        <ele>387</ele>
        <time>2017-05-07T13:46:10Z</time>
      </trkpt>
      <trkpt lat="45.15878" lon="5.21463">
        <ele>386</ele>
        <time>2017-05-07T13:46:12Z</time>
      </trkpt>
      <trkpt lat="45.15886" lon="5.21477">
        <ele>385</ele>
        <time>2017-05-07T13:46:14Z</time>
      </trkpt>
      <trkpt lat="45.15894" lon="5.21493">
        <ele>384</ele>
        <time>2017-05-07T13:46:16Z</time>
      </trkpt>
      <trkpt lat="45.15901" lon="5.21504">
        <ele>380</ele>
        <time>2017-05-07T13:46:18Z</time>
      </trkpt>
      <trkpt lat="45.1591" lon="5.21518">
        <ele>379</ele>
        <time>2017-05-07T13:46:21Z</time>
      </trkpt>
      <trkpt lat="45.15915" lon="5.21536">
        <ele>378</ele>
        <time>2017-05-07T13:46:24Z</time>
      </trkpt>
      <trkpt lat="45.15913" lon="5.21549">
        <ele>377</ele>
        <time>2017-05-07T13:46:25Z</time>
      </trkpt>
      <trkpt lat="45.15912" lon="5.21569">
        <ele>377</ele>
        <time>2017-05-07T13:46:27Z</time>
      </trkpt>
      <trkpt lat="45.15911" lon="5.21584">
        <ele>375</ele>
        <time>2017-05-07T13:46:29Z</time>
      </trkpt>
      <trkpt lat="45.15911" lon="5.21599">
        <ele>373</ele>
        <time>2017-05-07T13:46:31Z</time>
      </trkpt>
      <trkpt lat="45.15907" lon="5.21626">
        <ele>372</ele>
        <time>2017-05-07T13:46:36Z</time>
      </trkpt>
      <trkpt lat="45.15906" lon="5.21639">
        <ele>372</ele>
        <time>2017-05-07T13:46:38Z</time>
      </trkpt>
      <trkpt lat="45.15904" lon="5.21654">
        <ele>372</ele>
        <time>2017-05-07T13:46:42Z</time>
      </trkpt>
      <trkpt lat="45.15901" lon="5.21671">
        <ele>371</ele>
        <time>2017-05-07T13:46:45Z</time>
      </trkpt>
      <trkpt lat="45.15896" lon="5.2169">
        <ele>369</ele>
        <time>2017-05-07T13:46:50Z</time>
      </trkpt>
      <trkpt lat="45.15892" lon="5.21708">
        <ele>368</ele>
        <time>2017-05-07T13:46:53Z</time>
      </trkpt>
      <trkpt lat="45.15889" lon="5.21728">
        <ele>368</ele>
        <time>2017-05-07T13:46:55Z</time>
      </trkpt>
      <trkpt lat="45.15887" lon="5.2176">
        <ele>368</ele>
        <time>2017-05-07T13:46:59Z</time>
      </trkpt>
      <trkpt lat="45.1589" lon="5.21777">
        <ele>368</ele>
        <time>2017-05-07T13:47:01Z</time>
      </trkpt>
      <trkpt lat="45.15894" lon="5.21794">
        <ele>367</ele>
        <time>2017-05-07T13:47:03Z</time>
      </trkpt>
      <trkpt lat="45.15901" lon="5.21807">
        <ele>367</ele>
        <time>2017-05-07T13:47:05Z</time>
      </trkpt>
      <trkpt lat="45.1591" lon="5.21819">
        <ele>367</ele>
        <time>2017-05-07T13:47:07Z</time>
      </trkpt>
      <trkpt lat="45.15918" lon="5.21831">
        <ele>366</ele>
        <time>2017-05-07T13:47:09Z</time>
      </trkpt>
      <trkpt lat="45.15926" lon="5.2184">
        <ele>364</ele>
        <time>2017-05-07T13:47:11Z</time>
      </trkpt>
      <trkpt lat="45.15934" lon="5.2185">
        <ele>363</ele>
        <time>2017-05-07T13:47:13Z</time>
      </trkpt>
      <trkpt lat="45.15943" lon="5.2186">
        <ele>361</ele>
        <time>2017-05-07T13:47:16Z</time>
      </trkpt>
      <trkpt lat="45.15955" lon="5.21866">
        <ele>361</ele>
        <time>2017-05-07T13:47:19Z</time>
      </trkpt>
      <trkpt lat="45.15977" lon="5.21864">
        <ele>360</ele>
        <time>2017-05-07T13:47:23Z</time>
      </trkpt>
      <trkpt lat="45.15988" lon="5.21861">
        <ele>360</ele>
        <time>2017-05-07T13:47:25Z</time>
      </trkpt>
      <trkpt lat="45.16005" lon="5.21857">
        <ele>357</ele>
        <time>2017-05-07T13:47:27Z</time>
      </trkpt>
      <trkpt lat="45.16015" lon="5.21853">
        <ele>357</ele>
        <time>2017-05-07T13:47:28Z</time>
      </trkpt>
      <trkpt lat="45.16025" lon="5.21848">
        <ele>356</ele>
        <time>2017-05-07T13:47:29Z</time>
      </trkpt>
      <trkpt lat="45.16054" lon="5.2183">
        <ele>356</ele>
        <time>2017-05-07T13:47:34Z</time>
      </trkpt>
      <trkpt lat="45.1606" lon="5.21813">
        <ele>356</ele>
        <time>2017-05-07T13:47:38Z</time>
      </trkpt>
      <trkpt lat="45.16067" lon="5.21801">
        <ele>356</ele>
        <time>2017-05-07T13:47:41Z</time>
      </trkpt>
      <trkpt lat="45.16073" lon="5.21785">
        <ele>356</ele>
        <time>2017-05-07T13:47:45Z</time>
      </trkpt>
      <trkpt lat="45.16075" lon="5.2177">
        <ele>355</ele>
        <time>2017-05-07T13:47:47Z</time>
      </trkpt>
      <trkpt lat="45.16076" lon="5.21755">
        <ele>354</ele>
        <time>2017-05-07T13:47:50Z</time>
      </trkpt>
      <trkpt lat="45.16072" lon="5.21741">
        <ele>354</ele>
        <time>2017-05-07T13:47:52Z</time>
      </trkpt>
      <trkpt lat="45.16075" lon="5.21721">
        <ele>354</ele>
        <time>2017-05-07T13:47:56Z</time>
      </trkpt>
      <trkpt lat="45.16079" lon="5.217">
        <ele>353</ele>
        <time>2017-05-07T13:48:02Z</time>
      </trkpt>
      <trkpt lat="45.16089" lon="5.21693">
        <ele>353</ele>
        <time>2017-05-07T13:48:06Z</time>
      </trkpt>
      <trkpt lat="45.16085" lon="5.21705">
        <ele>354</ele>
        <time>2017-05-07T13:48:15Z</time>
      </trkpt>
      <trkpt lat="45.16082" lon="5.21717">
        <ele>354</ele>
        <time>2017-05-07T13:48:38Z</time>
      </trkpt>
      <trkpt lat="45.16091" lon="5.21724">
        <ele>355</ele>
        <time>2017-05-07T13:48:46Z</time>
      </trkpt>
      <trkpt lat="45.16091" lon="5.21738">
        <ele>354</ele>
        <time>2017-05-07T13:48:52Z</time>
      </trkpt>
      <trkpt lat="45.16091" lon="5.21759">
        <ele>355</ele>
        <time>2017-05-07T13:48:59Z</time>
      </trkpt>
      <trkpt lat="45.16096" lon="5.21774">
        <ele>357</ele>
        <time>2017-05-07T13:49:01Z</time>
      </trkpt>
      <trkpt lat="45.16091" lon="5.21786">
        <ele>357</ele>
        <time>2017-05-07T13:49:05Z</time>
      </trkpt>
      <trkpt lat="45.16095" lon="5.21801">
        <ele>357</ele>
        <time>2017-05-07T13:49:15Z</time>
      </trkpt>
      <trkpt lat="45.16089" lon="5.21812">
        <ele>356</ele>
        <time>2017-05-07T13:49:26Z</time>
      </trkpt>
      <trkpt lat="45.16084" lon="5.21825">
        <ele>354</ele>
        <time>2017-05-07T13:49:41Z</time>
      </trkpt>
      <trkpt lat="45.16076" lon="5.21832">
        <ele>353</ele>
        <time>2017-05-07T13:49:46Z</time>
      </trkpt>
      <trkpt lat="45.1608" lon="5.21847">
        <ele>353</ele>
        <time>2017-05-07T13:49:58Z</time>
      </trkpt>
      <trkpt lat="45.16082" lon="5.21833">
        <ele>352</ele>
        <time>2017-05-07T13:50:14Z</time>
      </trkpt>
      <trkpt lat="45.16088" lon="5.21843">
        <ele>354</ele>
        <time>2017-05-07T13:50:30Z</time>
      </trkpt>
      <trkpt lat="45.16078" lon="5.21852">
        <ele>353</ele>
        <time>2017-05-07T13:50:37Z</time>
      </trkpt>
      <trkpt lat="45.16068" lon="5.21857">
        <ele>354</ele>
        <time>2017-05-07T13:50:49Z</time>
      </trkpt>
      <trkpt lat="45.1606" lon="5.21866">
        <ele>354</ele>
        <time>2017-05-07T13:50:53Z</time>
      </trkpt>
      <trkpt lat="45.16049" lon="5.21865">
        <ele>354</ele>
        <time>2017-05-07T13:50:57Z</time>
      </trkpt>
      <trkpt lat="45.1604" lon="5.21869">
        <ele>355</ele>
        <time>2017-05-07T13:51:03Z</time>
      </trkpt>
      <trkpt lat="45.16028" lon="5.21869">
        <ele>355</ele>
        <time>2017-05-07T13:51:08Z</time>
      </trkpt>
      <trkpt lat="45.1602" lon="5.2188">
        <ele>355</ele>
        <time>2017-05-07T13:51:16Z</time>
      </trkpt>
      <trkpt lat="45.16009" lon="5.21882">
        <ele>355</ele>
        <time>2017-05-07T13:51:23Z</time>
      </trkpt>
      <trkpt lat="45.16" lon="5.21887">
        <ele>358</ele>
        <time>2017-05-07T13:51:30Z</time>
      </trkpt>
      <trkpt lat="45.15993" lon="5.21901">
        <ele>357</ele>
        <time>2017-05-07T13:51:39Z</time>
      </trkpt>
      <trkpt lat="45.15984" lon="5.21907">
        <ele>357</ele>
        <time>2017-05-07T13:51:44Z</time>
      </trkpt>
      <trkpt lat="45.15971" lon="5.21905">
        <ele>358</ele>
        <time>2017-05-07T13:51:49Z</time>
      </trkpt>
      <trkpt lat="45.15961" lon="5.21908">
        <ele>359</ele>
        <time>2017-05-07T13:51:57Z</time>
      </trkpt>
      <trkpt lat="45.15951" lon="5.2191">
        <ele>360</ele>
        <time>2017-05-07T13:52:02Z</time>
      </trkpt>
      <trkpt lat="45.15941" lon="5.21912">
        <ele>360</ele>
        <time>2017-05-07T13:52:08Z</time>
      </trkpt>
      <trkpt lat="45.15932" lon="5.2192">
        <ele>358</ele>
        <time>2017-05-07T13:52:11Z</time>
      </trkpt>
      <trkpt lat="45.15924" lon="5.21933">
        <ele>357</ele>
        <time>2017-05-07T13:52:15Z</time>
      </trkpt>
      <trkpt lat="45.15921" lon="5.21945">
        <ele>356</ele>
        <time>2017-05-07T13:52:24Z</time>
      </trkpt>
      <trkpt lat="45.1592" lon="5.2196">
        <ele>354</ele>
        <time>2017-05-07T13:52:31Z</time>
      </trkpt>
      <trkpt lat="45.15911" lon="5.21966">
        <ele>356</ele>
        <time>2017-05-07T13:52:41Z</time>
      </trkpt>
      <trkpt lat="45.15899" lon="5.21963">
        <ele>357</ele>
        <time>2017-05-07T13:52:46Z</time>
      </trkpt>
      <trkpt lat="45.15889" lon="5.21966">
        <ele>357</ele>
        <time>2017-05-07T13:52:52Z</time>
      </trkpt>
      <trkpt lat="45.15883" lon="5.21979">
        <ele>357</ele>
        <time>2017-05-07T13:53:06Z</time>
      </trkpt>
      <trkpt lat="45.15876" lon="5.21989">
        <ele>357</ele>
        <time>2017-05-07T13:53:28Z</time>
      </trkpt>
      <trkpt lat="45.15866" lon="5.21991">
        <ele>357</ele>
        <time>2017-05-07T13:53:32Z</time>
      </trkpt>
      <trkpt lat="45.15859" lon="5.22001">
        <ele>351</ele>
        <time>2017-05-07T13:53:44Z</time>
      </trkpt>
      <trkpt lat="45.15852" lon="5.22009">
        <ele>351</ele>
        <time>2017-05-07T13:53:50Z</time>
      </trkpt>
      <trkpt lat="45.1584" lon="5.22016">
        <ele>352</ele>
        <time>2017-05-07T13:53:56Z</time>
      </trkpt>
      <trkpt lat="45.15831" lon="5.22023">
        <ele>350</ele>
        <time>2017-05-07T13:54:02Z</time>
      </trkpt>
      <trkpt lat="45.15822" lon="5.22034">
        <ele>347</ele>
        <time>2017-05-07T13:54:08Z</time>
      </trkpt>
      <trkpt lat="45.15814" lon="5.22042">
        <ele>346</ele>
        <time>2017-05-07T13:54:12Z</time>
      </trkpt>
      <trkpt lat="45.15806" lon="5.22059">
        <ele>343</ele>
        <time>2017-05-07T13:54:16Z</time>
      </trkpt>
      <trkpt lat="45.15786" lon="5.22116">
        <ele>334</ele>
        <time>2017-05-07T13:54:18Z</time>
      </trkpt>
      <trkpt lat="45.15782" lon="5.22131">
        <ele>333</ele>
        <time>2017-05-07T13:54:28Z</time>
      </trkpt>
      <trkpt lat="45.15775" lon="5.22144">
        <ele>333</ele>
        <time>2017-05-07T13:54:32Z</time>
      </trkpt>
      <trkpt lat="45.15767" lon="5.22152">
        <ele>332</ele>
        <time>2017-05-07T13:54:42Z</time>
      </trkpt>
      <trkpt lat="45.15767" lon="5.22166">
        <ele>332</ele>
        <time>2017-05-07T13:54:59Z</time>
      </trkpt>
      <trkpt lat="45.15758" lon="5.22171">
        <ele>330</ele>
        <time>2017-05-07T13:55:11Z</time>
      </trkpt>
      <trkpt lat="45.15755" lon="5.22184">
        <ele>330</ele>
        <time>2017-05-07T13:55:18Z</time>
      </trkpt>
      <trkpt lat="45.15754" lon="5.222">
        <ele>329</ele>
        <time>2017-05-07T13:55:23Z</time>
      </trkpt>
      <trkpt lat="45.1575" lon="5.22217">
        <ele>334</ele>
        <time>2017-05-07T13:55:27Z</time>
      </trkpt>
      <trkpt lat="45.1575" lon="5.22231">
        <ele>331</ele>
        <time>2017-05-07T13:55:31Z</time>
      </trkpt>
      <trkpt lat="45.15745" lon="5.22243">
        <ele>328</ele>
        <time>2017-05-07T13:55:35Z</time>
      </trkpt>
      <trkpt lat="45.15741" lon="5.22255">
        <ele>326</ele>
        <time>2017-05-07T13:55:44Z</time>
      </trkpt>
      <trkpt lat="45.1574" lon="5.2227">
        <ele>327</ele>
        <time>2017-05-07T13:55:54Z</time>
      </trkpt>
      <trkpt lat="45.15738" lon="5.22283">
        <ele>327</ele>
        <time>2017-05-07T13:56:01Z</time>
      </trkpt>
      <trkpt lat="45.15747" lon="5.22288">
        <ele>326</ele>
        <time>2017-05-07T13:56:19Z</time>
      </trkpt>
      <trkpt lat="45.15755" lon="5.22294">
        <ele>322</ele>
        <time>2017-05-07T13:56:33Z</time>
      </trkpt>
      <trkpt lat="45.15765" lon="5.22294">
        <ele>322</ele>
        <time>2017-05-07T13:56:55Z</time>
      </trkpt>
      <trkpt lat="45.15772" lon="5.22283">
        <ele>323</ele>
        <time>2017-05-07T13:57:18Z</time>
      </trkpt>
      <trkpt lat="45.15782" lon="5.22284">
        <ele>323</ele>
        <time>2017-05-07T13:57:28Z</time>
      </trkpt>
      <trkpt lat="45.15793" lon="5.22286">
        <ele>323</ele>
        <time>2017-05-07T13:57:34Z</time>
      </trkpt>
      <trkpt lat="45.15803" lon="5.22292">
        <ele>323</ele>
        <time>2017-05-07T13:57:38Z</time>
      </trkpt>
      <trkpt lat="45.15812" lon="5.22297">
        <ele>323</ele>
        <time>2017-05-07T13:57:42Z</time>
      </trkpt>
      <trkpt lat="45.15821" lon="5.22307">
        <ele>322</ele>
        <time>2017-05-07T13:57:45Z</time>
      </trkpt>
      <trkpt lat="45.1583" lon="5.22315">
        <ele>321</ele>
        <time>2017-05-07T13:57:48Z</time>
      </trkpt>
      <trkpt lat="45.1584" lon="5.22319">
        <ele>322</ele>
        <time>2017-05-07T13:57:51Z</time>
      </trkpt>
      <trkpt lat="45.15851" lon="5.22329">
        <ele>322</ele>
        <time>2017-05-07T13:57:55Z</time>
      </trkpt>
      <trkpt lat="45.15861" lon="5.22336">
        <ele>322</ele>
        <time>2017-05-07T13:57:57Z</time>
      </trkpt>
      <trkpt lat="45.15891" lon="5.22359">
        <ele>323</ele>
        <time>2017-05-07T13:58:04Z</time>
      </trkpt>
      <trkpt lat="45.15902" lon="5.22356">
        <ele>323</ele>
        <time>2017-05-07T13:58:06Z</time>
      </trkpt>
      <trkpt lat="45.15902" lon="5.22369">
        <ele>323</ele>
        <time>2017-05-07T13:59:06Z</time>
      </trkpt>
      <trkpt lat="45.15911" lon="5.22366">
        <ele>323</ele>
        <time>2017-05-07T13:59:38Z</time>
      </trkpt>
      <trkpt lat="45.1592" lon="5.22366">
        <ele>323</ele>
        <time>2017-05-07T13:59:55Z</time>
      </trkpt>
      <trkpt lat="45.15928" lon="5.22374">
        <ele>323</ele>
        <time>2017-05-07T14:00:08Z</time>
      </trkpt>
      <trkpt lat="45.15936" lon="5.22381">
        <ele>324</ele>
        <time>2017-05-07T14:00:18Z</time>
      </trkpt>
      <trkpt lat="45.15937" lon="5.22395">
        <ele>324</ele>
        <time>2017-05-07T14:00:34Z</time>
      </trkpt>
      <trkpt lat="45.15947" lon="5.22395">
        <ele>324</ele>
        <time>2017-05-07T14:00:53Z</time>
      </trkpt>
      <trkpt lat="45.15957" lon="5.22395">
        <ele>324</ele>
        <time>2017-05-07T14:01:10Z</time>
      </trkpt>
      <trkpt lat="45.15966" lon="5.22396">
        <ele>324</ele>
        <time>2017-05-07T14:01:27Z</time>
      </trkpt>
      <trkpt lat="45.15974" lon="5.22389">
        <ele>324</ele>
        <time>2017-05-07T14:01:35Z</time>
      </trkpt>
      <trkpt lat="45.15984" lon="5.22388">
        <ele>324</ele>
        <time>2017-05-07T14:01:45Z</time>
      </trkpt>
      <trkpt lat="45.15993" lon="5.22392">
        <ele>323</ele>
        <time>2017-05-07T14:01:56Z</time>
      </trkpt>
      <trkpt lat="45.16002" lon="5.22397">
        <ele>323</ele>
        <time>2017-05-07T14:02:13Z</time>
      </trkpt>
      <trkpt lat="45.16012" lon="5.22399">
        <ele>324</ele>
        <time>2017-05-07T14:02:20Z</time>
      </trkpt>
      <trkpt lat="45.16023" lon="5.22399">
        <ele>324</ele>
        <time>2017-05-07T14:02:28Z</time>
      </trkpt>
      <trkpt lat="45.16033" lon="5.22399">
        <ele>324</ele>
        <time>2017-05-07T14:02:35Z</time>
      </trkpt>
      <trkpt lat="45.16044" lon="5.22404">
        <ele>324</ele>
        <time>2017-05-07T14:02:43Z</time>
      </trkpt>
      <trkpt lat="45.16046" lon="5.22416">
        <ele>324</ele>
        <time>2017-05-07T14:02:57Z</time>
      </trkpt>
      <trkpt lat="45.16042" lon="5.22431">
        <ele>329</ele>
        <time>2017-05-07T14:03:03Z</time>
      </trkpt>
      <trkpt lat="45.16034" lon="5.2244">
        <ele>329</ele>
        <time>2017-05-07T14:03:13Z</time>
      </trkpt>
      <trkpt lat="45.16025" lon="5.22441">
        <ele>329</ele>
        <time>2017-05-07T14:03:20Z</time>
      </trkpt>
      <trkpt lat="45.16014" lon="5.22445">
        <ele>329</ele>
        <time>2017-05-07T14:03:32Z</time>
      </trkpt>
      <trkpt lat="45.16005" lon="5.22445">
        <ele>329</ele>
        <time>2017-05-07T14:03:46Z</time>
      </trkpt>
      <trkpt lat="45.15997" lon="5.22451">
        <ele>331</ele>
        <time>2017-05-07T14:04:00Z</time>
      </trkpt>
      <trkpt lat="45.15992" lon="5.22463">
        <ele>333</ele>
        <time>2017-05-07T14:05:32Z</time>
      </trkpt>
      <trkpt lat="45.15999" lon="5.22472">
        <ele>334</ele>
        <time>2017-05-07T14:05:55Z</time>
      </trkpt>
      <trkpt lat="45.16008" lon="5.2248">
        <ele>334</ele>
        <time>2017-05-07T14:06:06Z</time>
      </trkpt>
      <trkpt lat="45.16011" lon="5.22495">
        <ele>337</ele>
        <time>2017-05-07T14:06:13Z</time>
      </trkpt>
      <trkpt lat="45.16009" lon="5.22509">
        <ele>339</ele>
        <time>2017-05-07T14:06:19Z</time>
      </trkpt>
      <trkpt lat="45.16005" lon="5.22522">
        <ele>339</ele>
        <time>2017-05-07T14:06:27Z</time>
      </trkpt>
      <trkpt lat="45.16" lon="5.22537">
        <ele>338</ele>
        <time>2017-05-07T14:06:34Z</time>
      </trkpt>
      <trkpt lat="45.15996" lon="5.22549">
        <ele>338</ele>
        <time>2017-05-07T14:06:38Z</time>
      </trkpt>
      <trkpt lat="45.15997" lon="5.22565">
        <ele>338</ele>
        <time>2017-05-07T14:06:41Z</time>
      </trkpt>
      <trkpt lat="45.15999" lon="5.22581">
        <ele>337</ele>
        <time>2017-05-07T14:06:43Z</time>
      </trkpt>
      <trkpt lat="45.15999" lon="5.22599">
        <ele>335</ele>
        <time>2017-05-07T14:06:45Z</time>
      </trkpt>
      <trkpt lat="45.16" lon="5.22617">
        <ele>334</ele>
        <time>2017-05-07T14:06:47Z</time>
      </trkpt>
      <trkpt lat="45.16" lon="5.22638">
        <ele>334</ele>
        <time>2017-05-07T14:06:49Z</time>
      </trkpt>
      <trkpt lat="45.16001" lon="5.22661">
        <ele>332</ele>
        <time>2017-05-07T14:06:51Z</time>
      </trkpt>
      <trkpt lat="45.16001" lon="5.22685">
        <ele>331</ele>
        <time>2017-05-07T14:06:53Z</time>
      </trkpt>
      <trkpt lat="45.15999" lon="5.2271">
        <ele>328</ele>
        <time>2017-05-07T14:06:55Z</time>
      </trkpt>
      <trkpt lat="45.15996" lon="5.22723">
        <ele>328</ele>
        <time>2017-05-07T14:06:56Z</time>
      </trkpt>
      <trkpt lat="45.15992" lon="5.22746">
        <ele>327</ele>
        <time>2017-05-07T14:06:58Z</time>
      </trkpt>
      <trkpt lat="45.15987" lon="5.22769">
        <ele>325</ele>
        <time>2017-05-07T14:07:00Z</time>
      </trkpt>
      <trkpt lat="45.15983" lon="5.22791">
        <ele>325</ele>
        <time>2017-05-07T14:07:02Z</time>
      </trkpt>
      <trkpt lat="45.15979" lon="5.22809">
        <ele>325</ele>
        <time>2017-05-07T14:07:04Z</time>
      </trkpt>
      <trkpt lat="45.15977" lon="5.22827">
        <ele>324</ele>
        <time>2017-05-07T14:07:06Z</time>
      </trkpt>
      <trkpt lat="45.15974" lon="5.22844">
        <ele>325</ele>
        <time>2017-05-07T14:07:08Z</time>
      </trkpt>
      <trkpt lat="45.15972" lon="5.22858">
        <ele>325</ele>
        <time>2017-05-07T14:07:10Z</time>
      </trkpt>
      <trkpt lat="45.15969" lon="5.22873">
        <ele>325</ele>
        <time>2017-05-07T14:07:12Z</time>
      </trkpt>
      <trkpt lat="45.15965" lon="5.22888">
        <ele>326</ele>
        <time>2017-05-07T14:07:15Z</time>
      </trkpt>
      <trkpt lat="45.1596" lon="5.22901">
        <ele>326</ele>
        <time>2017-05-07T14:07:18Z</time>
      </trkpt>
      <trkpt lat="45.15954" lon="5.22914">
        <ele>326</ele>
        <time>2017-05-07T14:07:22Z</time>
      </trkpt>
      <trkpt lat="45.1595" lon="5.22926">
        <ele>328</ele>
        <time>2017-05-07T14:07:28Z</time>
      </trkpt>
      <trkpt lat="45.15944" lon="5.22937">
        <ele>328</ele>
        <time>2017-05-07T14:07:34Z</time>
      </trkpt>
      <trkpt lat="45.15937" lon="5.22951">
        <ele>328</ele>
        <time>2017-05-07T14:07:40Z</time>
      </trkpt>
      <trkpt lat="45.15932" lon="5.22963">
        <ele>328</ele>
        <time>2017-05-07T14:07:45Z</time>
      </trkpt>
      <trkpt lat="45.15927" lon="5.22975">
        <ele>329</ele>
        <time>2017-05-07T14:07:49Z</time>
      </trkpt>
      <trkpt lat="45.15922" lon="5.22987">
        <ele>329</ele>
        <time>2017-05-07T14:07:53Z</time>
      </trkpt>
      <trkpt lat="45.15915" lon="5.22999">
        <ele>329</ele>
        <time>2017-05-07T14:07:57Z</time>
      </trkpt>
      <trkpt lat="45.15908" lon="5.23011">
        <ele>329</ele>
        <time>2017-05-07T14:08:01Z</time>
      </trkpt>
      <trkpt lat="45.15896" lon="5.23032">
        <ele>330</ele>
        <time>2017-05-07T14:08:08Z</time>
      </trkpt>
      <trkpt lat="45.15897" lon="5.23047">
        <ele>330</ele>
        <time>2017-05-07T14:08:13Z</time>
      </trkpt>
      <trkpt lat="45.15906" lon="5.23053">
        <ele>330</ele>
        <time>2017-05-07T14:08:18Z</time>
      </trkpt>
      <trkpt lat="45.15916" lon="5.23058">
        <ele>331</ele>
        <time>2017-05-07T14:08:23Z</time>
      </trkpt>
      <trkpt lat="45.15925" lon="5.23064">
        <ele>332</ele>
        <time>2017-05-07T14:08:28Z</time>
      </trkpt>
      <trkpt lat="45.15935" lon="5.23069">
        <ele>332</ele>
        <time>2017-05-07T14:08:33Z</time>
      </trkpt>
      <trkpt lat="45.15945" lon="5.23074">
        <ele>332</ele>
        <time>2017-05-07T14:08:38Z</time>
      </trkpt>
      <trkpt lat="45.15954" lon="5.23077">
        <ele>332</ele>
        <time>2017-05-07T14:08:43Z</time>
      </trkpt>
      <trkpt lat="45.15963" lon="5.23081">
        <ele>333</ele>
        <time>2017-05-07T14:08:48Z</time>
      </trkpt>
      <trkpt lat="45.15973" lon="5.23085">
        <ele>335</ele>
        <time>2017-05-07T14:08:53Z</time>
      </trkpt>
      <trkpt lat="45.15982" lon="5.23089">
        <ele>335</ele>
        <time>2017-05-07T14:08:58Z</time>
      </trkpt>
      <trkpt lat="45.15992" lon="5.23094">
        <ele>335</ele>
        <time>2017-05-07T14:09:03Z</time>
      </trkpt>
      <trkpt lat="45.16" lon="5.23098">
        <ele>337</ele>
        <time>2017-05-07T14:09:08Z</time>
      </trkpt>
      <trkpt lat="45.16011" lon="5.23103">
        <ele>338</ele>
        <time>2017-05-07T14:09:13Z</time>
      </trkpt>
      <trkpt lat="45.16021" lon="5.23106">
        <ele>339</ele>
        <time>2017-05-07T14:09:19Z</time>
      </trkpt>
      <trkpt lat="45.16031" lon="5.2311">
        <ele>339</ele>
        <time>2017-05-07T14:09:24Z</time>
      </trkpt>
      <trkpt lat="45.16042" lon="5.23112">
        <ele>340</ele>
        <time>2017-05-07T14:09:30Z</time>
      </trkpt>
      <trkpt lat="45.16053" lon="5.23115">
        <ele>340</ele>
        <time>2017-05-07T14:09:36Z</time>
      </trkpt>
      <trkpt lat="45.16061" lon="5.23119">
        <ele>341</ele>
        <time>2017-05-07T14:09:41Z</time>
      </trkpt>
      <trkpt lat="45.16072" lon="5.2312">
        <ele>341</ele>
        <time>2017-05-07T14:09:47Z</time>
      </trkpt>
      <trkpt lat="45.16082" lon="5.23124">
        <ele>341</ele>
        <time>2017-05-07T14:09:53Z</time>
      </trkpt>
      <trkpt lat="45.16093" lon="5.23126">
        <ele>345</ele>
        <time>2017-05-07T14:09:59Z</time>
      </trkpt>
      <trkpt lat="45.16101" lon="5.2313">
        <ele>345</ele>
        <time>2017-05-07T14:10:05Z</time>
      </trkpt>
      <trkpt lat="45.16111" lon="5.23133">
        <ele>345</ele>
        <time>2017-05-07T14:10:11Z</time>
      </trkpt>
      <trkpt lat="45.16121" lon="5.23131">
        <ele>345</ele>
        <time>2017-05-07T14:10:16Z</time>
      </trkpt>
      <trkpt lat="45.16131" lon="5.23129">
        <ele>346</ele>
        <time>2017-05-07T14:10:22Z</time>
      </trkpt>
      <trkpt lat="45.16143" lon="5.23129">
        <ele>346</ele>
        <time>2017-05-07T14:10:27Z</time>
      </trkpt>
      <trkpt lat="45.16154" lon="5.23128">
        <ele>346</ele>
        <time>2017-05-07T14:10:32Z</time>
      </trkpt>
      <trkpt lat="45.16164" lon="5.23125">
        <ele>346</ele>
        <time>2017-05-07T14:10:36Z</time>
      </trkpt>
      <trkpt lat="45.16175" lon="5.23122">
        <ele>349</ele>
        <time>2017-05-07T14:10:41Z</time>
      </trkpt>
      <trkpt lat="45.16185" lon="5.23119">
        <ele>349</ele>
        <time>2017-05-07T14:10:46Z</time>
      </trkpt>
      <trkpt lat="45.16194" lon="5.23113">
        <ele>350</ele>
        <time>2017-05-07T14:10:52Z</time>
      </trkpt>
      <trkpt lat="45.16203" lon="5.23106">
        <ele>350</ele>
        <time>2017-05-07T14:10:57Z</time>
      </trkpt>
      <trkpt lat="45.16211" lon="5.23099">
        <ele>350</ele>
        <time>2017-05-07T14:11:02Z</time>
      </trkpt>
      <trkpt lat="45.16219" lon="5.23091">
        <ele>350</ele>
        <time>2017-05-07T14:11:07Z</time>
      </trkpt>
      <trkpt lat="45.16229" lon="5.23086">
        <ele>351</ele>
        <time>2017-05-07T14:11:12Z</time>
      </trkpt>
      <trkpt lat="45.16239" lon="5.23087">
        <ele>351</ele>
        <time>2017-05-07T14:11:18Z</time>
      </trkpt>
      <trkpt lat="45.16248" lon="5.23087">
        <ele>352</ele>
        <time>2017-05-07T14:11:23Z</time>
      </trkpt>
      <trkpt lat="45.16259" lon="5.23084">
        <ele>352</ele>
        <time>2017-05-07T14:11:28Z</time>
      </trkpt>
      <trkpt lat="45.16269" lon="5.23081">
        <ele>353</ele>
        <time>2017-05-07T14:11:33Z</time>
      </trkpt>
      <trkpt lat="45.16279" lon="5.23077">
        <ele>354</ele>
        <time>2017-05-07T14:11:38Z</time>
      </trkpt>
      <trkpt lat="45.1629" lon="5.23072">
        <ele>354</ele>
        <time>2017-05-07T14:11:44Z</time>
      </trkpt>
      <trkpt lat="45.163" lon="5.23069">
        <ele>354</ele>
        <time>2017-05-07T14:11:49Z</time>
      </trkpt>
      <trkpt lat="45.16309" lon="5.23066">
        <ele>354</ele>
        <time>2017-05-07T14:11:54Z</time>
      </trkpt>
      <trkpt lat="45.16319" lon="5.23061">
        <ele>354</ele>
        <time>2017-05-07T14:12:00Z</time>
      </trkpt>
      <trkpt lat="45.1633" lon="5.23056">
        <ele>354</ele>
        <time>2017-05-07T14:12:04Z</time>
      </trkpt>
      <trkpt lat="45.16339" lon="5.23051">
        <ele>356</ele>
        <time>2017-05-07T14:12:08Z</time>
      </trkpt>
      <trkpt lat="45.16347" lon="5.23048">
        <ele>356</ele>
        <time>2017-05-07T14:12:12Z</time>
      </trkpt>
      <trkpt lat="45.16358" lon="5.23044">
        <ele>357</ele>
        <time>2017-05-07T14:12:17Z</time>
      </trkpt>
      <trkpt lat="45.16368" lon="5.23041">
        <ele>357</ele>
        <time>2017-05-07T14:12:22Z</time>
      </trkpt>
      <trkpt lat="45.16377" lon="5.23037">
        <ele>357</ele>
        <time>2017-05-07T14:12:27Z</time>
      </trkpt>
      <trkpt lat="45.16387" lon="5.23032">
        <ele>357</ele>
        <time>2017-05-07T14:12:32Z</time>
      </trkpt>
      <trkpt lat="45.16396" lon="5.2303">
        <ele>357</ele>
        <time>2017-05-07T14:12:37Z</time>
      </trkpt>
      <trkpt lat="45.16406" lon="5.23027">
        <ele>358</ele>
        <time>2017-05-07T14:12:41Z</time>
      </trkpt>
      <trkpt lat="45.16415" lon="5.23025">
        <ele>358</ele>
        <time>2017-05-07T14:12:45Z</time>
      </trkpt>
      <trkpt lat="45.16426" lon="5.23023">
        <ele>360</ele>
        <time>2017-05-07T14:12:50Z</time>
      </trkpt>
      <trkpt lat="45.16437" lon="5.23021">
        <ele>360</ele>
        <time>2017-05-07T14:12:55Z</time>
      </trkpt>
      <trkpt lat="45.16447" lon="5.23021">
        <ele>360</ele>
        <time>2017-05-07T14:13:00Z</time>
      </trkpt>
      <trkpt lat="45.16458" lon="5.2302">
        <ele>361</ele>
        <time>2017-05-07T14:13:05Z</time>
      </trkpt>
      <trkpt lat="45.16469" lon="5.23018">
        <ele>361</ele>
        <time>2017-05-07T14:13:10Z</time>
      </trkpt>
      <trkpt lat="45.1648" lon="5.23018">
        <ele>361</ele>
        <time>2017-05-07T14:13:15Z</time>
      </trkpt>
      <trkpt lat="45.16489" lon="5.23016">
        <ele>362</ele>
        <time>2017-05-07T14:13:20Z</time>
      </trkpt>
      <trkpt lat="45.16499" lon="5.23015">
        <ele>362</ele>
        <time>2017-05-07T14:13:24Z</time>
      </trkpt>
      <trkpt lat="45.1651" lon="5.23016">
        <ele>363</ele>
        <time>2017-05-07T14:13:28Z</time>
      </trkpt>
      <trkpt lat="45.1652" lon="5.23014">
        <ele>363</ele>
        <time>2017-05-07T14:13:32Z</time>
      </trkpt>
      <trkpt lat="45.1653" lon="5.23014">
        <ele>363</ele>
        <time>2017-05-07T14:13:36Z</time>
      </trkpt>
      <trkpt lat="45.16539" lon="5.23014">
        <ele>364</ele>
        <time>2017-05-07T14:13:40Z</time>
      </trkpt>
      <trkpt lat="45.16551" lon="5.23013">
        <ele>364</ele>
        <time>2017-05-07T14:13:45Z</time>
      </trkpt>
      <trkpt lat="45.16561" lon="5.23012">
        <ele>364</ele>
        <time>2017-05-07T14:13:49Z</time>
      </trkpt>
      <trkpt lat="45.16571" lon="5.2301">
        <ele>363</ele>
        <time>2017-05-07T14:13:54Z</time>
      </trkpt>
      <trkpt lat="45.16581" lon="5.23008">
        <ele>363</ele>
        <time>2017-05-07T14:13:58Z</time>
      </trkpt>
      <trkpt lat="45.16591" lon="5.23006">
        <ele>364</ele>
        <time>2017-05-07T14:14:02Z</time>
      </trkpt>
      <trkpt lat="45.16602" lon="5.23004">
        <ele>365</ele>
        <time>2017-05-07T14:14:06Z</time>
      </trkpt>
      <trkpt lat="45.16611" lon="5.23003">
        <ele>366</ele>
        <time>2017-05-07T14:14:10Z</time>
      </trkpt>
      <trkpt lat="45.16621" lon="5.23002">
        <ele>366</ele>
        <time>2017-05-07T14:14:14Z</time>
      </trkpt>
      <trkpt lat="45.16631" lon="5.22999">
        <ele>364</ele>
        <time>2017-05-07T14:14:18Z</time>
      </trkpt>
      <trkpt lat="45.16641" lon="5.22996">
        <ele>364</ele>
        <time>2017-05-07T14:14:23Z</time>
      </trkpt>
      <trkpt lat="45.16652" lon="5.22991">
        <ele>365</ele>
        <time>2017-05-07T14:14:27Z</time>
      </trkpt>
      <trkpt lat="45.16663" lon="5.22988">
        <ele>365</ele>
        <time>2017-05-07T14:14:32Z</time>
      </trkpt>
      <trkpt lat="45.16673" lon="5.22988">
        <ele>367</ele>
        <time>2017-05-07T14:14:37Z</time>
      </trkpt>
      <trkpt lat="45.16683" lon="5.22985">
        <ele>367</ele>
        <time>2017-05-07T14:14:41Z</time>
      </trkpt>
      <trkpt lat="45.16693" lon="5.22984">
        <ele>367</ele>
        <time>2017-05-07T14:14:47Z</time>
      </trkpt>
      <trkpt lat="45.16704" lon="5.22982">
        <ele>367</ele>
        <time>2017-05-07T14:14:53Z</time>
      </trkpt>
      <trkpt lat="45.16713" lon="5.22981">
        <ele>368</ele>
        <time>2017-05-07T14:14:58Z</time>
      </trkpt>
      <trkpt lat="45.16724" lon="5.2298">
        <ele>368</ele>
        <time>2017-05-07T14:15:04Z</time>
      </trkpt>
      <trkpt lat="45.16735" lon="5.22978">
        <ele>368</ele>
        <time>2017-05-07T14:15:10Z</time>
      </trkpt>
      <trkpt lat="45.16745" lon="5.22977">
        <ele>368</ele>
        <time>2017-05-07T14:15:14Z</time>
      </trkpt>
      <trkpt lat="45.16754" lon="5.22975">
        <ele>369</ele>
        <time>2017-05-07T14:15:18Z</time>
      </trkpt>
      <trkpt lat="45.16764" lon="5.22974">
        <ele>369</ele>
        <time>2017-05-07T14:15:22Z</time>
      </trkpt>
      <trkpt lat="45.16774" lon="5.22973">
        <ele>369</ele>
        <time>2017-05-07T14:15:26Z</time>
      </trkpt>
      <trkpt lat="45.16787" lon="5.22973">
        <ele>369</ele>
        <time>2017-05-07T14:15:30Z</time>
      </trkpt>
      <trkpt lat="45.16799" lon="5.22973">
        <ele>369</ele>
        <time>2017-05-07T14:15:34Z</time>
      </trkpt>
      <trkpt lat="45.16811" lon="5.22973">
        <ele>369</ele>
        <time>2017-05-07T14:15:38Z</time>
      </trkpt>
      <trkpt lat="45.16821" lon="5.22972">
        <ele>369</ele>
        <time>2017-05-07T14:15:42Z</time>
      </trkpt>
      <trkpt lat="45.16831" lon="5.22974">
        <ele>369</ele>
        <time>2017-05-07T14:15:46Z</time>
      </trkpt>
      <trkpt lat="45.16844" lon="5.22976">
        <ele>369</ele>
        <time>2017-05-07T14:15:50Z</time>
      </trkpt>
      <trkpt lat="45.16854" lon="5.22977">
        <ele>369</ele>
        <time>2017-05-07T14:15:53Z</time>
      </trkpt>
      <trkpt lat="45.16865" lon="5.22979">
        <ele>369</ele>
        <time>2017-05-07T14:15:57Z</time>
      </trkpt>
      <trkpt lat="45.16877" lon="5.22978">
        <ele>369</ele>
        <time>2017-05-07T14:16:00Z</time>
      </trkpt>
      <trkpt lat="45.16886" lon="5.22978">
        <ele>369</ele>
        <time>2017-05-07T14:16:03Z</time>
      </trkpt>
      <trkpt lat="45.16898" lon="5.22978">
        <ele>369</ele>
        <time>2017-05-07T14:16:07Z</time>
      </trkpt>
      <trkpt lat="45.1691" lon="5.22979">
        <ele>369</ele>
        <time>2017-05-07T14:16:11Z</time>
      </trkpt>
      <trkpt lat="45.16921" lon="5.22979">
        <ele>369</ele>
        <time>2017-05-07T14:16:15Z</time>
      </trkpt>
      <trkpt lat="45.16932" lon="5.22978">
        <ele>370</ele>
        <time>2017-05-07T14:16:19Z</time>
      </trkpt>
      <trkpt lat="45.16942" lon="5.22978">
        <ele>370</ele>
        <time>2017-05-07T14:16:22Z</time>
      </trkpt>
      <trkpt lat="45.16952" lon="5.22979">
        <ele>370</ele>
        <time>2017-05-07T14:16:27Z</time>
      </trkpt>
      <trkpt lat="45.1695" lon="5.22993">
        <ele>370</ele>
        <time>2017-05-07T14:16:32Z</time>
      </trkpt>
      <trkpt lat="45.16951" lon="5.23006">
        <ele>372</ele>
        <time>2017-05-07T14:16:36Z</time>
      </trkpt>
      <trkpt lat="45.16961" lon="5.23008">
        <ele>373</ele>
        <time>2017-05-07T14:16:41Z</time>
      </trkpt>
      <trkpt lat="45.16971" lon="5.23008">
        <ele>373</ele>
        <time>2017-05-07T14:16:45Z</time>
      </trkpt>
      <trkpt lat="45.16983" lon="5.23006">
        <ele>373</ele>
        <time>2017-05-07T14:16:50Z</time>
      </trkpt>
      <trkpt lat="45.16993" lon="5.23005">
        <ele>374</ele>
        <time>2017-05-07T14:16:55Z</time>
      </trkpt>
      <trkpt lat="45.17003" lon="5.23003">
        <ele>374</ele>
        <time>2017-05-07T14:16:59Z</time>
      </trkpt>
      <trkpt lat="45.17013" lon="5.23">
        <ele>375</ele>
        <time>2017-05-07T14:17:03Z</time>
      </trkpt>
      <trkpt lat="45.17023" lon="5.22997">
        <ele>374</ele>
        <time>2017-05-07T14:17:07Z</time>
      </trkpt>
      <trkpt lat="45.17033" lon="5.22993">
        <ele>374</ele>
        <time>2017-05-07T14:17:11Z</time>
      </trkpt>
      <trkpt lat="45.17044" lon="5.22987">
        <ele>374</ele>
        <time>2017-05-07T14:17:15Z</time>
      </trkpt>
      <trkpt lat="45.17055" lon="5.22985">
        <ele>374</ele>
        <time>2017-05-07T14:17:19Z</time>
      </trkpt>
      <trkpt lat="45.17065" lon="5.22982">
        <ele>374</ele>
        <time>2017-05-07T14:17:24Z</time>
      </trkpt>
      <trkpt lat="45.17075" lon="5.22978">
        <ele>374</ele>
        <time>2017-05-07T14:17:28Z</time>
      </trkpt>
      <trkpt lat="45.17086" lon="5.22974">
        <ele>376</ele>
        <time>2017-05-07T14:17:33Z</time>
      </trkpt>
      <trkpt lat="45.17096" lon="5.22971">
        <ele>377</ele>
        <time>2017-05-07T14:17:37Z</time>
      </trkpt>
      <trkpt lat="45.17106" lon="5.2297">
        <ele>377</ele>
        <time>2017-05-07T14:17:41Z</time>
      </trkpt>
      <trkpt lat="45.17115" lon="5.22967">
        <ele>377</ele>
        <time>2017-05-07T14:17:45Z</time>
      </trkpt>
      <trkpt lat="45.17125" lon="5.22963">
        <ele>377</ele>
        <time>2017-05-07T14:17:49Z</time>
      </trkpt>
      <trkpt lat="45.17135" lon="5.2296">
        <ele>378</ele>
        <time>2017-05-07T14:17:53Z</time>
      </trkpt>
      <trkpt lat="45.17145" lon="5.22957">
        <ele>378</ele>
        <time>2017-05-07T14:17:58Z</time>
      </trkpt>
      <trkpt lat="45.17155" lon="5.22953">
        <ele>378</ele>
        <time>2017-05-07T14:18:05Z</time>
      </trkpt>
      <trkpt lat="45.1717" lon="5.2295">
        <ele>382</ele>
        <time>2017-05-07T14:18:11Z</time>
      </trkpt>
      <trkpt lat="45.17181" lon="5.22948">
        <ele>382</ele>
        <time>2017-05-07T14:18:16Z</time>
      </trkpt>
      <trkpt lat="45.17191" lon="5.22944">
        <ele>382</ele>
        <time>2017-05-07T14:18:20Z</time>
      </trkpt>
      <trkpt lat="45.172" lon="5.22943">
        <ele>382</ele>
        <time>2017-05-07T14:18:24Z</time>
      </trkpt>
      <trkpt lat="45.1721" lon="5.22941">
        <ele>382</ele>
        <time>2017-05-07T14:18:29Z</time>
      </trkpt>
      <trkpt lat="45.17221" lon="5.22938">
        <ele>383</ele>
        <time>2017-05-07T14:18:35Z</time>
      </trkpt>
      <trkpt lat="45.17233" lon="5.22937">
        <ele>383</ele>
        <time>2017-05-07T14:18:40Z</time>
      </trkpt>
      <trkpt lat="45.17243" lon="5.22939">
        <ele>383</ele>
        <time>2017-05-07T14:18:45Z</time>
      </trkpt>
      <trkpt lat="45.17253" lon="5.2294">
        <ele>386</ele>
        <time>2017-05-07T14:18:49Z</time>
      </trkpt>
      <trkpt lat="45.17262" lon="5.22942">
        <ele>387</ele>
        <time>2017-05-07T14:18:53Z</time>
      </trkpt>
      <trkpt lat="45.17273" lon="5.2294">
        <ele>387</ele>
        <time>2017-05-07T14:18:57Z</time>
      </trkpt>
      <trkpt lat="45.17282" lon="5.22939">
        <ele>387</ele>
        <time>2017-05-07T14:19:01Z</time>
      </trkpt>
      <trkpt lat="45.17292" lon="5.22936">
        <ele>388</ele>
        <time>2017-05-07T14:19:05Z</time>
      </trkpt>
      <trkpt lat="45.17302" lon="5.22935">
        <ele>388</ele>
        <time>2017-05-07T14:19:09Z</time>
      </trkpt>
      <trkpt lat="45.17313" lon="5.22934">
        <ele>389</ele>
        <time>2017-05-07T14:19:13Z</time>
      </trkpt>
      <trkpt lat="45.17323" lon="5.22933">
        <ele>389</ele>
        <time>2017-05-07T14:19:17Z</time>
      </trkpt>
      <trkpt lat="45.17327" lon="5.22918">
        <ele>389</ele>
        <time>2017-05-07T14:19:23Z</time>
      </trkpt>
      <trkpt lat="45.17323" lon="5.22905">
        <ele>388</ele>
        <time>2017-05-07T14:19:26Z</time>
      </trkpt>
      <trkpt lat="45.17324" lon="5.2289">
        <ele>387</ele>
        <time>2017-05-07T14:19:29Z</time>
      </trkpt>
      <trkpt lat="45.17324" lon="5.22871">
        <ele>386</ele>
        <time>2017-05-07T14:19:32Z</time>
      </trkpt>
      <trkpt lat="45.17326" lon="5.22855">
        <ele>385</ele>
        <time>2017-05-07T14:19:34Z</time>
      </trkpt>
      <trkpt lat="45.17327" lon="5.22838">
        <ele>385</ele>
        <time>2017-05-07T14:19:36Z</time>
      </trkpt>
      <trkpt lat="45.17329" lon="5.2282">
        <ele>382</ele>
        <time>2017-05-07T14:19:38Z</time>
      </trkpt>
      <trkpt lat="45.1733" lon="5.22802">
        <ele>380</ele>
        <time>2017-05-07T14:19:40Z</time>
      </trkpt>
      <trkpt lat="45.17329" lon="5.22785">
        <ele>379</ele>
        <time>2017-05-07T14:19:42Z</time>
      </trkpt>
      <trkpt lat="45.17327" lon="5.22766">
        <ele>378</ele>
        <time>2017-05-07T14:19:44Z</time>
      </trkpt>
      <trkpt lat="45.17328" lon="5.22747">
        <ele>376</ele>
        <time>2017-05-07T14:19:46Z</time>
      </trkpt>
      <trkpt lat="45.17328" lon="5.22732">
        <ele>374</ele>
        <time>2017-05-07T14:19:48Z</time>
      </trkpt>
      <trkpt lat="45.1733" lon="5.22718">
        <ele>374</ele>
        <time>2017-05-07T14:19:50Z</time>
      </trkpt>
      <trkpt lat="45.17334" lon="5.22702">
        <ele>377</ele>
        <time>2017-05-07T14:19:53Z</time>
      </trkpt>
      <trkpt lat="45.17336" lon="5.22688">
        <ele>376</ele>
        <time>2017-05-07T14:19:57Z</time>
      </trkpt>
      <trkpt lat="45.17336" lon="5.22674">
        <ele>375</ele>
        <time>2017-05-07T14:20:01Z</time>
      </trkpt>
      <trkpt lat="45.17335" lon="5.22659">
        <ele>374</ele>
        <time>2017-05-07T14:20:05Z</time>
      </trkpt>
      <trkpt lat="45.17338" lon="5.22643">
        <ele>375</ele>
        <time>2017-05-07T14:20:07Z</time>
      </trkpt>
      <trkpt lat="45.17338" lon="5.22628">
        <ele>375</ele>
        <time>2017-05-07T14:20:09Z</time>
      </trkpt>
      <trkpt lat="45.17337" lon="5.22612">
        <ele>375</ele>
        <time>2017-05-07T14:20:11Z</time>
      </trkpt>
      <trkpt lat="45.17341" lon="5.22597">
        <ele>374</ele>
        <time>2017-05-07T14:20:13Z</time>
      </trkpt>
      <trkpt lat="45.17345" lon="5.22576">
        <ele>374</ele>
        <time>2017-05-07T14:20:15Z</time>
      </trkpt>
      <trkpt lat="45.17346" lon="5.22524">
        <ele>374</ele>
        <time>2017-05-07T14:20:19Z</time>
      </trkpt>
      <trkpt lat="45.17339" lon="5.22506">
        <ele>371</ele>
        <time>2017-05-07T14:20:20Z</time>
      </trkpt>
      <trkpt lat="45.17337" lon="5.22491">
        <ele>371</ele>
        <time>2017-05-07T14:20:21Z</time>
      </trkpt>
      <trkpt lat="45.17334" lon="5.22476">
        <ele>372</ele>
        <time>2017-05-07T14:20:22Z</time>
      </trkpt>
      <trkpt lat="45.17332" lon="5.22462">
        <ele>364</ele>
        <time>2017-05-07T14:20:23Z</time>
      </trkpt>
      <trkpt lat="45.1733" lon="5.22449">
        <ele>363</ele>
        <time>2017-05-07T14:20:24Z</time>
      </trkpt>
      <trkpt lat="45.1733" lon="5.22422">
        <ele>363</ele>
        <time>2017-05-07T14:20:26Z</time>
      </trkpt>
      <trkpt lat="45.17333" lon="5.22403">
        <ele>360</ele>
        <time>2017-05-07T14:20:28Z</time>
      </trkpt>
      <trkpt lat="45.17336" lon="5.22385">
        <ele>366</ele>
        <time>2017-05-07T14:20:30Z</time>
      </trkpt>
      <trkpt lat="45.17336" lon="5.22368">
        <ele>365</ele>
        <time>2017-05-07T14:20:32Z</time>
      </trkpt>
      <trkpt lat="45.17334" lon="5.22352">
        <ele>362</ele>
        <time>2017-05-07T14:20:34Z</time>
      </trkpt>
      <trkpt lat="45.17329" lon="5.22334">
        <ele>355</ele>
        <time>2017-05-07T14:20:36Z</time>
      </trkpt>
      <trkpt lat="45.17325" lon="5.22319">
        <ele>352</ele>
        <time>2017-05-07T14:20:38Z</time>
      </trkpt>
      <trkpt lat="45.1732" lon="5.22307">
        <ele>351</ele>
        <time>2017-05-07T14:20:41Z</time>
      </trkpt>
      <trkpt lat="45.17323" lon="5.22294">
        <ele>351</ele>
        <time>2017-05-07T14:20:46Z</time>
      </trkpt>
      <trkpt lat="45.17333" lon="5.22284">
        <ele>351</ele>
        <time>2017-05-07T14:20:50Z</time>
      </trkpt>
      <trkpt lat="45.17338" lon="5.22271">
        <ele>359</ele>
        <time>2017-05-07T14:20:54Z</time>
      </trkpt>
      <trkpt lat="45.17339" lon="5.22255">
        <ele>356</ele>
        <time>2017-05-07T14:20:58Z</time>
      </trkpt>
      <trkpt lat="45.17338" lon="5.22242">
        <ele>356</ele>
        <time>2017-05-07T14:21:02Z</time>
      </trkpt>
      <trkpt lat="45.17347" lon="5.22235">
        <ele>358</ele>
        <time>2017-05-07T14:21:06Z</time>
      </trkpt>
      <trkpt lat="45.17355" lon="5.22226">
        <ele>360</ele>
        <time>2017-05-07T14:21:10Z</time>
      </trkpt>
      <trkpt lat="45.17359" lon="5.22214">
        <ele>360</ele>
        <time>2017-05-07T14:21:14Z</time>
      </trkpt>
      <trkpt lat="45.1736" lon="5.22201">
        <ele>360</ele>
        <time>2017-05-07T14:21:19Z</time>
      </trkpt>
      <trkpt lat="45.17362" lon="5.22186">
        <ele>360</ele>
        <time>2017-05-07T14:21:23Z</time>
      </trkpt>
      <trkpt lat="45.17365" lon="5.2217">
        <ele>359</ele>
        <time>2017-05-07T14:21:27Z</time>
      </trkpt>
      <trkpt lat="45.17367" lon="5.22156">
        <ele>358</ele>
        <time>2017-05-07T14:21:31Z</time>
      </trkpt>
      <trkpt lat="45.1737" lon="5.22141">
        <ele>359</ele>
        <time>2017-05-07T14:21:35Z</time>
      </trkpt>
      <trkpt lat="45.17375" lon="5.22125">
        <ele>360</ele>
        <time>2017-05-07T14:21:39Z</time>
      </trkpt>
      <trkpt lat="45.17377" lon="5.22113">
        <ele>360</ele>
        <time>2017-05-07T14:21:43Z</time>
      </trkpt>
      <trkpt lat="45.17379" lon="5.22098">
        <ele>360</ele>
        <time>2017-05-07T14:21:47Z</time>
      </trkpt>
      <trkpt lat="45.17383" lon="5.22086">
        <ele>361</ele>
        <time>2017-05-07T14:21:52Z</time>
      </trkpt>
      <trkpt lat="45.1739" lon="5.22074">
        <ele>362</ele>
        <time>2017-05-07T14:21:57Z</time>
      </trkpt>
      <trkpt lat="45.1739" lon="5.2206">
        <ele>362</ele>
        <time>2017-05-07T14:22:03Z</time>
      </trkpt>
      <trkpt lat="45.1739" lon="5.22043">
        <ele>361</ele>
        <time>2017-05-07T14:22:09Z</time>
      </trkpt>
      <trkpt lat="45.1739" lon="5.22029">
        <ele>362</ele>
        <time>2017-05-07T14:22:15Z</time>
      </trkpt>
      <trkpt lat="45.17396" lon="5.22017">
        <ele>363</ele>
        <time>2017-05-07T14:22:20Z</time>
      </trkpt>
      <trkpt lat="45.17403" lon="5.22005">
        <ele>365</ele>
        <time>2017-05-07T14:22:24Z</time>
      </trkpt>
      <trkpt lat="45.17404" lon="5.21991">
        <ele>365</ele>
        <time>2017-05-07T14:22:27Z</time>
      </trkpt>
      <trkpt lat="45.17401" lon="5.21975">
        <ele>364</ele>
        <time>2017-05-07T14:22:31Z</time>
      </trkpt>
      <trkpt lat="45.17395" lon="5.21965">
        <ele>363</ele>
        <time>2017-05-07T14:22:34Z</time>
      </trkpt>
      <trkpt lat="45.17397" lon="5.21949">
        <ele>363</ele>
        <time>2017-05-07T14:22:39Z</time>
      </trkpt>
      <trkpt lat="45.17401" lon="5.21937">
        <ele>364</ele>
        <time>2017-05-07T14:22:43Z</time>
      </trkpt>
      <trkpt lat="45.17407" lon="5.21926">
        <ele>366</ele>
        <time>2017-05-07T14:22:47Z</time>
      </trkpt>
      <trkpt lat="45.17404" lon="5.2191">
        <ele>365</ele>
        <time>2017-05-07T14:22:52Z</time>
      </trkpt>
      <trkpt lat="45.17407" lon="5.21898">
        <ele>364</ele>
        <time>2017-05-07T14:22:57Z</time>
      </trkpt>
      <trkpt lat="45.17405" lon="5.21884">
        <ele>363</ele>
        <time>2017-05-07T14:23:03Z</time>
      </trkpt>
      <trkpt lat="45.17409" lon="5.21872">
        <ele>363</ele>
        <time>2017-05-07T14:23:07Z</time>
      </trkpt>
      <trkpt lat="45.17411" lon="5.21857">
        <ele>364</ele>
        <time>2017-05-07T14:23:12Z</time>
      </trkpt>
      <trkpt lat="45.17413" lon="5.21842">
        <ele>365</ele>
        <time>2017-05-07T14:23:18Z</time>
      </trkpt>
      <trkpt lat="45.17419" lon="5.21831">
        <ele>367</ele>
        <time>2017-05-07T14:23:23Z</time>
      </trkpt>
      <trkpt lat="45.17426" lon="5.21822">
        <ele>368</ele>
        <time>2017-05-07T14:23:28Z</time>
      </trkpt>
      <trkpt lat="45.17426" lon="5.21839">
        <ele>369</ele>
        <time>2017-05-07T14:23:38Z</time>
      </trkpt>
      <trkpt lat="45.17419" lon="5.21851">
        <ele>370</ele>
        <time>2017-05-07T14:23:43Z</time>
      </trkpt>
      <trkpt lat="45.17409" lon="5.21856">
        <ele>364</ele>
        <time>2017-05-07T14:23:48Z</time>
      </trkpt>
      <trkpt lat="45.17398" lon="5.2185">
        <ele>363</ele>
        <time>2017-05-07T14:23:51Z</time>
      </trkpt>
      <trkpt lat="45.17388" lon="5.21845">
        <ele>362</ele>
        <time>2017-05-07T14:23:53Z</time>
      </trkpt>
      <trkpt lat="45.17379" lon="5.21839">
        <ele>361</ele>
        <time>2017-05-07T14:23:55Z</time>
      </trkpt>
      <trkpt lat="45.17369" lon="5.21832">
        <ele>359</ele>
        <time>2017-05-07T14:23:58Z</time>
      </trkpt>
      <trkpt lat="45.1736" lon="5.21824">
        <ele>358</ele>
        <time>2017-05-07T14:24:01Z</time>
      </trkpt>
      <trkpt lat="45.17348" lon="5.21816">
        <ele>357</ele>
        <time>2017-05-07T14:24:04Z</time>
      </trkpt>
      <trkpt lat="45.17339" lon="5.2181">
        <ele>357</ele>
        <time>2017-05-07T14:24:07Z</time>
      </trkpt>
      <trkpt lat="45.17333" lon="5.218">
        <ele>353</ele>
        <time>2017-05-07T14:24:10Z</time>
      </trkpt>
      <trkpt lat="45.17326" lon="5.21791">
        <ele>353</ele>
        <time>2017-05-07T14:24:13Z</time>
      </trkpt>
      <trkpt lat="45.17315" lon="5.21789">
        <ele>352</ele>
        <time>2017-05-07T14:24:18Z</time>
      </trkpt>
      <trkpt lat="45.17304" lon="5.21793">
        <ele>352</ele>
        <time>2017-05-07T14:24:23Z</time>
      </trkpt>
      <trkpt lat="45.17301" lon="5.21806">
        <ele>352</ele>
        <time>2017-05-07T14:24:26Z</time>
      </trkpt>
      <trkpt lat="45.17306" lon="5.2182">
        <ele>352</ele>
        <time>2017-05-07T14:24:31Z</time>
      </trkpt>
      <trkpt lat="45.17303" lon="5.21832">
        <ele>352</ele>
        <time>2017-05-07T14:24:37Z</time>
      </trkpt>
      <trkpt lat="45.17296" lon="5.21822">
        <ele>352</ele>
        <time>2017-05-07T14:25:02Z</time>
      </trkpt>
      <trkpt lat="45.17304" lon="5.21813">
        <ele>352</ele>
        <time>2017-05-07T14:25:30Z</time>
      </trkpt>
      <trkpt lat="45.17303" lon="5.21827">
        <ele>352</ele>
        <time>2017-05-07T14:25:45Z</time>
      </trkpt>
      <trkpt lat="45.17296" lon="5.21837">
        <ele>352</ele>
        <time>2017-05-07T14:26:20Z</time>
      </trkpt>
      <trkpt lat="45.17304" lon="5.2184">
        <ele>352</ele>
        <time>2017-05-07T14:26:45Z</time>
      </trkpt>
      <trkpt lat="45.17295" lon="5.21843">
        <ele>352</ele>
        <time>2017-05-07T14:28:42Z</time>
      </trkpt>
    </trkseg>
  </trk>
</gpx>